<?xml version='1.0' encoding='UTF-8'?><gpx version="1.1" creator="JPX - https://github.com/jenetics/jpx" xmlns="http://www.topografix.com/GPX/1/1"><trk><trkseg><trkpt lat="43.1883522" lon="10.5404545"><ele>12.166666666666666</ele><time>2026-04-04T11:51:36.428Z</time></trkpt><trkpt lat="43.1883089" lon="10.5403466"><ele>12.333333333333332</ele><time>2026-04-04T11:51:52.488Z</time></trkpt><trkpt lat="43.188258" lon="10.540276"><ele>12.5</ele><time>2026-04-04T11:51:58.422Z</time></trkpt><trkpt lat="43.1882005" lon="10.5403164"><ele>12.666666666666666</ele><time>2026-04-04T11:53:43.731Z</time></trkpt><trkpt lat="43.1881596" lon="10.5404004"><ele>12.833333333333332</ele><time>2026-04-04T11:53:46.739Z</time></trkpt><trkpt lat="43.1881111" lon="10.5405037"><ele>13.0</ele><time>2026-04-04T11:53:49.736Z</time></trkpt><trkpt lat="43.1881374" lon="10.540611"><ele>12.833333333333332</ele><time>2026-04-04T11:53:51.73Z</time></trkpt><trkpt lat="43.188194" lon="10.5407188"><ele>12.666666666666666</ele><time>2026-04-04T11:53:53.726Z</time></trkpt><trkpt lat="43.1882314" lon="10.540827"><ele>12.5</ele><time>2026-04-04T11:53:55.723Z</time></trkpt><trkpt lat="43.1882471" lon="10.5409442"><ele>12.333333333333332</ele><time>2026-04-04T11:53:57.72Z</time></trkpt><trkpt lat="43.18824" lon="10.5410513"><ele>12.166666666666666</ele><time>2026-04-04T11:53:59.726Z</time></trkpt><trkpt lat="43.1882006" lon="10.5411352"><ele>12.0</ele><time>2026-04-04T11:54:01.761Z</time></trkpt><trkpt lat="43.1881614" lon="10.5412337"><ele>12.333333333333334</ele><time>2026-04-04T11:54:03.725Z</time></trkpt><trkpt lat="43.1881189" lon="10.5413149"><ele>12.666666666666668</ele><time>2026-04-04T11:54:05.726Z</time></trkpt><trkpt lat="43.18806" lon="10.5413974"><ele>13.0</ele><time>2026-04-04T11:54:07.728Z</time></trkpt><trkpt lat="43.1879943" lon="10.5414608"><ele>13.333333333333334</ele><time>2026-04-04T11:54:09.727Z</time></trkpt><trkpt lat="43.1879232" lon="10.5414869"><ele>13.666666666666668</ele><time>2026-04-04T11:54:11.727Z</time></trkpt><trkpt lat="43.187838" lon="10.5414757"><ele>14.0</ele><time>2026-04-04T11:54:13.729Z</time></trkpt><trkpt lat="43.1877632" lon="10.5414624"><ele>14.000000000000002</ele><time>2026-04-04T11:54:15.723Z</time></trkpt><trkpt lat="43.1876863" lon="10.5414083"><ele>14.0</ele><time>2026-04-04T11:54:17.723Z</time></trkpt><trkpt lat="43.1876034" lon="10.5413541"><ele>14.0</ele><time>2026-04-04T11:54:19.733Z</time></trkpt><trkpt lat="43.187525" lon="10.5413116"><ele>14.0</ele><time>2026-04-04T11:54:21.73Z</time></trkpt><trkpt lat="43.1874561" lon="10.541291"><ele>14.000000000000002</ele><time>2026-04-04T11:54:23.727Z</time></trkpt><trkpt lat="43.187379" lon="10.5412975"><ele>14.0</ele><time>2026-04-04T11:54:25.734Z</time></trkpt><trkpt lat="43.1872959" lon="10.5413192"><ele>14.166666666666668</ele><time>2026-04-04T11:54:27.727Z</time></trkpt><trkpt lat="43.187216" lon="10.5413236"><ele>14.333333333333334</ele><time>2026-04-04T11:54:30.722Z</time></trkpt><trkpt lat="43.1871262" lon="10.5413565"><ele>14.5</ele><time>2026-04-04T11:54:33.732Z</time></trkpt><trkpt lat="43.1870555" lon="10.5414006"><ele>14.666666666666668</ele><time>2026-04-04T11:54:35.73Z</time></trkpt><trkpt lat="43.1869827" lon="10.5414638"><ele>14.833333333333334</ele><time>2026-04-04T11:54:37.729Z</time></trkpt><trkpt lat="43.1869087" lon="10.5415615"><ele>15.0</ele><time>2026-04-04T11:54:39.727Z</time></trkpt><trkpt lat="43.1868326" lon="10.5416843"><ele>14.0</ele><time>2026-04-04T11:54:41.717Z</time></trkpt><trkpt lat="43.187838" lon="10.5414757"><ele>14.000000000000002</ele><time>2026-04-04T11:54:13.729Z</time></trkpt><trkpt lat="43.1877632" lon="10.5414624"><ele>14.0</ele><time>2026-04-04T11:54:15.723Z</time></trkpt><trkpt lat="43.1876863" lon="10.5414083"><ele>14.0</ele><time>2026-04-04T11:54:17.723Z</time></trkpt><trkpt lat="43.1876034" lon="10.5413541"><ele>14.0</ele><time>2026-04-04T11:54:19.733Z</time></trkpt><trkpt lat="43.187525" lon="10.5413116"><ele>14.000000000000002</ele><time>2026-04-04T11:54:21.73Z</time></trkpt><trkpt lat="43.1874561" lon="10.541291"><ele>14.0</ele><time>2026-04-04T11:54:23.727Z</time></trkpt><trkpt lat="43.187379" lon="10.5412975"><ele>14.166666666666668</ele><time>2026-04-04T11:54:25.734Z</time></trkpt><trkpt lat="43.1872959" lon="10.5413192"><ele>14.333333333333334</ele><time>2026-04-04T11:54:27.727Z</time></trkpt><trkpt lat="43.187216" lon="10.5413236"><ele>14.5</ele><time>2026-04-04T11:54:30.722Z</time></trkpt><trkpt lat="43.1871262" lon="10.5413565"><ele>14.666666666666668</ele><time>2026-04-04T11:54:33.732Z</time></trkpt><trkpt lat="43.1870555" lon="10.5414006"><ele>14.833333333333334</ele><time>2026-04-04T11:54:35.73Z</time></trkpt><trkpt lat="43.1869827" lon="10.5414638"><ele>15.0</ele><time>2026-04-04T11:54:37.729Z</time></trkpt><trkpt lat="43.1869087" lon="10.5415615"><ele>15.0</ele><time>2026-04-04T11:54:39.727Z</time></trkpt><trkpt lat="43.1868326" lon="10.5416843"><ele>15.0</ele><time>2026-04-04T11:54:41.717Z</time></trkpt><trkpt lat="43.1867649" lon="10.5417964"><ele>15.0</ele><time>2026-04-04T11:54:43.724Z</time></trkpt><trkpt lat="43.186713" lon="10.541949"><ele>15.0</ele><time>2026-04-04T11:54:45.728Z</time></trkpt><trkpt lat="43.1866987" lon="10.5420339"><ele>15.0</ele><time>2026-04-04T11:54:46.727Z</time></trkpt><trkpt lat="43.1867024" lon="10.5421247"><ele>14.0</ele><time>2026-04-04T11:54:47.727Z</time></trkpt><trkpt lat="43.18671" lon="10.5422686"><ele>13.0</ele><time>2026-04-04T11:54:49.729Z</time></trkpt><trkpt lat="43.1867212" lon="10.5424157"><ele>12.0</ele><time>2026-04-04T11:54:51.732Z</time></trkpt><trkpt lat="43.1867227" lon="10.5425411"><ele>11.0</ele><time>2026-04-04T11:54:53.73Z</time></trkpt><trkpt lat="43.1867406" lon="10.5426639"><ele>10.0</ele><time>2026-04-04T11:54:55.733Z</time></trkpt><trkpt lat="43.1867561" lon="10.5427757"><ele>9.0</ele><time>2026-04-04T11:54:57.736Z</time></trkpt><trkpt lat="43.1867926" lon="10.5428827"><ele>8.0</ele><time>2026-04-04T11:54:59.739Z</time></trkpt><trkpt lat="43.1868381" lon="10.5429997"><ele>7.0</ele><time>2026-04-04T11:55:01.756Z</time></trkpt><trkpt lat="43.1868741" lon="10.5431443"><ele>6.0</ele><time>2026-04-04T11:55:03.736Z</time></trkpt><trkpt lat="43.1869039" lon="10.5432987"><ele>5.0</ele><time>2026-04-04T11:55:05.741Z</time></trkpt><trkpt lat="43.1869196" lon="10.5433871"><ele>5.0</ele><time>2026-04-04T11:55:06.735Z</time></trkpt><trkpt lat="43.1869476" lon="10.5434668"><ele>5.0</ele><time>2026-04-04T11:55:07.735Z</time></trkpt><trkpt lat="43.1870014" lon="10.5436144"><ele>5.0</ele><time>2026-04-04T11:55:09.748Z</time></trkpt><trkpt lat="43.1870581" lon="10.5437416"><ele>5.0</ele><time>2026-04-04T11:55:11.742Z</time></trkpt><trkpt lat="43.1870934" lon="10.5438598"><ele>5.0</ele><time>2026-04-04T11:55:13.741Z</time></trkpt><trkpt lat="43.1870888" lon="10.5439898"><ele>4.4</ele><time>2026-04-04T11:55:15.747Z</time></trkpt><trkpt lat="43.1870363" lon="10.544106"><ele>3.8</ele><time>2026-04-04T11:55:17.741Z</time></trkpt><trkpt lat="43.1869508" lon="10.5441774"><ele>3.2</ele><time>2026-04-04T11:55:19.742Z</time></trkpt><trkpt lat="43.1868536" lon="10.5442163"><ele>2.6</ele><time>2026-04-04T11:55:21.744Z</time></trkpt><trkpt lat="43.1867561" lon="10.5442722"><ele>2.0</ele><time>2026-04-04T11:55:23.752Z</time></trkpt><trkpt lat="43.1866652" lon="10.5443389"><ele>2.0</ele><time>2026-04-04T11:55:25.756Z</time></trkpt><trkpt lat="43.1865769" lon="10.5444072"><ele>2.0</ele><time>2026-04-04T11:55:27.757Z</time></trkpt><trkpt lat="43.1864949" lon="10.5444658"><ele>2.0</ele><time>2026-04-04T11:55:29.759Z</time></trkpt><trkpt lat="43.1864103" lon="10.5445276"><ele>2.0</ele><time>2026-04-04T11:55:31.756Z</time></trkpt><trkpt lat="43.1863263" lon="10.544583"><ele>2.0</ele><time>2026-04-04T11:55:33.771Z</time></trkpt><trkpt lat="43.1862422" lon="10.5446405"><ele>2.2</ele><time>2026-04-04T11:55:35.752Z</time></trkpt><trkpt lat="43.1861595" lon="10.5446976"><ele>2.4000000000000004</ele><time>2026-04-04T11:55:37.753Z</time></trkpt><trkpt lat="43.1860786" lon="10.5447579"><ele>2.5999999999999996</ele><time>2026-04-04T11:55:39.755Z</time></trkpt><trkpt lat="43.1859907" lon="10.5448189"><ele>2.8</ele><time>2026-04-04T11:55:41.757Z</time></trkpt><trkpt lat="43.1859036" lon="10.5448776"><ele>3.0</ele><time>2026-04-04T11:55:43.75Z</time></trkpt><trkpt lat="43.1858146" lon="10.5449354"><ele>3.0</ele><time>2026-04-04T11:55:45.748Z</time></trkpt><trkpt lat="43.1857219" lon="10.5450073"><ele>3.0</ele><time>2026-04-04T11:55:47.748Z</time></trkpt><trkpt lat="43.1856283" lon="10.5450607"><ele>3.0</ele><time>2026-04-04T11:55:49.75Z</time></trkpt><trkpt lat="43.1855427" lon="10.5451103"><ele>3.0</ele><time>2026-04-04T11:55:51.746Z</time></trkpt><trkpt lat="43.1854418" lon="10.5451648"><ele>3.0</ele><time>2026-04-04T11:55:53.753Z</time></trkpt><trkpt lat="43.1853437" lon="10.5452235"><ele>3.2</ele><time>2026-04-04T11:55:55.749Z</time></trkpt><trkpt lat="43.1852634" lon="10.5452901"><ele>3.4</ele><time>2026-04-04T11:55:57.746Z</time></trkpt><trkpt lat="43.1851683" lon="10.5453398"><ele>3.6000000000000005</ele><time>2026-04-04T11:55:59.752Z</time></trkpt><trkpt lat="43.1850847" lon="10.545405"><ele>3.8000000000000003</ele><time>2026-04-04T11:56:01.752Z</time></trkpt><trkpt lat="43.1850058" lon="10.5454734"><ele>4.0</ele><time>2026-04-04T11:56:03.748Z</time></trkpt><trkpt lat="43.1849503" lon="10.5455873"><ele>3.2</ele><time>2026-04-04T11:56:05.748Z</time></trkpt><trkpt lat="43.1849779" lon="10.545737"><ele>2.4000000000000004</ele><time>2026-04-04T11:56:07.749Z</time></trkpt><trkpt lat="43.1850206" lon="10.5458037"><ele>1.6</ele><time>2026-04-04T11:56:08.75Z</time></trkpt><trkpt lat="43.1850658" lon="10.5458656"><ele>0.8</ele><time>2026-04-04T11:56:09.747Z</time></trkpt><trkpt lat="43.1851436" lon="10.5459888"><ele>0.0</ele><time>2026-04-04T11:56:11.754Z</time></trkpt><trkpt lat="43.1852129" lon="10.5461062"><ele>0.0</ele><time>2026-04-04T11:56:13.753Z</time></trkpt><trkpt lat="43.1852809" lon="10.5462138"><ele>0.0</ele><time>2026-04-04T11:56:15.751Z</time></trkpt><trkpt lat="43.1853545" lon="10.5463162"><ele>0.0</ele><time>2026-04-04T11:56:17.758Z</time></trkpt><trkpt lat="43.1854372" lon="10.5464176"><ele>0.0</ele><time>2026-04-04T11:56:19.753Z</time></trkpt><trkpt lat="43.1855104" lon="10.5465212"><ele>0.0</ele><time>2026-04-04T11:56:21.751Z</time></trkpt><trkpt lat="43.1855809" lon="10.5466335"><ele>0.0</ele><time>2026-04-04T11:56:23.751Z</time></trkpt><trkpt lat="43.1856554" lon="10.5467413"><ele>0.0</ele><time>2026-04-04T11:56:25.745Z</time></trkpt><trkpt lat="43.1857264" lon="10.5468376"><ele>0.0</ele><time>2026-04-04T11:56:27.743Z</time></trkpt><trkpt lat="43.1857949" lon="10.5469264"><ele>0.0</ele><time>2026-04-04T11:56:29.75Z</time></trkpt><trkpt lat="43.1858608" lon="10.5470296"><ele>0.0</ele><time>2026-04-04T11:56:31.758Z</time></trkpt><trkpt lat="43.1859332" lon="10.5471307"><ele>0.0</ele><time>2026-04-04T11:56:33.744Z</time></trkpt><trkpt lat="43.1860066" lon="10.5472321"><ele>0.0</ele><time>2026-04-04T11:56:35.769Z</time></trkpt><trkpt lat="43.1860586" lon="10.5473418"><ele>0.0</ele><time>2026-04-04T11:56:37.757Z</time></trkpt><trkpt lat="43.1860276" lon="10.5474536"><ele>0.0</ele><time>2026-04-04T11:56:39.751Z</time></trkpt><trkpt lat="43.1859223" lon="10.5475183"><ele>0.0</ele><time>2026-04-04T11:56:41.748Z</time></trkpt><trkpt lat="43.1858182" lon="10.5475716"><ele>0.0</ele><time>2026-04-04T11:56:43.758Z</time></trkpt><trkpt lat="43.1857133" lon="10.5476276"><ele>0.0</ele><time>2026-04-04T11:56:45.758Z</time></trkpt><trkpt lat="43.1856155" lon="10.5476811"><ele>0.0</ele><time>2026-04-04T11:56:47.76Z</time></trkpt><trkpt lat="43.1855178" lon="10.547751"><ele>0.0</ele><time>2026-04-04T11:56:49.754Z</time></trkpt><trkpt lat="43.1854251" lon="10.547827"><ele>0.0</ele><time>2026-04-04T11:56:51.757Z</time></trkpt><trkpt lat="43.1853364" lon="10.5479107"><ele>0.0</ele><time>2026-04-04T11:56:53.761Z</time></trkpt><trkpt lat="43.1852948" lon="10.5480192"><ele>0.0</ele><time>2026-04-04T11:56:55.75Z</time></trkpt><trkpt lat="43.1852851" lon="10.5481171"><ele>0.0</ele><time>2026-04-04T11:56:57.752Z</time></trkpt><trkpt lat="43.1852146" lon="10.5481921"><ele>0.0</ele><time>2026-04-04T11:57:00.76Z</time></trkpt><trkpt lat="43.1851522" lon="10.5482115"><ele>0.0</ele><time>2026-04-04T11:57:02.759Z</time></trkpt><trkpt lat="43.185081" lon="10.5482643"><ele>0.0</ele><time>2026-04-04T11:57:04.753Z</time></trkpt><trkpt lat="43.1850079" lon="10.548323"><ele>0.0</ele><time>2026-04-04T11:57:06.765Z</time></trkpt><trkpt lat="43.1849199" lon="10.5483705"><ele>0.0</ele><time>2026-04-04T11:57:08.758Z</time></trkpt><trkpt lat="43.1848234" lon="10.5484378"><ele>0.0</ele><time>2026-04-04T11:57:10.746Z</time></trkpt><trkpt lat="43.1847366" lon="10.5485159"><ele>0.0</ele><time>2026-04-04T11:57:12.747Z</time></trkpt><trkpt lat="43.1846552" lon="10.5485886"><ele>0.0</ele><time>2026-04-04T11:57:14.752Z</time></trkpt><trkpt lat="43.1845691" lon="10.5486531"><ele>-0.2</ele><time>2026-04-04T11:57:16.746Z</time></trkpt><trkpt lat="43.1844806" lon="10.5487251"><ele>-0.4</ele><time>2026-04-04T11:57:18.77Z</time></trkpt><trkpt lat="43.1843928" lon="10.5487797"><ele>-0.6000000000000001</ele><time>2026-04-04T11:57:20.755Z</time></trkpt><trkpt lat="43.1842982" lon="10.5488524"><ele>-0.8</ele><time>2026-04-04T11:57:22.765Z</time></trkpt><trkpt lat="43.1842689" lon="10.5489911"><ele>-1.0</ele><time>2026-04-04T11:57:24.745Z</time></trkpt><trkpt lat="43.1842893" lon="10.5491461"><ele>-1.0</ele><time>2026-04-04T11:57:26.747Z</time></trkpt><trkpt lat="43.1842877" lon="10.5492999"><ele>-1.0</ele><time>2026-04-04T11:57:28.75Z</time></trkpt><trkpt lat="43.1842511" lon="10.5494289"><ele>-1.0</ele><time>2026-04-04T11:57:30.737Z</time></trkpt><trkpt lat="43.1841656" lon="10.5495022"><ele>-1.0</ele><time>2026-04-04T11:57:32.749Z</time></trkpt><trkpt lat="43.1840634" lon="10.5495642"><ele>-1.0</ele><time>2026-04-04T11:57:34.746Z</time></trkpt><trkpt lat="43.1839769" lon="10.5496636"><ele>-0.8</ele><time>2026-04-04T11:57:36.754Z</time></trkpt><trkpt lat="43.1839131" lon="10.5497723"><ele>-0.6000000000000001</ele><time>2026-04-04T11:57:38.743Z</time></trkpt><trkpt lat="43.1838519" lon="10.5498774"><ele>-0.4</ele><time>2026-04-04T11:57:40.742Z</time></trkpt><trkpt lat="43.1837869" lon="10.549977"><ele>-0.2</ele><time>2026-04-04T11:57:42.742Z</time></trkpt><trkpt lat="43.1837109" lon="10.550079"><ele>0.0</ele><time>2026-04-04T11:57:44.741Z</time></trkpt><trkpt lat="43.1836417" lon="10.5501828"><ele>0.0</ele><time>2026-04-04T11:57:46.744Z</time></trkpt><trkpt lat="43.1835746" lon="10.550294"><ele>0.0</ele><time>2026-04-04T11:57:48.75Z</time></trkpt><trkpt lat="43.1835055" lon="10.550403"><ele>0.0</ele><time>2026-04-04T11:57:50.751Z</time></trkpt><trkpt lat="43.1834313" lon="10.5504947"><ele>0.0</ele><time>2026-04-04T11:57:52.742Z</time></trkpt><trkpt lat="43.1833602" lon="10.5505756"><ele>0.0</ele><time>2026-04-04T11:57:54.745Z</time></trkpt><trkpt lat="43.1832961" lon="10.5506613"><ele>0.0</ele><time>2026-04-04T11:57:56.755Z</time></trkpt><trkpt lat="43.183252" lon="10.5507433"><ele>0.0</ele><time>2026-04-04T11:57:58.768Z</time></trkpt><trkpt lat="43.1831938" lon="10.5508271"><ele>0.0</ele><time>2026-04-04T11:58:00.756Z</time></trkpt><trkpt lat="43.1831319" lon="10.5509214"><ele>0.0</ele><time>2026-04-04T11:58:02.755Z</time></trkpt><trkpt lat="43.1830647" lon="10.5510186"><ele>0.0</ele><time>2026-04-04T11:58:04.757Z</time></trkpt><trkpt lat="43.182998" lon="10.5511132"><ele>0.0</ele><time>2026-04-04T11:58:06.735Z</time></trkpt><trkpt lat="43.1829309" lon="10.551222"><ele>0.2</ele><time>2026-04-04T11:58:08.754Z</time></trkpt><trkpt lat="43.182926" lon="10.5513595"><ele>0.4</ele><time>2026-04-04T11:58:10.756Z</time></trkpt><trkpt lat="43.1829098" lon="10.5515109"><ele>0.6000000000000001</ele><time>2026-04-04T11:58:12.751Z</time></trkpt><trkpt lat="43.182846" lon="10.5516219"><ele>0.8</ele><time>2026-04-04T11:58:14.743Z</time></trkpt><trkpt lat="43.1827823" lon="10.551703"><ele>1.0</ele><time>2026-04-04T11:58:16.753Z</time></trkpt><trkpt lat="43.1827302" lon="10.5517947"><ele>1.0</ele><time>2026-04-04T11:58:19.755Z</time></trkpt><trkpt lat="43.1826639" lon="10.5518617"><ele>1.0</ele><time>2026-04-04T11:58:22.756Z</time></trkpt><trkpt lat="43.1826247" lon="10.5519587"><ele>1.0</ele><time>2026-04-04T11:58:27.763Z</time></trkpt><trkpt lat="43.1826821" lon="10.5520477"><ele>1.0</ele><time>2026-04-04T11:58:29.755Z</time></trkpt><trkpt lat="43.1827591" lon="10.5521478"><ele>1.0</ele><time>2026-04-04T11:58:31.763Z</time></trkpt><trkpt lat="43.1828382" lon="10.5522603"><ele>1.4</ele><time>2026-04-04T11:58:33.763Z</time></trkpt><trkpt lat="43.18292" lon="10.5523606"><ele>1.8</ele><time>2026-04-04T11:58:35.757Z</time></trkpt><trkpt lat="43.1830002" lon="10.5524552"><ele>2.1999999999999997</ele><time>2026-04-04T11:58:37.755Z</time></trkpt><trkpt lat="43.1830804" lon="10.5525304"><ele>2.6</ele><time>2026-04-04T11:58:39.793Z</time></trkpt><trkpt lat="43.1831619" lon="10.5526051"><ele>3.0</ele><time>2026-04-04T11:58:41.758Z</time></trkpt><trkpt lat="43.1832425" lon="10.5526714"><ele>3.0</ele><time>2026-04-04T11:58:43.751Z</time></trkpt><trkpt lat="43.1833172" lon="10.5527539"><ele>3.0</ele><time>2026-04-04T11:58:45.755Z</time></trkpt><trkpt lat="43.1833942" lon="10.552836"><ele>3.0</ele><time>2026-04-04T11:58:47.752Z</time></trkpt><trkpt lat="43.1834714" lon="10.5529251"><ele>3.0</ele><time>2026-04-04T11:58:49.759Z</time></trkpt><trkpt lat="43.183549" lon="10.5530088"><ele>3.0</ele><time>2026-04-04T11:58:51.755Z</time></trkpt><trkpt lat="43.1836276" lon="10.5530939"><ele>3.0</ele><time>2026-04-04T11:58:53.756Z</time></trkpt><trkpt lat="43.183708" lon="10.55316"><ele>3.0</ele><time>2026-04-04T11:58:55.747Z</time></trkpt><trkpt lat="43.1837846" lon="10.5532265"><ele>3.0</ele><time>2026-04-04T11:58:57.746Z</time></trkpt><trkpt lat="43.1838532" lon="10.5533144"><ele>3.0</ele><time>2026-04-04T11:58:59.751Z</time></trkpt><trkpt lat="43.1839321" lon="10.5533895"><ele>3.0</ele><time>2026-04-04T11:59:01.744Z</time></trkpt><trkpt lat="43.1840062" lon="10.553462"><ele>3.2</ele><time>2026-04-04T11:59:03.746Z</time></trkpt><trkpt lat="43.184079" lon="10.5535415"><ele>3.4</ele><time>2026-04-04T11:59:05.743Z</time></trkpt><trkpt lat="43.1841566" lon="10.5536279"><ele>3.6000000000000005</ele><time>2026-04-04T11:59:07.741Z</time></trkpt><trkpt lat="43.1842316" lon="10.5537132"><ele>3.8000000000000003</ele><time>2026-04-04T11:59:09.772Z</time></trkpt><trkpt lat="43.184303" lon="10.5537889"><ele>4.0</ele><time>2026-04-04T11:59:11.745Z</time></trkpt><trkpt lat="43.1843662" lon="10.5538666"><ele>3.9999999999999996</ele><time>2026-04-04T11:59:13.748Z</time></trkpt><trkpt lat="43.1844242" lon="10.5539427"><ele>4.0</ele><time>2026-04-04T11:59:15.751Z</time></trkpt><trkpt lat="43.1844845" lon="10.5540017"><ele>4.0</ele><time>2026-04-04T11:59:17.755Z</time></trkpt><trkpt lat="43.18454" lon="10.5540578"><ele>4.0</ele><time>2026-04-04T11:59:19.746Z</time></trkpt><trkpt lat="43.1844827" lon="10.5541491"><ele>3.9999999999999996</ele><time>2026-04-04T11:59:23.742Z</time></trkpt><trkpt lat="43.1843953" lon="10.5542389"><ele>4.0</ele><time>2026-04-04T11:59:25.752Z</time></trkpt><trkpt lat="43.184328" lon="10.5543453"><ele>4.0</ele><time>2026-04-04T11:59:27.756Z</time></trkpt><trkpt lat="43.1842663" lon="10.5544286"><ele>4.0</ele><time>2026-04-04T11:59:29.749Z</time></trkpt><trkpt lat="43.1841995" lon="10.554527"><ele>4.0</ele><time>2026-04-04T11:59:31.759Z</time></trkpt><trkpt lat="43.1841241" lon="10.5546285"><ele>4.0</ele><time>2026-04-04T11:59:33.745Z</time></trkpt><trkpt lat="43.1840494" lon="10.5547333"><ele>4.0</ele><time>2026-04-04T11:59:35.745Z</time></trkpt><trkpt lat="43.1839728" lon="10.5548242"><ele>4.0</ele><time>2026-04-04T11:59:37.753Z</time></trkpt><trkpt lat="43.1839124" lon="10.5549238"><ele>4.0</ele><time>2026-04-04T11:59:39.754Z</time></trkpt><trkpt lat="43.1838593" lon="10.5550242"><ele>4.0</ele><time>2026-04-04T11:59:41.755Z</time></trkpt><trkpt lat="43.1837996" lon="10.5551306"><ele>4.0</ele><time>2026-04-04T11:59:43.743Z</time></trkpt><trkpt lat="43.1837354" lon="10.5552336"><ele>4.0</ele><time>2026-04-04T11:59:45.754Z</time></trkpt><trkpt lat="43.1836723" lon="10.5553256"><ele>4.4</ele><time>2026-04-04T11:59:47.754Z</time></trkpt><trkpt lat="43.1836137" lon="10.5554209"><ele>4.800000000000001</ele><time>2026-04-04T11:59:49.746Z</time></trkpt><trkpt lat="43.1835464" lon="10.5555059"><ele>5.199999999999999</ele><time>2026-04-04T11:59:51.751Z</time></trkpt><trkpt lat="43.1834864" lon="10.5555931"><ele>5.6</ele><time>2026-04-04T11:59:53.754Z</time></trkpt><trkpt lat="43.18343" lon="10.5556988"><ele>6.0</ele><time>2026-04-04T11:59:55.751Z</time></trkpt><trkpt lat="43.1833745" lon="10.5557999"><ele>6.0</ele><time>2026-04-04T11:59:57.755Z</time></trkpt><trkpt lat="43.1833265" lon="10.5558975"><ele>6.0</ele><time>2026-04-04T11:59:59.75Z</time></trkpt><trkpt lat="43.1832559" lon="10.555994"><ele>6.0</ele><time>2026-04-04T12:00:01.757Z</time></trkpt><trkpt lat="43.1831871" lon="10.5560794"><ele>6.0</ele><time>2026-04-04T12:00:03.764Z</time></trkpt><trkpt lat="43.183121" lon="10.5561671"><ele>6.0</ele><time>2026-04-04T12:00:05.75Z</time></trkpt><trkpt lat="43.1830548" lon="10.5562599"><ele>5.6</ele><time>2026-04-04T12:00:07.753Z</time></trkpt><trkpt lat="43.1829992" lon="10.5563509"><ele>5.199999999999999</ele><time>2026-04-04T12:00:09.75Z</time></trkpt><trkpt lat="43.1829406" lon="10.5564485"><ele>4.800000000000001</ele><time>2026-04-04T12:00:11.766Z</time></trkpt><trkpt lat="43.1828832" lon="10.5565455"><ele>4.4</ele><time>2026-04-04T12:00:13.754Z</time></trkpt><trkpt lat="43.1828252" lon="10.5566511"><ele>4.0</ele><time>2026-04-04T12:00:15.75Z</time></trkpt><trkpt lat="43.1827608" lon="10.5567433"><ele>4.0</ele><time>2026-04-04T12:00:17.756Z</time></trkpt><trkpt lat="43.1826968" lon="10.5568451"><ele>4.0</ele><time>2026-04-04T12:00:19.748Z</time></trkpt><trkpt lat="43.1826266" lon="10.5569387"><ele>4.0</ele><time>2026-04-04T12:00:21.751Z</time></trkpt><trkpt lat="43.1825638" lon="10.5570264"><ele>4.0</ele><time>2026-04-04T12:00:23.757Z</time></trkpt><trkpt lat="43.1825042" lon="10.557114"><ele>4.0</ele><time>2026-04-04T12:00:25.753Z</time></trkpt><trkpt lat="43.1824471" lon="10.557203"><ele>4.166666666666666</ele><time>2026-04-04T12:00:27.755Z</time></trkpt><trkpt lat="43.1823922" lon="10.5572838"><ele>4.333333333333333</ele><time>2026-04-04T12:00:29.753Z</time></trkpt><trkpt lat="43.1823312" lon="10.5573543"><ele>4.5</ele><time>2026-04-04T12:00:31.755Z</time></trkpt><trkpt lat="43.1822646" lon="10.557402"><ele>4.666666666666667</ele><time>2026-04-04T12:00:33.76Z</time></trkpt><trkpt lat="43.1821948" lon="10.5574573"><ele>4.833333333333334</ele><time>2026-04-04T12:00:35.763Z</time></trkpt><trkpt lat="43.1821233" lon="10.5574912"><ele>5.0</ele><time>2026-04-04T12:00:37.755Z</time></trkpt><trkpt lat="43.1820443" lon="10.5575136"><ele>4.666666666666667</ele><time>2026-04-04T12:00:39.758Z</time></trkpt><trkpt lat="43.1819611" lon="10.5575222"><ele>4.333333333333334</ele><time>2026-04-04T12:00:41.761Z</time></trkpt><trkpt lat="43.181873" lon="10.5575346"><ele>4.0</ele><time>2026-04-04T12:00:43.757Z</time></trkpt><trkpt lat="43.1817869" lon="10.5575519"><ele>3.666666666666667</ele><time>2026-04-04T12:00:45.76Z</time></trkpt><trkpt lat="43.1817088" lon="10.5575782"><ele>3.3333333333333335</ele><time>2026-04-04T12:00:47.757Z</time></trkpt><trkpt lat="43.181631" lon="10.5576136"><ele>3.0</ele><time>2026-04-04T12:00:49.749Z</time></trkpt><trkpt lat="43.1815498" lon="10.5576439"><ele>3.3333333333333335</ele><time>2026-04-04T12:00:51.756Z</time></trkpt><trkpt lat="43.1814695" lon="10.5576554"><ele>3.666666666666667</ele><time>2026-04-04T12:00:53.756Z</time></trkpt><trkpt lat="43.1813872" lon="10.5576668"><ele>4.0</ele><time>2026-04-04T12:00:55.769Z</time></trkpt><trkpt lat="43.1813085" lon="10.5576855"><ele>4.333333333333334</ele><time>2026-04-04T12:00:57.765Z</time></trkpt><trkpt lat="43.181228" lon="10.5577066"><ele>4.666666666666667</ele><time>2026-04-04T12:00:59.766Z</time></trkpt><trkpt lat="43.1811499" lon="10.5577357"><ele>5.0</ele><time>2026-04-04T12:01:01.752Z</time></trkpt><trkpt lat="43.1810702" lon="10.5577654"><ele>5.0</ele><time>2026-04-04T12:01:03.764Z</time></trkpt><trkpt lat="43.1809943" lon="10.5577865"><ele>5.0</ele><time>2026-04-04T12:01:05.755Z</time></trkpt><trkpt lat="43.1809296" lon="10.5577967"><ele>5.0</ele><time>2026-04-04T12:01:07.755Z</time></trkpt><trkpt lat="43.1808516" lon="10.5577894"><ele>5.0</ele><time>2026-04-04T12:01:09.75Z</time></trkpt><trkpt lat="43.1807696" lon="10.5578477"><ele>5.0</ele><time>2026-04-04T12:01:11.75Z</time></trkpt><trkpt lat="43.1807317" lon="10.557943"><ele>5.0</ele><time>2026-04-04T12:01:13.772Z</time></trkpt><trkpt lat="43.1807266" lon="10.5580595"><ele>5.0</ele><time>2026-04-04T12:01:15.763Z</time></trkpt><trkpt lat="43.1807139" lon="10.5581801"><ele>5.0</ele><time>2026-04-04T12:01:17.758Z</time></trkpt><trkpt lat="43.1806984" lon="10.5582962"><ele>5.0</ele><time>2026-04-04T12:01:19.757Z</time></trkpt><trkpt lat="43.180677" lon="10.55841"><ele>5.0</ele><time>2026-04-04T12:01:21.75Z</time></trkpt><trkpt lat="43.1806546" lon="10.5585346"><ele>5.0</ele><time>2026-04-04T12:01:23.754Z</time></trkpt><trkpt lat="43.1806468" lon="10.5586525"><ele>5.0</ele><time>2026-04-04T12:01:25.755Z</time></trkpt><trkpt lat="43.1806436" lon="10.5587747"><ele>5.333333333333334</ele><time>2026-04-04T12:01:27.755Z</time></trkpt><trkpt lat="43.1806317" lon="10.5588948"><ele>5.666666666666667</ele><time>2026-04-04T12:01:29.761Z</time></trkpt><trkpt lat="43.1806155" lon="10.5590025"><ele>6.0</ele><time>2026-04-04T12:01:31.762Z</time></trkpt><trkpt lat="43.1806025" lon="10.5591075"><ele>6.333333333333334</ele><time>2026-04-04T12:01:33.753Z</time></trkpt><trkpt lat="43.1805811" lon="10.5592038"><ele>6.666666666666667</ele><time>2026-04-04T12:01:35.751Z</time></trkpt><trkpt lat="43.1805527" lon="10.5593079"><ele>7.0</ele><time>2026-04-04T12:01:37.752Z</time></trkpt><trkpt lat="43.1805322" lon="10.5594052"><ele>7.000000000000001</ele><time>2026-04-04T12:01:39.759Z</time></trkpt><trkpt lat="43.1805225" lon="10.559514"><ele>7.0</ele><time>2026-04-04T12:01:41.765Z</time></trkpt><trkpt lat="43.1805132" lon="10.5596204"><ele>7.0</ele><time>2026-04-04T12:01:43.761Z</time></trkpt><trkpt lat="43.1804996" lon="10.5597312"><ele>7.0</ele><time>2026-04-04T12:01:45.765Z</time></trkpt><trkpt lat="43.1804838" lon="10.5598358"><ele>7.000000000000001</ele><time>2026-04-04T12:01:47.765Z</time></trkpt><trkpt lat="43.1804723" lon="10.5599491"><ele>7.0</ele><time>2026-04-04T12:01:49.765Z</time></trkpt><trkpt lat="43.1804529" lon="10.5600662"><ele>7.333333333333334</ele><time>2026-04-04T12:01:51.768Z</time></trkpt><trkpt lat="43.1804346" lon="10.5601764"><ele>7.666666666666667</ele><time>2026-04-04T12:01:53.768Z</time></trkpt><trkpt lat="43.1804194" lon="10.5602883"><ele>8.0</ele><time>2026-04-04T12:01:55.772Z</time></trkpt><trkpt lat="43.1804013" lon="10.5603936"><ele>8.333333333333334</ele><time>2026-04-04T12:01:57.766Z</time></trkpt><trkpt lat="43.1803871" lon="10.5605008"><ele>8.666666666666666</ele><time>2026-04-04T12:01:59.759Z</time></trkpt><trkpt lat="43.1803695" lon="10.5606051"><ele>9.0</ele><time>2026-04-04T12:02:01.767Z</time></trkpt><trkpt lat="43.1803551" lon="10.5607116"><ele>9.0</ele><time>2026-04-04T12:02:03.771Z</time></trkpt><trkpt lat="43.1803386" lon="10.5608213"><ele>9.0</ele><time>2026-04-04T12:02:05.762Z</time></trkpt><trkpt lat="43.1803236" lon="10.560936"><ele>9.0</ele><time>2026-04-04T12:02:07.77Z</time></trkpt><trkpt lat="43.1803105" lon="10.5610474"><ele>9.0</ele><time>2026-04-04T12:02:09.765Z</time></trkpt><trkpt lat="43.1802961" lon="10.5611602"><ele>9.0</ele><time>2026-04-04T12:02:11.764Z</time></trkpt><trkpt lat="43.1802835" lon="10.5612771"><ele>9.0</ele><time>2026-04-04T12:02:13.759Z</time></trkpt><trkpt lat="43.1802726" lon="10.561389"><ele>9.166666666666666</ele><time>2026-04-04T12:02:15.779Z</time></trkpt><trkpt lat="43.1802581" lon="10.5615053"><ele>9.333333333333334</ele><time>2026-04-04T12:02:17.77Z</time></trkpt><trkpt lat="43.1802375" lon="10.561617"><ele>9.5</ele><time>2026-04-04T12:02:19.759Z</time></trkpt><trkpt lat="43.1802251" lon="10.5617248"><ele>9.666666666666668</ele><time>2026-04-04T12:02:21.764Z</time></trkpt><trkpt lat="43.1802149" lon="10.5618295"><ele>9.833333333333334</ele><time>2026-04-04T12:02:23.758Z</time></trkpt><trkpt lat="43.1801921" lon="10.5619305"><ele>10.0</ele><time>2026-04-04T12:02:25.757Z</time></trkpt><trkpt lat="43.1801459" lon="10.5620343"><ele>10.0</ele><time>2026-04-04T12:02:27.762Z</time></trkpt><trkpt lat="43.1800822" lon="10.5620582"><ele>10.0</ele><time>2026-04-04T12:02:29.762Z</time></trkpt><trkpt lat="43.1799986" lon="10.5620703"><ele>10.0</ele><time>2026-04-04T12:02:31.749Z</time></trkpt><trkpt lat="43.1799224" lon="10.5620729"><ele>10.0</ele><time>2026-04-04T12:02:33.758Z</time></trkpt><trkpt lat="43.1798311" lon="10.5620931"><ele>10.0</ele><time>2026-04-04T12:02:35.749Z</time></trkpt><trkpt lat="43.179748" lon="10.5621077"><ele>10.0</ele><time>2026-04-04T12:02:37.76Z</time></trkpt><trkpt lat="43.179667" lon="10.5621252"><ele>10.0</ele><time>2026-04-04T12:02:39.754Z</time></trkpt><trkpt lat="43.1795917" lon="10.5621388"><ele>10.0</ele><time>2026-04-04T12:02:41.75Z</time></trkpt><trkpt lat="43.1795087" lon="10.5621584"><ele>10.0</ele><time>2026-04-04T12:02:43.746Z</time></trkpt><trkpt lat="43.1794205" lon="10.5621864"><ele>10.0</ele><time>2026-04-04T12:02:45.75Z</time></trkpt><trkpt lat="43.17934" lon="10.5622081"><ele>10.0</ele><time>2026-04-04T12:02:47.758Z</time></trkpt><trkpt lat="43.1792549" lon="10.5622274"><ele>10.0</ele><time>2026-04-04T12:02:49.741Z</time></trkpt><trkpt lat="43.1791754" lon="10.5622433"><ele>10.0</ele><time>2026-04-04T12:02:51.764Z</time></trkpt><trkpt lat="43.1790954" lon="10.5622604"><ele>10.0</ele><time>2026-04-04T12:02:53.756Z</time></trkpt><trkpt lat="43.1790093" lon="10.5622806"><ele>10.0</ele><time>2026-04-04T12:02:55.758Z</time></trkpt><trkpt lat="43.1789215" lon="10.5622834"><ele>10.0</ele><time>2026-04-04T12:02:57.756Z</time></trkpt><trkpt lat="43.1788399" lon="10.5623197"><ele>10.0</ele><time>2026-04-04T12:02:59.755Z</time></trkpt><trkpt lat="43.1787577" lon="10.5623502"><ele>10.0</ele><time>2026-04-04T12:03:01.764Z</time></trkpt><trkpt lat="43.1786744" lon="10.5623681"><ele>10.5</ele><time>2026-04-04T12:03:03.761Z</time></trkpt><trkpt lat="43.1786648" lon="10.5622597"><ele>11.0</ele><time>2026-04-04T12:03:12.746Z</time></trkpt><trkpt lat="43.1786485" lon="10.5621594"><ele>11.5</ele><time>2026-04-04T12:03:14.756Z</time></trkpt><trkpt lat="43.1786395" lon="10.5620059"><ele>12.0</ele><time>2026-04-04T12:03:16.756Z</time></trkpt><trkpt lat="43.1785681" lon="10.5618914"><ele>12.499999999999998</ele><time>2026-04-04T12:03:18.755Z</time></trkpt><trkpt lat="43.1784968" lon="10.5618945"><ele>13.0</ele><time>2026-04-04T12:03:19.757Z</time></trkpt><trkpt lat="43.1784242" lon="10.5619297"><ele>13.0</ele><time>2026-04-04T12:03:20.758Z</time></trkpt><trkpt lat="43.1783734" lon="10.5619968"><ele>13.0</ele><time>2026-04-04T12:03:21.764Z</time></trkpt><trkpt lat="43.1783374" lon="10.5620864"><ele>13.0</ele><time>2026-04-04T12:03:22.767Z</time></trkpt><trkpt lat="43.1783114" lon="10.5621849"><ele>13.0</ele><time>2026-04-04T12:03:23.756Z</time></trkpt><trkpt lat="43.1783102" lon="10.562281"><ele>13.0</ele><time>2026-04-04T12:03:24.761Z</time></trkpt><trkpt lat="43.1783215" lon="10.5623723"><ele>13.0</ele><time>2026-04-04T12:03:25.754Z</time></trkpt><trkpt lat="43.1783512" lon="10.5624647"><ele>13.0</ele><time>2026-04-04T12:03:26.753Z</time></trkpt><trkpt lat="43.1783767" lon="10.5625492"><ele>13.0</ele><time>2026-04-04T12:03:27.754Z</time></trkpt><trkpt lat="43.1784048" lon="10.5626331"><ele>13.0</ele><time>2026-04-04T12:03:28.77Z</time></trkpt><trkpt lat="43.1784358" lon="10.562796"><ele>13.0</ele><time>2026-04-04T12:03:30.765Z</time></trkpt><trkpt lat="43.1784334" lon="10.5629422"><ele>13.0</ele><time>2026-04-04T12:03:32.746Z</time></trkpt><trkpt lat="43.1784109" lon="10.5630595"><ele>13.0</ele><time>2026-04-04T12:03:34.757Z</time></trkpt><trkpt lat="43.1783887" lon="10.5631543"><ele>13.0</ele><time>2026-04-04T12:03:36.752Z</time></trkpt><trkpt lat="43.1783763" lon="10.5632456"><ele>13.0</ele><time>2026-04-04T12:03:38.758Z</time></trkpt><trkpt lat="43.1783556" lon="10.5633299"><ele>13.0</ele><time>2026-04-04T12:03:40.759Z</time></trkpt><trkpt lat="43.1783304" lon="10.5634229"><ele>13.0</ele><time>2026-04-04T12:03:42.751Z</time></trkpt><trkpt lat="43.1783144" lon="10.5635144"><ele>13.0</ele><time>2026-04-04T12:03:44.761Z</time></trkpt><trkpt lat="43.1782889" lon="10.5636022"><ele>13.0</ele><time>2026-04-04T12:03:46.763Z</time></trkpt><trkpt lat="43.1782615" lon="10.5636905"><ele>13.0</ele><time>2026-04-04T12:03:48.774Z</time></trkpt><trkpt lat="43.1782316" lon="10.563783"><ele>13.285714285714285</ele><time>2026-04-04T12:03:50.766Z</time></trkpt><trkpt lat="43.1782058" lon="10.5638717"><ele>13.571428571428573</ele><time>2026-04-04T12:03:52.759Z</time></trkpt><trkpt lat="43.178176" lon="10.5639642"><ele>13.857142857142858</ele><time>2026-04-04T12:03:54.762Z</time></trkpt><trkpt lat="43.1781427" lon="10.5640542"><ele>14.142857142857142</ele><time>2026-04-04T12:03:56.749Z</time></trkpt><trkpt lat="43.1781088" lon="10.5641544"><ele>14.428571428571427</ele><time>2026-04-04T12:03:58.773Z</time></trkpt><trkpt lat="43.1780737" lon="10.5642448"><ele>14.714285714285715</ele><time>2026-04-04T12:04:00.759Z</time></trkpt><trkpt lat="43.1780435" lon="10.5643408"><ele>15.0</ele><time>2026-04-04T12:04:02.765Z</time></trkpt><trkpt lat="43.1780061" lon="10.5644406"><ele>15.0</ele><time>2026-04-04T12:04:04.768Z</time></trkpt><trkpt lat="43.1779653" lon="10.5645459"><ele>15.0</ele><time>2026-04-04T12:04:06.765Z</time></trkpt><trkpt lat="43.1779311" lon="10.5646422"><ele>15.0</ele><time>2026-04-04T12:04:08.756Z</time></trkpt><trkpt lat="43.1778904" lon="10.5647425"><ele>15.0</ele><time>2026-04-04T12:04:10.761Z</time></trkpt><trkpt lat="43.1778441" lon="10.5648562"><ele>15.0</ele><time>2026-04-04T12:04:12.756Z</time></trkpt><trkpt lat="43.1778131" lon="10.5649786"><ele>15.0</ele><time>2026-04-04T12:04:14.762Z</time></trkpt><trkpt lat="43.1777946" lon="10.5651256"><ele>15.0</ele><time>2026-04-04T12:04:16.767Z</time></trkpt><trkpt lat="43.1777816" lon="10.5652772"><ele>15.0</ele><time>2026-04-04T12:04:18.77Z</time></trkpt><trkpt lat="43.1777874" lon="10.5654426"><ele>15.0</ele><time>2026-04-04T12:04:20.765Z</time></trkpt><trkpt lat="43.1778086" lon="10.5656084"><ele>15.0</ele><time>2026-04-04T12:04:22.764Z</time></trkpt><trkpt lat="43.1778237" lon="10.5656944"><ele>15.0</ele><time>2026-04-04T12:04:23.764Z</time></trkpt><trkpt lat="43.1778364" lon="10.5658548"><ele>15.4</ele><time>2026-04-04T12:04:25.757Z</time></trkpt><trkpt lat="43.1778473" lon="10.5659988"><ele>15.8</ele><time>2026-04-04T12:04:27.76Z</time></trkpt><trkpt lat="43.1778452" lon="10.5661366"><ele>16.2</ele><time>2026-04-04T12:04:29.76Z</time></trkpt><trkpt lat="43.1778175" lon="10.5662672"><ele>16.6</ele><time>2026-04-04T12:04:31.757Z</time></trkpt><trkpt lat="43.1777871" lon="10.5664168"><ele>17.0</ele><time>2026-04-04T12:04:33.758Z</time></trkpt><trkpt lat="43.1777827" lon="10.5665086"><ele>17.166666666666668</ele><time>2026-04-04T12:04:34.749Z</time></trkpt><trkpt lat="43.1777886" lon="10.5666119"><ele>17.333333333333336</ele><time>2026-04-04T12:04:35.754Z</time></trkpt><trkpt lat="43.1777966" lon="10.5667106"><ele>17.5</ele><time>2026-04-04T12:04:36.755Z</time></trkpt><trkpt lat="43.1777967" lon="10.5668151"><ele>17.666666666666668</ele><time>2026-04-04T12:04:37.747Z</time></trkpt><trkpt lat="43.1777889" lon="10.5669266"><ele>17.833333333333332</ele><time>2026-04-04T12:04:38.742Z</time></trkpt><trkpt lat="43.1777827" lon="10.5670433"><ele>18.0</ele><time>2026-04-04T12:04:39.745Z</time></trkpt><trkpt lat="43.1777802" lon="10.5671453"><ele>18.0</ele><time>2026-04-04T12:04:40.741Z</time></trkpt><trkpt lat="43.1777697" lon="10.5672945"><ele>18.0</ele><time>2026-04-04T12:04:42.726Z</time></trkpt><trkpt lat="43.1777841" lon="10.5673964"><ele>18.0</ele><time>2026-04-04T12:04:46.738Z</time></trkpt><trkpt lat="43.1778386" lon="10.567457"><ele>18.0</ele><time>2026-04-04T12:04:48.732Z</time></trkpt><trkpt lat="43.1778979" lon="10.5675214"><ele>18.0</ele><time>2026-04-04T12:04:50.749Z</time></trkpt><trkpt lat="43.1779671" lon="10.5675521"><ele>18.0</ele><time>2026-04-04T12:04:52.731Z</time></trkpt><trkpt lat="43.1780658" lon="10.5675723"><ele>18.0</ele><time>2026-04-04T12:04:54.737Z</time></trkpt><trkpt lat="43.1781791" lon="10.5675428"><ele>18.0</ele><time>2026-04-04T12:04:56.736Z</time></trkpt><trkpt lat="43.1782459" lon="10.5675265"><ele>18.0</ele><time>2026-04-04T12:04:57.737Z</time></trkpt><trkpt lat="43.1783124" lon="10.5675138"><ele>18.0</ele><time>2026-04-04T12:04:58.751Z</time></trkpt><trkpt lat="43.1783746" lon="10.5674988"><ele>18.0</ele><time>2026-04-04T12:04:59.74Z</time></trkpt><trkpt lat="43.1784882" lon="10.5674719"><ele>18.0</ele><time>2026-04-04T12:05:01.735Z</time></trkpt><trkpt lat="43.1786025" lon="10.5674533"><ele>18.0</ele><time>2026-04-04T12:05:03.732Z</time></trkpt><trkpt lat="43.1787012" lon="10.5674547"><ele>18.0</ele><time>2026-04-04T12:05:05.734Z</time></trkpt><trkpt lat="43.1787947" lon="10.5674978"><ele>18.0</ele><time>2026-04-04T12:05:07.724Z</time></trkpt><trkpt lat="43.1788938" lon="10.5675034"><ele>18.0</ele><time>2026-04-04T12:05:09.734Z</time></trkpt><trkpt lat="43.1790015" lon="10.5674989"><ele>18.0</ele><time>2026-04-04T12:05:11.737Z</time></trkpt><trkpt lat="43.1790997" lon="10.5675666"><ele>18.0</ele><time>2026-04-04T12:05:13.731Z</time></trkpt><trkpt lat="43.1791654" lon="10.5676463"><ele>18.0</ele><time>2026-04-04T12:05:15.733Z</time></trkpt><trkpt lat="43.1792084" lon="10.567748"><ele>18.0</ele><time>2026-04-04T12:05:17.741Z</time></trkpt><trkpt lat="43.1792017" lon="10.5678883"><ele>18.0</ele><time>2026-04-04T12:05:19.741Z</time></trkpt><trkpt lat="43.179178" lon="10.5680337"><ele>18.0</ele><time>2026-04-04T12:05:21.766Z</time></trkpt><trkpt lat="43.1791249" lon="10.5681474"><ele>18.0</ele><time>2026-04-04T12:05:23.743Z</time></trkpt><trkpt lat="43.1790457" lon="10.5682649"><ele>18.0</ele><time>2026-04-04T12:05:25.746Z</time></trkpt><trkpt lat="43.1789603" lon="10.5683561"><ele>18.0</ele><time>2026-04-04T12:05:27.737Z</time></trkpt><trkpt lat="43.1788917" lon="10.56845"><ele>18.0</ele><time>2026-04-04T12:05:29.734Z</time></trkpt><trkpt lat="43.178844" lon="10.5685501"><ele>18.0</ele><time>2026-04-04T12:05:31.736Z</time></trkpt><trkpt lat="43.1787986" lon="10.5686438"><ele>18.2</ele><time>2026-04-04T12:05:33.73Z</time></trkpt><trkpt lat="43.1787326" lon="10.5687215"><ele>18.4</ele><time>2026-04-04T12:05:35.731Z</time></trkpt><trkpt lat="43.1786643" lon="10.5688173"><ele>18.599999999999998</ele><time>2026-04-04T12:05:37.737Z</time></trkpt><trkpt lat="43.1786053" lon="10.5689107"><ele>18.8</ele><time>2026-04-04T12:05:39.749Z</time></trkpt><trkpt lat="43.1785455" lon="10.5690108"><ele>19.0</ele><time>2026-04-04T12:05:41.739Z</time></trkpt><trkpt lat="43.1784727" lon="10.5691389"><ele>19.0</ele><time>2026-04-04T12:05:43.741Z</time></trkpt><trkpt lat="43.1784019" lon="10.5692605"><ele>19.0</ele><time>2026-04-04T12:05:45.741Z</time></trkpt><trkpt lat="43.1783493" lon="10.5693707"><ele>19.0</ele><time>2026-04-04T12:05:47.738Z</time></trkpt><trkpt lat="43.1783162" lon="10.5694669"><ele>19.0</ele><time>2026-04-04T12:05:49.736Z</time></trkpt><trkpt lat="43.1782494" lon="10.569579"><ele>19.0</ele><time>2026-04-04T12:05:51.739Z</time></trkpt><trkpt lat="43.1781693" lon="10.5696842"><ele>18.4</ele><time>2026-04-04T12:05:53.749Z</time></trkpt><trkpt lat="43.1780881" lon="10.5697896"><ele>17.799999999999997</ele><time>2026-04-04T12:05:55.742Z</time></trkpt><trkpt lat="43.1779983" lon="10.5698807"><ele>17.200000000000003</ele><time>2026-04-04T12:05:57.75Z</time></trkpt><trkpt lat="43.1779149" lon="10.5699639"><ele>16.6</ele><time>2026-04-04T12:05:59.746Z</time></trkpt><trkpt lat="43.1778295" lon="10.5700415"><ele>16.0</ele><time>2026-04-04T12:06:01.75Z</time></trkpt><trkpt lat="43.1777476" lon="10.5701155"><ele>16.0</ele><time>2026-04-04T12:06:03.758Z</time></trkpt><trkpt lat="43.1776608" lon="10.5701942"><ele>16.0</ele><time>2026-04-04T12:06:05.747Z</time></trkpt><trkpt lat="43.1775763" lon="10.5702722"><ele>16.0</ele><time>2026-04-04T12:06:07.748Z</time></trkpt><trkpt lat="43.1774916" lon="10.5703473"><ele>16.0</ele><time>2026-04-04T12:06:09.752Z</time></trkpt><trkpt lat="43.177409" lon="10.5704184"><ele>16.0</ele><time>2026-04-04T12:06:11.757Z</time></trkpt><trkpt lat="43.1773259" lon="10.5704944"><ele>16.400000000000002</ele><time>2026-04-04T12:06:13.746Z</time></trkpt><trkpt lat="43.1772409" lon="10.5705641"><ele>16.8</ele><time>2026-04-04T12:06:15.747Z</time></trkpt><trkpt lat="43.1771539" lon="10.5706342"><ele>17.200000000000003</ele><time>2026-04-04T12:06:17.745Z</time></trkpt><trkpt lat="43.1770724" lon="10.5707153"><ele>17.6</ele><time>2026-04-04T12:06:19.751Z</time></trkpt><trkpt lat="43.1769943" lon="10.5707927"><ele>18.0</ele><time>2026-04-04T12:06:21.747Z</time></trkpt><trkpt lat="43.1769062" lon="10.5708699"><ele>18.0</ele><time>2026-04-04T12:06:23.766Z</time></trkpt><trkpt lat="43.1768185" lon="10.5709352"><ele>18.0</ele><time>2026-04-04T12:06:25.753Z</time></trkpt><trkpt lat="43.1767376" lon="10.5710144"><ele>18.0</ele><time>2026-04-04T12:06:27.751Z</time></trkpt><trkpt lat="43.1766561" lon="10.571091"><ele>18.0</ele><time>2026-04-04T12:06:29.752Z</time></trkpt><trkpt lat="43.1765725" lon="10.5711666"><ele>18.0</ele><time>2026-04-04T12:06:31.748Z</time></trkpt><trkpt lat="43.176488" lon="10.5712466"><ele>18.6</ele><time>2026-04-04T12:06:33.753Z</time></trkpt><trkpt lat="43.1764137" lon="10.5713288"><ele>19.200000000000003</ele><time>2026-04-04T12:06:35.748Z</time></trkpt><trkpt lat="43.1763319" lon="10.5714035"><ele>19.8</ele><time>2026-04-04T12:06:37.744Z</time></trkpt><trkpt lat="43.1762506" lon="10.5714783"><ele>20.400000000000002</ele><time>2026-04-04T12:06:39.751Z</time></trkpt><trkpt lat="43.1761681" lon="10.5715579"><ele>21.0</ele><time>2026-04-04T12:06:41.748Z</time></trkpt><trkpt lat="43.176084" lon="10.5716314"><ele>21.0</ele><time>2026-04-04T12:06:43.741Z</time></trkpt><trkpt lat="43.1759965" lon="10.5717061"><ele>21.0</ele><time>2026-04-04T12:06:45.744Z</time></trkpt><trkpt lat="43.1759124" lon="10.5717722"><ele>21.0</ele><time>2026-04-04T12:06:47.746Z</time></trkpt><trkpt lat="43.1758342" lon="10.5718378"><ele>21.0</ele><time>2026-04-04T12:06:49.749Z</time></trkpt><trkpt lat="43.1757532" lon="10.57191"><ele>21.0</ele><time>2026-04-04T12:06:51.746Z</time></trkpt><trkpt lat="43.175671" lon="10.5719842"><ele>21.200000000000003</ele><time>2026-04-04T12:06:53.743Z</time></trkpt><trkpt lat="43.1755807" lon="10.572058"><ele>21.400000000000002</ele><time>2026-04-04T12:06:55.742Z</time></trkpt><trkpt lat="43.1754985" lon="10.5721376"><ele>21.6</ele><time>2026-04-04T12:06:57.747Z</time></trkpt><trkpt lat="43.1754136" lon="10.5722088"><ele>21.8</ele><time>2026-04-04T12:06:59.739Z</time></trkpt><trkpt lat="43.1753216" lon="10.5722837"><ele>22.0</ele><time>2026-04-04T12:07:01.742Z</time></trkpt><trkpt lat="43.1752359" lon="10.5723649"><ele>22.0</ele><time>2026-04-04T12:07:03.746Z</time></trkpt><trkpt lat="43.1751558" lon="10.5724392"><ele>22.0</ele><time>2026-04-04T12:07:05.743Z</time></trkpt><trkpt lat="43.1750741" lon="10.5725152"><ele>22.0</ele><time>2026-04-04T12:07:07.746Z</time></trkpt><trkpt lat="43.1749915" lon="10.5725926"><ele>22.0</ele><time>2026-04-04T12:07:09.746Z</time></trkpt><trkpt lat="43.1749098" lon="10.5726753"><ele>22.0</ele><time>2026-04-04T12:07:11.745Z</time></trkpt><trkpt lat="43.174832" lon="10.5727551"><ele>22.0</ele><time>2026-04-04T12:07:13.744Z</time></trkpt><trkpt lat="43.1747469" lon="10.5728267"><ele>22.0</ele><time>2026-04-04T12:07:15.746Z</time></trkpt><trkpt lat="43.1746591" lon="10.5728991"><ele>22.0</ele><time>2026-04-04T12:07:17.741Z</time></trkpt><trkpt lat="43.1745724" lon="10.5729846"><ele>22.0</ele><time>2026-04-04T12:07:19.742Z</time></trkpt><trkpt lat="43.1744819" lon="10.57306"><ele>22.0</ele><time>2026-04-04T12:07:21.742Z</time></trkpt><trkpt lat="43.1743954" lon="10.5731382"><ele>22.200000000000003</ele><time>2026-04-04T12:07:23.741Z</time></trkpt><trkpt lat="43.1743093" lon="10.5732217"><ele>22.4</ele><time>2026-04-04T12:07:25.759Z</time></trkpt><trkpt lat="43.1742301" lon="10.5733035"><ele>22.6</ele><time>2026-04-04T12:07:27.743Z</time></trkpt><trkpt lat="43.1741397" lon="10.5733771"><ele>22.799999999999997</ele><time>2026-04-04T12:07:29.741Z</time></trkpt><trkpt lat="43.174053" lon="10.5734467"><ele>23.0</ele><time>2026-04-04T12:07:31.745Z</time></trkpt><trkpt lat="43.1739637" lon="10.5735215"><ele>23.2</ele><time>2026-04-04T12:07:33.745Z</time></trkpt><trkpt lat="43.1738735" lon="10.5735952"><ele>23.4</ele><time>2026-04-04T12:07:35.747Z</time></trkpt><trkpt lat="43.1737886" lon="10.5736781"><ele>23.599999999999998</ele><time>2026-04-04T12:07:37.742Z</time></trkpt><trkpt lat="43.1737043" lon="10.5737533"><ele>23.799999999999997</ele><time>2026-04-04T12:07:39.74Z</time></trkpt><trkpt lat="43.1736243" lon="10.5738291"><ele>24.0</ele><time>2026-04-04T12:07:41.743Z</time></trkpt><trkpt lat="43.1735456" lon="10.5739183"><ele>24.2</ele><time>2026-04-04T12:07:43.748Z</time></trkpt><trkpt lat="43.1734677" lon="10.574001"><ele>24.4</ele><time>2026-04-04T12:07:45.754Z</time></trkpt><trkpt lat="43.1733906" lon="10.574081"><ele>24.6</ele><time>2026-04-04T12:07:47.753Z</time></trkpt><trkpt lat="43.1733066" lon="10.5741534"><ele>24.8</ele><time>2026-04-04T12:07:49.754Z</time></trkpt><trkpt lat="43.1732265" lon="10.574234"><ele>25.0</ele><time>2026-04-04T12:07:51.754Z</time></trkpt><trkpt lat="43.1731455" lon="10.5743033"><ele>25.0</ele><time>2026-04-04T12:07:53.75Z</time></trkpt><trkpt lat="43.1730705" lon="10.5743794"><ele>25.0</ele><time>2026-04-04T12:07:55.755Z</time></trkpt><trkpt lat="43.1729883" lon="10.5744645"><ele>25.0</ele><time>2026-04-04T12:07:57.748Z</time></trkpt><trkpt lat="43.172901" lon="10.5745494"><ele>25.0</ele><time>2026-04-04T12:07:59.749Z</time></trkpt><trkpt lat="43.1728104" lon="10.5746224"><ele>25.0</ele><time>2026-04-04T12:08:01.743Z</time></trkpt><trkpt lat="43.1727296" lon="10.5746936"><ele>25.0</ele><time>2026-04-04T12:08:03.745Z</time></trkpt><trkpt lat="43.1726542" lon="10.5747719"><ele>25.0</ele><time>2026-04-04T12:08:05.743Z</time></trkpt><trkpt lat="43.1725727" lon="10.574839"><ele>25.0</ele><time>2026-04-04T12:08:07.752Z</time></trkpt><trkpt lat="43.1724889" lon="10.5749156"><ele>25.0</ele><time>2026-04-04T12:08:09.744Z</time></trkpt><trkpt lat="43.1724081" lon="10.5749894"><ele>25.0</ele><time>2026-04-04T12:08:11.748Z</time></trkpt><trkpt lat="43.1723184" lon="10.5750653"><ele>25.0</ele><time>2026-04-04T12:08:13.728Z</time></trkpt><trkpt lat="43.1722353" lon="10.5751553"><ele>25.0</ele><time>2026-04-04T12:08:15.729Z</time></trkpt><trkpt lat="43.1721453" lon="10.5752029"><ele>25.0</ele><time>2026-04-04T12:08:17.736Z</time></trkpt><trkpt lat="43.172068" lon="10.5752274"><ele>25.0</ele><time>2026-04-04T12:08:19.72Z</time></trkpt><trkpt lat="43.1719689" lon="10.5752445"><ele>25.0</ele><time>2026-04-04T12:08:21.725Z</time></trkpt><trkpt lat="43.1718693" lon="10.5752409"><ele>25.0</ele><time>2026-04-04T12:08:23.724Z</time></trkpt><trkpt lat="43.171771" lon="10.5752428"><ele>25.0</ele><time>2026-04-04T12:08:25.741Z</time></trkpt><trkpt lat="43.1716801" lon="10.575351"><ele>25.0</ele><time>2026-04-04T12:08:27.764Z</time></trkpt><trkpt lat="43.1716446" lon="10.575478"><ele>25.0</ele><time>2026-04-04T12:08:29.73Z</time></trkpt><trkpt lat="43.1716242" lon="10.5755908"><ele>25.0</ele><time>2026-04-04T12:08:31.745Z</time></trkpt><trkpt lat="43.1715825" lon="10.5756992"><ele>25.0</ele><time>2026-04-04T12:08:33.741Z</time></trkpt><trkpt lat="43.17153" lon="10.575803"><ele>25.0</ele><time>2026-04-04T12:08:35.744Z</time></trkpt><trkpt lat="43.1714645" lon="10.5759072"><ele>25.0</ele><time>2026-04-04T12:08:37.741Z</time></trkpt><trkpt lat="43.1713856" lon="10.5759976"><ele>25.0</ele><time>2026-04-04T12:08:39.747Z</time></trkpt><trkpt lat="43.1713069" lon="10.5760887"><ele>25.0</ele><time>2026-04-04T12:08:41.745Z</time></trkpt><trkpt lat="43.1712362" lon="10.5761957"><ele>25.2</ele><time>2026-04-04T12:08:43.744Z</time></trkpt><trkpt lat="43.1711722" lon="10.5763055"><ele>25.4</ele><time>2026-04-04T12:08:45.742Z</time></trkpt><trkpt lat="43.1711046" lon="10.5764194"><ele>25.6</ele><time>2026-04-04T12:08:47.741Z</time></trkpt><trkpt lat="43.1710375" lon="10.5765198"><ele>25.8</ele><time>2026-04-04T12:08:49.747Z</time></trkpt><trkpt lat="43.1709718" lon="10.5766202"><ele>26.0</ele><time>2026-04-04T12:08:51.746Z</time></trkpt><trkpt lat="43.1709122" lon="10.5767177"><ele>26.0</ele><time>2026-04-04T12:08:53.744Z</time></trkpt><trkpt lat="43.1708476" lon="10.5768218"><ele>26.0</ele><time>2026-04-04T12:08:55.749Z</time></trkpt><trkpt lat="43.1707842" lon="10.5769223"><ele>26.0</ele><time>2026-04-04T12:08:57.772Z</time></trkpt><trkpt lat="43.1707156" lon="10.5770244"><ele>26.0</ele><time>2026-04-04T12:08:59.747Z</time></trkpt><trkpt lat="43.1706442" lon="10.5771185"><ele>26.0</ele><time>2026-04-04T12:09:01.746Z</time></trkpt><trkpt lat="43.1705688" lon="10.5772128"><ele>26.4</ele><time>2026-04-04T12:09:03.744Z</time></trkpt><trkpt lat="43.1704992" lon="10.5773035"><ele>26.8</ele><time>2026-04-04T12:09:05.743Z</time></trkpt><trkpt lat="43.1704435" lon="10.5774089"><ele>27.199999999999996</ele><time>2026-04-04T12:09:07.745Z</time></trkpt><trkpt lat="43.170369" lon="10.5775111"><ele>27.599999999999998</ele><time>2026-04-04T12:09:09.746Z</time></trkpt><trkpt lat="43.1702973" lon="10.5776175"><ele>28.0</ele><time>2026-04-04T12:09:11.742Z</time></trkpt><trkpt lat="43.1702253" lon="10.5777174"><ele>28.0</ele><time>2026-04-04T12:09:13.742Z</time></trkpt><trkpt lat="43.1701589" lon="10.5778174"><ele>27.999999999999996</ele><time>2026-04-04T12:09:15.748Z</time></trkpt><trkpt lat="43.1701022" lon="10.5779244"><ele>27.999999999999996</ele><time>2026-04-04T12:09:17.753Z</time></trkpt><trkpt lat="43.1700434" lon="10.5780333"><ele>28.0</ele><time>2026-04-04T12:09:19.749Z</time></trkpt><trkpt lat="43.1699812" lon="10.5781418"><ele>28.0</ele><time>2026-04-04T12:09:21.75Z</time></trkpt><trkpt lat="43.1699067" lon="10.5782537"><ele>28.4</ele><time>2026-04-04T12:09:23.732Z</time></trkpt><trkpt lat="43.1698365" lon="10.5783916"><ele>28.799999999999997</ele><time>2026-04-04T12:09:25.73Z</time></trkpt><trkpt lat="43.1697818" lon="10.5785102"><ele>29.2</ele><time>2026-04-04T12:09:27.723Z</time></trkpt><trkpt lat="43.1697235" lon="10.5786199"><ele>29.6</ele><time>2026-04-04T12:09:29.733Z</time></trkpt><trkpt lat="43.1696633" lon="10.5787269"><ele>30.0</ele><time>2026-04-04T12:09:31.741Z</time></trkpt><trkpt lat="43.1695924" lon="10.5788358"><ele>30.2</ele><time>2026-04-04T12:09:33.743Z</time></trkpt><trkpt lat="43.1695224" lon="10.5789314"><ele>30.4</ele><time>2026-04-04T12:09:35.738Z</time></trkpt><trkpt lat="43.1694674" lon="10.5790346"><ele>30.6</ele><time>2026-04-04T12:09:37.743Z</time></trkpt><trkpt lat="43.1694238" lon="10.5791454"><ele>30.8</ele><time>2026-04-04T12:09:39.736Z</time></trkpt><trkpt lat="43.1693833" lon="10.5792703"><ele>31.0</ele><time>2026-04-04T12:09:41.75Z</time></trkpt><trkpt lat="43.1693526" lon="10.5794101"><ele>30.8</ele><time>2026-04-04T12:09:43.744Z</time></trkpt><trkpt lat="43.1693279" lon="10.5795562"><ele>30.6</ele><time>2026-04-04T12:09:45.742Z</time></trkpt><trkpt lat="43.1693065" lon="10.5797022"><ele>30.4</ele><time>2026-04-04T12:09:47.745Z</time></trkpt><trkpt lat="43.1692808" lon="10.5798425"><ele>30.2</ele><time>2026-04-04T12:09:49.746Z</time></trkpt><trkpt lat="43.1692538" lon="10.5799847"><ele>30.0</ele><time>2026-04-04T12:09:51.746Z</time></trkpt><trkpt lat="43.1692398" lon="10.5801234"><ele>30.0</ele><time>2026-04-04T12:09:53.745Z</time></trkpt><trkpt lat="43.1692182" lon="10.5802617"><ele>30.0</ele><time>2026-04-04T12:09:55.738Z</time></trkpt><trkpt lat="43.1691886" lon="10.5804011"><ele>30.0</ele><time>2026-04-04T12:09:57.745Z</time></trkpt><trkpt lat="43.1691625" lon="10.5805308"><ele>30.0</ele><time>2026-04-04T12:09:59.762Z</time></trkpt><trkpt lat="43.169143" lon="10.5806527"><ele>30.0</ele><time>2026-04-04T12:10:01.741Z</time></trkpt><trkpt lat="43.1691229" lon="10.5807927"><ele>30.0</ele><time>2026-04-04T12:10:03.743Z</time></trkpt><trkpt lat="43.1690994" lon="10.580936"><ele>30.0</ele><time>2026-04-04T12:10:05.743Z</time></trkpt><trkpt lat="43.1690792" lon="10.5810819"><ele>30.0</ele><time>2026-04-04T12:10:07.744Z</time></trkpt><trkpt lat="43.1690567" lon="10.5812116"><ele>30.0</ele><time>2026-04-04T12:10:09.743Z</time></trkpt><trkpt lat="43.1690305" lon="10.5813586"><ele>30.0</ele><time>2026-04-04T12:10:11.751Z</time></trkpt><trkpt lat="43.1690129" lon="10.5814981"><ele>30.6</ele><time>2026-04-04T12:10:13.747Z</time></trkpt><trkpt lat="43.1689966" lon="10.5816323"><ele>31.2</ele><time>2026-04-04T12:10:15.743Z</time></trkpt><trkpt lat="43.168975" lon="10.5817778"><ele>31.799999999999997</ele><time>2026-04-04T12:10:17.749Z</time></trkpt><trkpt lat="43.1689556" lon="10.5819174"><ele>32.4</ele><time>2026-04-04T12:10:19.746Z</time></trkpt><trkpt lat="43.1689369" lon="10.5820451"><ele>33.0</ele><time>2026-04-04T12:10:21.749Z</time></trkpt><trkpt lat="43.1689086" lon="10.5821666"><ele>33.6</ele><time>2026-04-04T12:10:23.749Z</time></trkpt><trkpt lat="43.1688934" lon="10.5822995"><ele>34.199999999999996</ele><time>2026-04-04T12:10:25.748Z</time></trkpt><trkpt lat="43.1688777" lon="10.5824448"><ele>34.8</ele><time>2026-04-04T12:10:27.753Z</time></trkpt><trkpt lat="43.1688665" lon="10.5825841"><ele>35.4</ele><time>2026-04-04T12:10:29.75Z</time></trkpt><trkpt lat="43.1688515" lon="10.5827168"><ele>36.0</ele><time>2026-04-04T12:10:31.745Z</time></trkpt><trkpt lat="43.1688473" lon="10.5828547"><ele>36.0</ele><time>2026-04-04T12:10:33.749Z</time></trkpt><trkpt lat="43.1688289" lon="10.5829922"><ele>36.0</ele><time>2026-04-04T12:10:35.745Z</time></trkpt><trkpt lat="43.1688051" lon="10.5831174"><ele>36.0</ele><time>2026-04-04T12:10:37.746Z</time></trkpt><trkpt lat="43.1687842" lon="10.583257"><ele>36.0</ele><time>2026-04-04T12:10:39.742Z</time></trkpt><trkpt lat="43.1687667" lon="10.583398"><ele>36.0</ele><time>2026-04-04T12:10:41.744Z</time></trkpt><trkpt lat="43.1687495" lon="10.583522"><ele>36.0</ele><time>2026-04-04T12:10:43.747Z</time></trkpt><trkpt lat="43.1687378" lon="10.5836576"><ele>36.0</ele><time>2026-04-04T12:10:45.742Z</time></trkpt><trkpt lat="43.1687257" lon="10.5837963"><ele>36.0</ele><time>2026-04-04T12:10:47.743Z</time></trkpt><trkpt lat="43.1687088" lon="10.5839321"><ele>36.0</ele><time>2026-04-04T12:10:49.744Z</time></trkpt><trkpt lat="43.1686936" lon="10.5840762"><ele>36.0</ele><time>2026-04-04T12:10:51.758Z</time></trkpt><trkpt lat="43.1686838" lon="10.5842169"><ele>36.0</ele><time>2026-04-04T12:10:53.758Z</time></trkpt><trkpt lat="43.168664" lon="10.5843568"><ele>36.0</ele><time>2026-04-04T12:10:55.757Z</time></trkpt><trkpt lat="43.1686488" lon="10.5844926"><ele>36.0</ele><time>2026-04-04T12:10:57.762Z</time></trkpt><trkpt lat="43.1686308" lon="10.5846299"><ele>36.0</ele><time>2026-04-04T12:10:59.755Z</time></trkpt><trkpt lat="43.1686165" lon="10.584764"><ele>36.0</ele><time>2026-04-04T12:11:01.78Z</time></trkpt><trkpt lat="43.1686014" lon="10.5849049"><ele>36.0</ele><time>2026-04-04T12:11:03.76Z</time></trkpt><trkpt lat="43.168587" lon="10.5850453"><ele>36.0</ele><time>2026-04-04T12:11:05.753Z</time></trkpt><trkpt lat="43.1685752" lon="10.5851688"><ele>36.0</ele><time>2026-04-04T12:11:07.754Z</time></trkpt><trkpt lat="43.1685626" lon="10.5853013"><ele>36.0</ele><time>2026-04-04T12:11:09.756Z</time></trkpt><trkpt lat="43.1685465" lon="10.5854395"><ele>36.0</ele><time>2026-04-04T12:11:11.753Z</time></trkpt><trkpt lat="43.1685319" lon="10.5855714"><ele>36.0</ele><time>2026-04-04T12:11:13.758Z</time></trkpt><trkpt lat="43.168517" lon="10.585705"><ele>36.0</ele><time>2026-04-04T12:11:15.757Z</time></trkpt><trkpt lat="43.1685" lon="10.5858438"><ele>36.0</ele><time>2026-04-04T12:11:17.764Z</time></trkpt><trkpt lat="43.1684867" lon="10.5859834"><ele>36.0</ele><time>2026-04-04T12:11:19.761Z</time></trkpt><trkpt lat="43.1684722" lon="10.5861195"><ele>36.0</ele><time>2026-04-04T12:11:21.766Z</time></trkpt><trkpt lat="43.168455" lon="10.5862633"><ele>36.2</ele><time>2026-04-04T12:11:23.756Z</time></trkpt><trkpt lat="43.1684411" lon="10.5864028"><ele>36.400000000000006</ele><time>2026-04-04T12:11:25.758Z</time></trkpt><trkpt lat="43.1684231" lon="10.5865449"><ele>36.6</ele><time>2026-04-04T12:11:27.761Z</time></trkpt><trkpt lat="43.168403" lon="10.5866775"><ele>36.800000000000004</ele><time>2026-04-04T12:11:29.753Z</time></trkpt><trkpt lat="43.1683856" lon="10.5868129"><ele>37.0</ele><time>2026-04-04T12:11:31.746Z</time></trkpt><trkpt lat="43.1683715" lon="10.5869529"><ele>37.2</ele><time>2026-04-04T12:11:33.754Z</time></trkpt><trkpt lat="43.1683618" lon="10.5870963"><ele>37.400000000000006</ele><time>2026-04-04T12:11:35.747Z</time></trkpt><trkpt lat="43.1683529" lon="10.5872267"><ele>37.599999999999994</ele><time>2026-04-04T12:11:37.751Z</time></trkpt><trkpt lat="43.1683433" lon="10.5873612"><ele>37.8</ele><time>2026-04-04T12:11:39.745Z</time></trkpt><trkpt lat="43.1683257" lon="10.587499"><ele>38.0</ele><time>2026-04-04T12:11:41.748Z</time></trkpt><trkpt lat="43.1683073" lon="10.5876176"><ele>38.0</ele><time>2026-04-04T12:11:43.749Z</time></trkpt><trkpt lat="43.168284" lon="10.5877505"><ele>38.0</ele><time>2026-04-04T12:11:45.749Z</time></trkpt><trkpt lat="43.1682639" lon="10.5878893"><ele>38.0</ele><time>2026-04-04T12:11:47.749Z</time></trkpt><trkpt lat="43.1682475" lon="10.5880227"><ele>38.0</ele><time>2026-04-04T12:11:49.756Z</time></trkpt><trkpt lat="43.1682272" lon="10.5881523"><ele>38.0</ele><time>2026-04-04T12:11:51.753Z</time></trkpt><trkpt lat="43.1682085" lon="10.5882954"><ele>38.0</ele><time>2026-04-04T12:11:53.753Z</time></trkpt><trkpt lat="43.1681832" lon="10.5884377"><ele>38.0</ele><time>2026-04-04T12:11:55.756Z</time></trkpt><trkpt lat="43.1681491" lon="10.5885776"><ele>38.0</ele><time>2026-04-04T12:11:57.757Z</time></trkpt><trkpt lat="43.1681048" lon="10.5887118"><ele>38.0</ele><time>2026-04-04T12:11:59.759Z</time></trkpt><trkpt lat="43.1680579" lon="10.5888408"><ele>38.0</ele><time>2026-04-04T12:12:01.753Z</time></trkpt><trkpt lat="43.1679932" lon="10.5889553"><ele>38.4</ele><time>2026-04-04T12:12:03.774Z</time></trkpt><trkpt lat="43.1679252" lon="10.5890638"><ele>38.8</ele><time>2026-04-04T12:12:05.749Z</time></trkpt><trkpt lat="43.1678624" lon="10.5891654"><ele>39.2</ele><time>2026-04-04T12:12:07.753Z</time></trkpt><trkpt lat="43.167803" lon="10.5892774"><ele>39.6</ele><time>2026-04-04T12:12:09.754Z</time></trkpt><trkpt lat="43.167748" lon="10.5893931"><ele>40.0</ele><time>2026-04-04T12:12:11.747Z</time></trkpt><trkpt lat="43.1676901" lon="10.589497"><ele>39.6</ele><time>2026-04-04T12:12:13.747Z</time></trkpt><trkpt lat="43.1676422" lon="10.5896205"><ele>39.2</ele><time>2026-04-04T12:12:15.757Z</time></trkpt><trkpt lat="43.167607" lon="10.5897535"><ele>38.8</ele><time>2026-04-04T12:12:17.758Z</time></trkpt><trkpt lat="43.1675681" lon="10.5898838"><ele>38.4</ele><time>2026-04-04T12:12:19.756Z</time></trkpt><trkpt lat="43.1675229" lon="10.5900165"><ele>38.0</ele><time>2026-04-04T12:12:21.756Z</time></trkpt><trkpt lat="43.1674822" lon="10.5901528"><ele>38.0</ele><time>2026-04-04T12:12:23.754Z</time></trkpt><trkpt lat="43.1674418" lon="10.5902905"><ele>38.0</ele><time>2026-04-04T12:12:25.751Z</time></trkpt><trkpt lat="43.1674013" lon="10.5904229"><ele>38.0</ele><time>2026-04-04T12:12:27.754Z</time></trkpt><trkpt lat="43.1673595" lon="10.5905582"><ele>38.0</ele><time>2026-04-04T12:12:29.754Z</time></trkpt><trkpt lat="43.1673156" lon="10.5906938"><ele>38.0</ele><time>2026-04-04T12:12:31.76Z</time></trkpt><trkpt lat="43.1672737" lon="10.590819"><ele>38.4</ele><time>2026-04-04T12:12:33.755Z</time></trkpt><trkpt lat="43.1672377" lon="10.5909541"><ele>38.8</ele><time>2026-04-04T12:12:35.753Z</time></trkpt><trkpt lat="43.1672006" lon="10.5910749"><ele>39.2</ele><time>2026-04-04T12:12:37.75Z</time></trkpt><trkpt lat="43.1671589" lon="10.5911977"><ele>39.6</ele><time>2026-04-04T12:12:39.739Z</time></trkpt><trkpt lat="43.1671221" lon="10.5913278"><ele>40.0</ele><time>2026-04-04T12:12:41.746Z</time></trkpt><trkpt lat="43.1670857" lon="10.5914496"><ele>40.2</ele><time>2026-04-04T12:12:43.751Z</time></trkpt><trkpt lat="43.1670458" lon="10.5915706"><ele>40.4</ele><time>2026-04-04T12:12:45.753Z</time></trkpt><trkpt lat="43.167004" lon="10.5916981"><ele>40.599999999999994</ele><time>2026-04-04T12:12:47.745Z</time></trkpt><trkpt lat="43.1669608" lon="10.591825"><ele>40.8</ele><time>2026-04-04T12:12:49.748Z</time></trkpt><trkpt lat="43.1669221" lon="10.5919594"><ele>41.0</ele><time>2026-04-04T12:12:51.749Z</time></trkpt><trkpt lat="43.1668798" lon="10.5920855"><ele>41.199999999999996</ele><time>2026-04-04T12:12:53.756Z</time></trkpt><trkpt lat="43.1668353" lon="10.5922207"><ele>41.4</ele><time>2026-04-04T12:12:55.75Z</time></trkpt><trkpt lat="43.1668001" lon="10.5923518"><ele>41.6</ele><time>2026-04-04T12:12:57.756Z</time></trkpt><trkpt lat="43.166775" lon="10.5924937"><ele>41.8</ele><time>2026-04-04T12:12:59.749Z</time></trkpt><trkpt lat="43.1667589" lon="10.5926346"><ele>42.0</ele><time>2026-04-04T12:13:01.756Z</time></trkpt><trkpt lat="43.1667481" lon="10.5927844"><ele>41.8</ele><time>2026-04-04T12:13:03.75Z</time></trkpt><trkpt lat="43.1667439" lon="10.5929214"><ele>41.6</ele><time>2026-04-04T12:13:05.767Z</time></trkpt><trkpt lat="43.1667491" lon="10.5930646"><ele>41.4</ele><time>2026-04-04T12:13:07.743Z</time></trkpt><trkpt lat="43.1667461" lon="10.5931855"><ele>41.199999999999996</ele><time>2026-04-04T12:13:09.732Z</time></trkpt><trkpt lat="43.1667454" lon="10.5933146"><ele>41.0</ele><time>2026-04-04T12:13:11.732Z</time></trkpt><trkpt lat="43.166727" lon="10.5934656"><ele>41.0</ele><time>2026-04-04T12:13:13.742Z</time></trkpt><trkpt lat="43.1667135" lon="10.5935979"><ele>41.0</ele><time>2026-04-04T12:13:15.746Z</time></trkpt><trkpt lat="43.166692" lon="10.5937312"><ele>41.0</ele><time>2026-04-04T12:13:17.751Z</time></trkpt><trkpt lat="43.1666716" lon="10.593858"><ele>41.0</ele><time>2026-04-04T12:13:19.745Z</time></trkpt><trkpt lat="43.166659" lon="10.5939916"><ele>41.0</ele><time>2026-04-04T12:13:21.758Z</time></trkpt><trkpt lat="43.1666606" lon="10.5941411"><ele>41.0</ele><time>2026-04-04T12:13:23.761Z</time></trkpt><trkpt lat="43.166659" lon="10.5942846"><ele>41.0</ele><time>2026-04-04T12:13:25.762Z</time></trkpt><trkpt lat="43.1666638" lon="10.5944176"><ele>41.0</ele><time>2026-04-04T12:13:27.762Z</time></trkpt><trkpt lat="43.1666794" lon="10.5945569"><ele>41.0</ele><time>2026-04-04T12:13:29.762Z</time></trkpt><trkpt lat="43.1666905" lon="10.5946902"><ele>41.0</ele><time>2026-04-04T12:13:31.765Z</time></trkpt><trkpt lat="43.1667077" lon="10.5948228"><ele>41.0</ele><time>2026-04-04T12:13:33.763Z</time></trkpt><trkpt lat="43.1667209" lon="10.5949502"><ele>41.0</ele><time>2026-04-04T12:13:35.754Z</time></trkpt><trkpt lat="43.1667313" lon="10.5950917"><ele>41.0</ele><time>2026-04-04T12:13:37.755Z</time></trkpt><trkpt lat="43.166739" lon="10.5952308"><ele>41.0</ele><time>2026-04-04T12:13:39.755Z</time></trkpt><trkpt lat="43.1667412" lon="10.5953672"><ele>41.0</ele><time>2026-04-04T12:13:41.757Z</time></trkpt><trkpt lat="43.1667247" lon="10.5954974"><ele>41.4</ele><time>2026-04-04T12:13:43.757Z</time></trkpt><trkpt lat="43.1666948" lon="10.5956305"><ele>41.8</ele><time>2026-04-04T12:13:45.751Z</time></trkpt><trkpt lat="43.1666567" lon="10.5957565"><ele>42.199999999999996</ele><time>2026-04-04T12:13:47.75Z</time></trkpt><trkpt lat="43.1666063" lon="10.5958672"><ele>42.599999999999994</ele><time>2026-04-04T12:13:49.749Z</time></trkpt><trkpt lat="43.166552" lon="10.5959721"><ele>43.0</ele><time>2026-04-04T12:13:51.754Z</time></trkpt><trkpt lat="43.1664947" lon="10.5960807"><ele>43.4</ele><time>2026-04-04T12:13:53.757Z</time></trkpt><trkpt lat="43.166431" lon="10.5961833"><ele>43.8</ele><time>2026-04-04T12:13:55.762Z</time></trkpt><trkpt lat="43.1663584" lon="10.5962787"><ele>44.2</ele><time>2026-04-04T12:13:57.758Z</time></trkpt><trkpt lat="43.1662901" lon="10.5963687"><ele>44.6</ele><time>2026-04-04T12:13:59.759Z</time></trkpt><trkpt lat="43.1662248" lon="10.5964598"><ele>45.0</ele><time>2026-04-04T12:14:01.757Z</time></trkpt><trkpt lat="43.1661632" lon="10.5965521"><ele>45.0</ele><time>2026-04-04T12:14:03.76Z</time></trkpt><trkpt lat="43.1661017" lon="10.5966565"><ele>45.0</ele><time>2026-04-04T12:14:05.749Z</time></trkpt><trkpt lat="43.1660355" lon="10.5967516"><ele>45.0</ele><time>2026-04-04T12:14:07.773Z</time></trkpt><trkpt lat="43.1659707" lon="10.5968461"><ele>45.0</ele><time>2026-04-04T12:14:09.751Z</time></trkpt><trkpt lat="43.1659038" lon="10.5969475"><ele>45.0</ele><time>2026-04-04T12:14:11.753Z</time></trkpt><trkpt lat="43.1658317" lon="10.5970431"><ele>44.8</ele><time>2026-04-04T12:14:13.76Z</time></trkpt><trkpt lat="43.1657598" lon="10.597145"><ele>44.6</ele><time>2026-04-04T12:14:15.753Z</time></trkpt><trkpt lat="43.1656979" lon="10.5972393"><ele>44.400000000000006</ele><time>2026-04-04T12:14:17.752Z</time></trkpt><trkpt lat="43.1656329" lon="10.5973248"><ele>44.2</ele><time>2026-04-04T12:14:19.751Z</time></trkpt><trkpt lat="43.1655789" lon="10.5974177"><ele>44.0</ele><time>2026-04-04T12:14:21.754Z</time></trkpt><trkpt lat="43.1655318" lon="10.5975183"><ele>44.33333333333333</ele><time>2026-04-04T12:14:23.752Z</time></trkpt><trkpt lat="43.165468" lon="10.5976041"><ele>44.666666666666664</ele><time>2026-04-04T12:14:25.752Z</time></trkpt><trkpt lat="43.1654135" lon="10.5976847"><ele>45.0</ele><time>2026-04-04T12:14:27.753Z</time></trkpt><trkpt lat="43.1653522" lon="10.5977695"><ele>45.333333333333336</ele><time>2026-04-04T12:14:29.754Z</time></trkpt><trkpt lat="43.1652911" lon="10.5978558"><ele>45.66666666666667</ele><time>2026-04-04T12:14:31.76Z</time></trkpt><trkpt lat="43.1652288" lon="10.5979492"><ele>46.0</ele><time>2026-04-04T12:14:33.758Z</time></trkpt><trkpt lat="43.1651698" lon="10.5980413"><ele>46.0</ele><time>2026-04-04T12:14:35.753Z</time></trkpt><trkpt lat="43.1651091" lon="10.5981398"><ele>46.0</ele><time>2026-04-04T12:14:37.754Z</time></trkpt><trkpt lat="43.165049" lon="10.598229"><ele>46.0</ele><time>2026-04-04T12:14:39.751Z</time></trkpt><trkpt lat="43.1649862" lon="10.5983125"><ele>46.0</ele><time>2026-04-04T12:14:41.753Z</time></trkpt><trkpt lat="43.1649251" lon="10.5984032"><ele>46.0</ele><time>2026-04-04T12:14:43.756Z</time></trkpt><trkpt lat="43.1648701" lon="10.5984882"><ele>46.0</ele><time>2026-04-04T12:14:45.757Z</time></trkpt><trkpt lat="43.1647816" lon="10.5986148"><ele>46.5</ele><time>2026-04-04T12:14:48.756Z</time></trkpt><trkpt lat="43.1647226" lon="10.5986898"><ele>47.0</ele><time>2026-04-04T12:14:50.749Z</time></trkpt><trkpt lat="43.1646555" lon="10.5987591"><ele>47.5</ele><time>2026-04-04T12:14:52.752Z</time></trkpt><trkpt lat="43.1645825" lon="10.5988219"><ele>48.0</ele><time>2026-04-04T12:14:54.746Z</time></trkpt><trkpt lat="43.1645134" lon="10.5988921"><ele>48.49999999999999</ele><time>2026-04-04T12:14:56.75Z</time></trkpt><trkpt lat="43.1644519" lon="10.5989637"><ele>49.0</ele><time>2026-04-04T12:14:58.765Z</time></trkpt><trkpt lat="43.1643911" lon="10.5990473"><ele>48.99999999999999</ele><time>2026-04-04T12:15:00.755Z</time></trkpt><trkpt lat="43.1643247" lon="10.5991277"><ele>49.0</ele><time>2026-04-04T12:15:02.749Z</time></trkpt><trkpt lat="43.1642505" lon="10.599207"><ele>49.0</ele><time>2026-04-04T12:15:04.745Z</time></trkpt><trkpt lat="43.1641862" lon="10.5992934"><ele>49.0</ele><time>2026-04-04T12:15:06.748Z</time></trkpt><trkpt lat="43.1641235" lon="10.5993644"><ele>48.99999999999999</ele><time>2026-04-04T12:15:08.74Z</time></trkpt><trkpt lat="43.1640648" lon="10.5994428"><ele>49.0</ele><time>2026-04-04T12:15:10.743Z</time></trkpt><trkpt lat="43.1640073" lon="10.5995117"><ele>50.33333333333333</ele><time>2026-04-04T12:15:12.744Z</time></trkpt><trkpt lat="43.1639517" lon="10.5995787"><ele>51.666666666666664</ele><time>2026-04-04T12:15:14.741Z</time></trkpt><trkpt lat="43.163897" lon="10.5996539"><ele>53.0</ele><time>2026-04-04T12:15:16.749Z</time></trkpt><trkpt lat="43.1638415" lon="10.5997349"><ele>54.33333333333333</ele><time>2026-04-04T12:15:18.747Z</time></trkpt><trkpt lat="43.1637817" lon="10.5998133"><ele>55.666666666666664</ele><time>2026-04-04T12:15:20.747Z</time></trkpt><trkpt lat="43.1637203" lon="10.5998838"><ele>57.0</ele><time>2026-04-04T12:15:22.749Z</time></trkpt><trkpt lat="43.1636718" lon="10.5999487"><ele>57.0</ele><time>2026-04-04T12:15:24.75Z</time></trkpt><trkpt lat="43.1636231" lon="10.6000103"><ele>56.99999999999999</ele><time>2026-04-04T12:15:26.753Z</time></trkpt><trkpt lat="43.1635741" lon="10.6000829"><ele>57.0</ele><time>2026-04-04T12:15:28.754Z</time></trkpt><trkpt lat="43.1635195" lon="10.6001439"><ele>57.0</ele><time>2026-04-04T12:15:30.749Z</time></trkpt><trkpt lat="43.1634645" lon="10.6002068"><ele>56.99999999999999</ele><time>2026-04-04T12:15:32.745Z</time></trkpt><trkpt lat="43.1633884" lon="10.6002876"><ele>57.0</ele><time>2026-04-04T12:15:35.735Z</time></trkpt><trkpt lat="43.1633358" lon="10.6003559"><ele>57.0</ele><time>2026-04-04T12:15:37.748Z</time></trkpt><trkpt lat="43.1632848" lon="10.6004227"><ele>57.57142857142857</ele><time>2026-04-04T12:15:39.748Z</time></trkpt><trkpt lat="43.1632365" lon="10.6004786"><ele>58.14285714285714</ele><time>2026-04-04T12:15:41.745Z</time></trkpt><trkpt lat="43.16319" lon="10.6005394"><ele>58.71428571428571</ele><time>2026-04-04T12:15:43.747Z</time></trkpt><trkpt lat="43.1631387" lon="10.600602"><ele>59.28571428571428</ele><time>2026-04-04T12:15:45.75Z</time></trkpt><trkpt lat="43.1630936" lon="10.6006684"><ele>59.857142857142854</ele><time>2026-04-04T12:15:47.746Z</time></trkpt><trkpt lat="43.1630486" lon="10.6007295"><ele>60.428571428571416</ele><time>2026-04-04T12:15:49.749Z</time></trkpt><trkpt lat="43.1629819" lon="10.6008201"><ele>60.99999999999999</ele><time>2026-04-04T12:15:52.757Z</time></trkpt><trkpt lat="43.162935" lon="10.6008829"><ele>61.33333333333333</ele><time>2026-04-04T12:15:54.751Z</time></trkpt><trkpt lat="43.1628652" lon="10.6009652"><ele>61.666666666666664</ele><time>2026-04-04T12:15:57.755Z</time></trkpt><trkpt lat="43.1628169" lon="10.6010255"><ele>62.0</ele><time>2026-04-04T12:15:59.755Z</time></trkpt><trkpt lat="43.1627603" lon="10.6010873"><ele>62.33333333333333</ele><time>2026-04-04T12:16:01.747Z</time></trkpt><trkpt lat="43.1626913" lon="10.6011814"><ele>62.666666666666664</ele><time>2026-04-04T12:16:04.751Z</time></trkpt><trkpt lat="43.1626535" lon="10.6012597"><ele>63.0</ele><time>2026-04-04T12:16:06.749Z</time></trkpt><trkpt lat="43.1625977" lon="10.6013641"><ele>63.833333333333336</ele><time>2026-04-04T12:16:09.749Z</time></trkpt><trkpt lat="43.1625485" lon="10.6014357"><ele>64.66666666666667</ele><time>2026-04-04T12:16:11.762Z</time></trkpt><trkpt lat="43.1625175" lon="10.6015252"><ele>65.5</ele><time>2026-04-04T12:16:13.743Z</time></trkpt><trkpt lat="43.1625308" lon="10.6016307"><ele>66.33333333333334</ele><time>2026-04-04T12:16:15.746Z</time></trkpt><trkpt lat="43.1625739" lon="10.6017347"><ele>67.16666666666667</ele><time>2026-04-04T12:16:17.744Z</time></trkpt><trkpt lat="43.1626354" lon="10.6018198"><ele>68.0</ele><time>2026-04-04T12:16:19.747Z</time></trkpt><trkpt lat="43.1627174" lon="10.6018568"><ele>67.99999999999999</ele><time>2026-04-04T12:16:21.747Z</time></trkpt><trkpt lat="43.1627899" lon="10.6018746"><ele>68.0</ele><time>2026-04-04T12:16:23.744Z</time></trkpt><trkpt lat="43.1628622" lon="10.6018646"><ele>68.0</ele><time>2026-04-04T12:16:25.74Z</time></trkpt><trkpt lat="43.1629392" lon="10.6018595"><ele>68.0</ele><time>2026-04-04T12:16:27.737Z</time></trkpt><trkpt lat="43.1630071" lon="10.6018814"><ele>68.0</ele><time>2026-04-04T12:16:29.732Z</time></trkpt><trkpt lat="43.1630767" lon="10.6018766"><ele>67.99999999999999</ele><time>2026-04-04T12:16:31.733Z</time></trkpt><trkpt lat="43.163147" lon="10.601858"><ele>68.0</ele><time>2026-04-04T12:16:33.736Z</time></trkpt><trkpt lat="43.1632207" lon="10.6018534"><ele>68.16666666666667</ele><time>2026-04-04T12:16:35.737Z</time></trkpt><trkpt lat="43.1633088" lon="10.601883"><ele>68.33333333333334</ele><time>2026-04-04T12:16:38.733Z</time></trkpt><trkpt lat="43.1633742" lon="10.6019712"><ele>68.5</ele><time>2026-04-04T12:16:41.734Z</time></trkpt><trkpt lat="43.1633797" lon="10.6020933"><ele>68.66666666666667</ele><time>2026-04-04T12:16:44.742Z</time></trkpt><trkpt lat="43.1633211" lon="10.6021927"><ele>68.83333333333333</ele><time>2026-04-04T12:16:47.735Z</time></trkpt><trkpt lat="43.1632656" lon="10.602243"><ele>69.0</ele><time>2026-04-04T12:16:49.732Z</time></trkpt><trkpt lat="43.1631656" lon="10.6022492"><ele>70.14285714285714</ele><time>2026-04-04T12:16:52.732Z</time></trkpt><trkpt lat="43.1630924" lon="10.6022576"><ele>71.28571428571429</ele><time>2026-04-04T12:16:54.74Z</time></trkpt><trkpt lat="43.1630145" lon="10.6022622"><ele>72.42857142857143</ele><time>2026-04-04T12:16:56.738Z</time></trkpt><trkpt lat="43.1629378" lon="10.6022934"><ele>73.57142857142857</ele><time>2026-04-04T12:16:58.748Z</time></trkpt><trkpt lat="43.1628618" lon="10.6023245"><ele>74.71428571428572</ele><time>2026-04-04T12:17:00.742Z</time></trkpt><trkpt lat="43.1627952" lon="10.6023551"><ele>75.85714285714286</ele><time>2026-04-04T12:17:02.738Z</time></trkpt><trkpt lat="43.1627386" lon="10.6024009"><ele>77.0</ele><time>2026-04-04T12:17:04.743Z</time></trkpt><trkpt lat="43.1626794" lon="10.6024517"><ele>77.0</ele><time>2026-04-04T12:17:06.74Z</time></trkpt><trkpt lat="43.1626257" lon="10.6024983"><ele>77.0</ele><time>2026-04-04T12:17:08.741Z</time></trkpt><trkpt lat="43.1625593" lon="10.6025514"><ele>77.0</ele><time>2026-04-04T12:17:10.739Z</time></trkpt><trkpt lat="43.1624976" lon="10.6026065"><ele>77.0</ele><time>2026-04-04T12:17:12.744Z</time></trkpt><trkpt lat="43.1624165" lon="10.6026861"><ele>77.0</ele><time>2026-04-04T12:17:15.743Z</time></trkpt><trkpt lat="43.1623633" lon="10.6027471"><ele>77.0</ele><time>2026-04-04T12:17:17.749Z</time></trkpt><trkpt lat="43.1623125" lon="10.6028186"><ele>77.42857142857143</ele><time>2026-04-04T12:17:19.737Z</time></trkpt><trkpt lat="43.1622653" lon="10.6028904"><ele>77.85714285714286</ele><time>2026-04-04T12:17:21.752Z</time></trkpt><trkpt lat="43.1622212" lon="10.6029559"><ele>78.28571428571428</ele><time>2026-04-04T12:17:23.745Z</time></trkpt><trkpt lat="43.1621757" lon="10.6030299"><ele>78.71428571428572</ele><time>2026-04-04T12:17:25.738Z</time></trkpt><trkpt lat="43.162138" lon="10.6030998"><ele>79.14285714285714</ele><time>2026-04-04T12:17:27.745Z</time></trkpt><trkpt lat="43.1620897" lon="10.6032098"><ele>79.57142857142857</ele><time>2026-04-04T12:17:30.753Z</time></trkpt><trkpt lat="43.1620589" lon="10.6032927"><ele>80.0</ele><time>2026-04-04T12:17:32.746Z</time></trkpt><trkpt lat="43.1620281" lon="10.6033735"><ele>80.0</ele><time>2026-04-04T12:17:34.749Z</time></trkpt><trkpt lat="43.1619998" lon="10.6034593"><ele>80.0</ele><time>2026-04-04T12:17:36.743Z</time></trkpt><trkpt lat="43.1619696" lon="10.6035419"><ele>80.0</ele><time>2026-04-04T12:17:38.745Z</time></trkpt><trkpt lat="43.1619423" lon="10.6036214"><ele>80.0</ele><time>2026-04-04T12:17:40.743Z</time></trkpt><trkpt lat="43.1619143" lon="10.6037"><ele>80.0</ele><time>2026-04-04T12:17:42.745Z</time></trkpt><trkpt lat="43.1618816" lon="10.6037824"><ele>80.0</ele><time>2026-04-04T12:17:44.767Z</time></trkpt><trkpt lat="43.1618566" lon="10.6038687"><ele>80.0</ele><time>2026-04-04T12:17:46.745Z</time></trkpt><trkpt lat="43.1618081" lon="10.60398"><ele>81.71428571428571</ele><time>2026-04-04T12:17:49.743Z</time></trkpt><trkpt lat="43.1617669" lon="10.6040474"><ele>83.42857142857143</ele><time>2026-04-04T12:17:51.741Z</time></trkpt><trkpt lat="43.1617147" lon="10.6041008"><ele>85.14285714285714</ele><time>2026-04-04T12:17:53.745Z</time></trkpt><trkpt lat="43.161632" lon="10.604152"><ele>86.85714285714286</ele><time>2026-04-04T12:17:56.748Z</time></trkpt><trkpt lat="43.1615704" lon="10.6041739"><ele>88.57142857142857</ele><time>2026-04-04T12:17:58.761Z</time></trkpt><trkpt lat="43.1615037" lon="10.6041861"><ele>90.28571428571429</ele><time>2026-04-04T12:18:00.758Z</time></trkpt><trkpt lat="43.1614391" lon="10.6041824"><ele>92.0</ele><time>2026-04-04T12:18:02.748Z</time></trkpt><trkpt lat="43.1613698" lon="10.6041654"><ele>93.71428571428572</ele><time>2026-04-04T12:18:04.751Z</time></trkpt><trkpt lat="43.1613128" lon="10.6041237"><ele>95.42857142857142</ele><time>2026-04-04T12:18:06.745Z</time></trkpt><trkpt lat="43.1612581" lon="10.604069"><ele>97.14285714285714</ele><time>2026-04-04T12:18:08.739Z</time></trkpt><trkpt lat="43.1612101" lon="10.6040008"><ele>98.85714285714286</ele><time>2026-04-04T12:18:10.745Z</time></trkpt><trkpt lat="43.1611677" lon="10.6039298"><ele>100.57142857142858</ele><time>2026-04-04T12:18:12.747Z</time></trkpt><trkpt lat="43.1611249" lon="10.6038629"><ele>102.28571428571428</ele><time>2026-04-04T12:18:14.744Z</time></trkpt><trkpt lat="43.1610629" lon="10.6037656"><ele>104.0</ele><time>2026-04-04T12:18:17.743Z</time></trkpt><trkpt lat="43.1610177" lon="10.6036953"><ele>103.57142857142857</ele><time>2026-04-04T12:18:19.746Z</time></trkpt><trkpt lat="43.1609775" lon="10.6036263"><ele>103.14285714285715</ele><time>2026-04-04T12:18:21.755Z</time></trkpt><trkpt lat="43.1609221" lon="10.6035758"><ele>102.71428571428572</ele><time>2026-04-04T12:18:23.755Z</time></trkpt><trkpt lat="43.1608623" lon="10.6035301"><ele>102.28571428571428</ele><time>2026-04-04T12:18:25.751Z</time></trkpt><trkpt lat="43.1607943" lon="10.6035092"><ele>101.85714285714286</ele><time>2026-04-04T12:18:27.751Z</time></trkpt><trkpt lat="43.1607278" lon="10.6034962"><ele>101.42857142857143</ele><time>2026-04-04T12:18:29.755Z</time></trkpt><trkpt lat="43.160658" lon="10.6034938"><ele>101.0</ele><time>2026-04-04T12:18:31.753Z</time></trkpt><trkpt lat="43.1605814" lon="10.6034936"><ele>101.0</ele><time>2026-04-04T12:18:33.752Z</time></trkpt><trkpt lat="43.1605139" lon="10.6034712"><ele>101.0</ele><time>2026-04-04T12:18:35.745Z</time></trkpt><trkpt lat="43.1604423" lon="10.6034441"><ele>101.0</ele><time>2026-04-04T12:18:37.753Z</time></trkpt><trkpt lat="43.1603801" lon="10.6034071"><ele>101.0</ele><time>2026-04-04T12:18:39.75Z</time></trkpt><trkpt lat="43.1603247" lon="10.6033552"><ele>101.0</ele><time>2026-04-04T12:18:41.751Z</time></trkpt><trkpt lat="43.1602639" lon="10.6033052"><ele>101.0</ele><time>2026-04-04T12:18:43.753Z</time></trkpt><trkpt lat="43.1602108" lon="10.6032449"><ele>101.0</ele><time>2026-04-04T12:18:45.766Z</time></trkpt><trkpt lat="43.160161" lon="10.6031888"><ele>101.0</ele><time>2026-04-04T12:18:47.755Z</time></trkpt><trkpt lat="43.1600911" lon="10.6031064"><ele>101.0</ele><time>2026-04-04T12:18:50.744Z</time></trkpt><trkpt lat="43.1600467" lon="10.6030428"><ele>101.0</ele><time>2026-04-04T12:18:52.742Z</time></trkpt><trkpt lat="43.159982" lon="10.602982"><ele>101.0</ele><time>2026-04-04T12:18:54.744Z</time></trkpt><trkpt lat="43.159922" lon="10.6029282"><ele>101.0</ele><time>2026-04-04T12:18:56.744Z</time></trkpt><trkpt lat="43.1598616" lon="10.602885"><ele>101.0</ele><time>2026-04-04T12:18:58.756Z</time></trkpt><trkpt lat="43.1597985" lon="10.6028472"><ele>101.0</ele><time>2026-04-04T12:19:00.749Z</time></trkpt><trkpt lat="43.1597275" lon="10.602832"><ele>101.14285714285714</ele><time>2026-04-04T12:19:02.752Z</time></trkpt><trkpt lat="43.1596541" lon="10.6028354"><ele>101.28571428571428</ele><time>2026-04-04T12:19:04.753Z</time></trkpt><trkpt lat="43.1595738" lon="10.6028659"><ele>101.42857142857143</ele><time>2026-04-04T12:19:06.752Z</time></trkpt><trkpt lat="43.1595095" lon="10.6029149"><ele>101.57142857142857</ele><time>2026-04-04T12:19:08.752Z</time></trkpt><trkpt lat="43.1594536" lon="10.6029772"><ele>101.71428571428572</ele><time>2026-04-04T12:19:10.75Z</time></trkpt><trkpt lat="43.1594046" lon="10.6030436"><ele>101.85714285714286</ele><time>2026-04-04T12:19:12.749Z</time></trkpt><trkpt lat="43.1593526" lon="10.6031059"><ele>102.0</ele><time>2026-04-04T12:19:14.749Z</time></trkpt><trkpt lat="43.1593002" lon="10.6031733"><ele>102.0</ele><time>2026-04-04T12:19:16.781Z</time></trkpt><trkpt lat="43.1592491" lon="10.6032257"><ele>102.0</ele><time>2026-04-04T12:19:18.761Z</time></trkpt><trkpt lat="43.1591995" lon="10.6032808"><ele>102.0</ele><time>2026-04-04T12:19:20.753Z</time></trkpt><trkpt lat="43.1591503" lon="10.6033441"><ele>102.0</ele><time>2026-04-04T12:19:22.748Z</time></trkpt><trkpt lat="43.1591059" lon="10.6034076"><ele>102.0</ele><time>2026-04-04T12:19:24.751Z</time></trkpt><trkpt lat="43.1590555" lon="10.6034715"><ele>102.0</ele><time>2026-04-04T12:19:26.753Z</time></trkpt><trkpt lat="43.1590097" lon="10.6035404"><ele>102.0</ele><time>2026-04-04T12:19:28.761Z</time></trkpt><trkpt lat="43.1589555" lon="10.6035882"><ele>101.85714285714286</ele><time>2026-04-04T12:19:30.753Z</time></trkpt><trkpt lat="43.1588859" lon="10.6036625"><ele>101.71428571428572</ele><time>2026-04-04T12:19:33.752Z</time></trkpt><trkpt lat="43.1588355" lon="10.6037192"><ele>101.57142857142857</ele><time>2026-04-04T12:19:35.745Z</time></trkpt><trkpt lat="43.1587902" lon="10.6037862"><ele>101.42857142857143</ele><time>2026-04-04T12:19:37.75Z</time></trkpt><trkpt lat="43.1587417" lon="10.6038577"><ele>101.28571428571428</ele><time>2026-04-04T12:19:39.748Z</time></trkpt><trkpt lat="43.1586947" lon="10.6039357"><ele>101.14285714285714</ele><time>2026-04-04T12:19:41.755Z</time></trkpt><trkpt lat="43.1586538" lon="10.6040085"><ele>101.0</ele><time>2026-04-04T12:19:43.754Z</time></trkpt><trkpt lat="43.158611" lon="10.6040737"><ele>101.0</ele><time>2026-04-04T12:19:45.751Z</time></trkpt><trkpt lat="43.1585708" lon="10.6041462"><ele>101.0</ele><time>2026-04-04T12:19:47.767Z</time></trkpt><trkpt lat="43.1585272" lon="10.6042202"><ele>101.0</ele><time>2026-04-04T12:19:49.752Z</time></trkpt><trkpt lat="43.1584846" lon="10.6042924"><ele>101.0</ele><time>2026-04-04T12:19:51.743Z</time></trkpt><trkpt lat="43.1584417" lon="10.60436"><ele>101.0</ele><time>2026-04-04T12:19:53.748Z</time></trkpt><trkpt lat="43.1584011" lon="10.6044281"><ele>101.0</ele><time>2026-04-04T12:19:55.753Z</time></trkpt><trkpt lat="43.1583458" lon="10.6045347"><ele>101.0</ele><time>2026-04-04T12:19:58.751Z</time></trkpt><trkpt lat="43.1583171" lon="10.6046163"><ele>102.42857142857143</ele><time>2026-04-04T12:20:00.747Z</time></trkpt><trkpt lat="43.1582997" lon="10.6047012"><ele>103.85714285714286</ele><time>2026-04-04T12:20:02.746Z</time></trkpt><trkpt lat="43.1582885" lon="10.6047921"><ele>105.28571428571428</ele><time>2026-04-04T12:20:04.742Z</time></trkpt><trkpt lat="43.1582857" lon="10.6048895"><ele>106.71428571428572</ele><time>2026-04-04T12:20:06.749Z</time></trkpt><trkpt lat="43.1582865" lon="10.6049826"><ele>108.14285714285715</ele><time>2026-04-04T12:20:08.756Z</time></trkpt><trkpt lat="43.1582989" lon="10.6050771"><ele>109.57142857142857</ele><time>2026-04-04T12:20:10.756Z</time></trkpt><trkpt lat="43.1583204" lon="10.6051714"><ele>111.0</ele><time>2026-04-04T12:20:12.754Z</time></trkpt><trkpt lat="43.1583502" lon="10.605258"><ele>110.42857142857143</ele><time>2026-04-04T12:20:14.746Z</time></trkpt><trkpt lat="43.1583802" lon="10.6053404"><ele>109.85714285714286</ele><time>2026-04-04T12:20:16.742Z</time></trkpt><trkpt lat="43.1584164" lon="10.605412"><ele>109.28571428571429</ele><time>2026-04-04T12:20:18.765Z</time></trkpt><trkpt lat="43.15845" lon="10.6054874"><ele>108.71428571428572</ele><time>2026-04-04T12:20:20.747Z</time></trkpt><trkpt lat="43.1584872" lon="10.6055652"><ele>108.14285714285714</ele><time>2026-04-04T12:20:22.747Z</time></trkpt><trkpt lat="43.1585194" lon="10.60564"><ele>107.57142857142858</ele><time>2026-04-04T12:20:24.753Z</time></trkpt><trkpt lat="43.1585724" lon="10.6057522"><ele>107.0</ele><time>2026-04-04T12:20:27.744Z</time></trkpt><trkpt lat="43.158613" lon="10.605825"><ele>107.00000000000001</ele><time>2026-04-04T12:20:29.75Z</time></trkpt><trkpt lat="43.1586524" lon="10.6058929"><ele>107.0</ele><time>2026-04-04T12:20:31.746Z</time></trkpt><trkpt lat="43.1586921" lon="10.605969"><ele>107.0</ele><time>2026-04-04T12:20:33.752Z</time></trkpt><trkpt lat="43.1587353" lon="10.6060391"><ele>107.0</ele><time>2026-04-04T12:20:35.747Z</time></trkpt><trkpt lat="43.1587762" lon="10.6061067"><ele>107.0</ele><time>2026-04-04T12:20:37.746Z</time></trkpt><trkpt lat="43.1588317" lon="10.606206"><ele>107.00000000000001</ele><time>2026-04-04T12:20:40.746Z</time></trkpt><trkpt lat="43.1588715" lon="10.6062797"><ele>107.0</ele><time>2026-04-04T12:20:42.746Z</time></trkpt><trkpt lat="43.1589029" lon="10.6063598"><ele>107.16666666666666</ele><time>2026-04-04T12:20:44.744Z</time></trkpt><trkpt lat="43.1589463" lon="10.6064779"><ele>107.33333333333333</ele><time>2026-04-04T12:20:47.748Z</time></trkpt><trkpt lat="43.1589673" lon="10.6065733"><ele>107.5</ele><time>2026-04-04T12:20:49.768Z</time></trkpt><trkpt lat="43.1589848" lon="10.6066566"><ele>107.66666666666666</ele><time>2026-04-04T12:20:51.749Z</time></trkpt><trkpt lat="43.1589888" lon="10.6067433"><ele>107.83333333333333</ele><time>2026-04-04T12:20:53.74Z</time></trkpt><trkpt lat="43.1590051" lon="10.6068309"><ele>108.0</ele><time>2026-04-04T12:20:55.744Z</time></trkpt><trkpt lat="43.1590267" lon="10.6069575"><ele>109.5</ele><time>2026-04-04T12:20:58.76Z</time></trkpt><trkpt lat="43.1590387" lon="10.6070475"><ele>111.0</ele><time>2026-04-04T12:21:00.749Z</time></trkpt><trkpt lat="43.1590522" lon="10.607136"><ele>112.5</ele><time>2026-04-04T12:21:02.739Z</time></trkpt><trkpt lat="43.1590503" lon="10.6072279"><ele>114.0</ele><time>2026-04-04T12:21:04.744Z</time></trkpt><trkpt lat="43.1590272" lon="10.6073395"><ele>115.5</ele><time>2026-04-04T12:21:07.749Z</time></trkpt><trkpt lat="43.1589745" lon="10.6074396"><ele>117.0</ele><time>2026-04-04T12:21:10.748Z</time></trkpt><trkpt lat="43.1589097" lon="10.6075202"><ele>117.0</ele><time>2026-04-04T12:21:13.744Z</time></trkpt><trkpt lat="43.158846" lon="10.6075953"><ele>117.0</ele><time>2026-04-04T12:21:16.752Z</time></trkpt><trkpt lat="43.1587855" lon="10.6076645"><ele>117.0</ele><time>2026-04-04T12:21:19.751Z</time></trkpt><trkpt lat="43.1587285" lon="10.6077479"><ele>117.0</ele><time>2026-04-04T12:21:22.745Z</time></trkpt><trkpt lat="43.1586752" lon="10.6078448"><ele>117.0</ele><time>2026-04-04T12:21:25.746Z</time></trkpt><trkpt lat="43.1586369" lon="10.6079544"><ele>117.0</ele><time>2026-04-04T12:21:28.752Z</time></trkpt><trkpt lat="43.1586285" lon="10.6080422"><ele>118.66666666666667</ele><time>2026-04-04T12:21:30.752Z</time></trkpt><trkpt lat="43.1586349" lon="10.6081671"><ele>120.33333333333334</ele><time>2026-04-04T12:21:33.744Z</time></trkpt><trkpt lat="43.1586714" lon="10.6082818"><ele>122.0</ele><time>2026-04-04T12:21:36.748Z</time></trkpt><trkpt lat="43.1587272" lon="10.6083759"><ele>123.66666666666667</ele><time>2026-04-04T12:21:39.744Z</time></trkpt><trkpt lat="43.1587909" lon="10.6084523"><ele>125.33333333333334</ele><time>2026-04-04T12:21:42.737Z</time></trkpt><trkpt lat="43.1588682" lon="10.6084688"><ele>127.0</ele><time>2026-04-04T12:21:45.742Z</time></trkpt><trkpt lat="43.158947" lon="10.6084255"><ele>129.0</ele><time>2026-04-04T12:21:48.735Z</time></trkpt><trkpt lat="43.1590362" lon="10.6083681"><ele>131.0</ele><time>2026-04-04T12:21:51.743Z</time></trkpt><trkpt lat="43.1590888" lon="10.608304"><ele>133.0</ele><time>2026-04-04T12:21:53.72Z</time></trkpt><trkpt lat="43.1591467" lon="10.6082423"><ele>135.0</ele><time>2026-04-04T12:21:55.719Z</time></trkpt><trkpt lat="43.1591951" lon="10.6081671"><ele>137.0</ele><time>2026-04-04T12:21:57.721Z</time></trkpt><trkpt lat="43.1592473" lon="10.608057"><ele>139.0</ele><time>2026-04-04T12:22:00.719Z</time></trkpt><trkpt lat="43.1592736" lon="10.6079738"><ele>139.0</ele><time>2026-04-04T12:22:02.716Z</time></trkpt><trkpt lat="43.1593035" lon="10.6078559"><ele>139.0</ele><time>2026-04-04T12:22:05.713Z</time></trkpt><trkpt lat="43.1593296" lon="10.6077393"><ele>139.0</ele><time>2026-04-04T12:22:08.715Z</time></trkpt><trkpt lat="43.1593414" lon="10.6076253"><ele>139.0</ele><time>2026-04-04T12:22:11.705Z</time></trkpt><trkpt lat="43.1593718" lon="10.6075221"><ele>139.0</ele><time>2026-04-04T12:22:14.719Z</time></trkpt><trkpt lat="43.1594235" lon="10.6074117"><ele>139.0</ele><time>2026-04-04T12:22:17.722Z</time></trkpt><trkpt lat="43.1594691" lon="10.6073091"><ele>137.33333333333334</ele><time>2026-04-04T12:22:20.741Z</time></trkpt><trkpt lat="43.1595089" lon="10.6071939"><ele>135.66666666666669</ele><time>2026-04-04T12:22:23.734Z</time></trkpt><trkpt lat="43.1595302" lon="10.6070731"><ele>134.0</ele><time>2026-04-04T12:22:26.748Z</time></trkpt><trkpt lat="43.1595308" lon="10.6069835"><ele>132.33333333333334</ele><time>2026-04-04T12:22:28.747Z</time></trkpt><trkpt lat="43.1595425" lon="10.6068956"><ele>130.66666666666666</ele><time>2026-04-04T12:22:31.742Z</time></trkpt><trkpt lat="43.1595485" lon="10.6068089"><ele>129.0</ele><time>2026-04-04T12:22:33.742Z</time></trkpt><trkpt lat="43.1595492" lon="10.6066913"><ele>129.16666666666666</ele><time>2026-04-04T12:22:36.737Z</time></trkpt><trkpt lat="43.1595512" lon="10.6066032"><ele>129.33333333333334</ele><time>2026-04-04T12:22:38.731Z</time></trkpt><trkpt lat="43.1595527" lon="10.6064819"><ele>129.5</ele><time>2026-04-04T12:22:41.732Z</time></trkpt><trkpt lat="43.1595624" lon="10.6063713"><ele>129.66666666666669</ele><time>2026-04-04T12:22:44.738Z</time></trkpt><trkpt lat="43.1595722" lon="10.6062601"><ele>129.83333333333334</ele><time>2026-04-04T12:22:47.735Z</time></trkpt><trkpt lat="43.1595822" lon="10.6061419"><ele>130.0</ele><time>2026-04-04T12:22:50.734Z</time></trkpt><trkpt lat="43.1595823" lon="10.6060534"><ele>130.0</ele><time>2026-04-04T12:22:52.736Z</time></trkpt><trkpt lat="43.1595797" lon="10.6059335"><ele>130.0</ele><time>2026-04-04T12:22:55.728Z</time></trkpt><trkpt lat="43.1595623" lon="10.6058435"><ele>130.0</ele><time>2026-04-04T12:22:57.725Z</time></trkpt><trkpt lat="43.1595303" lon="10.6057373"><ele>130.0</ele><time>2026-04-04T12:23:00.731Z</time></trkpt><trkpt lat="43.1595033" lon="10.6056174"><ele>130.0</ele><time>2026-04-04T12:23:03.735Z</time></trkpt><trkpt lat="43.1594835" lon="10.6055011"><ele>130.0</ele><time>2026-04-04T12:23:06.733Z</time></trkpt><trkpt lat="43.159468" lon="10.6053863"><ele>130.5</ele><time>2026-04-04T12:23:09.736Z</time></trkpt><trkpt lat="43.1594579" lon="10.6052649"><ele>131.0</ele><time>2026-04-04T12:23:12.741Z</time></trkpt><trkpt lat="43.1594554" lon="10.6051502"><ele>131.5</ele><time>2026-04-04T12:23:15.739Z</time></trkpt><trkpt lat="43.1594791" lon="10.605052"><ele>132.0</ele><time>2026-04-04T12:23:18.742Z</time></trkpt><trkpt lat="43.1595304" lon="10.6049765"><ele>132.5</ele><time>2026-04-04T12:23:21.745Z</time></trkpt><trkpt lat="43.1595965" lon="10.6049216"><ele>133.0</ele><time>2026-04-04T12:23:24.765Z</time></trkpt><trkpt lat="43.159668" lon="10.6049126"><ele>133.0</ele><time>2026-04-04T12:23:27.749Z</time></trkpt><trkpt lat="43.1597385" lon="10.6049724"><ele>133.0</ele><time>2026-04-04T12:23:30.741Z</time></trkpt><trkpt lat="43.1597907" lon="10.605022"><ele>133.0</ele><time>2026-04-04T12:23:32.742Z</time></trkpt><trkpt lat="43.1598689" lon="10.6050821"><ele>133.0</ele><time>2026-04-04T12:23:35.737Z</time></trkpt><trkpt lat="43.1599061" lon="10.6051729"><ele>133.0</ele><time>2026-04-04T12:23:38.738Z</time></trkpt><trkpt lat="43.159926" lon="10.6052903"><ele>133.0</ele><time>2026-04-04T12:23:41.736Z</time></trkpt><trkpt lat="43.1599185" lon="10.6054064"><ele>135.0</ele><time>2026-04-04T12:23:44.741Z</time></trkpt><trkpt lat="43.1599133" lon="10.6054965"><ele>137.0</ele><time>2026-04-04T12:23:46.742Z</time></trkpt><trkpt lat="43.1599137" lon="10.6055856"><ele>139.0</ele><time>2026-04-04T12:23:48.745Z</time></trkpt><trkpt lat="43.1599163" lon="10.6056957"><ele>141.0</ele><time>2026-04-04T12:23:51.749Z</time></trkpt><trkpt lat="43.1599205" lon="10.6057994"><ele>143.0</ele><time>2026-04-04T12:23:54.75Z</time></trkpt><trkpt lat="43.1599318" lon="10.6059195"><ele>145.0</ele><time>2026-04-04T12:23:57.745Z</time></trkpt><trkpt lat="43.1599307" lon="10.6060354"><ele>145.0</ele><time>2026-04-04T12:24:00.741Z</time></trkpt><trkpt lat="43.1599338" lon="10.6061288"><ele>145.0</ele><time>2026-04-04T12:24:02.73Z</time></trkpt><trkpt lat="43.1599369" lon="10.6062619"><ele>145.0</ele><time>2026-04-04T12:24:05.729Z</time></trkpt><trkpt lat="43.159954" lon="10.6063547"><ele>145.0</ele><time>2026-04-04T12:24:07.725Z</time></trkpt><trkpt lat="43.1599637" lon="10.606445"><ele>145.0</ele><time>2026-04-04T12:24:09.729Z</time></trkpt><trkpt lat="43.1599683" lon="10.606572"><ele>145.0</ele><time>2026-04-04T12:24:12.728Z</time></trkpt><trkpt lat="43.1599642" lon="10.6066765"><ele>146.0</ele><time>2026-04-04T12:24:15.724Z</time></trkpt><trkpt lat="43.1599526" lon="10.6067886"><ele>147.0</ele><time>2026-04-04T12:24:18.737Z</time></trkpt><trkpt lat="43.1599368" lon="10.606898"><ele>148.0</ele><time>2026-04-04T12:24:21.741Z</time></trkpt><trkpt lat="43.1599321" lon="10.6069912"><ele>149.0</ele><time>2026-04-04T12:24:23.732Z</time></trkpt><trkpt lat="43.1599278" lon="10.6070985"><ele>150.0</ele><time>2026-04-04T12:24:26.758Z</time></trkpt><trkpt lat="43.1599562" lon="10.6071979"><ele>151.0</ele><time>2026-04-04T12:26:18.73Z</time></trkpt><trkpt lat="43.1599289" lon="10.6073204"><ele>151.83333333333334</ele><time>2026-04-04T12:26:21.736Z</time></trkpt><trkpt lat="43.1599095" lon="10.607411"><ele>152.66666666666669</ele><time>2026-04-04T12:26:23.728Z</time></trkpt><trkpt lat="43.1598832" lon="10.6074971"><ele>153.5</ele><time>2026-04-04T12:26:25.734Z</time></trkpt><trkpt lat="43.1598596" lon="10.6076152"><ele>154.33333333333334</ele><time>2026-04-04T12:26:28.729Z</time></trkpt><trkpt lat="43.1598432" lon="10.6077174"><ele>155.16666666666666</ele><time>2026-04-04T12:26:31.725Z</time></trkpt><trkpt lat="43.1598294" lon="10.6078269"><ele>156.0</ele><time>2026-04-04T12:26:34.726Z</time></trkpt><trkpt lat="43.1598207" lon="10.6079337"><ele>153.16666666666666</ele><time>2026-04-04T12:26:37.724Z</time></trkpt><trkpt lat="43.1598143" lon="10.6080491"><ele>150.33333333333334</ele><time>2026-04-04T12:26:40.728Z</time></trkpt><trkpt lat="43.1598044" lon="10.608166"><ele>147.5</ele><time>2026-04-04T12:26:43.728Z</time></trkpt><trkpt lat="43.1598063" lon="10.6082748"><ele>144.66666666666669</ele><time>2026-04-04T12:26:46.732Z</time></trkpt><trkpt lat="43.1598164" lon="10.6083852"><ele>141.83333333333334</ele><time>2026-04-04T12:26:49.73Z</time></trkpt><trkpt lat="43.1598165" lon="10.608498"><ele>139.0</ele><time>2026-04-04T12:26:52.723Z</time></trkpt><trkpt lat="43.1598188" lon="10.6086216"><ele>140.16666666666669</ele><time>2026-04-04T12:26:55.722Z</time></trkpt><trkpt lat="43.1598345" lon="10.608733"><ele>141.33333333333334</ele><time>2026-04-04T12:26:58.727Z</time></trkpt><trkpt lat="43.159847" lon="10.6088373"><ele>142.5</ele><time>2026-04-04T12:27:01.743Z</time></trkpt><trkpt lat="43.1598475" lon="10.6089527"><ele>143.66666666666666</ele><time>2026-04-04T12:27:04.727Z</time></trkpt><trkpt lat="43.1598645" lon="10.6090673"><ele>144.83333333333331</ele><time>2026-04-04T12:27:07.727Z</time></trkpt><trkpt lat="43.15987" lon="10.6091694"><ele>146.0</ele><time>2026-04-04T12:27:10.732Z</time></trkpt><trkpt lat="43.1598564" lon="10.6092719"><ele>146.33333333333331</ele><time>2026-04-04T12:27:13.729Z</time></trkpt><trkpt lat="43.1598728" lon="10.6093781"><ele>146.66666666666666</ele><time>2026-04-04T12:27:16.727Z</time></trkpt><trkpt lat="43.159877" lon="10.6094668"><ele>147.0</ele><time>2026-04-04T12:27:19.72Z</time></trkpt><trkpt lat="43.1598803" lon="10.6095878"><ele>147.33333333333334</ele><time>2026-04-04T12:27:22.727Z</time></trkpt><trkpt lat="43.1598893" lon="10.609677"><ele>147.66666666666669</ele><time>2026-04-04T12:27:24.721Z</time></trkpt><trkpt lat="43.1598644" lon="10.6097886"><ele>148.0</ele><time>2026-04-04T12:27:27.718Z</time></trkpt><trkpt lat="43.159842" lon="10.609907"><ele>148.0</ele><time>2026-04-04T12:27:30.728Z</time></trkpt><trkpt lat="43.1598136" lon="10.6100189"><ele>148.0</ele><time>2026-04-04T12:27:33.727Z</time></trkpt><trkpt lat="43.1597912" lon="10.6101373"><ele>148.0</ele><time>2026-04-04T12:27:36.727Z</time></trkpt><trkpt lat="43.1597724" lon="10.61022"><ele>148.0</ele><time>2026-04-04T12:27:38.729Z</time></trkpt><trkpt lat="43.1597509" lon="10.6103378"><ele>148.0</ele><time>2026-04-04T12:27:41.719Z</time></trkpt><trkpt lat="43.1597215" lon="10.610443"><ele>148.0</ele><time>2026-04-04T12:27:44.718Z</time></trkpt><trkpt lat="43.1596993" lon="10.6105473"><ele>148.66666666666669</ele><time>2026-04-04T12:27:47.717Z</time></trkpt><trkpt lat="43.1596902" lon="10.6106609"><ele>149.33333333333334</ele><time>2026-04-04T12:27:50.729Z</time></trkpt><trkpt lat="43.1596743" lon="10.6107798"><ele>150.0</ele><time>2026-04-04T12:27:53.736Z</time></trkpt><trkpt lat="43.1596625" lon="10.6108838"><ele>150.66666666666666</ele><time>2026-04-04T12:27:56.738Z</time></trkpt><trkpt lat="43.1596602" lon="10.611007"><ele>151.33333333333331</ele><time>2026-04-04T12:27:59.733Z</time></trkpt><trkpt lat="43.1596689" lon="10.6111242"><ele>152.0</ele><time>2026-04-04T12:28:02.731Z</time></trkpt><trkpt lat="43.1596822" lon="10.6112491"><ele>152.42857142857142</ele><time>2026-04-04T12:28:05.727Z</time></trkpt><trkpt lat="43.1596931" lon="10.6113353"><ele>152.85714285714286</ele><time>2026-04-04T12:28:07.718Z</time></trkpt><trkpt lat="43.1596885" lon="10.6114359"><ele>153.28571428571428</ele><time>2026-04-04T12:28:09.729Z</time></trkpt><trkpt lat="43.1596841" lon="10.6115324"><ele>153.71428571428572</ele><time>2026-04-04T12:28:11.727Z</time></trkpt><trkpt lat="43.159674" lon="10.6116212"><ele>154.14285714285714</ele><time>2026-04-04T12:28:13.732Z</time></trkpt><trkpt lat="43.1596726" lon="10.6117173"><ele>154.57142857142858</ele><time>2026-04-04T12:28:15.735Z</time></trkpt><trkpt lat="43.1596932" lon="10.6118158"><ele>155.0</ele><time>2026-04-04T12:28:17.738Z</time></trkpt><trkpt lat="43.1597174" lon="10.6119471"><ele>154.16666666666666</ele><time>2026-04-04T12:28:20.738Z</time></trkpt><trkpt lat="43.1597417" lon="10.6120571"><ele>153.33333333333331</ele><time>2026-04-04T12:28:22.736Z</time></trkpt><trkpt lat="43.1597823" lon="10.612156"><ele>152.5</ele><time>2026-04-04T12:28:24.74Z</time></trkpt><trkpt lat="43.1598389" lon="10.6122492"><ele>151.66666666666666</ele><time>2026-04-04T12:28:26.737Z</time></trkpt><trkpt lat="43.1598796" lon="10.6123394"><ele>150.83333333333334</ele><time>2026-04-04T12:28:28.743Z</time></trkpt><trkpt lat="43.1599218" lon="10.6124281"><ele>150.0</ele><time>2026-04-04T12:28:30.738Z</time></trkpt><trkpt lat="43.1599655" lon="10.6125077"><ele>151.83333333333334</ele><time>2026-04-04T12:28:32.741Z</time></trkpt><trkpt lat="43.1600188" lon="10.6125754"><ele>153.66666666666666</ele><time>2026-04-04T12:28:34.734Z</time></trkpt><trkpt lat="43.1600695" lon="10.6126551"><ele>155.5</ele><time>2026-04-04T12:28:36.733Z</time></trkpt><trkpt lat="43.1601196" lon="10.6127224"><ele>157.33333333333331</ele><time>2026-04-04T12:28:38.733Z</time></trkpt><trkpt lat="43.1601854" lon="10.6127863"><ele>159.16666666666666</ele><time>2026-04-04T12:28:40.735Z</time></trkpt><trkpt lat="43.1602547" lon="10.6128754"><ele>161.0</ele><time>2026-04-04T12:28:42.74Z</time></trkpt><trkpt lat="43.1603185" lon="10.6130049"><ele>161.0</ele><time>2026-04-04T12:28:44.737Z</time></trkpt><trkpt lat="43.1603557" lon="10.6130843"><ele>161.0</ele><time>2026-04-04T12:28:45.741Z</time></trkpt><trkpt lat="43.1603955" lon="10.6131691"><ele>161.0</ele><time>2026-04-04T12:28:46.74Z</time></trkpt><trkpt lat="43.1604322" lon="10.6132545"><ele>161.0</ele><time>2026-04-04T12:28:47.735Z</time></trkpt><trkpt lat="43.1604673" lon="10.6133449"><ele>161.0</ele><time>2026-04-04T12:28:48.73Z</time></trkpt><trkpt lat="43.1604978" lon="10.6134448"><ele>161.0</ele><time>2026-04-04T12:28:49.726Z</time></trkpt><trkpt lat="43.1605225" lon="10.6135401"><ele>161.0</ele><time>2026-04-04T12:28:50.732Z</time></trkpt><trkpt lat="43.160545" lon="10.6136467"><ele>160.16666666666666</ele><time>2026-04-04T12:28:51.744Z</time></trkpt><trkpt lat="43.1605371" lon="10.6137591"><ele>159.33333333333331</ele><time>2026-04-04T12:28:52.736Z</time></trkpt><trkpt lat="43.1605302" lon="10.6138734"><ele>158.5</ele><time>2026-04-04T12:28:53.73Z</time></trkpt><trkpt lat="43.1605235" lon="10.6139854"><ele>157.66666666666666</ele><time>2026-04-04T12:28:54.737Z</time></trkpt><trkpt lat="43.160519" lon="10.6140998"><ele>156.83333333333334</ele><time>2026-04-04T12:28:55.732Z</time></trkpt><trkpt lat="43.1605176" lon="10.6142158"><ele>156.0</ele><time>2026-04-04T12:28:56.734Z</time></trkpt><trkpt lat="43.1605128" lon="10.6143369"><ele>156.0</ele><time>2026-04-04T12:28:57.741Z</time></trkpt><trkpt lat="43.1605109" lon="10.614458"><ele>156.0</ele><time>2026-04-04T12:28:58.753Z</time></trkpt><trkpt lat="43.1605135" lon="10.6145794"><ele>156.0</ele><time>2026-04-04T12:28:59.75Z</time></trkpt><trkpt lat="43.1605167" lon="10.6146908"><ele>156.0</ele><time>2026-04-04T12:29:00.747Z</time></trkpt><trkpt lat="43.1605228" lon="10.6147897"><ele>156.0</ele><time>2026-04-04T12:29:01.738Z</time></trkpt><trkpt lat="43.1605286" lon="10.6148833"><ele>156.0</ele><time>2026-04-04T12:29:02.748Z</time></trkpt><trkpt lat="43.1605106" lon="10.6150136"><ele>156.4</ele><time>2026-04-04T12:29:04.758Z</time></trkpt><trkpt lat="43.1604487" lon="10.6150323"><ele>156.8</ele><time>2026-04-04T12:29:36.72Z</time></trkpt><trkpt lat="43.1604462" lon="10.6151505"><ele>157.20000000000002</ele><time>2026-04-04T12:31:05.705Z</time></trkpt><trkpt lat="43.1604739" lon="10.6153393"><ele>157.6</ele><time>2026-04-04T12:31:08.711Z</time></trkpt><trkpt lat="43.1605353" lon="10.6154039"><ele>158.0</ele><time>2026-04-04T12:31:11.698Z</time></trkpt><trkpt lat="43.1605134" lon="10.6152423"><ele>158.0</ele><time>2026-04-04T12:31:17.689Z</time></trkpt><trkpt lat="43.1604809" lon="10.6151488"><ele>158.0</ele><time>2026-04-04T12:31:35.707Z</time></trkpt><trkpt lat="43.1604547" lon="10.6150538"><ele>158.0</ele><time>2026-04-04T12:31:44.699Z</time></trkpt><trkpt lat="43.1603922" lon="10.6150854"><ele>158.0</ele><time>2026-04-04T12:32:23.73Z</time></trkpt><trkpt lat="43.1603107" lon="10.6151356"><ele>158.0</ele><time>2026-04-04T12:32:26.737Z</time></trkpt><trkpt lat="43.1602382" lon="10.6151782"><ele>158.0</ele><time>2026-04-04T12:32:28.737Z</time></trkpt><trkpt lat="43.1601603" lon="10.6152172"><ele>158.0</ele><time>2026-04-04T12:32:30.737Z</time></trkpt><trkpt lat="43.1600921" lon="10.6152675"><ele>158.0</ele><time>2026-04-04T12:32:32.735Z</time></trkpt><trkpt lat="43.1600255" lon="10.6153113"><ele>158.0</ele><time>2026-04-04T12:32:34.721Z</time></trkpt><trkpt lat="43.1599565" lon="10.6153471"><ele>158.0</ele><time>2026-04-04T12:32:36.728Z</time></trkpt><trkpt lat="43.1598736" lon="10.6154151"><ele>158.0</ele><time>2026-04-04T12:32:39.733Z</time></trkpt><trkpt lat="43.1598165" lon="10.6154593"><ele>158.0</ele><time>2026-04-04T12:32:41.753Z</time></trkpt><trkpt lat="43.1597568" lon="10.6155047"><ele>159.83333333333331</ele><time>2026-04-04T12:32:43.739Z</time></trkpt><trkpt lat="43.1596977" lon="10.6155618"><ele>161.66666666666666</ele><time>2026-04-04T12:32:45.734Z</time></trkpt><trkpt lat="43.1596321" lon="10.6156301"><ele>163.5</ele><time>2026-04-04T12:32:47.733Z</time></trkpt><trkpt lat="43.159575" lon="10.6156912"><ele>165.33333333333334</ele><time>2026-04-04T12:32:49.722Z</time></trkpt><trkpt lat="43.1595143" lon="10.6157408"><ele>167.16666666666669</ele><time>2026-04-04T12:32:51.725Z</time></trkpt><trkpt lat="43.1594573" lon="10.615788"><ele>169.0</ele><time>2026-04-04T12:32:53.722Z</time></trkpt><trkpt lat="43.1593723" lon="10.6158555"><ele>169.0</ele><time>2026-04-04T12:32:56.725Z</time></trkpt><trkpt lat="43.1592929" lon="10.6159143"><ele>169.0</ele><time>2026-04-04T12:32:59.718Z</time></trkpt><trkpt lat="43.1592266" lon="10.6159962"><ele>169.0</ele><time>2026-04-04T12:33:02.721Z</time></trkpt><trkpt lat="43.1591521" lon="10.6160419"><ele>169.0</ele><time>2026-04-04T12:33:05.722Z</time></trkpt><trkpt lat="43.1590682" lon="10.6160032"><ele>169.0</ele><time>2026-04-04T12:33:09.718Z</time></trkpt><trkpt lat="43.1589999" lon="10.615958"><ele>169.0</ele><time>2026-04-04T12:33:11.724Z</time></trkpt><trkpt lat="43.1589151" lon="10.6159248"><ele>168.66666666666669</ele><time>2026-04-04T12:33:13.727Z</time></trkpt><trkpt lat="43.1588321" lon="10.6159101"><ele>168.33333333333334</ele><time>2026-04-04T12:33:15.721Z</time></trkpt><trkpt lat="43.1587412" lon="10.6159096"><ele>168.0</ele><time>2026-04-04T12:33:17.724Z</time></trkpt><trkpt lat="43.1586553" lon="10.6159119"><ele>167.66666666666666</ele><time>2026-04-04T12:33:19.731Z</time></trkpt><trkpt lat="43.1585797" lon="10.6159054"><ele>167.33333333333331</ele><time>2026-04-04T12:33:21.729Z</time></trkpt><trkpt lat="43.158508" lon="10.6158913"><ele>167.0</ele><time>2026-04-04T12:33:23.727Z</time></trkpt><trkpt lat="43.1584349" lon="10.6158915"><ele>167.0</ele><time>2026-04-04T12:33:25.724Z</time></trkpt><trkpt lat="43.1583595" lon="10.6158894"><ele>167.0</ele><time>2026-04-04T12:33:27.721Z</time></trkpt><trkpt lat="43.1582917" lon="10.6159196"><ele>167.0</ele><time>2026-04-04T12:33:29.718Z</time></trkpt><trkpt lat="43.1582145" lon="10.6159589"><ele>167.0</ele><time>2026-04-04T12:33:31.719Z</time></trkpt><trkpt lat="43.1581405" lon="10.6160156"><ele>167.0</ele><time>2026-04-04T12:33:33.718Z</time></trkpt><trkpt lat="43.1580678" lon="10.6160746"><ele>167.0</ele><time>2026-04-04T12:33:35.719Z</time></trkpt><trkpt lat="43.1579889" lon="10.6161442"><ele>168.0</ele><time>2026-04-04T12:33:37.719Z</time></trkpt><trkpt lat="43.1579259" lon="10.6162309"><ele>169.0</ele><time>2026-04-04T12:33:39.716Z</time></trkpt><trkpt lat="43.1578801" lon="10.6163283"><ele>170.0</ele><time>2026-04-04T12:33:41.72Z</time></trkpt><trkpt lat="43.1578393" lon="10.6164189"><ele>171.0</ele><time>2026-04-04T12:33:43.743Z</time></trkpt><trkpt lat="43.1577953" lon="10.6164945"><ele>172.0</ele><time>2026-04-04T12:33:45.722Z</time></trkpt><trkpt lat="43.1577336" lon="10.6165761"><ele>173.0</ele><time>2026-04-04T12:33:48.726Z</time></trkpt><trkpt lat="43.1576544" lon="10.6166072"><ele>173.0</ele><time>2026-04-04T12:33:53.736Z</time></trkpt><trkpt lat="43.1577327" lon="10.6166155"><ele>173.0</ele><time>2026-04-04T12:34:00.729Z</time></trkpt><trkpt lat="43.1578122" lon="10.616541"><ele>173.0</ele><time>2026-04-04T12:34:02.72Z</time></trkpt><trkpt lat="43.1578946" lon="10.6164566"><ele>173.0</ele><time>2026-04-04T12:34:04.728Z</time></trkpt><trkpt lat="43.1579727" lon="10.6163759"><ele>173.0</ele><time>2026-04-04T12:34:06.711Z</time></trkpt><trkpt lat="43.1580467" lon="10.6162999"><ele>173.0</ele><time>2026-04-04T12:34:08.727Z</time></trkpt><trkpt lat="43.1581144" lon="10.6162121"><ele>173.0</ele><time>2026-04-04T12:34:10.723Z</time></trkpt><trkpt lat="43.1581687" lon="10.6161399"><ele>173.0</ele><time>2026-04-04T12:34:12.714Z</time></trkpt><trkpt lat="43.1582576" lon="10.6160825"><ele>173.0</ele><time>2026-04-04T12:34:15.724Z</time></trkpt><trkpt lat="43.1583314" lon="10.6160497"><ele>173.0</ele><time>2026-04-04T12:34:17.719Z</time></trkpt><trkpt lat="43.1584011" lon="10.6160315"><ele>173.0</ele><time>2026-04-04T12:34:19.716Z</time></trkpt><trkpt lat="43.1584718" lon="10.616019"><ele>172.0</ele><time>2026-04-04T12:34:21.721Z</time></trkpt><trkpt lat="43.1585656" lon="10.6160216"><ele>171.0</ele><time>2026-04-04T12:34:23.724Z</time></trkpt><trkpt lat="43.1586358" lon="10.6160489"><ele>170.0</ele><time>2026-04-04T12:34:25.726Z</time></trkpt><trkpt lat="43.1587112" lon="10.6160469"><ele>169.0</ele><time>2026-04-04T12:34:27.721Z</time></trkpt><trkpt lat="43.158788" lon="10.6160564"><ele>168.0</ele><time>2026-04-04T12:34:29.718Z</time></trkpt><trkpt lat="43.1588613" lon="10.6160703"><ele>167.0</ele><time>2026-04-04T12:34:31.714Z</time></trkpt><trkpt lat="43.1589331" lon="10.6160801"><ele>167.0</ele><time>2026-04-04T12:34:33.706Z</time></trkpt><trkpt lat="43.1590107" lon="10.6160938"><ele>167.0</ele><time>2026-04-04T12:34:35.708Z</time></trkpt><trkpt lat="43.1590941" lon="10.6161361"><ele>167.0</ele><time>2026-04-04T12:34:37.711Z</time></trkpt><trkpt lat="43.1591699" lon="10.6161857"><ele>167.0</ele><time>2026-04-04T12:34:39.71Z</time></trkpt><trkpt lat="43.1592279" lon="10.6162357"><ele>167.0</ele><time>2026-04-04T12:34:41.7Z</time></trkpt><trkpt lat="43.1593098" lon="10.616286"><ele>167.0</ele><time>2026-04-04T12:34:44.7Z</time></trkpt><trkpt lat="43.1593948" lon="10.6162794"><ele>170.0</ele><time>2026-04-04T12:34:47.692Z</time></trkpt><trkpt lat="43.159475" lon="10.6162822"><ele>173.0</ele><time>2026-04-04T12:34:50.696Z</time></trkpt><trkpt lat="43.1595546" lon="10.6162489"><ele>176.0</ele><time>2026-04-04T12:34:54.704Z</time></trkpt><trkpt lat="43.159629" lon="10.6162328"><ele>179.0</ele><time>2026-04-04T12:34:58.729Z</time></trkpt><trkpt lat="43.159707" lon="10.6162479"><ele>182.0</ele><time>2026-04-04T12:35:03.711Z</time></trkpt><trkpt lat="43.1597901" lon="10.6162808"><ele>185.0</ele><time>2026-04-04T12:35:07.711Z</time></trkpt><trkpt lat="43.1598593" lon="10.6162791"><ele>184.99999999999997</ele><time>2026-04-04T12:35:12.732Z</time></trkpt><trkpt lat="43.1599094" lon="10.616336"><ele>185.0</ele><time>2026-04-04T12:35:16.757Z</time></trkpt><trkpt lat="43.159842" lon="10.6163374"><ele>185.0</ele><time>2026-04-04T12:35:23.741Z</time></trkpt><trkpt lat="43.1597695" lon="10.6163087"><ele>185.0</ele><time>2026-04-04T12:35:27.722Z</time></trkpt><trkpt lat="43.1596938" lon="10.616307"><ele>185.0</ele><time>2026-04-04T12:35:30.723Z</time></trkpt><trkpt lat="43.1596355" lon="10.6163928"><ele>184.99999999999997</ele><time>2026-04-04T12:35:33.721Z</time></trkpt><trkpt lat="43.1596459" lon="10.6164879"><ele>185.0</ele><time>2026-04-04T12:35:35.714Z</time></trkpt><trkpt lat="43.1597259" lon="10.6165536"><ele>184.99999999999997</ele><time>2026-04-04T12:35:38.72Z</time></trkpt><trkpt lat="43.1597928" lon="10.6165634"><ele>185.0</ele><time>2026-04-04T12:35:41.729Z</time></trkpt><trkpt lat="43.1598629" lon="10.6165655"><ele>185.0</ele><time>2026-04-04T12:35:44.728Z</time></trkpt><trkpt lat="43.159933" lon="10.6165917"><ele>185.0</ele><time>2026-04-04T12:35:48.734Z</time></trkpt><trkpt lat="43.1599846" lon="10.6166657"><ele>185.0</ele><time>2026-04-04T12:35:52.732Z</time></trkpt><trkpt lat="43.1600262" lon="10.6167515"><ele>184.99999999999997</ele><time>2026-04-04T12:35:56.732Z</time></trkpt><trkpt lat="43.1600682" lon="10.6168247"><ele>185.0</ele><time>2026-04-04T12:36:00.724Z</time></trkpt><trkpt lat="43.1600773" lon="10.6169196"><ele>186.99999999999997</ele><time>2026-04-04T12:36:04.717Z</time></trkpt><trkpt lat="43.1601161" lon="10.6170032"><ele>189.0</ele><time>2026-04-04T12:36:09.723Z</time></trkpt><trkpt lat="43.1601106" lon="10.617099"><ele>191.0</ele><time>2026-04-04T12:36:13.731Z</time></trkpt><trkpt lat="43.1600796" lon="10.6171801"><ele>193.0</ele><time>2026-04-04T12:36:17.72Z</time></trkpt><trkpt lat="43.1600501" lon="10.617259"><ele>195.0</ele><time>2026-04-04T12:36:20.698Z</time></trkpt><trkpt lat="43.160039" lon="10.6173575"><ele>196.99999999999997</ele><time>2026-04-04T12:36:23.703Z</time></trkpt><trkpt lat="43.1599954" lon="10.6174391"><ele>199.0</ele><time>2026-04-04T12:36:28.716Z</time></trkpt><trkpt lat="43.1599481" lon="10.6175166"><ele>198.99999999999997</ele><time>2026-04-04T12:36:32.717Z</time></trkpt><trkpt lat="43.1599026" lon="10.6175894"><ele>199.0</ele><time>2026-04-04T12:36:36.723Z</time></trkpt><trkpt lat="43.1598536" lon="10.6176512"><ele>199.0</ele><time>2026-04-04T12:36:39.725Z</time></trkpt><trkpt lat="43.1597942" lon="10.6177131"><ele>199.0</ele><time>2026-04-04T12:36:44.728Z</time></trkpt><trkpt lat="43.159732" lon="10.6177697"><ele>199.0</ele><time>2026-04-04T12:36:51.721Z</time></trkpt><trkpt lat="43.1597053" lon="10.6178537"><ele>198.99999999999997</ele><time>2026-04-04T12:36:54.722Z</time></trkpt><trkpt lat="43.1596706" lon="10.6179347"><ele>199.0</ele><time>2026-04-04T12:36:57.717Z</time></trkpt><trkpt lat="43.1596491" lon="10.6180198"><ele>201.66666666666666</ele><time>2026-04-04T12:37:00.714Z</time></trkpt><trkpt lat="43.1596287" lon="10.6181088"><ele>204.33333333333331</ele><time>2026-04-04T12:37:04.706Z</time></trkpt><trkpt lat="43.1595907" lon="10.6181986"><ele>207.0</ele><time>2026-04-04T12:37:08.712Z</time></trkpt><trkpt lat="43.1595483" lon="10.6182816"><ele>209.66666666666669</ele><time>2026-04-04T12:37:11.704Z</time></trkpt><trkpt lat="43.1594958" lon="10.6183645"><ele>212.33333333333334</ele><time>2026-04-04T12:37:14.712Z</time></trkpt><trkpt lat="43.1594313" lon="10.6184445"><ele>215.0</ele><time>2026-04-04T12:37:18.711Z</time></trkpt><trkpt lat="43.1594134" lon="10.6185477"><ele>215.0</ele><time>2026-04-04T12:37:22.713Z</time></trkpt><trkpt lat="43.1593518" lon="10.6186311"><ele>215.0</ele><time>2026-04-04T12:37:26.708Z</time></trkpt><trkpt lat="43.1592966" lon="10.6186764"><ele>215.0</ele><time>2026-04-04T12:37:29.714Z</time></trkpt><trkpt lat="43.1592552" lon="10.6187639"><ele>215.0</ele><time>2026-04-04T12:37:33.713Z</time></trkpt><trkpt lat="43.1592225" lon="10.618861"><ele>215.0</ele><time>2026-04-04T12:37:36.709Z</time></trkpt><trkpt lat="43.1591987" lon="10.6189412"><ele>215.0</ele><time>2026-04-04T12:37:39.707Z</time></trkpt><trkpt lat="43.1591679" lon="10.6190299"><ele>215.0</ele><time>2026-04-04T12:37:42.705Z</time></trkpt><trkpt lat="43.1591114" lon="10.6190843"><ele>216.71428571428572</ele><time>2026-04-04T12:37:46.714Z</time></trkpt><trkpt lat="43.1590384" lon="10.6191105"><ele>218.42857142857144</ele><time>2026-04-04T12:37:51.728Z</time></trkpt><trkpt lat="43.158972" lon="10.6191169"><ele>220.14285714285717</ele><time>2026-04-04T12:37:55.706Z</time></trkpt><trkpt lat="43.1589" lon="10.6191022"><ele>221.85714285714286</ele><time>2026-04-04T12:37:59.702Z</time></trkpt><trkpt lat="43.1588359" lon="10.6191011"><ele>223.5714285714286</ele><time>2026-04-04T12:38:02.701Z</time></trkpt><trkpt lat="43.1587798" lon="10.6190587"><ele>225.2857142857143</ele><time>2026-04-04T12:38:05.704Z</time></trkpt><trkpt lat="43.1587094" lon="10.619005"><ele>227.0</ele><time>2026-04-04T12:38:09.708Z</time></trkpt><trkpt lat="43.1586281" lon="10.6190053"><ele>229.2857142857143</ele><time>2026-04-04T12:38:13.699Z</time></trkpt><trkpt lat="43.1585583" lon="10.6190006"><ele>231.5714285714286</ele><time>2026-04-04T12:38:17.703Z</time></trkpt><trkpt lat="43.1584995" lon="10.6189688"><ele>233.85714285714286</ele><time>2026-04-04T12:38:21.712Z</time></trkpt><trkpt lat="43.1584464" lon="10.6188884"><ele>236.14285714285717</ele><time>2026-04-04T12:38:26.717Z</time></trkpt><trkpt lat="43.1583697" lon="10.6188742"><ele>238.42857142857144</ele><time>2026-04-04T12:38:30.709Z</time></trkpt><trkpt lat="43.1583272" lon="10.6188085"><ele>240.71428571428572</ele><time>2026-04-04T12:38:33.716Z</time></trkpt><trkpt lat="43.1582539" lon="10.6187478"><ele>243.0</ele><time>2026-04-04T12:38:36.713Z</time></trkpt><trkpt lat="43.1581907" lon="10.6187283"><ele>243.14285714285714</ele><time>2026-04-04T12:38:39.712Z</time></trkpt><trkpt lat="43.1581127" lon="10.6187284"><ele>243.28571428571428</ele><time>2026-04-04T12:38:42.715Z</time></trkpt><trkpt lat="43.1580461" lon="10.6187178"><ele>243.42857142857142</ele><time>2026-04-04T12:38:45.718Z</time></trkpt><trkpt lat="43.1579685" lon="10.618727"><ele>243.57142857142856</ele><time>2026-04-04T12:38:48.725Z</time></trkpt><trkpt lat="43.1579052" lon="10.6187615"><ele>243.71428571428572</ele><time>2026-04-04T12:38:51.724Z</time></trkpt><trkpt lat="43.1578534" lon="10.618825"><ele>243.85714285714283</ele><time>2026-04-04T12:38:54.718Z</time></trkpt><trkpt lat="43.157795" lon="10.6188813"><ele>243.99999999999997</ele><time>2026-04-04T12:38:58.711Z</time></trkpt><trkpt lat="43.157727" lon="10.61893"><ele>243.99999999999997</ele><time>2026-04-04T12:39:02.7Z</time></trkpt><trkpt lat="43.1576551" lon="10.6189266"><ele>244.0</ele><time>2026-04-04T12:39:06.697Z</time></trkpt><trkpt lat="43.1576008" lon="10.6190163"><ele>244.0</ele><time>2026-04-04T12:39:09.712Z</time></trkpt><trkpt lat="43.1575787" lon="10.6191058"><ele>244.0</ele><time>2026-04-04T12:39:11.712Z</time></trkpt><trkpt lat="43.1575395" lon="10.6192012"><ele>243.99999999999997</ele><time>2026-04-04T12:39:15.719Z</time></trkpt><trkpt lat="43.1575133" lon="10.6193103"><ele>244.0</ele><time>2026-04-04T12:39:19.719Z</time></trkpt><trkpt lat="43.1575046" lon="10.619401"><ele>245.1428571428571</ele><time>2026-04-04T12:39:22.713Z</time></trkpt><trkpt lat="43.1574873" lon="10.6194981"><ele>246.28571428571428</ele><time>2026-04-04T12:39:25.715Z</time></trkpt><trkpt lat="43.1574682" lon="10.6195978"><ele>247.42857142857142</ele><time>2026-04-04T12:39:28.724Z</time></trkpt><trkpt lat="43.1574522" lon="10.6196831"><ele>248.57142857142856</ele><time>2026-04-04T12:39:31.712Z</time></trkpt><trkpt lat="43.1574166" lon="10.619766"><ele>249.71428571428572</ele><time>2026-04-04T12:39:35.709Z</time></trkpt><trkpt lat="43.157391" lon="10.6198647"><ele>250.85714285714286</ele><time>2026-04-04T12:39:39.715Z</time></trkpt><trkpt lat="43.1573691" lon="10.6199641"><ele>252.0</ele><time>2026-04-04T12:39:43.712Z</time></trkpt><trkpt lat="43.1573482" lon="10.6200683"><ele>252.0</ele><time>2026-04-04T12:39:47.72Z</time></trkpt><trkpt lat="43.1573225" lon="10.6201541"><ele>252.0</ele><time>2026-04-04T12:39:51.71Z</time></trkpt><trkpt lat="43.1572874" lon="10.6202345"><ele>252.0</ele><time>2026-04-04T12:39:55.729Z</time></trkpt><trkpt lat="43.1572592" lon="10.6203185"><ele>252.0</ele><time>2026-04-04T12:39:59.709Z</time></trkpt><trkpt lat="43.157228" lon="10.6204013"><ele>252.0</ele><time>2026-04-04T12:40:03.709Z</time></trkpt><trkpt lat="43.1571906" lon="10.6204732"><ele>252.0</ele><time>2026-04-04T12:40:07.716Z</time></trkpt><trkpt lat="43.1571404" lon="10.6205541"><ele>252.0</ele><time>2026-04-04T12:40:11.71Z</time></trkpt><trkpt lat="43.1570804" lon="10.6205878"><ele>255.85714285714286</ele><time>2026-04-04T12:40:15.714Z</time></trkpt><trkpt lat="43.157012" lon="10.6206422"><ele>259.7142857142857</ele><time>2026-04-04T12:40:20.712Z</time></trkpt><trkpt lat="43.1569586" lon="10.6206933"><ele>263.57142857142856</ele><time>2026-04-04T12:40:23.715Z</time></trkpt><trkpt lat="43.1569109" lon="10.6207599"><ele>267.42857142857144</ele><time>2026-04-04T12:40:26.739Z</time></trkpt><trkpt lat="43.1568619" lon="10.6208296"><ele>271.2857142857143</ele><time>2026-04-04T12:40:30.707Z</time></trkpt><trkpt lat="43.1568496" lon="10.6209263"><ele>275.1428571428571</ele><time>2026-04-04T12:40:34.711Z</time></trkpt><trkpt lat="43.1568442" lon="10.6210124"><ele>279.0</ele><time>2026-04-04T12:40:36.702Z</time></trkpt><trkpt lat="43.1568287" lon="10.6211029"><ele>281.57142857142856</ele><time>2026-04-04T12:40:39.694Z</time></trkpt><trkpt lat="43.1568617" lon="10.6211918"><ele>284.1428571428571</ele><time>2026-04-04T12:40:43.688Z</time></trkpt><trkpt lat="43.1568973" lon="10.6212911"><ele>286.7142857142857</ele><time>2026-04-04T12:40:46.694Z</time></trkpt><trkpt lat="43.1569382" lon="10.6213794"><ele>289.2857142857143</ele><time>2026-04-04T12:40:49.701Z</time></trkpt><trkpt lat="43.1569548" lon="10.6214793"><ele>291.8571428571429</ele><time>2026-04-04T12:40:52.714Z</time></trkpt><trkpt lat="43.1569456" lon="10.6215726"><ele>294.42857142857144</ele><time>2026-04-04T12:40:56.714Z</time></trkpt><trkpt lat="43.156937" lon="10.6216634"><ele>297.0</ele><time>2026-04-04T12:41:00.717Z</time></trkpt><trkpt lat="43.1569236" lon="10.6217749"><ele>297.0</ele><time>2026-04-04T12:41:04.719Z</time></trkpt><trkpt lat="43.156913" lon="10.621872"><ele>297.0</ele><time>2026-04-04T12:41:07.72Z</time></trkpt><trkpt lat="43.1569082" lon="10.6219593"><ele>297.0</ele><time>2026-04-04T12:41:10.722Z</time></trkpt><trkpt lat="43.1568951" lon="10.622048"><ele>297.0</ele><time>2026-04-04T12:41:14.716Z</time></trkpt><trkpt lat="43.156862" lon="10.6221289"><ele>297.0</ele><time>2026-04-04T12:41:16.713Z</time></trkpt><trkpt lat="43.1568089" lon="10.6221987"><ele>297.0</ele><time>2026-04-04T12:41:19.709Z</time></trkpt><trkpt lat="43.1567329" lon="10.6222483"><ele>297.0</ele><time>2026-04-04T12:41:22.701Z</time></trkpt><trkpt lat="43.1566632" lon="10.6223146"><ele>296.5</ele><time>2026-04-04T12:41:25.684Z</time></trkpt><trkpt lat="43.1566617" lon="10.622423"><ele>296.0</ele><time>2026-04-04T12:41:32.67Z</time></trkpt><trkpt lat="43.1566118" lon="10.6224887"><ele>295.5</ele><time>2026-04-04T12:41:34.676Z</time></trkpt><trkpt lat="43.1565348" lon="10.6225535"><ele>295.0</ele><time>2026-04-04T12:41:36.684Z</time></trkpt><trkpt lat="43.1564743" lon="10.622615"><ele>294.5</ele><time>2026-04-04T12:41:39.692Z</time></trkpt><trkpt lat="43.1563932" lon="10.622642"><ele>294.0</ele><time>2026-04-04T12:41:42.693Z</time></trkpt><trkpt lat="43.1563188" lon="10.6226526"><ele>295.6666666666667</ele><time>2026-04-04T12:41:45.697Z</time></trkpt><trkpt lat="43.1562466" lon="10.6226245"><ele>297.3333333333333</ele><time>2026-04-04T12:41:50.704Z</time></trkpt><trkpt lat="43.1561567" lon="10.6226373"><ele>299.0</ele><time>2026-04-04T12:41:53.714Z</time></trkpt><trkpt lat="43.1560793" lon="10.6226696"><ele>300.66666666666663</ele><time>2026-04-04T12:41:55.712Z</time></trkpt><trkpt lat="43.1560067" lon="10.6227057"><ele>302.3333333333333</ele><time>2026-04-04T12:41:57.713Z</time></trkpt><trkpt lat="43.1559046" lon="10.6227344"><ele>304.0</ele><time>2026-04-04T12:41:59.729Z</time></trkpt><trkpt lat="43.1558035" lon="10.6227947"><ele>303.5</ele><time>2026-04-04T12:42:01.708Z</time></trkpt><trkpt lat="43.1557517" lon="10.6228508"><ele>303.0</ele><time>2026-04-04T12:42:03.705Z</time></trkpt><trkpt lat="43.1556661" lon="10.6229098"><ele>302.5</ele><time>2026-04-04T12:42:06.708Z</time></trkpt><trkpt lat="43.1555853" lon="10.6229721"><ele>302.0</ele><time>2026-04-04T12:42:09.718Z</time></trkpt><trkpt lat="43.1555305" lon="10.6230438"><ele>301.5</ele><time>2026-04-04T12:42:11.712Z</time></trkpt><trkpt lat="43.15546" lon="10.6231436"><ele>301.0</ele><time>2026-04-04T12:42:14.716Z</time></trkpt><trkpt lat="43.1554306" lon="10.62323"><ele>300.7142857142857</ele><time>2026-04-04T12:42:16.713Z</time></trkpt><trkpt lat="43.155401" lon="10.6233205"><ele>300.42857142857144</ele><time>2026-04-04T12:42:18.712Z</time></trkpt><trkpt lat="43.1553817" lon="10.6234038"><ele>300.1428571428571</ele><time>2026-04-04T12:42:20.705Z</time></trkpt><trkpt lat="43.1553587" lon="10.6234936"><ele>299.8571428571429</ele><time>2026-04-04T12:42:22.706Z</time></trkpt><trkpt lat="43.1552983" lon="10.6235624"><ele>299.57142857142856</ele><time>2026-04-04T12:42:25.7Z</time></trkpt><trkpt lat="43.1552423" lon="10.6236142"><ele>299.2857142857143</ele><time>2026-04-04T12:42:32.722Z</time></trkpt><trkpt lat="43.1551703" lon="10.623635"><ele>299.0</ele><time>2026-04-04T12:42:36.709Z</time></trkpt><trkpt lat="43.1551006" lon="10.6236207"><ele>299.6666666666667</ele><time>2026-04-04T12:42:39.722Z</time></trkpt><trkpt lat="43.1550412" lon="10.6236631"><ele>300.33333333333337</ele><time>2026-04-04T12:42:42.714Z</time></trkpt><trkpt lat="43.1549863" lon="10.6237385"><ele>301.0</ele><time>2026-04-04T12:42:45.719Z</time></trkpt><trkpt lat="43.1549557" lon="10.6238176"><ele>301.6666666666667</ele><time>2026-04-04T12:42:48.703Z</time></trkpt><trkpt lat="43.1549276" lon="10.6239209"><ele>302.3333333333333</ele><time>2026-04-04T12:42:51.727Z</time></trkpt><trkpt lat="43.1548788" lon="10.6240095"><ele>303.0</ele><time>2026-04-04T12:42:55.722Z</time></trkpt><trkpt lat="43.1548035" lon="10.6240502"><ele>303.0</ele><time>2026-04-04T12:42:58.728Z</time></trkpt><trkpt lat="43.1547425" lon="10.6241133"><ele>303.0</ele><time>2026-04-04T12:43:01.756Z</time></trkpt><trkpt lat="43.154686" lon="10.6241899"><ele>303.0</ele><time>2026-04-04T12:43:04.717Z</time></trkpt><trkpt lat="43.1546397" lon="10.624265"><ele>303.0</ele><time>2026-04-04T12:43:07.711Z</time></trkpt><trkpt lat="43.1545927" lon="10.6243258"><ele>303.0</ele><time>2026-04-04T12:43:10.715Z</time></trkpt><trkpt lat="43.1545292" lon="10.6244194"><ele>303.0</ele><time>2026-04-04T12:43:13.707Z</time></trkpt><trkpt lat="43.1544655" lon="10.6244683"><ele>307.14285714285717</ele><time>2026-04-04T12:43:16.716Z</time></trkpt><trkpt lat="43.154398" lon="10.6245056"><ele>311.2857142857143</ele><time>2026-04-04T12:43:20.711Z</time></trkpt><trkpt lat="43.1543229" lon="10.6245273"><ele>315.42857142857144</ele><time>2026-04-04T12:43:23.716Z</time></trkpt><trkpt lat="43.1542564" lon="10.6245392"><ele>319.57142857142856</ele><time>2026-04-04T12:43:26.716Z</time></trkpt><trkpt lat="43.1541927" lon="10.6245464"><ele>323.7142857142857</ele><time>2026-04-04T12:43:29.712Z</time></trkpt><trkpt lat="43.1541068" lon="10.6245728"><ele>327.85714285714283</ele><time>2026-04-04T12:43:32.707Z</time></trkpt><trkpt lat="43.1540336" lon="10.624591"><ele>332.0</ele><time>2026-04-04T12:43:35.707Z</time></trkpt><trkpt lat="43.1539609" lon="10.6246037"><ele>332.0</ele><time>2026-04-04T12:43:38.711Z</time></trkpt><trkpt lat="43.153888" lon="10.6246464"><ele>332.0</ele><time>2026-04-04T12:43:41.715Z</time></trkpt><trkpt lat="43.1538189" lon="10.6246489"><ele>332.0</ele><time>2026-04-04T12:43:44.704Z</time></trkpt><trkpt lat="43.1537438" lon="10.6246624"><ele>332.0</ele><time>2026-04-04T12:43:47.716Z</time></trkpt><trkpt lat="43.1536807" lon="10.6246457"><ele>332.0</ele><time>2026-04-04T12:43:50.711Z</time></trkpt><trkpt lat="43.1536036" lon="10.6246454"><ele>332.0</ele><time>2026-04-04T12:43:53.711Z</time></trkpt><trkpt lat="43.1535353" lon="10.6246177"><ele>332.0</ele><time>2026-04-04T12:43:56.703Z</time></trkpt><trkpt lat="43.1534692" lon="10.6245761"><ele>332.0</ele><time>2026-04-04T12:43:59.705Z</time></trkpt><trkpt lat="43.153409" lon="10.6245482"><ele>332.0</ele><time>2026-04-04T12:44:02.714Z</time></trkpt><trkpt lat="43.1533426" lon="10.6245116"><ele>332.0</ele><time>2026-04-04T12:44:05.692Z</time></trkpt><trkpt lat="43.1532662" lon="10.6245259"><ele>332.0</ele><time>2026-04-04T12:44:08.7Z</time></trkpt><trkpt lat="43.1532297" lon="10.624613"><ele>332.0</ele><time>2026-04-04T12:44:10.72Z</time></trkpt><trkpt lat="43.1532157" lon="10.6247322"><ele>332.0</ele><time>2026-04-04T12:44:12.704Z</time></trkpt><trkpt lat="43.1532171" lon="10.6248334"><ele>332.0</ele><time>2026-04-04T12:44:14.717Z</time></trkpt><trkpt lat="43.153176" lon="10.6248997"><ele>329.5</ele><time>2026-04-04T12:44:18.715Z</time></trkpt><trkpt lat="43.1531136" lon="10.6249347"><ele>327.0</ele><time>2026-04-04T12:44:21.724Z</time></trkpt><trkpt lat="43.1530821" lon="10.6250426"><ele>324.5</ele><time>2026-04-04T12:44:24.73Z</time></trkpt><trkpt lat="43.1530427" lon="10.6251408"><ele>322.0</ele><time>2026-04-04T12:44:27.732Z</time></trkpt><trkpt lat="43.1530052" lon="10.625238"><ele>319.5</ele><time>2026-04-04T12:44:30.74Z</time></trkpt><trkpt lat="43.1529779" lon="10.6253322"><ele>317.0</ele><time>2026-04-04T12:44:34.73Z</time></trkpt><trkpt lat="43.1529728" lon="10.6254303"><ele>317.0</ele><time>2026-04-04T12:44:37.725Z</time></trkpt><trkpt lat="43.1529579" lon="10.6255445"><ele>317.0</ele><time>2026-04-04T12:44:41.727Z</time></trkpt><trkpt lat="43.152964" lon="10.6256592"><ele>317.0</ele><time>2026-04-04T12:44:44.719Z</time></trkpt><trkpt lat="43.1529554" lon="10.6257648"><ele>317.0</ele><time>2026-04-04T12:44:47.724Z</time></trkpt><trkpt lat="43.1529505" lon="10.6258513"><ele>317.0</ele><time>2026-04-04T12:44:49.733Z</time></trkpt><trkpt lat="43.152942" lon="10.6259446"><ele>317.0</ele><time>2026-04-04T12:44:51.729Z</time></trkpt><trkpt lat="43.1529405" lon="10.6260367"><ele>317.0</ele><time>2026-04-04T12:44:53.737Z</time></trkpt><trkpt lat="43.1529436" lon="10.6261718"><ele>319.14285714285717</ele><time>2026-04-04T12:44:56.736Z</time></trkpt><trkpt lat="43.1529433" lon="10.6262828"><ele>321.2857142857143</ele><time>2026-04-04T12:44:58.737Z</time></trkpt><trkpt lat="43.1529551" lon="10.6263878"><ele>323.42857142857144</ele><time>2026-04-04T12:45:00.735Z</time></trkpt><trkpt lat="43.1529797" lon="10.6264939"><ele>325.57142857142856</ele><time>2026-04-04T12:45:02.727Z</time></trkpt><trkpt lat="43.1530012" lon="10.6265844"><ele>327.7142857142857</ele><time>2026-04-04T12:45:04.744Z</time></trkpt><trkpt lat="43.1529955" lon="10.6266736"><ele>329.85714285714283</ele><time>2026-04-04T12:45:06.732Z</time></trkpt><trkpt lat="43.1529715" lon="10.626762"><ele>332.0</ele><time>2026-04-04T12:45:08.723Z</time></trkpt><trkpt lat="43.152935" lon="10.6268356"><ele>332.0</ele><time>2026-04-04T12:45:10.731Z</time></trkpt><trkpt lat="43.1529062" lon="10.6269424"><ele>332.0</ele><time>2026-04-04T12:45:13.73Z</time></trkpt><trkpt lat="43.1528892" lon="10.6270276"><ele>332.0</ele><time>2026-04-04T12:45:15.733Z</time></trkpt><trkpt lat="43.1528828" lon="10.627137"><ele>332.0</ele><time>2026-04-04T12:45:18.726Z</time></trkpt><trkpt lat="43.1528696" lon="10.6272465"><ele>332.0</ele><time>2026-04-04T12:45:22.725Z</time></trkpt><trkpt lat="43.1528094" lon="10.627311"><ele>332.0</ele><time>2026-04-04T12:45:27.737Z</time></trkpt><trkpt lat="43.1527409" lon="10.62735"><ele>334.83333333333337</ele><time>2026-04-04T12:45:31.737Z</time></trkpt><trkpt lat="43.1526661" lon="10.6273584"><ele>337.6666666666667</ele><time>2026-04-04T12:45:35.759Z</time></trkpt><trkpt lat="43.1525854" lon="10.6273663"><ele>340.5</ele><time>2026-04-04T12:45:39.745Z</time></trkpt><trkpt lat="43.1525154" lon="10.6273813"><ele>343.3333333333333</ele><time>2026-04-04T12:45:43.745Z</time></trkpt><trkpt lat="43.152445" lon="10.6274245"><ele>346.16666666666663</ele><time>2026-04-04T12:45:47.742Z</time></trkpt><trkpt lat="43.1523735" lon="10.6274818"><ele>349.0</ele><time>2026-04-04T12:45:51.737Z</time></trkpt><trkpt lat="43.1523289" lon="10.6275833"><ele>351.5</ele><time>2026-04-04T12:45:54.738Z</time></trkpt><trkpt lat="43.152323" lon="10.6276825"><ele>354.0</ele><time>2026-04-04T12:45:56.729Z</time></trkpt><trkpt lat="43.1523163" lon="10.6277746"><ele>356.5</ele><time>2026-04-04T12:45:58.745Z</time></trkpt><trkpt lat="43.1523152" lon="10.6278878"><ele>359.0</ele><time>2026-04-04T12:46:01.732Z</time></trkpt><trkpt lat="43.1523187" lon="10.6280089"><ele>361.5</ele><time>2026-04-04T12:46:04.733Z</time></trkpt><trkpt lat="43.1523094" lon="10.6281236"><ele>364.0</ele><time>2026-04-04T12:46:08.727Z</time></trkpt><trkpt lat="43.1522901" lon="10.6282086"><ele>366.2857142857143</ele><time>2026-04-04T12:46:11.729Z</time></trkpt><trkpt lat="43.1522777" lon="10.6283159"><ele>368.57142857142856</ele><time>2026-04-04T12:46:15.729Z</time></trkpt><trkpt lat="43.1522311" lon="10.6283969"><ele>370.8571428571429</ele><time>2026-04-04T12:46:18.739Z</time></trkpt><trkpt lat="43.152191" lon="10.6284817"><ele>373.1428571428571</ele><time>2026-04-04T12:46:22.736Z</time></trkpt><trkpt lat="43.152139" lon="10.6285353"><ele>375.42857142857144</ele><time>2026-04-04T12:46:26.732Z</time></trkpt><trkpt lat="43.1520894" lon="10.6286228"><ele>377.7142857142857</ele><time>2026-04-04T12:46:30.711Z</time></trkpt><trkpt lat="43.1520658" lon="10.6287036"><ele>380.0</ele><time>2026-04-04T12:46:32.719Z</time></trkpt><trkpt lat="43.1520352" lon="10.6287882"><ele>380.57142857142856</ele><time>2026-04-04T12:46:37.747Z</time></trkpt><trkpt lat="43.1519975" lon="10.6288771"><ele>381.14285714285717</ele><time>2026-04-04T12:46:40.734Z</time></trkpt><trkpt lat="43.1519494" lon="10.6289489"><ele>381.71428571428567</ele><time>2026-04-04T12:46:43.729Z</time></trkpt><trkpt lat="43.1518997" lon="10.6290425"><ele>382.2857142857143</ele><time>2026-04-04T12:46:47.737Z</time></trkpt><trkpt lat="43.1518454" lon="10.6290985"><ele>382.85714285714283</ele><time>2026-04-04T12:46:50.729Z</time></trkpt><trkpt lat="43.1517852" lon="10.6291505"><ele>383.4285714285714</ele><time>2026-04-04T12:46:53.725Z</time></trkpt><trkpt lat="43.1517323" lon="10.6292307"><ele>384.0</ele><time>2026-04-04T12:46:56.734Z</time></trkpt><trkpt lat="43.1516847" lon="10.6293395"><ele>384.0</ele><time>2026-04-04T12:46:59.74Z</time></trkpt><trkpt lat="43.1516553" lon="10.629436"><ele>384.0</ele><time>2026-04-04T12:47:02.727Z</time></trkpt><trkpt lat="43.1516213" lon="10.6295355"><ele>384.0</ele><time>2026-04-04T12:47:05.724Z</time></trkpt><trkpt lat="43.1515949" lon="10.6296317"><ele>384.0</ele><time>2026-04-04T12:47:08.74Z</time></trkpt><trkpt lat="43.1515672" lon="10.6297252"><ele>384.0</ele><time>2026-04-04T12:47:11.719Z</time></trkpt><trkpt lat="43.1515587" lon="10.6298395"><ele>384.0</ele><time>2026-04-04T12:47:14.717Z</time></trkpt><trkpt lat="43.1515638" lon="10.6299491"><ele>384.0</ele><time>2026-04-04T12:47:17.718Z</time></trkpt><trkpt lat="43.1515675" lon="10.6300632"><ele>384.0</ele><time>2026-04-04T12:47:20.721Z</time></trkpt><trkpt lat="43.1515573" lon="10.6301953"><ele>384.0</ele><time>2026-04-04T12:47:23.725Z</time></trkpt><trkpt lat="43.1515436" lon="10.6302832"><ele>384.0</ele><time>2026-04-04T12:47:26.713Z</time></trkpt><trkpt lat="43.1515485" lon="10.6303697"><ele>384.0</ele><time>2026-04-04T12:47:29.715Z</time></trkpt><trkpt lat="43.151552" lon="10.6304807"><ele>384.0</ele><time>2026-04-04T12:47:32.719Z</time></trkpt><trkpt lat="43.1515735" lon="10.6305873"><ele>384.6666666666667</ele><time>2026-04-04T12:47:35.714Z</time></trkpt><trkpt lat="43.151601" lon="10.6306947"><ele>385.33333333333337</ele><time>2026-04-04T12:47:38.731Z</time></trkpt><trkpt lat="43.1516238" lon="10.6307865"><ele>386.0</ele><time>2026-04-04T12:47:40.725Z</time></trkpt><trkpt lat="43.151641" lon="10.6308896"><ele>386.6666666666667</ele><time>2026-04-04T12:47:43.725Z</time></trkpt><trkpt lat="43.1516412" lon="10.6310048"><ele>387.33333333333337</ele><time>2026-04-04T12:47:47.715Z</time></trkpt><trkpt lat="43.1516639" lon="10.6311421"><ele>388.0</ele><time>2026-04-04T12:47:50.722Z</time></trkpt><trkpt lat="43.1516775" lon="10.6312358"><ele>389.1666666666667</ele><time>2026-04-04T12:47:52.724Z</time></trkpt><trkpt lat="43.151665" lon="10.6313564"><ele>390.33333333333337</ele><time>2026-04-04T12:47:55.728Z</time></trkpt><trkpt lat="43.15163" lon="10.6314764"><ele>391.5</ele><time>2026-04-04T12:47:58.716Z</time></trkpt><trkpt lat="43.1516145" lon="10.631582"><ele>392.66666666666663</ele><time>2026-04-04T12:48:00.719Z</time></trkpt><trkpt lat="43.15159" lon="10.6316619"><ele>393.8333333333333</ele><time>2026-04-04T12:48:02.716Z</time></trkpt><trkpt lat="43.1515637" lon="10.6317612"><ele>395.0</ele><time>2026-04-04T12:48:05.723Z</time></trkpt><trkpt lat="43.1515236" lon="10.6318377"><ele>396.16666666666663</ele><time>2026-04-04T12:48:08.721Z</time></trkpt><trkpt lat="43.1514814" lon="10.6319058"><ele>397.3333333333333</ele><time>2026-04-04T12:48:10.74Z</time></trkpt><trkpt lat="43.1514176" lon="10.6320035"><ele>398.5</ele><time>2026-04-04T12:48:13.721Z</time></trkpt><trkpt lat="43.1513637" lon="10.6320654"><ele>399.66666666666663</ele><time>2026-04-04T12:48:15.717Z</time></trkpt><trkpt lat="43.1513094" lon="10.6321154"><ele>400.8333333333333</ele><time>2026-04-04T12:48:18.722Z</time></trkpt><trkpt lat="43.1512583" lon="10.6322137"><ele>402.0</ele><time>2026-04-04T12:48:22.71Z</time></trkpt><trkpt lat="43.1512549" lon="10.6323236"><ele>402.0</ele><time>2026-04-04T12:48:24.684Z</time></trkpt><trkpt lat="43.1512226" lon="10.6324399"><ele>402.0</ele><time>2026-04-04T12:48:26.684Z</time></trkpt><trkpt lat="43.1511177" lon="10.6324548"><ele>402.0</ele><time>2026-04-04T12:48:29.709Z</time></trkpt><trkpt lat="43.1510252" lon="10.6325036"><ele>402.0</ele><time>2026-04-04T12:48:31.71Z</time></trkpt><trkpt lat="43.1509549" lon="10.6325493"><ele>402.0</ele><time>2026-04-04T12:48:33.708Z</time></trkpt><trkpt lat="43.1508979" lon="10.6325976"><ele>402.0</ele><time>2026-04-04T12:48:35.707Z</time></trkpt><trkpt lat="43.1508169" lon="10.6326808"><ele>402.0</ele><time>2026-04-04T12:48:38.713Z</time></trkpt><trkpt lat="43.1507518" lon="10.6326943"><ele>402.0</ele><time>2026-04-04T12:48:40.712Z</time></trkpt><trkpt lat="43.1506677" lon="10.6327364"><ele>402.0</ele><time>2026-04-04T12:48:43.73Z</time></trkpt><trkpt lat="43.150594" lon="10.6327974"><ele>402.0</ele><time>2026-04-04T12:48:46.744Z</time></trkpt><trkpt lat="43.150511" lon="10.6328287"><ele>402.0</ele><time>2026-04-04T12:48:49.745Z</time></trkpt><trkpt lat="43.1504465" lon="10.6328644"><ele>402.0</ele><time>2026-04-04T12:48:51.743Z</time></trkpt><trkpt lat="43.1503855" lon="10.6329163"><ele>400.6</ele><time>2026-04-04T12:48:53.74Z</time></trkpt><trkpt lat="43.1503075" lon="10.6329649"><ele>399.20000000000005</ele><time>2026-04-04T12:48:55.739Z</time></trkpt><trkpt lat="43.1502348" lon="10.6330629"><ele>397.8</ele><time>2026-04-04T12:48:57.746Z</time></trkpt><trkpt lat="43.15016" lon="10.6331645"><ele>396.4</ele><time>2026-04-04T12:48:59.734Z</time></trkpt><trkpt lat="43.1500726" lon="10.6332666"><ele>395.0</ele><time>2026-04-04T12:49:01.735Z</time></trkpt><trkpt lat="43.1499888" lon="10.633368"><ele>394.99999999999994</ele><time>2026-04-04T12:49:03.734Z</time></trkpt><trkpt lat="43.1499094" lon="10.6334135"><ele>395.0</ele><time>2026-04-04T12:49:05.731Z</time></trkpt><trkpt lat="43.1498464" lon="10.6334044"><ele>395.0</ele><time>2026-04-04T12:49:07.73Z</time></trkpt><trkpt lat="43.149763" lon="10.6333469"><ele>395.0</ele><time>2026-04-04T12:49:10.735Z</time></trkpt><trkpt lat="43.1496918" lon="10.6333507"><ele>394.99999999999994</ele><time>2026-04-04T12:49:12.75Z</time></trkpt><trkpt lat="43.1496152" lon="10.633379"><ele>395.0</ele><time>2026-04-04T12:49:14.732Z</time></trkpt><trkpt lat="43.1495355" lon="10.6334111"><ele>395.16666666666663</ele><time>2026-04-04T12:49:16.722Z</time></trkpt><trkpt lat="43.1494612" lon="10.6334348"><ele>395.3333333333333</ele><time>2026-04-04T12:49:18.723Z</time></trkpt><trkpt lat="43.1493906" lon="10.6334412"><ele>395.5</ele><time>2026-04-04T12:49:20.724Z</time></trkpt><trkpt lat="43.1493144" lon="10.6334718"><ele>395.66666666666663</ele><time>2026-04-04T12:49:22.71Z</time></trkpt><trkpt lat="43.1492333" lon="10.6334873"><ele>395.8333333333333</ele><time>2026-04-04T12:49:24.729Z</time></trkpt><trkpt lat="43.1491397" lon="10.6335184"><ele>396.0</ele><time>2026-04-04T12:49:26.722Z</time></trkpt><trkpt lat="43.1490454" lon="10.6335702"><ele>395.8333333333333</ele><time>2026-04-04T12:49:28.714Z</time></trkpt><trkpt lat="43.1489558" lon="10.6336119"><ele>395.66666666666663</ele><time>2026-04-04T12:49:30.712Z</time></trkpt><trkpt lat="43.1488708" lon="10.6336179"><ele>395.5</ele><time>2026-04-04T12:49:32.712Z</time></trkpt><trkpt lat="43.1488049" lon="10.6335621"><ele>395.3333333333333</ele><time>2026-04-04T12:49:34.708Z</time></trkpt><trkpt lat="43.1487456" lon="10.6334733"><ele>395.16666666666663</ele><time>2026-04-04T12:49:36.715Z</time></trkpt><trkpt lat="43.1487154" lon="10.6333782"><ele>395.0</ele><time>2026-04-04T12:49:39.734Z</time></trkpt><trkpt lat="43.1486842" lon="10.6332842"><ele>395.0</ele><time>2026-04-04T12:49:41.739Z</time></trkpt><trkpt lat="43.1486631" lon="10.6331614"><ele>395.0</ele><time>2026-04-04T12:49:43.753Z</time></trkpt><trkpt lat="43.1486236" lon="10.6330219"><ele>395.0</ele><time>2026-04-04T12:49:45.735Z</time></trkpt><trkpt lat="43.1485564" lon="10.6328737"><ele>395.0</ele><time>2026-04-04T12:49:47.734Z</time></trkpt><trkpt lat="43.1485178" lon="10.6327938"><ele>395.0</ele><time>2026-04-04T12:49:48.741Z</time></trkpt><trkpt lat="43.1484707" lon="10.6327197"><ele>393.7142857142857</ele><time>2026-04-04T12:49:49.729Z</time></trkpt><trkpt lat="43.1484298" lon="10.6326468"><ele>392.42857142857144</ele><time>2026-04-04T12:49:50.732Z</time></trkpt><trkpt lat="43.1483896" lon="10.63257"><ele>391.14285714285717</ele><time>2026-04-04T12:49:51.725Z</time></trkpt><trkpt lat="43.1483417" lon="10.6325041"><ele>389.8571428571429</ele><time>2026-04-04T12:49:52.714Z</time></trkpt><trkpt lat="43.1482896" lon="10.6324389"><ele>388.57142857142856</ele><time>2026-04-04T12:49:53.724Z</time></trkpt><trkpt lat="43.1482301" lon="10.6323827"><ele>387.28571428571433</ele><time>2026-04-04T12:49:54.72Z</time></trkpt><trkpt lat="43.1481508" lon="10.6323168"><ele>386.0</ele><time>2026-04-04T12:49:55.713Z</time></trkpt><trkpt lat="43.1480698" lon="10.6322597"><ele>385.99999999999994</ele><time>2026-04-04T12:49:56.713Z</time></trkpt><trkpt lat="43.1480083" lon="10.6321869"><ele>386.0</ele><time>2026-04-04T12:49:57.699Z</time></trkpt><trkpt lat="43.1479577" lon="10.6320958"><ele>386.0</ele><time>2026-04-04T12:49:58.698Z</time></trkpt><trkpt lat="43.1478982" lon="10.6320217"><ele>386.0</ele><time>2026-04-04T12:49:59.697Z</time></trkpt><trkpt lat="43.1478367" lon="10.6319406"><ele>385.99999999999994</ele><time>2026-04-04T12:50:00.699Z</time></trkpt><trkpt lat="43.1477673" lon="10.6318837"><ele>386.0</ele><time>2026-04-04T12:50:01.71Z</time></trkpt><trkpt lat="43.1476986" lon="10.631835"><ele>386.00000000000006</ele><time>2026-04-04T12:50:02.706Z</time></trkpt><trkpt lat="43.1476336" lon="10.631804"><ele>386.0</ele><time>2026-04-04T12:50:03.694Z</time></trkpt><trkpt lat="43.1475682" lon="10.6317827"><ele>386.0</ele><time>2026-04-04T12:50:04.698Z</time></trkpt><trkpt lat="43.1475026" lon="10.6317742"><ele>386.0</ele><time>2026-04-04T12:50:05.704Z</time></trkpt><trkpt lat="43.1474393" lon="10.6317963"><ele>386.0</ele><time>2026-04-04T12:50:06.714Z</time></trkpt><trkpt lat="43.1473594" lon="10.6318439"><ele>386.00000000000006</ele><time>2026-04-04T12:50:08.722Z</time></trkpt><trkpt lat="43.1472898" lon="10.6318927"><ele>386.0</ele><time>2026-04-04T12:50:10.723Z</time></trkpt><trkpt lat="43.1472112" lon="10.6319462"><ele>386.14285714285717</ele><time>2026-04-04T12:50:12.716Z</time></trkpt><trkpt lat="43.1471733" lon="10.6320182"><ele>386.2857142857143</ele><time>2026-04-04T12:50:14.715Z</time></trkpt><trkpt lat="43.1471252" lon="10.6320792"><ele>386.42857142857144</ele><time>2026-04-04T12:50:16.719Z</time></trkpt><trkpt lat="43.1470615" lon="10.63215"><ele>386.57142857142856</ele><time>2026-04-04T12:50:19.724Z</time></trkpt><trkpt lat="43.1469991" lon="10.6321856"><ele>386.7142857142857</ele><time>2026-04-04T12:50:22.727Z</time></trkpt><trkpt lat="43.1469423" lon="10.6322248"><ele>386.8571428571429</ele><time>2026-04-04T12:50:25.725Z</time></trkpt><trkpt lat="43.146893" lon="10.6322868"><ele>387.0</ele><time>2026-04-04T12:50:30.693Z</time></trkpt><trkpt lat="43.146862" lon="10.6324011"><ele>387.0</ele><time>2026-04-04T12:50:32.678Z</time></trkpt><trkpt lat="43.1467692" lon="10.632422"><ele>387.0</ele><time>2026-04-04T12:50:38.726Z</time></trkpt><trkpt lat="43.1466844" lon="10.6324216"><ele>387.0</ele><time>2026-04-04T12:50:40.728Z</time></trkpt><trkpt lat="43.1466166" lon="10.6324261"><ele>387.0</ele><time>2026-04-04T12:50:42.725Z</time></trkpt><trkpt lat="43.1465343" lon="10.632424"><ele>387.0</ele><time>2026-04-04T12:50:45.715Z</time></trkpt><trkpt lat="43.1464558" lon="10.6324539"><ele>387.0</ele><time>2026-04-04T12:50:48.726Z</time></trkpt><trkpt lat="43.1464085" lon="10.6325205"><ele>388.6666666666667</ele><time>2026-04-04T12:50:51.728Z</time></trkpt><trkpt lat="43.1463453" lon="10.6325787"><ele>390.33333333333337</ele><time>2026-04-04T12:50:55.739Z</time></trkpt><trkpt lat="43.146278" lon="10.6325735"><ele>392.0</ele><time>2026-04-04T12:50:59.735Z</time></trkpt><trkpt lat="43.1462073" lon="10.632545"><ele>393.6666666666667</ele><time>2026-04-04T12:51:03.737Z</time></trkpt><trkpt lat="43.1461372" lon="10.6325237"><ele>395.33333333333337</ele><time>2026-04-04T12:51:06.74Z</time></trkpt><trkpt lat="43.1460631" lon="10.6324819"><ele>397.0</ele><time>2026-04-04T12:51:09.738Z</time></trkpt><trkpt lat="43.1459754" lon="10.6324522"><ele>397.00000000000006</ele><time>2026-04-04T12:51:12.737Z</time></trkpt><trkpt lat="43.1459083" lon="10.6324607"><ele>397.0</ele><time>2026-04-04T12:51:14.741Z</time></trkpt><trkpt lat="43.1458343" lon="10.6324665"><ele>397.0</ele><time>2026-04-04T12:51:16.74Z</time></trkpt><trkpt lat="43.1457631" lon="10.632464"><ele>397.0</ele><time>2026-04-04T12:51:18.74Z</time></trkpt><trkpt lat="43.1456743" lon="10.6324388"><ele>397.00000000000006</ele><time>2026-04-04T12:51:21.732Z</time></trkpt><trkpt lat="43.1455989" lon="10.6323828"><ele>397.0</ele><time>2026-04-04T12:51:24.749Z</time></trkpt><trkpt lat="43.1455515" lon="10.6323031"><ele>397.8</ele><time>2026-04-04T12:51:26.738Z</time></trkpt><trkpt lat="43.1454896" lon="10.6322162"><ele>398.6</ele><time>2026-04-04T12:51:28.736Z</time></trkpt><trkpt lat="43.1453949" lon="10.6321648"><ele>399.40000000000003</ele><time>2026-04-04T12:51:30.726Z</time></trkpt><trkpt lat="43.1453093" lon="10.6321342"><ele>400.20000000000005</ele><time>2026-04-04T12:51:32.739Z</time></trkpt><trkpt lat="43.1452257" lon="10.6321197"><ele>401.0</ele><time>2026-04-04T12:51:34.733Z</time></trkpt><trkpt lat="43.1451362" lon="10.6321208"><ele>400.99999999999994</ele><time>2026-04-04T12:51:36.731Z</time></trkpt><trkpt lat="43.145058" lon="10.6321526"><ele>401.0</ele><time>2026-04-04T12:51:38.739Z</time></trkpt><trkpt lat="43.1449758" lon="10.6321906"><ele>401.0</ele><time>2026-04-04T12:51:40.732Z</time></trkpt><trkpt lat="43.144899" lon="10.6322444"><ele>401.0</ele><time>2026-04-04T12:51:42.721Z</time></trkpt><trkpt lat="43.1448295" lon="10.6323047"><ele>400.99999999999994</ele><time>2026-04-04T12:51:44.726Z</time></trkpt><trkpt lat="43.1447612" lon="10.6323587"><ele>401.0</ele><time>2026-04-04T12:51:46.745Z</time></trkpt><trkpt lat="43.1446933" lon="10.6324151"><ele>400.99999999999994</ele><time>2026-04-04T12:51:48.727Z</time></trkpt><trkpt lat="43.1446176" lon="10.6324721"><ele>401.0</ele><time>2026-04-04T12:51:50.723Z</time></trkpt><trkpt lat="43.1445437" lon="10.6325035"><ele>401.0</ele><time>2026-04-04T12:51:52.723Z</time></trkpt><trkpt lat="43.1444652" lon="10.6325121"><ele>401.0</ele><time>2026-04-04T12:51:58.72Z</time></trkpt><trkpt lat="43.1444026" lon="10.6325337"><ele>400.99999999999994</ele><time>2026-04-04T12:52:00.721Z</time></trkpt><trkpt lat="43.1443335" lon="10.6325785"><ele>401.0</ele><time>2026-04-04T12:52:02.726Z</time></trkpt><trkpt lat="43.1442511" lon="10.6326152"><ele>401.0</ele><time>2026-04-04T12:52:04.725Z</time></trkpt><trkpt lat="43.1441744" lon="10.6326314"><ele>401.0</ele><time>2026-04-04T12:52:06.729Z</time></trkpt><trkpt lat="43.144109" lon="10.6325738"><ele>401.0</ele><time>2026-04-04T12:53:40.738Z</time></trkpt><trkpt lat="43.1440474" lon="10.6325555"><ele>401.0</ele><time>2026-04-04T12:53:42.747Z</time></trkpt><trkpt lat="43.1439716" lon="10.6325349"><ele>401.0</ele><time>2026-04-04T12:53:44.733Z</time></trkpt><trkpt lat="43.143898" lon="10.6325295"><ele>401.0</ele><time>2026-04-04T12:53:46.731Z</time></trkpt><trkpt lat="43.1438317" lon="10.6325213"><ele>401.0</ele><time>2026-04-04T12:53:48.731Z</time></trkpt><trkpt lat="43.1437692" lon="10.6325374"><ele>402.49999999999994</ele><time>2026-04-04T12:53:50.762Z</time></trkpt><trkpt lat="43.143679" lon="10.6325734"><ele>404.0</ele><time>2026-04-04T12:53:53.734Z</time></trkpt><trkpt lat="43.1435821" lon="10.632601"><ele>405.5</ele><time>2026-04-04T12:53:56.729Z</time></trkpt><trkpt lat="43.1435013" lon="10.6326152"><ele>407.0</ele><time>2026-04-04T12:53:58.733Z</time></trkpt><trkpt lat="43.1434239" lon="10.6326324"><ele>408.49999999999994</ele><time>2026-04-04T12:54:01.718Z</time></trkpt><trkpt lat="43.1433587" lon="10.6326384"><ele>410.0</ele><time>2026-04-04T12:54:04.717Z</time></trkpt><trkpt lat="43.1432852" lon="10.6326235"><ele>409.99999999999994</ele><time>2026-04-04T12:54:07.729Z</time></trkpt><trkpt lat="43.143224" lon="10.632598"><ele>410.0</ele><time>2026-04-04T12:54:11.729Z</time></trkpt><trkpt lat="43.1431497" lon="10.63257"><ele>410.0</ele><time>2026-04-04T12:54:15.73Z</time></trkpt><trkpt lat="43.1430663" lon="10.6325973"><ele>410.0</ele><time>2026-04-04T12:54:18.732Z</time></trkpt><trkpt lat="43.1429811" lon="10.6326179"><ele>409.99999999999994</ele><time>2026-04-04T12:54:22.727Z</time></trkpt><trkpt lat="43.1429019" lon="10.6326449"><ele>410.0</ele><time>2026-04-04T12:54:26.725Z</time></trkpt><trkpt lat="43.142824" lon="10.6326375"><ele>412.14285714285717</ele><time>2026-04-04T12:54:30.73Z</time></trkpt><trkpt lat="43.1427471" lon="10.6326142"><ele>414.2857142857143</ele><time>2026-04-04T12:54:34.732Z</time></trkpt><trkpt lat="43.1427024" lon="10.6325402"><ele>416.42857142857144</ele><time>2026-04-04T12:54:37.72Z</time></trkpt><trkpt lat="43.142681" lon="10.6324375"><ele>418.57142857142856</ele><time>2026-04-04T12:54:41.707Z</time></trkpt><trkpt lat="43.1426427" lon="10.6323653"><ele>420.71428571428567</ele><time>2026-04-04T12:54:46.695Z</time></trkpt><trkpt lat="43.1425589" lon="10.6323482"><ele>422.85714285714283</ele><time>2026-04-04T12:54:49.67Z</time></trkpt><trkpt lat="43.1424904" lon="10.6323373"><ele>425.0</ele><time>2026-04-04T12:54:51.655Z</time></trkpt><trkpt lat="43.1424144" lon="10.6323869"><ele>426.3333333333333</ele><time>2026-04-04T12:54:54.673Z</time></trkpt><trkpt lat="43.1423426" lon="10.6324017"><ele>427.66666666666663</ele><time>2026-04-04T12:54:56.692Z</time></trkpt><trkpt lat="43.1422562" lon="10.632386"><ele>429.0</ele><time>2026-04-04T12:54:58.701Z</time></trkpt><trkpt lat="43.1421815" lon="10.6323795"><ele>430.33333333333337</ele><time>2026-04-04T12:55:00.713Z</time></trkpt><trkpt lat="43.1420861" lon="10.632343"><ele>431.6666666666667</ele><time>2026-04-04T12:55:03.704Z</time></trkpt><trkpt lat="43.1419981" lon="10.6323079"><ele>433.0</ele><time>2026-04-04T12:55:05.709Z</time></trkpt><trkpt lat="43.1419213" lon="10.6322661"><ele>433.00000000000006</ele><time>2026-04-04T12:55:08.71Z</time></trkpt><trkpt lat="43.1418585" lon="10.6322228"><ele>433.0</ele><time>2026-04-04T12:55:10.712Z</time></trkpt><trkpt lat="43.1417896" lon="10.6321875"><ele>433.0</ele><time>2026-04-04T12:55:12.712Z</time></trkpt><trkpt lat="43.1417221" lon="10.6321722"><ele>433.0</ele><time>2026-04-04T12:55:14.712Z</time></trkpt><trkpt lat="43.141649" lon="10.6321428"><ele>433.00000000000006</ele><time>2026-04-04T12:55:17.722Z</time></trkpt><trkpt lat="43.1415665" lon="10.6321181"><ele>433.0</ele><time>2026-04-04T12:55:20.721Z</time></trkpt><trkpt lat="43.141487" lon="10.6320787"><ele>433.6666666666667</ele><time>2026-04-04T12:55:23.741Z</time></trkpt><trkpt lat="43.1413869" lon="10.6320566"><ele>434.33333333333337</ele><time>2026-04-04T12:55:26.715Z</time></trkpt><trkpt lat="43.1413204" lon="10.632042"><ele>435.0</ele><time>2026-04-04T12:55:28.723Z</time></trkpt><trkpt lat="43.1412545" lon="10.6320274"><ele>435.66666666666663</ele><time>2026-04-04T12:55:30.72Z</time></trkpt><trkpt lat="43.1411822" lon="10.6319963"><ele>436.3333333333333</ele><time>2026-04-04T12:55:32.72Z</time></trkpt><trkpt lat="43.1411013" lon="10.6319898"><ele>437.0</ele><time>2026-04-04T12:55:35.709Z</time></trkpt><trkpt lat="43.1410088" lon="10.6319749"><ele>437.0</ele><time>2026-04-04T12:55:38.708Z</time></trkpt><trkpt lat="43.1409436" lon="10.631962"><ele>437.0</ele><time>2026-04-04T12:55:40.702Z</time></trkpt><trkpt lat="43.1408659" lon="10.6319764"><ele>437.0</ele><time>2026-04-04T12:55:42.702Z</time></trkpt><trkpt lat="43.1407875" lon="10.6320368"><ele>437.0</ele><time>2026-04-04T12:55:44.717Z</time></trkpt><trkpt lat="43.140725" lon="10.6320698"><ele>437.0</ele><time>2026-04-04T12:55:46.713Z</time></trkpt><trkpt lat="43.1406604" lon="10.6320969"><ele>437.0</ele><time>2026-04-04T12:55:48.713Z</time></trkpt><trkpt lat="43.1405947" lon="10.632112"><ele>437.0</ele><time>2026-04-04T12:55:50.714Z</time></trkpt><trkpt lat="43.1405142" lon="10.6321503"><ele>434.20000000000005</ele><time>2026-04-04T12:55:52.711Z</time></trkpt><trkpt lat="43.140437" lon="10.6322224"><ele>431.40000000000003</ele><time>2026-04-04T12:55:54.721Z</time></trkpt><trkpt lat="43.1403715" lon="10.6323473"><ele>428.6</ele><time>2026-04-04T12:55:56.696Z</time></trkpt><trkpt lat="43.1403386" lon="10.6324323"><ele>425.79999999999995</ele><time>2026-04-04T12:55:57.699Z</time></trkpt><trkpt lat="43.1402885" lon="10.6325628"><ele>423.0</ele><time>2026-04-04T12:55:59.697Z</time></trkpt><trkpt lat="43.1402409" lon="10.6326675"><ele>423.0</ele><time>2026-04-04T12:56:01.703Z</time></trkpt><trkpt lat="43.1401469" lon="10.6327467"><ele>423.0</ele><time>2026-04-04T12:56:03.692Z</time></trkpt><trkpt lat="43.1400724" lon="10.6328218"><ele>423.0</ele><time>2026-04-04T12:56:05.698Z</time></trkpt><trkpt lat="43.1400147" lon="10.6328893"><ele>423.0</ele><time>2026-04-04T12:56:07.7Z</time></trkpt><trkpt lat="43.139973" lon="10.6329567"><ele>423.0</ele><time>2026-04-04T12:56:09.704Z</time></trkpt><trkpt lat="43.1398924" lon="10.6330222"><ele>423.0</ele><time>2026-04-04T12:56:11.71Z</time></trkpt><trkpt lat="43.1398095" lon="10.6330787"><ele>424.85714285714283</ele><time>2026-04-04T12:56:13.712Z</time></trkpt><trkpt lat="43.1397368" lon="10.6330884"><ele>426.7142857142857</ele><time>2026-04-04T12:56:15.711Z</time></trkpt><trkpt lat="43.1396596" lon="10.6330754"><ele>428.57142857142856</ele><time>2026-04-04T12:56:18.707Z</time></trkpt><trkpt lat="43.1395859" lon="10.633066"><ele>430.42857142857144</ele><time>2026-04-04T12:56:21.696Z</time></trkpt><trkpt lat="43.139508" lon="10.6330206"><ele>432.28571428571433</ele><time>2026-04-04T12:56:25.721Z</time></trkpt><trkpt lat="43.13946" lon="10.6329567"><ele>434.14285714285717</ele><time>2026-04-04T12:56:28.701Z</time></trkpt><trkpt lat="43.1394327" lon="10.632868"><ele>436.0</ele><time>2026-04-04T12:56:32.709Z</time></trkpt><trkpt lat="43.13937" lon="10.6328327"><ele>436.00000000000006</ele><time>2026-04-04T12:56:35.7Z</time></trkpt><trkpt lat="43.1392883" lon="10.6328155"><ele>436.0</ele><time>2026-04-04T12:56:38.706Z</time></trkpt><trkpt lat="43.1392005" lon="10.6328024"><ele>436.0</ele><time>2026-04-04T12:56:41.712Z</time></trkpt><trkpt lat="43.139142" lon="10.6327554"><ele>436.0</ele><time>2026-04-04T12:56:43.714Z</time></trkpt><trkpt lat="43.1390629" lon="10.6327552"><ele>436.00000000000006</ele><time>2026-04-04T12:56:46.721Z</time></trkpt><trkpt lat="43.138994" lon="10.6327852"><ele>436.0</ele><time>2026-04-04T12:56:50.714Z</time></trkpt><trkpt lat="43.1389203" lon="10.6328223"><ele>436.42857142857144</ele><time>2026-04-04T12:56:53.717Z</time></trkpt><trkpt lat="43.1388772" lon="10.6328878"><ele>436.8571428571429</ele><time>2026-04-04T12:56:56.742Z</time></trkpt><trkpt lat="43.1388136" lon="10.6328821"><ele>437.2857142857143</ele><time>2026-04-04T12:57:01.72Z</time></trkpt><trkpt lat="43.1387559" lon="10.6328262"><ele>437.7142857142857</ele><time>2026-04-04T12:57:05.726Z</time></trkpt><trkpt lat="43.1386871" lon="10.6328354"><ele>438.1428571428571</ele><time>2026-04-04T12:57:08.726Z</time></trkpt><trkpt lat="43.1386036" lon="10.6328193"><ele>438.57142857142856</ele><time>2026-04-04T12:57:12.737Z</time></trkpt><trkpt lat="43.1385375" lon="10.6327983"><ele>439.0</ele><time>2026-04-04T12:57:15.711Z</time></trkpt><trkpt lat="43.1384559" lon="10.6327839"><ele>439.00000000000006</ele><time>2026-04-04T12:57:19.703Z</time></trkpt><trkpt lat="43.1383927" lon="10.6327662"><ele>439.0</ele><time>2026-04-04T12:57:22.707Z</time></trkpt><trkpt lat="43.1382989" lon="10.6327787"><ele>439.0</ele><time>2026-04-04T12:57:26.707Z</time></trkpt><trkpt lat="43.1382232" lon="10.632818"><ele>439.0</ele><time>2026-04-04T12:57:29.715Z</time></trkpt><trkpt lat="43.1381499" lon="10.6328686"><ele>439.00000000000006</ele><time>2026-04-04T12:57:32.717Z</time></trkpt><trkpt lat="43.1380745" lon="10.6328918"><ele>439.0</ele><time>2026-04-04T12:57:35.708Z</time></trkpt><trkpt lat="43.1380121" lon="10.6329229"><ele>444.00000000000006</ele><time>2026-04-04T12:57:38.707Z</time></trkpt><trkpt lat="43.1379189" lon="10.6329253"><ele>449.0</ele><time>2026-04-04T12:57:41.711Z</time></trkpt><trkpt lat="43.1378403" lon="10.6329187"><ele>454.0</ele><time>2026-04-04T12:57:44.709Z</time></trkpt><trkpt lat="43.1377739" lon="10.6329355"><ele>459.0</ele><time>2026-04-04T12:57:50.701Z</time></trkpt><trkpt lat="43.1377039" lon="10.6330277"><ele>464.00000000000006</ele><time>2026-04-04T12:57:53.709Z</time></trkpt><trkpt lat="43.1376418" lon="10.6330919"><ele>469.0</ele><time>2026-04-04T12:57:56.701Z</time></trkpt><trkpt lat="43.1375731" lon="10.633108"><ele>469.0</ele><time>2026-04-04T12:58:00.719Z</time></trkpt><trkpt lat="43.1375162" lon="10.6330578"><ele>469.0</ele><time>2026-04-04T12:58:04.715Z</time></trkpt><trkpt lat="43.1374482" lon="10.6330246"><ele>469.0</ele><time>2026-04-04T12:58:09.724Z</time></trkpt><trkpt lat="43.1373855" lon="10.6330792"><ele>469.0</ele><time>2026-04-04T12:58:14.699Z</time></trkpt><trkpt lat="43.1373442" lon="10.6331462"><ele>469.0</ele><time>2026-04-04T12:58:26.733Z</time></trkpt><trkpt lat="43.1372824" lon="10.6331665"><ele>469.0</ele><time>2026-04-04T12:58:31.755Z</time></trkpt><trkpt lat="43.1372055" lon="10.6332165"><ele>469.0</ele><time>2026-04-04T12:59:04.742Z</time></trkpt><trkpt lat="43.1371771" lon="10.6331369"><ele>471.57142857142856</ele><time>2026-04-04T12:59:08.741Z</time></trkpt><trkpt lat="43.1371105" lon="10.6330979"><ele>474.1428571428571</ele><time>2026-04-04T12:59:14.717Z</time></trkpt><trkpt lat="43.1370202" lon="10.6330784"><ele>476.7142857142857</ele><time>2026-04-04T12:59:19.711Z</time></trkpt><trkpt lat="43.1369449" lon="10.6331102"><ele>479.2857142857143</ele><time>2026-04-04T12:59:21.713Z</time></trkpt><trkpt lat="43.136879" lon="10.6331287"><ele>481.85714285714283</ele><time>2026-04-04T12:59:23.725Z</time></trkpt><trkpt lat="43.1368153" lon="10.6331192"><ele>484.42857142857144</ele><time>2026-04-04T12:59:26.731Z</time></trkpt><trkpt lat="43.1367479" lon="10.6330865"><ele>487.0</ele><time>2026-04-04T12:59:29.735Z</time></trkpt><trkpt lat="43.1366802" lon="10.6330331"><ele>487.0</ele><time>2026-04-04T12:59:32.745Z</time></trkpt><trkpt lat="43.136617" lon="10.6330061"><ele>487.0</ele><time>2026-04-04T12:59:35.735Z</time></trkpt><trkpt lat="43.1365658" lon="10.6329516"><ele>487.0</ele><time>2026-04-04T12:59:38.732Z</time></trkpt><trkpt lat="43.1364991" lon="10.6329075"><ele>487.0</ele><time>2026-04-04T12:59:41.741Z</time></trkpt><trkpt lat="43.1364205" lon="10.6328706"><ele>487.0</ele><time>2026-04-04T12:59:44.739Z</time></trkpt><trkpt lat="43.1363486" lon="10.6328632"><ele>487.0</ele><time>2026-04-04T12:59:47.742Z</time></trkpt><trkpt lat="43.1362768" lon="10.6328884"><ele>487.0</ele><time>2026-04-04T12:59:51.727Z</time></trkpt><trkpt lat="43.1362066" lon="10.632903"><ele>489.33333333333337</ele><time>2026-04-04T12:59:54.703Z</time></trkpt><trkpt lat="43.1361307" lon="10.6329571"><ele>491.6666666666667</ele><time>2026-04-04T12:59:57.702Z</time></trkpt><trkpt lat="43.1360395" lon="10.6329893"><ele>494.0</ele><time>2026-04-04T12:59:59.684Z</time></trkpt><trkpt lat="43.1359481" lon="10.6330072"><ele>496.33333333333337</ele><time>2026-04-04T13:00:01.686Z</time></trkpt><trkpt lat="43.1358761" lon="10.633044"><ele>498.6666666666667</ele><time>2026-04-04T13:00:05.714Z</time></trkpt><trkpt lat="43.1358191" lon="10.6330997"><ele>501.0</ele><time>2026-04-04T13:00:09.716Z</time></trkpt><trkpt lat="43.1357619" lon="10.6331484"><ele>502.5</ele><time>2026-04-04T13:00:14.708Z</time></trkpt><trkpt lat="43.1356787" lon="10.6331605"><ele>504.0</ele><time>2026-04-04T13:00:17.719Z</time></trkpt><trkpt lat="43.1356111" lon="10.6331688"><ele>505.5</ele><time>2026-04-04T13:00:20.711Z</time></trkpt><trkpt lat="43.1355297" lon="10.6331777"><ele>507.0</ele><time>2026-04-04T13:00:23.721Z</time></trkpt><trkpt lat="43.1354651" lon="10.633186"><ele>508.5</ele><time>2026-04-04T13:00:26.727Z</time></trkpt><trkpt lat="43.1353823" lon="10.6331671"><ele>510.0</ele><time>2026-04-04T13:00:30.721Z</time></trkpt><trkpt lat="43.1353007" lon="10.6331279"><ele>510.0</ele><time>2026-04-04T13:00:33.738Z</time></trkpt><trkpt lat="43.135241" lon="10.6330929"><ele>510.00000000000006</ele><time>2026-04-04T13:00:35.72Z</time></trkpt><trkpt lat="43.1351582" lon="10.6330843"><ele>510.0</ele><time>2026-04-04T13:00:38.715Z</time></trkpt><trkpt lat="43.1350864" lon="10.6330812"><ele>510.0</ele><time>2026-04-04T13:00:41.718Z</time></trkpt><trkpt lat="43.1350243" lon="10.6330528"><ele>510.00000000000006</ele><time>2026-04-04T13:00:45.716Z</time></trkpt><trkpt lat="43.1349579" lon="10.6330556"><ele>510.0</ele><time>2026-04-04T13:00:48.733Z</time></trkpt><trkpt lat="43.1349098" lon="10.6329995"><ele>510.0</ele><time>2026-04-04T13:00:50.728Z</time></trkpt><trkpt lat="43.1348388" lon="10.6329391"><ele>509.5</ele><time>2026-04-04T13:00:52.726Z</time></trkpt><trkpt lat="43.1347571" lon="10.6328942"><ele>509.0</ele><time>2026-04-04T13:00:54.73Z</time></trkpt><trkpt lat="43.1346924" lon="10.6328464"><ele>508.5</ele><time>2026-04-04T13:00:56.73Z</time></trkpt><trkpt lat="43.1346271" lon="10.6328186"><ele>508.0</ele><time>2026-04-04T13:00:58.729Z</time></trkpt><trkpt lat="43.1345613" lon="10.6327806"><ele>507.5</ele><time>2026-04-04T13:01:00.724Z</time></trkpt><trkpt lat="43.1344978" lon="10.6327511"><ele>507.0</ele><time>2026-04-04T13:01:02.724Z</time></trkpt><trkpt lat="43.1344126" lon="10.6327411"><ele>507.0</ele><time>2026-04-04T13:01:04.738Z</time></trkpt><trkpt lat="43.1343023" lon="10.6327245"><ele>507.0</ele><time>2026-04-04T13:01:06.714Z</time></trkpt><trkpt lat="43.1342299" lon="10.6327336"><ele>507.0</ele><time>2026-04-04T13:01:07.711Z</time></trkpt><trkpt lat="43.1341567" lon="10.6327669"><ele>507.0</ele><time>2026-04-04T13:01:08.713Z</time></trkpt><trkpt lat="43.1340853" lon="10.6328136"><ele>507.0</ele><time>2026-04-04T13:01:09.709Z</time></trkpt><trkpt lat="43.1340147" lon="10.6328584"><ele>507.0</ele><time>2026-04-04T13:01:10.712Z</time></trkpt><trkpt lat="43.1339215" lon="10.6329023"><ele>506.1666666666667</ele><time>2026-04-04T13:01:12.708Z</time></trkpt><trkpt lat="43.13384" lon="10.6329349"><ele>505.33333333333337</ele><time>2026-04-04T13:01:14.703Z</time></trkpt><trkpt lat="43.1337688" lon="10.6329694"><ele>504.5</ele><time>2026-04-04T13:01:16.714Z</time></trkpt><trkpt lat="43.1336668" lon="10.632969"><ele>503.6666666666667</ele><time>2026-04-04T13:01:18.716Z</time></trkpt><trkpt lat="43.1335921" lon="10.6329688"><ele>502.83333333333337</ele><time>2026-04-04T13:01:19.719Z</time></trkpt><trkpt lat="43.1335308" lon="10.6329949"><ele>502.0</ele><time>2026-04-04T13:01:20.717Z</time></trkpt><trkpt lat="43.1334385" lon="10.6330426"><ele>501.99999999999994</ele><time>2026-04-04T13:01:22.71Z</time></trkpt><trkpt lat="43.1333873" lon="10.6330971"><ele>502.0</ele><time>2026-04-04T13:01:24.715Z</time></trkpt><trkpt lat="43.1333466" lon="10.6331887"><ele>501.99999999999994</ele><time>2026-04-04T13:01:29.695Z</time></trkpt><trkpt lat="43.133315" lon="10.6332772"><ele>501.99999999999994</ele><time>2026-04-04T13:01:32.696Z</time></trkpt><trkpt lat="43.1333073" lon="10.633366"><ele>502.0</ele><time>2026-04-04T13:01:34.685Z</time></trkpt><trkpt lat="43.1333241" lon="10.6334914"><ele>501.99999999999994</ele><time>2026-04-04T13:01:37.696Z</time></trkpt><trkpt lat="43.1333274" lon="10.6335816"><ele>501.99999999999994</ele><time>2026-04-04T13:01:40.708Z</time></trkpt><trkpt lat="43.1332572" lon="10.6336026"><ele>502.50000000000006</ele><time>2026-04-04T13:01:43.714Z</time></trkpt><trkpt lat="43.1332309" lon="10.6336954"><ele>503.0</ele><time>2026-04-04T13:01:47.715Z</time></trkpt><trkpt lat="43.1332507" lon="10.6338078"><ele>503.5</ele><time>2026-04-04T13:01:51.72Z</time></trkpt><trkpt lat="43.133255" lon="10.633906"><ele>504.0</ele><time>2026-04-04T13:01:54.727Z</time></trkpt><trkpt lat="43.1332506" lon="10.6340281"><ele>504.50000000000006</ele><time>2026-04-04T13:01:57.724Z</time></trkpt><trkpt lat="43.1332267" lon="10.6341138"><ele>505.0</ele><time>2026-04-04T13:02:00.722Z</time></trkpt><trkpt lat="43.133201" lon="10.6342017"><ele>505.0</ele><time>2026-04-04T13:02:04.723Z</time></trkpt><trkpt lat="43.1331494" lon="10.6342524"><ele>504.99999999999994</ele><time>2026-04-04T13:02:07.732Z</time></trkpt><trkpt lat="43.1330951" lon="10.6343084"><ele>505.0</ele><time>2026-04-04T13:02:10.733Z</time></trkpt><trkpt lat="43.133009" lon="10.6343033"><ele>505.0</ele><time>2026-04-04T13:02:14.716Z</time></trkpt><trkpt lat="43.1329362" lon="10.6343422"><ele>504.99999999999994</ele><time>2026-04-04T13:02:18.732Z</time></trkpt><trkpt lat="43.1328756" lon="10.6343817"><ele>505.0</ele><time>2026-04-04T13:02:22.723Z</time></trkpt><trkpt lat="43.1327947" lon="10.6344035"><ele>505.0</ele><time>2026-04-04T13:02:25.726Z</time></trkpt><trkpt lat="43.1327066" lon="10.6343961"><ele>505.0</ele><time>2026-04-04T13:02:27.716Z</time></trkpt><trkpt lat="43.1326293" lon="10.6343882"><ele>505.0</ele><time>2026-04-04T13:02:29.719Z</time></trkpt><trkpt lat="43.1325389" lon="10.634406"><ele>505.0</ele><time>2026-04-04T13:02:31.72Z</time></trkpt><trkpt lat="43.1324436" lon="10.6345135"><ele>505.0</ele><time>2026-04-04T13:02:33.722Z</time></trkpt><trkpt lat="43.1324081" lon="10.6345968"><ele>505.0</ele><time>2026-04-04T13:02:34.722Z</time></trkpt><trkpt lat="43.1323277" lon="10.634733"><ele>505.8</ele><time>2026-04-04T13:02:36.723Z</time></trkpt><trkpt lat="43.1323069" lon="10.6348209"><ele>506.6</ele><time>2026-04-04T13:02:38.726Z</time></trkpt><trkpt lat="43.1323828" lon="10.6348696"><ele>507.4</ele><time>2026-04-04T13:03:54.682Z</time></trkpt><trkpt lat="43.1322246" lon="10.6349663"><ele>508.2</ele><time>2026-04-04T13:08:41.701Z</time></trkpt><trkpt lat="43.1322395" lon="10.6348682"><ele>509.0</ele><time>2026-04-04T13:08:43.696Z</time></trkpt><trkpt lat="43.1323046" lon="10.6348592"><ele>508.99999999999994</ele><time>2026-04-04T13:10:35.711Z</time></trkpt><trkpt lat="43.1323365" lon="10.6347639"><ele>509.0</ele><time>2026-04-04T13:16:41.722Z</time></trkpt><trkpt lat="43.1322717" lon="10.6347138"><ele>509.0</ele><time>2026-04-04T13:16:44.717Z</time></trkpt><trkpt lat="43.1321955" lon="10.6347071"><ele>509.0</ele><time>2026-04-04T13:16:46.723Z</time></trkpt><trkpt lat="43.1321187" lon="10.6347281"><ele>508.99999999999994</ele><time>2026-04-04T13:16:48.728Z</time></trkpt><trkpt lat="43.1320395" lon="10.6347551"><ele>509.0</ele><time>2026-04-04T13:16:50.729Z</time></trkpt><trkpt lat="43.1319642" lon="10.6347213"><ele>508.99999999999994</ele><time>2026-04-04T13:16:52.703Z</time></trkpt><trkpt lat="43.1319053" lon="10.6346742"><ele>509.0</ele><time>2026-04-04T13:16:54.708Z</time></trkpt><trkpt lat="43.1318767" lon="10.63457"><ele>509.0</ele><time>2026-04-04T13:16:56.693Z</time></trkpt><trkpt lat="43.1318793" lon="10.6344201"><ele>509.0</ele><time>2026-04-04T13:16:58.696Z</time></trkpt><trkpt lat="43.1318338" lon="10.6342877"><ele>508.99999999999994</ele><time>2026-04-04T13:17:00.7Z</time></trkpt><trkpt lat="43.1318253" lon="10.6342021"><ele>509.0</ele><time>2026-04-04T13:17:01.696Z</time></trkpt><trkpt lat="43.1318068" lon="10.6340558"><ele>508.66666666666663</ele><time>2026-04-04T13:17:03.706Z</time></trkpt><trkpt lat="43.1317393" lon="10.6339268"><ele>508.3333333333333</ele><time>2026-04-04T13:17:05.69Z</time></trkpt><trkpt lat="43.1317054" lon="10.6338478"><ele>508.0</ele><time>2026-04-04T13:17:06.699Z</time></trkpt><trkpt lat="43.1316923" lon="10.633753"><ele>507.66666666666663</ele><time>2026-04-04T13:17:07.681Z</time></trkpt><trkpt lat="43.1316588" lon="10.6336582"><ele>507.3333333333333</ele><time>2026-04-04T13:17:08.688Z</time></trkpt><trkpt lat="43.1316513" lon="10.6335581"><ele>507.0</ele><time>2026-04-04T13:17:09.694Z</time></trkpt><trkpt lat="43.1316636" lon="10.6334061"><ele>505.8</ele><time>2026-04-04T13:17:11.706Z</time></trkpt><trkpt lat="43.1316642" lon="10.6332619"><ele>504.6</ele><time>2026-04-04T13:17:13.707Z</time></trkpt><trkpt lat="43.1316364" lon="10.6331043"><ele>503.40000000000003</ele><time>2026-04-04T13:17:15.716Z</time></trkpt><trkpt lat="43.1316056" lon="10.6329633"><ele>502.20000000000005</ele><time>2026-04-04T13:17:17.728Z</time></trkpt><trkpt lat="43.1315594" lon="10.6328825"><ele>501.0</ele><time>2026-04-04T13:17:19.724Z</time></trkpt><trkpt lat="43.1314888" lon="10.632812"><ele>501.0</ele><time>2026-04-04T13:17:21.727Z</time></trkpt><trkpt lat="43.1314246" lon="10.6327461"><ele>501.0</ele><time>2026-04-04T13:17:23.725Z</time></trkpt><trkpt lat="43.1313666" lon="10.6326709"><ele>501.0</ele><time>2026-04-04T13:17:25.711Z</time></trkpt><trkpt lat="43.1313131" lon="10.6325979"><ele>501.0</ele><time>2026-04-04T13:17:27.714Z</time></trkpt><trkpt lat="43.1312479" lon="10.6325347"><ele>501.0</ele><time>2026-04-04T13:17:29.723Z</time></trkpt><trkpt lat="43.1311703" lon="10.6324724"><ele>501.0</ele><time>2026-04-04T13:17:31.722Z</time></trkpt><trkpt lat="43.1310874" lon="10.6324232"><ele>501.0</ele><time>2026-04-04T13:17:33.723Z</time></trkpt><trkpt lat="43.1309951" lon="10.6323794"><ele>501.0</ele><time>2026-04-04T13:17:35.726Z</time></trkpt><trkpt lat="43.1309037" lon="10.6323363"><ele>501.0</ele><time>2026-04-04T13:17:37.725Z</time></trkpt><trkpt lat="43.1308025" lon="10.6323032"><ele>501.0</ele><time>2026-04-04T13:17:39.724Z</time></trkpt><trkpt lat="43.1307038" lon="10.6322776"><ele>501.0</ele><time>2026-04-04T13:17:41.723Z</time></trkpt><trkpt lat="43.1306096" lon="10.6322579"><ele>502.6666666666667</ele><time>2026-04-04T13:17:43.719Z</time></trkpt><trkpt lat="43.1305117" lon="10.632228"><ele>504.33333333333337</ele><time>2026-04-04T13:17:45.725Z</time></trkpt><trkpt lat="43.1304323" lon="10.6322056"><ele>506.0</ele><time>2026-04-04T13:17:47.72Z</time></trkpt><trkpt lat="43.1303484" lon="10.6321818"><ele>507.6666666666667</ele><time>2026-04-04T13:17:49.711Z</time></trkpt><trkpt lat="43.13028" lon="10.6321381"><ele>509.33333333333337</ele><time>2026-04-04T13:17:51.733Z</time></trkpt><trkpt lat="43.1302187" lon="10.6320604"><ele>511.0</ele><time>2026-04-04T13:17:53.718Z</time></trkpt><trkpt lat="43.1301507" lon="10.6319878"><ele>510.50000000000006</ele><time>2026-04-04T13:17:55.724Z</time></trkpt><trkpt lat="43.1300882" lon="10.6319119"><ele>510.0</ele><time>2026-04-04T13:17:57.718Z</time></trkpt><trkpt lat="43.1300254" lon="10.6318158"><ele>509.5</ele><time>2026-04-04T13:17:59.73Z</time></trkpt><trkpt lat="43.1299764" lon="10.6317315"><ele>509.0</ele><time>2026-04-04T13:18:01.733Z</time></trkpt><trkpt lat="43.1299206" lon="10.631663"><ele>508.50000000000006</ele><time>2026-04-04T13:18:03.726Z</time></trkpt><trkpt lat="43.1298531" lon="10.6316043"><ele>508.0</ele><time>2026-04-04T13:18:05.744Z</time></trkpt><trkpt lat="43.1297794" lon="10.63155"><ele>508.00000000000006</ele><time>2026-04-04T13:18:07.718Z</time></trkpt><trkpt lat="43.1297025" lon="10.6315218"><ele>508.0</ele><time>2026-04-04T13:18:09.718Z</time></trkpt><trkpt lat="43.1296139" lon="10.6315312"><ele>508.0</ele><time>2026-04-04T13:18:11.717Z</time></trkpt><trkpt lat="43.1295465" lon="10.6315269"><ele>508.0</ele><time>2026-04-04T13:18:13.714Z</time></trkpt><trkpt lat="43.1294827" lon="10.6315312"><ele>508.00000000000006</ele><time>2026-04-04T13:18:25.731Z</time></trkpt><trkpt lat="43.1294017" lon="10.6315241"><ele>508.0</ele><time>2026-04-04T13:18:28.722Z</time></trkpt><trkpt lat="43.1293303" lon="10.6314982"><ele>508.0</ele><time>2026-04-04T13:18:30.733Z</time></trkpt><trkpt lat="43.1292588" lon="10.6314732"><ele>507.99999999999994</ele><time>2026-04-04T13:18:32.729Z</time></trkpt><trkpt lat="43.1291815" lon="10.6314547"><ele>507.99999999999994</ele><time>2026-04-04T13:18:34.732Z</time></trkpt><trkpt lat="43.1290947" lon="10.6314456"><ele>508.0</ele><time>2026-04-04T13:18:36.738Z</time></trkpt><trkpt lat="43.1290008" lon="10.631459"><ele>508.0</ele><time>2026-04-04T13:18:38.71Z</time></trkpt><trkpt lat="43.1288903" lon="10.6315214"><ele>507.4</ele><time>2026-04-04T13:18:40.708Z</time></trkpt><trkpt lat="43.1288203" lon="10.6315497"><ele>506.79999999999995</ele><time>2026-04-04T13:18:41.709Z</time></trkpt><trkpt lat="43.1287519" lon="10.6315709"><ele>506.2</ele><time>2026-04-04T13:18:42.709Z</time></trkpt><trkpt lat="43.1286324" lon="10.6315868"><ele>505.6</ele><time>2026-04-04T13:18:44.708Z</time></trkpt><trkpt lat="43.128527" lon="10.6316007"><ele>505.0</ele><time>2026-04-04T13:18:46.706Z</time></trkpt><trkpt lat="43.1284422" lon="10.6315845"><ele>505.00000000000006</ele><time>2026-04-04T13:18:49.715Z</time></trkpt><trkpt lat="43.1284617" lon="10.6316902"><ele>505.0</ele><time>2026-04-04T13:19:31.712Z</time></trkpt><trkpt lat="43.1285128" lon="10.6317702"><ele>505.0</ele><time>2026-04-04T13:19:38.705Z</time></trkpt><trkpt lat="43.128587" lon="10.6317829"><ele>505.0</ele><time>2026-04-04T13:19:41.681Z</time></trkpt><trkpt lat="43.1286534" lon="10.6317668"><ele>505.00000000000006</ele><time>2026-04-04T13:19:42.678Z</time></trkpt><trkpt lat="43.1287425" lon="10.631708"><ele>505.0</ele><time>2026-04-04T13:19:44.689Z</time></trkpt><trkpt lat="43.1286406" lon="10.6317123"><ele>505.0</ele><time>2026-04-04T13:19:56.702Z</time></trkpt><trkpt lat="43.1285827" lon="10.6317534"><ele>504.99999999999994</ele><time>2026-04-04T13:19:57.697Z</time></trkpt><trkpt lat="43.1285109" lon="10.63179"><ele>505.0</ele><time>2026-04-04T13:19:58.699Z</time></trkpt><trkpt lat="43.1285407" lon="10.6317009"><ele>505.0</ele><time>2026-04-04T13:20:30.685Z</time></trkpt><trkpt lat="43.1285635" lon="10.6315874"><ele>504.99999999999994</ele><time>2026-04-04T13:20:31.675Z</time></trkpt><trkpt lat="43.1285877" lon="10.6314925"><ele>505.0</ele><time>2026-04-04T13:20:32.684Z</time></trkpt><trkpt lat="43.1285629" lon="10.631401"><ele>505.0</ele><time>2026-04-04T13:20:34.689Z</time></trkpt><trkpt lat="43.1284942" lon="10.6313403"><ele>505.00000000000006</ele><time>2026-04-04T13:20:37.71Z</time></trkpt><trkpt lat="43.1284198" lon="10.6313264"><ele>505.0</ele><time>2026-04-04T13:20:43.721Z</time></trkpt><trkpt lat="43.1284103" lon="10.6314671"><ele>505.0</ele><time>2026-04-04T13:20:55.7Z</time></trkpt><trkpt lat="43.1284526" lon="10.6315656"><ele>505.0</ele><time>2026-04-04T13:23:42.718Z</time></trkpt><trkpt lat="43.1284918" lon="10.6316343"><ele>505.00000000000006</ele><time>2026-04-04T13:23:49.717Z</time></trkpt><trkpt lat="43.1284358" lon="10.631687"><ele>505.0</ele><time>2026-04-04T13:23:53.703Z</time></trkpt><trkpt lat="43.1284673" lon="10.6315872"><ele>505.0</ele><time>2026-04-04T13:23:55.69Z</time></trkpt><trkpt lat="43.1284431" lon="10.6314894"><ele>505.0</ele><time>2026-04-04T13:23:58.689Z</time></trkpt><trkpt lat="43.1284179" lon="10.6313913"><ele>505.0</ele><time>2026-04-04T13:24:01.678Z</time></trkpt><trkpt lat="43.1283077" lon="10.6314679"><ele>505.0</ele><time>2026-04-04T13:24:05.66Z</time></trkpt><trkpt lat="43.1282816" lon="10.6313084"><ele>505.0</ele><time>2026-04-04T13:24:10.676Z</time></trkpt><trkpt lat="43.1282983" lon="10.6312152"><ele>505.4</ele><time>2026-04-04T13:24:11.685Z</time></trkpt><trkpt lat="43.1282879" lon="10.6310975"><ele>505.8</ele><time>2026-04-04T13:24:13.694Z</time></trkpt><trkpt lat="43.1282011" lon="10.6310861"><ele>506.20000000000005</ele><time>2026-04-04T13:24:15.697Z</time></trkpt><trkpt lat="43.1281181" lon="10.6310007"><ele>506.6</ele><time>2026-04-04T13:24:18.68Z</time></trkpt><trkpt lat="43.1280483" lon="10.630851"><ele>507.0</ele><time>2026-04-04T13:24:23.682Z</time></trkpt><trkpt lat="43.1280306" lon="10.6307022"><ele>507.0</ele><time>2026-04-04T13:24:25.67Z</time></trkpt><trkpt lat="43.1280305" lon="10.6305622"><ele>507.0</ele><time>2026-04-04T13:24:27.691Z</time></trkpt><trkpt lat="43.1280473" lon="10.6304697"><ele>507.0</ele><time>2026-04-04T13:24:30.698Z</time></trkpt><trkpt lat="43.1280766" lon="10.6303915"><ele>507.0</ele><time>2026-04-04T13:24:33.698Z</time></trkpt><trkpt lat="43.1280828" lon="10.6302885"><ele>507.0</ele><time>2026-04-04T13:24:36.686Z</time></trkpt><trkpt lat="43.1279939" lon="10.6301887"><ele>507.0</ele><time>2026-04-04T13:24:39.696Z</time></trkpt><trkpt lat="43.1279335" lon="10.6301538"><ele>509.40000000000003</ele><time>2026-04-04T13:24:40.7Z</time></trkpt><trkpt lat="43.127829" lon="10.6300744"><ele>511.80000000000007</ele><time>2026-04-04T13:24:42.701Z</time></trkpt><trkpt lat="43.1277505" lon="10.6299936"><ele>514.2</ele><time>2026-04-04T13:24:44.705Z</time></trkpt><trkpt lat="43.1276799" lon="10.6299263"><ele>516.6</ele><time>2026-04-04T13:24:46.705Z</time></trkpt><trkpt lat="43.127606" lon="10.6298551"><ele>519.0</ele><time>2026-04-04T13:24:48.712Z</time></trkpt><trkpt lat="43.1275296" lon="10.6297829"><ele>519.0</ele><time>2026-04-04T13:24:51.712Z</time></trkpt><trkpt lat="43.1274617" lon="10.6296984"><ele>519.0</ele><time>2026-04-04T13:24:53.715Z</time></trkpt><trkpt lat="43.1273967" lon="10.6296302"><ele>519.0</ele><time>2026-04-04T13:24:56.717Z</time></trkpt><trkpt lat="43.1273587" lon="10.6295446"><ele>519.0</ele><time>2026-04-04T13:24:59.72Z</time></trkpt><trkpt lat="43.1273185" lon="10.6294468"><ele>519.0</ele><time>2026-04-04T13:25:02.717Z</time></trkpt><trkpt lat="43.1272958" lon="10.6293607"><ele>519.0</ele><time>2026-04-04T13:25:05.713Z</time></trkpt><trkpt lat="43.1272582" lon="10.6292814"><ele>520.2</ele><time>2026-04-04T13:25:08.714Z</time></trkpt><trkpt lat="43.1272249" lon="10.6291681"><ele>521.4</ele><time>2026-04-04T13:25:11.719Z</time></trkpt><trkpt lat="43.1271568" lon="10.6291238"><ele>522.6</ele><time>2026-04-04T13:25:13.722Z</time></trkpt><trkpt lat="43.1270468" lon="10.6291477"><ele>523.8</ele><time>2026-04-04T13:25:15.718Z</time></trkpt><trkpt lat="43.1269412" lon="10.6291813"><ele>525.0</ele><time>2026-04-04T13:25:17.714Z</time></trkpt><trkpt lat="43.1268678" lon="10.6291986"><ele>525.0</ele><time>2026-04-04T13:25:19.717Z</time></trkpt><trkpt lat="43.1268002" lon="10.6291921"><ele>525.0</ele><time>2026-04-04T13:25:21.702Z</time></trkpt><trkpt lat="43.1267036" lon="10.6291846"><ele>525.0</ele><time>2026-04-04T13:25:24.694Z</time></trkpt><trkpt lat="43.1266446" lon="10.6291327"><ele>525.0</ele><time>2026-04-04T13:25:30.714Z</time></trkpt><trkpt lat="43.1265993" lon="10.6290597"><ele>525.0</ele><time>2026-04-04T13:25:35.693Z</time></trkpt><trkpt lat="43.1265831" lon="10.6289602"><ele>525.0</ele><time>2026-04-04T13:25:39.687Z</time></trkpt><trkpt lat="43.1265071" lon="10.6288846"><ele>525.0</ele><time>2026-04-04T13:25:44.698Z</time></trkpt><trkpt lat="43.1264303" lon="10.6288796"><ele>525.0</ele><time>2026-04-04T13:25:46.712Z</time></trkpt><trkpt lat="43.1263626" lon="10.6288824"><ele>525.0</ele><time>2026-04-04T13:25:50.713Z</time></trkpt><trkpt lat="43.1268002" lon="10.6291921"><ele>525.0</ele><time>2026-04-04T13:25:21.702Z</time></trkpt><trkpt lat="43.1267036" lon="10.6291846"><ele>525.0</ele><time>2026-04-04T13:25:24.694Z</time></trkpt><trkpt lat="43.1266446" lon="10.6291327"><ele>525.0</ele><time>2026-04-04T13:25:30.714Z</time></trkpt><trkpt lat="43.1265993" lon="10.6290597"><ele>525.0</ele><time>2026-04-04T13:25:35.693Z</time></trkpt><trkpt lat="43.1265831" lon="10.6289602"><ele>525.0</ele><time>2026-04-04T13:25:39.687Z</time></trkpt><trkpt lat="43.1265071" lon="10.6288846"><ele>525.0</ele><time>2026-04-04T13:25:44.698Z</time></trkpt><trkpt lat="43.1264303" lon="10.6288796"><ele>524.4285714285714</ele><time>2026-04-04T13:25:46.712Z</time></trkpt><trkpt lat="43.1263626" lon="10.6288824"><ele>523.8571428571429</ele><time>2026-04-04T13:25:50.713Z</time></trkpt><trkpt lat="43.12634" lon="10.6287856"><ele>523.2857142857142</ele><time>2026-04-04T13:25:53.71Z</time></trkpt><trkpt lat="43.1263093" lon="10.6286817"><ele>522.7142857142858</ele><time>2026-04-04T13:25:58.713Z</time></trkpt><trkpt lat="43.1262816" lon="10.62859"><ele>522.1428571428571</ele><time>2026-04-04T13:26:03.696Z</time></trkpt><trkpt lat="43.1262696" lon="10.6284979"><ele>521.5714285714286</ele><time>2026-04-04T13:26:06.696Z</time></trkpt><trkpt lat="43.1262405" lon="10.628409"><ele>521.0</ele><time>2026-04-04T13:26:09.685Z</time></trkpt><trkpt lat="43.1261581" lon="10.6283634"><ele>521.0</ele><time>2026-04-04T13:26:12.676Z</time></trkpt><trkpt lat="43.1260701" lon="10.6284424"><ele>521.0</ele><time>2026-04-04T13:26:14.717Z</time></trkpt><trkpt lat="43.1260203" lon="10.6283655"><ele>521.0</ele><time>2026-04-04T13:28:26.754Z</time></trkpt><trkpt lat="43.1259465" lon="10.6282681"><ele>521.0</ele><time>2026-04-04T13:28:28.747Z</time></trkpt><trkpt lat="43.1258678" lon="10.6281528"><ele>521.0</ele><time>2026-04-04T13:28:30.735Z</time></trkpt><trkpt lat="43.1257824" lon="10.6280079"><ele>517.8333333333333</ele><time>2026-04-04T13:28:32.748Z</time></trkpt><trkpt lat="43.1257236" lon="10.6278815"><ele>514.6666666666666</ele><time>2026-04-04T13:28:34.737Z</time></trkpt><trkpt lat="43.1256839" lon="10.6278107"><ele>511.5</ele><time>2026-04-04T13:28:36.735Z</time></trkpt><trkpt lat="43.125655" lon="10.6277285"><ele>508.33333333333337</ele><time>2026-04-04T13:28:39.744Z</time></trkpt><trkpt lat="43.125633" lon="10.6276344"><ele>505.1666666666667</ele><time>2026-04-04T13:28:40.728Z</time></trkpt><trkpt lat="43.1256143" lon="10.6275518"><ele>502.0</ele><time>2026-04-04T13:28:41.729Z</time></trkpt><trkpt lat="43.1255604" lon="10.6274522"><ele>501.6666666666667</ele><time>2026-04-04T13:28:43.743Z</time></trkpt><trkpt lat="43.1254959" lon="10.6273905"><ele>501.33333333333337</ele><time>2026-04-04T13:28:45.742Z</time></trkpt><trkpt lat="43.1254372" lon="10.6273223"><ele>501.0</ele><time>2026-04-04T13:28:47.719Z</time></trkpt><trkpt lat="43.1253812" lon="10.6272489"><ele>500.66666666666663</ele><time>2026-04-04T13:28:49.719Z</time></trkpt><trkpt lat="43.1253209" lon="10.6271708"><ele>500.3333333333333</ele><time>2026-04-04T13:28:51.733Z</time></trkpt><trkpt lat="43.1252656" lon="10.6270789"><ele>500.0</ele><time>2026-04-04T13:28:53.738Z</time></trkpt><trkpt lat="43.1252605" lon="10.6269819"><ele>500.16666666666663</ele><time>2026-04-04T13:28:55.756Z</time></trkpt><trkpt lat="43.1252703" lon="10.6268709"><ele>500.3333333333333</ele><time>2026-04-04T13:28:57.726Z</time></trkpt><trkpt lat="43.1253046" lon="10.6266973"><ele>500.5</ele><time>2026-04-04T13:28:59.704Z</time></trkpt><trkpt lat="43.125326" lon="10.6265942"><ele>500.66666666666663</ele><time>2026-04-04T13:29:00.701Z</time></trkpt><trkpt lat="43.1253355" lon="10.6264969"><ele>500.8333333333333</ele><time>2026-04-04T13:29:01.705Z</time></trkpt><trkpt lat="43.1253415" lon="10.6263983"><ele>501.0</ele><time>2026-04-04T13:29:02.713Z</time></trkpt><trkpt lat="43.1253335" lon="10.626234"><ele>500.3333333333333</ele><time>2026-04-04T13:29:04.705Z</time></trkpt><trkpt lat="43.1252968" lon="10.6261047"><ele>499.66666666666663</ele><time>2026-04-04T13:29:06.71Z</time></trkpt><trkpt lat="43.125218" lon="10.6260233"><ele>499.0</ele><time>2026-04-04T13:29:08.734Z</time></trkpt><trkpt lat="43.1251985" lon="10.6259351"><ele>498.3333333333333</ele><time>2026-04-04T13:29:10.734Z</time></trkpt><trkpt lat="43.1252104" lon="10.6258026"><ele>497.66666666666663</ele><time>2026-04-04T13:29:13.736Z</time></trkpt><trkpt lat="43.1252494" lon="10.6257059"><ele>497.0</ele><time>2026-04-04T13:29:15.736Z</time></trkpt><trkpt lat="43.1253042" lon="10.6256456"><ele>497.0</ele><time>2026-04-04T13:29:17.738Z</time></trkpt><trkpt lat="43.1253743" lon="10.6255591"><ele>497.0</ele><time>2026-04-04T13:29:19.739Z</time></trkpt><trkpt lat="43.1254641" lon="10.6254462"><ele>497.0</ele><time>2026-04-04T13:29:21.742Z</time></trkpt><trkpt lat="43.1255418" lon="10.6253185"><ele>497.0</ele><time>2026-04-04T13:29:23.739Z</time></trkpt><trkpt lat="43.1255884" lon="10.6251612"><ele>497.8</ele><time>2026-04-04T13:29:25.742Z</time></trkpt><trkpt lat="43.125625" lon="10.6249887"><ele>498.6</ele><time>2026-04-04T13:29:27.732Z</time></trkpt><trkpt lat="43.1256415" lon="10.6249025"><ele>499.40000000000003</ele><time>2026-04-04T13:29:28.715Z</time></trkpt><trkpt lat="43.1256758" lon="10.6247603"><ele>500.20000000000005</ele><time>2026-04-04T13:29:30.727Z</time></trkpt><trkpt lat="43.1256811" lon="10.6246684"><ele>501.0</ele><time>2026-04-04T13:29:31.717Z</time></trkpt><trkpt lat="43.1256972" lon="10.6245504"><ele>502.1666666666667</ele><time>2026-04-04T13:29:32.723Z</time></trkpt><trkpt lat="43.1257228" lon="10.6244471"><ele>503.33333333333337</ele><time>2026-04-04T13:29:33.716Z</time></trkpt><trkpt lat="43.1257343" lon="10.6243591"><ele>504.5</ele><time>2026-04-04T13:29:34.732Z</time></trkpt><trkpt lat="43.1257185" lon="10.6242167"><ele>505.6666666666667</ele><time>2026-04-04T13:29:36.712Z</time></trkpt><trkpt lat="43.1256812" lon="10.6240957"><ele>506.83333333333337</ele><time>2026-04-04T13:29:38.718Z</time></trkpt><trkpt lat="43.1256688" lon="10.6239609"><ele>508.0</ele><time>2026-04-04T13:29:41.73Z</time></trkpt><trkpt lat="43.125688" lon="10.6238393"><ele>505.0</ele><time>2026-04-04T13:29:43.725Z</time></trkpt><trkpt lat="43.1257335" lon="10.6236799"><ele>501.99999999999994</ele><time>2026-04-04T13:29:45.73Z</time></trkpt><trkpt lat="43.1258042" lon="10.6235611"><ele>498.99999999999994</ele><time>2026-04-04T13:29:47.733Z</time></trkpt><trkpt lat="43.1258764" lon="10.6234775"><ele>496.0</ele><time>2026-04-04T13:29:49.746Z</time></trkpt><trkpt lat="43.1258992" lon="10.6233417"><ele>493.0</ele><time>2026-04-04T13:29:51.722Z</time></trkpt><trkpt lat="43.1259192" lon="10.6232014"><ele>493.0</ele><time>2026-04-04T13:29:53.731Z</time></trkpt><trkpt lat="43.1259374" lon="10.6231147"><ele>492.99999999999994</ele><time>2026-04-04T13:29:54.727Z</time></trkpt><trkpt lat="43.1259623" lon="10.6229504"><ele>492.99999999999994</ele><time>2026-04-04T13:29:56.736Z</time></trkpt><trkpt lat="43.1259817" lon="10.6227858"><ele>493.0</ele><time>2026-04-04T13:29:58.73Z</time></trkpt><trkpt lat="43.1259615" lon="10.6226447"><ele>493.0</ele><time>2026-04-04T13:30:00.733Z</time></trkpt><trkpt lat="43.1259214" lon="10.6225489"><ele>492.1666666666667</ele><time>2026-04-04T13:30:14.732Z</time></trkpt><trkpt lat="43.1259218" lon="10.6224293"><ele>491.33333333333337</ele><time>2026-04-04T13:30:17.736Z</time></trkpt><trkpt lat="43.1259036" lon="10.6223331"><ele>490.5</ele><time>2026-04-04T13:30:21.732Z</time></trkpt><trkpt lat="43.1258592" lon="10.6222371"><ele>489.66666666666663</ele><time>2026-04-04T13:30:24.73Z</time></trkpt><trkpt lat="43.1258304" lon="10.6221297"><ele>488.8333333333333</ele><time>2026-04-04T13:30:26.741Z</time></trkpt><trkpt lat="43.1258312" lon="10.6220145"><ele>488.0</ele><time>2026-04-04T13:30:28.756Z</time></trkpt><trkpt lat="43.1258434" lon="10.6219212"><ele>486.49999999999994</ele><time>2026-04-04T13:30:30.736Z</time></trkpt><trkpt lat="43.1258056" lon="10.6218486"><ele>485.0</ele><time>2026-04-04T13:30:38.745Z</time></trkpt><trkpt lat="43.1257869" lon="10.6217341"><ele>483.5</ele><time>2026-04-04T13:30:41.744Z</time></trkpt><trkpt lat="43.125779" lon="10.6216284"><ele>482.0</ele><time>2026-04-04T13:30:43.743Z</time></trkpt><trkpt lat="43.1257603" lon="10.6215358"><ele>480.49999999999994</ele><time>2026-04-04T13:30:45.736Z</time></trkpt><trkpt lat="43.1257366" lon="10.6214108"><ele>479.0</ele><time>2026-04-04T13:30:47.73Z</time></trkpt><trkpt lat="43.1256782" lon="10.621293"><ele>480.99999999999994</ele><time>2026-04-04T13:30:49.725Z</time></trkpt><trkpt lat="43.1256371" lon="10.6211809"><ele>483.0</ele><time>2026-04-04T13:30:51.718Z</time></trkpt><trkpt lat="43.1256089" lon="10.6210685"><ele>485.0</ele><time>2026-04-04T13:30:53.724Z</time></trkpt><trkpt lat="43.1255872" lon="10.6209699"><ele>487.0</ele><time>2026-04-04T13:30:55.722Z</time></trkpt><trkpt lat="43.1255794" lon="10.6208796"><ele>488.99999999999994</ele><time>2026-04-04T13:30:57.721Z</time></trkpt><trkpt lat="43.1255821" lon="10.6207562"><ele>491.0</ele><time>2026-04-04T13:31:00.726Z</time></trkpt><trkpt lat="43.1255587" lon="10.6206577"><ele>490.99999999999994</ele><time>2026-04-04T13:31:03.737Z</time></trkpt><trkpt lat="43.125541" lon="10.6205571"><ele>491.0</ele><time>2026-04-04T13:31:05.725Z</time></trkpt><trkpt lat="43.1255248" lon="10.6204325"><ele>491.0</ele><time>2026-04-04T13:31:07.725Z</time></trkpt><trkpt lat="43.1255224" lon="10.6203352"><ele>491.0</ele><time>2026-04-04T13:31:10.731Z</time></trkpt><trkpt lat="43.1255124" lon="10.6202399"><ele>490.99999999999994</ele><time>2026-04-04T13:31:13.737Z</time></trkpt><trkpt lat="43.1254892" lon="10.6201304"><ele>491.0</ele><time>2026-04-04T13:31:16.741Z</time></trkpt><trkpt lat="43.1254407" lon="10.620044"><ele>490.0</ele><time>2026-04-04T13:31:21.745Z</time></trkpt><trkpt lat="43.125396" lon="10.619949"><ele>488.99999999999994</ele><time>2026-04-04T13:31:24.733Z</time></trkpt><trkpt lat="43.1253669" lon="10.6198724"><ele>488.0</ele><time>2026-04-04T13:31:26.735Z</time></trkpt><trkpt lat="43.1253139" lon="10.6198011"><ele>487.0</ele><time>2026-04-04T13:31:29.737Z</time></trkpt><trkpt lat="43.1252726" lon="10.6197181"><ele>485.99999999999994</ele><time>2026-04-04T13:31:31.742Z</time></trkpt><trkpt lat="43.1252453" lon="10.6196244"><ele>485.0</ele><time>2026-04-04T13:31:34.743Z</time></trkpt><trkpt lat="43.1252262" lon="10.6195316"><ele>484.0</ele><time>2026-04-04T13:31:37.741Z</time></trkpt><trkpt lat="43.1252122" lon="10.619443"><ele>482.50000000000006</ele><time>2026-04-04T13:31:39.747Z</time></trkpt><trkpt lat="43.1251863" lon="10.6193523"><ele>481.0</ele><time>2026-04-04T13:31:41.742Z</time></trkpt><trkpt lat="43.1251677" lon="10.6192521"><ele>479.5</ele><time>2026-04-04T13:31:43.741Z</time></trkpt><trkpt lat="43.1251231" lon="10.6191468"><ele>478.0</ele><time>2026-04-04T13:31:46.735Z</time></trkpt><trkpt lat="43.1250786" lon="10.619032"><ele>476.50000000000006</ele><time>2026-04-04T13:31:49.743Z</time></trkpt><trkpt lat="43.1250225" lon="10.6189678"><ele>475.0</ele><time>2026-04-04T13:31:52.752Z</time></trkpt><trkpt lat="43.1249731" lon="10.6188888"><ele>475.0</ele><time>2026-04-04T13:33:43.719Z</time></trkpt><trkpt lat="43.1249352" lon="10.618815"><ele>475.00000000000006</ele><time>2026-04-04T13:33:45.686Z</time></trkpt><trkpt lat="43.124933" lon="10.6187214"><ele>475.0</ele><time>2026-04-04T13:33:48.665Z</time></trkpt><trkpt lat="43.1248996" lon="10.618635"><ele>475.0</ele><time>2026-04-04T13:33:52.683Z</time></trkpt><trkpt lat="43.1248597" lon="10.6185601"><ele>475.00000000000006</ele><time>2026-04-04T13:33:55.687Z</time></trkpt><trkpt lat="43.1247692" lon="10.6185563"><ele>475.0</ele><time>2026-04-04T13:34:05.684Z</time></trkpt><trkpt lat="43.1248062" lon="10.6186302"><ele>475.0</ele><time>2026-04-04T13:34:30.686Z</time></trkpt><trkpt lat="43.1248754" lon="10.6186216"><ele>474.0</ele><time>2026-04-04T13:34:33.703Z</time></trkpt><trkpt lat="43.124927" lon="10.6185614"><ele>473.0</ele><time>2026-04-04T13:34:41.697Z</time></trkpt><trkpt lat="43.1248611" lon="10.6185621"><ele>472.0</ele><time>2026-04-04T13:34:53.712Z</time></trkpt><trkpt lat="43.1248951" lon="10.6186395"><ele>471.0</ele><time>2026-04-04T13:35:06.744Z</time></trkpt><trkpt lat="43.1248589" lon="10.6187306"><ele>470.0</ele><time>2026-04-04T13:35:21.699Z</time></trkpt><trkpt lat="43.1247553" lon="10.6189628"><ele>472.6</ele><time>2026-04-04T13:35:24.687Z</time></trkpt><trkpt lat="43.1246739" lon="10.6191223"><ele>475.2</ele><time>2026-04-04T13:35:25.689Z</time></trkpt><trkpt lat="43.1247335" lon="10.6190257"><ele>477.79999999999995</ele><time>2026-04-04T13:36:41.699Z</time></trkpt><trkpt lat="43.1248157" lon="10.6189033"><ele>480.4</ele><time>2026-04-04T13:36:43.698Z</time></trkpt><trkpt lat="43.1248373" lon="10.6187866"><ele>483.0</ele><time>2026-04-04T13:36:45.7Z</time></trkpt><trkpt lat="43.1248707" lon="10.6187124"><ele>480.4</ele><time>2026-04-04T13:37:28.728Z</time></trkpt><trkpt lat="43.1248547" lon="10.6185987"><ele>477.79999999999995</ele><time>2026-04-04T13:37:32.728Z</time></trkpt><trkpt lat="43.1248351" lon="10.6184702"><ele>475.2</ele><time>2026-04-04T13:37:34.721Z</time></trkpt><trkpt lat="43.1248008" lon="10.61832"><ele>472.6</ele><time>2026-04-04T13:37:36.717Z</time></trkpt><trkpt lat="43.1247647" lon="10.6181971"><ele>470.0</ele><time>2026-04-04T13:37:38.737Z</time></trkpt><trkpt lat="43.1246633" lon="10.6180961"><ele>470.0</ele><time>2026-04-04T13:38:40.741Z</time></trkpt><trkpt lat="43.1246349" lon="10.6180104"><ele>469.99999999999994</ele><time>2026-04-04T13:38:45.737Z</time></trkpt><trkpt lat="43.1246558" lon="10.6179239"><ele>470.0</ele><time>2026-04-04T13:38:49.733Z</time></trkpt><trkpt lat="43.1246732" lon="10.6178356"><ele>470.0</ele><time>2026-04-04T13:38:53.744Z</time></trkpt><trkpt lat="43.1246868" lon="10.6177391"><ele>469.99999999999994</ele><time>2026-04-04T13:39:00.725Z</time></trkpt><trkpt lat="43.1247318" lon="10.6176482"><ele>470.0</ele><time>2026-04-04T13:39:03.728Z</time></trkpt><trkpt lat="43.1248228" lon="10.6176252"><ele>470.0</ele><time>2026-04-04T13:39:07.744Z</time></trkpt><trkpt lat="43.1248781" lon="10.6175597"><ele>470.2857142857143</ele><time>2026-04-04T13:39:11.744Z</time></trkpt><trkpt lat="43.1249189" lon="10.6174785"><ele>470.57142857142856</ele><time>2026-04-04T13:39:14.766Z</time></trkpt><trkpt lat="43.1249649" lon="10.6174127"><ele>470.85714285714283</ele><time>2026-04-04T13:39:17.747Z</time></trkpt><trkpt lat="43.1250186" lon="10.617325"><ele>471.1428571428571</ele><time>2026-04-04T13:39:21.738Z</time></trkpt><trkpt lat="43.1250384" lon="10.6172199"><ele>471.42857142857144</ele><time>2026-04-04T13:39:26.724Z</time></trkpt><trkpt lat="43.1250313" lon="10.6171261"><ele>471.71428571428567</ele><time>2026-04-04T13:39:29.739Z</time></trkpt><trkpt lat="43.1250354" lon="10.6170334"><ele>472.0</ele><time>2026-04-04T13:39:33.727Z</time></trkpt><trkpt lat="43.1250257" lon="10.6169254"><ele>472.1666666666667</ele><time>2026-04-04T13:39:37.731Z</time></trkpt><trkpt lat="43.1250296" lon="10.616826"><ele>472.33333333333337</ele><time>2026-04-04T13:39:41.727Z</time></trkpt><trkpt lat="43.1249838" lon="10.6167469"><ele>472.5</ele><time>2026-04-04T13:39:43.716Z</time></trkpt><trkpt lat="43.1248935" lon="10.6167035"><ele>472.66666666666663</ele><time>2026-04-04T13:39:47.722Z</time></trkpt><trkpt lat="43.1248663" lon="10.6165633"><ele>472.8333333333333</ele><time>2026-04-04T13:39:49.721Z</time></trkpt><trkpt lat="43.1248658" lon="10.616463"><ele>473.0</ele><time>2026-04-04T13:39:51.717Z</time></trkpt><trkpt lat="43.1248758" lon="10.616336"><ele>472.3333333333333</ele><time>2026-04-04T13:39:53.726Z</time></trkpt><trkpt lat="43.124884" lon="10.6162407"><ele>471.66666666666663</ele><time>2026-04-04T13:39:59.741Z</time></trkpt><trkpt lat="43.1249018" lon="10.6161215"><ele>471.0</ele><time>2026-04-04T13:40:02.743Z</time></trkpt><trkpt lat="43.1249498" lon="10.6160319"><ele>470.33333333333337</ele><time>2026-04-04T13:40:05.74Z</time></trkpt><trkpt lat="43.1250213" lon="10.6159557"><ele>469.6666666666667</ele><time>2026-04-04T13:40:07.75Z</time></trkpt><trkpt lat="43.1251175" lon="10.6158625"><ele>469.0</ele><time>2026-04-04T13:40:09.738Z</time></trkpt><trkpt lat="43.1251804" lon="10.6157352"><ele>469.00000000000006</ele><time>2026-04-04T13:40:11.727Z</time></trkpt><trkpt lat="43.1252126" lon="10.6155722"><ele>469.0</ele><time>2026-04-04T13:40:13.727Z</time></trkpt><trkpt lat="43.1252175" lon="10.615484"><ele>469.0</ele><time>2026-04-04T13:40:14.726Z</time></trkpt><trkpt lat="43.1252156" lon="10.6153902"><ele>469.0</ele><time>2026-04-04T13:40:15.724Z</time></trkpt><trkpt lat="43.1252134" lon="10.6152927"><ele>469.00000000000006</ele><time>2026-04-04T13:40:16.735Z</time></trkpt><trkpt lat="43.1251802" lon="10.6151974"><ele>469.0</ele><time>2026-04-04T13:40:20.724Z</time></trkpt><trkpt lat="43.1251164" lon="10.6151488"><ele>466.0</ele><time>2026-04-04T13:40:24.729Z</time></trkpt><trkpt lat="43.1251896" lon="10.6151248"><ele>463.0</ele><time>2026-04-04T13:40:49.731Z</time></trkpt><trkpt lat="43.125223" lon="10.6150516"><ele>460.0</ele><time>2026-04-04T13:40:51.73Z</time></trkpt><trkpt lat="43.1252218" lon="10.6149502"><ele>457.0</ele><time>2026-04-04T13:40:54.726Z</time></trkpt><trkpt lat="43.1251865" lon="10.614856"><ele>454.0</ele><time>2026-04-04T13:40:57.725Z</time></trkpt><trkpt lat="43.1251433" lon="10.6147814"><ele>451.0</ele><time>2026-04-04T13:40:59.721Z</time></trkpt><trkpt lat="43.1250946" lon="10.614723"><ele>448.0</ele><time>2026-04-04T13:41:01.724Z</time></trkpt><trkpt lat="43.1250468" lon="10.6146663"><ele>448.0</ele><time>2026-04-04T13:41:05.73Z</time></trkpt><trkpt lat="43.1250256" lon="10.6145732"><ele>448.0</ele><time>2026-04-04T13:41:11.733Z</time></trkpt><trkpt lat="43.1249831" lon="10.6144944"><ele>448.0</ele><time>2026-04-04T13:41:15.738Z</time></trkpt><trkpt lat="43.1249209" lon="10.6144462"><ele>448.0</ele><time>2026-04-04T13:41:35.723Z</time></trkpt><trkpt lat="43.1248564" lon="10.6144092"><ele>448.0</ele><time>2026-04-04T13:41:38.719Z</time></trkpt><trkpt lat="43.1249148" lon="10.6143528"><ele>448.0</ele><time>2026-04-04T13:41:55.742Z</time></trkpt><trkpt lat="43.1249759" lon="10.6143058"><ele>448.0</ele><time>2026-04-04T13:41:58.718Z</time></trkpt><trkpt lat="43.1249633" lon="10.6142046"><ele>445.1666666666667</ele><time>2026-04-04T13:42:01.725Z</time></trkpt><trkpt lat="43.1249114" lon="10.6141093"><ele>442.33333333333337</ele><time>2026-04-04T13:42:04.728Z</time></trkpt><trkpt lat="43.1249127" lon="10.6139907"><ele>439.5</ele><time>2026-04-04T13:42:09.724Z</time></trkpt><trkpt lat="43.1249224" lon="10.6138905"><ele>436.66666666666663</ele><time>2026-04-04T13:42:11.725Z</time></trkpt><trkpt lat="43.1249458" lon="10.6137914"><ele>433.8333333333333</ele><time>2026-04-04T13:42:13.726Z</time></trkpt><trkpt lat="43.1249772" lon="10.6137094"><ele>431.0</ele><time>2026-04-04T13:42:15.735Z</time></trkpt><trkpt lat="43.1250278" lon="10.6136116"><ele>429.6</ele><time>2026-04-04T13:42:32.726Z</time></trkpt><trkpt lat="43.1250951" lon="10.6135134"><ele>428.20000000000005</ele><time>2026-04-04T13:42:35.727Z</time></trkpt><trkpt lat="43.1251222" lon="10.6133577"><ele>426.79999999999995</ele><time>2026-04-04T13:42:37.736Z</time></trkpt><trkpt lat="43.1251455" lon="10.6132716"><ele>425.4</ele><time>2026-04-04T13:42:38.729Z</time></trkpt><trkpt lat="43.1251677" lon="10.6131287"><ele>424.0</ele><time>2026-04-04T13:42:40.726Z</time></trkpt><trkpt lat="43.1251878" lon="10.6129834"><ele>424.00000000000006</ele><time>2026-04-04T13:42:42.726Z</time></trkpt><trkpt lat="43.1252045" lon="10.6128589"><ele>424.0</ele><time>2026-04-04T13:42:44.731Z</time></trkpt><trkpt lat="43.1252138" lon="10.6127329"><ele>424.0</ele><time>2026-04-04T13:42:46.718Z</time></trkpt><trkpt lat="43.1252278" lon="10.6126111"><ele>424.0</ele><time>2026-04-04T13:42:48.72Z</time></trkpt><trkpt lat="43.1252273" lon="10.6125038"><ele>424.00000000000006</ele><time>2026-04-04T13:42:50.744Z</time></trkpt><trkpt lat="43.1252178" lon="10.6124145"><ele>424.0</ele><time>2026-04-04T13:42:52.728Z</time></trkpt><trkpt lat="43.1251978" lon="10.6123109"><ele>422.6666666666667</ele><time>2026-04-04T13:42:55.73Z</time></trkpt><trkpt lat="43.1251981" lon="10.6122025"><ele>421.33333333333337</ele><time>2026-04-04T13:42:58.728Z</time></trkpt><trkpt lat="43.1251901" lon="10.6120834"><ele>420.0</ele><time>2026-04-04T13:43:00.724Z</time></trkpt><trkpt lat="43.1251891" lon="10.6119721"><ele>418.66666666666663</ele><time>2026-04-04T13:43:02.733Z</time></trkpt><trkpt lat="43.1252135" lon="10.6118899"><ele>417.3333333333333</ele><time>2026-04-04T13:43:04.722Z</time></trkpt><trkpt lat="43.1252224" lon="10.6117867"><ele>416.0</ele><time>2026-04-04T13:43:14.733Z</time></trkpt><trkpt lat="43.125281" lon="10.6117291"><ele>413.66666666666663</ele><time>2026-04-04T13:43:17.736Z</time></trkpt><trkpt lat="43.1253596" lon="10.6116888"><ele>411.3333333333333</ele><time>2026-04-04T13:43:20.73Z</time></trkpt><trkpt lat="43.1254344" lon="10.611632"><ele>409.0</ele><time>2026-04-04T13:43:22.731Z</time></trkpt><trkpt lat="43.1255216" lon="10.611598"><ele>406.66666666666663</ele><time>2026-04-04T13:43:24.732Z</time></trkpt><trkpt lat="43.1256148" lon="10.6115918"><ele>404.3333333333333</ele><time>2026-04-04T13:43:26.725Z</time></trkpt><trkpt lat="43.1256899" lon="10.611568"><ele>402.0</ele><time>2026-04-04T13:43:28.729Z</time></trkpt><trkpt lat="43.1257645" lon="10.6115335"><ele>400.8333333333333</ele><time>2026-04-04T13:43:31.731Z</time></trkpt><trkpt lat="43.1258289" lon="10.6114919"><ele>399.66666666666663</ele><time>2026-04-04T13:43:34.725Z</time></trkpt><trkpt lat="43.1258897" lon="10.6114552"><ele>398.5</ele><time>2026-04-04T13:43:36.733Z</time></trkpt><trkpt lat="43.1259548" lon="10.6113964"><ele>397.3333333333333</ele><time>2026-04-04T13:43:38.722Z</time></trkpt><trkpt lat="43.1260316" lon="10.6113223"><ele>396.16666666666663</ele><time>2026-04-04T13:43:41.716Z</time></trkpt><trkpt lat="43.1260531" lon="10.6112406"><ele>395.0</ele><time>2026-04-04T13:43:43.707Z</time></trkpt><trkpt lat="43.1260439" lon="10.6111268"><ele>392.99999999999994</ele><time>2026-04-04T13:43:46.697Z</time></trkpt><trkpt lat="43.1260582" lon="10.611007"><ele>391.0</ele><time>2026-04-04T13:43:48.714Z</time></trkpt><trkpt lat="43.1260705" lon="10.6109033"><ele>389.0</ele><time>2026-04-04T13:44:03.734Z</time></trkpt><trkpt lat="43.1260639" lon="10.6108052"><ele>387.0</ele><time>2026-04-04T13:44:18.728Z</time></trkpt><trkpt lat="43.1260347" lon="10.6107257"><ele>385.0</ele><time>2026-04-04T13:44:21.73Z</time></trkpt><trkpt lat="43.125972" lon="10.6107082"><ele>383.0</ele><time>2026-04-04T13:44:25.729Z</time></trkpt><trkpt lat="43.1260247" lon="10.6105962"><ele>383.0</ele><time>2026-04-04T13:45:05.714Z</time></trkpt><trkpt lat="43.1260657" lon="10.6105034"><ele>383.0</ele><time>2026-04-04T13:45:07.706Z</time></trkpt><trkpt lat="43.1261524" lon="10.6103829"><ele>383.0</ele><time>2026-04-04T13:45:09.717Z</time></trkpt><trkpt lat="43.1262291" lon="10.6102708"><ele>383.0</ele><time>2026-04-04T13:45:11.723Z</time></trkpt><trkpt lat="43.1263119" lon="10.6101989"><ele>383.0</ele><time>2026-04-04T13:45:13.715Z</time></trkpt><trkpt lat="43.1263859" lon="10.6101004"><ele>382.2857142857143</ele><time>2026-04-04T13:45:15.698Z</time></trkpt><trkpt lat="43.1264463" lon="10.6100058"><ele>381.57142857142856</ele><time>2026-04-04T13:45:17.709Z</time></trkpt><trkpt lat="43.1265083" lon="10.6099432"><ele>380.8571428571429</ele><time>2026-04-04T13:45:19.72Z</time></trkpt><trkpt lat="43.1265655" lon="10.6098875"><ele>380.1428571428571</ele><time>2026-04-04T13:45:25.737Z</time></trkpt><trkpt lat="43.126589" lon="10.6098001"><ele>379.42857142857144</ele><time>2026-04-04T13:45:29.725Z</time></trkpt><trkpt lat="43.1265931" lon="10.6097114"><ele>378.7142857142857</ele><time>2026-04-04T13:45:33.737Z</time></trkpt><trkpt lat="43.1265276" lon="10.6096904"><ele>378.0</ele><time>2026-04-04T13:45:39.744Z</time></trkpt><trkpt lat="43.1265292" lon="10.6095965"><ele>377.8333333333333</ele><time>2026-04-04T13:45:46.728Z</time></trkpt><trkpt lat="43.126562" lon="10.6095165"><ele>377.6666666666667</ele><time>2026-04-04T13:45:50.723Z</time></trkpt><trkpt lat="43.1266445" lon="10.6094337"><ele>377.5</ele><time>2026-04-04T13:45:54.719Z</time></trkpt><trkpt lat="43.1266816" lon="10.6093426"><ele>377.33333333333337</ele><time>2026-04-04T13:45:56.746Z</time></trkpt><trkpt lat="43.1267069" lon="10.6092375"><ele>377.1666666666667</ele><time>2026-04-04T13:45:59.723Z</time></trkpt><trkpt lat="43.1267298" lon="10.6091203"><ele>377.0</ele><time>2026-04-04T13:46:02.733Z</time></trkpt><trkpt lat="43.126714" lon="10.6090042"><ele>377.0</ele><time>2026-04-04T13:46:04.728Z</time></trkpt><trkpt lat="43.1267087" lon="10.6088618"><ele>377.0</ele><time>2026-04-04T13:46:06.73Z</time></trkpt><trkpt lat="43.126716" lon="10.6087049"><ele>377.0</ele><time>2026-04-04T13:46:08.731Z</time></trkpt><trkpt lat="43.1267273" lon="10.6086168"><ele>377.0</ele><time>2026-04-04T13:46:09.734Z</time></trkpt><trkpt lat="43.126721" lon="10.6084399"><ele>377.0</ele><time>2026-04-04T13:46:11.74Z</time></trkpt><trkpt lat="43.1267403" lon="10.6083052"><ele>376.5</ele><time>2026-04-04T13:46:13.734Z</time></trkpt><trkpt lat="43.1267271" lon="10.6082041"><ele>376.0</ele><time>2026-04-04T13:46:15.726Z</time></trkpt><trkpt lat="43.1267243" lon="10.6081018"><ele>375.5</ele><time>2026-04-04T13:46:17.724Z</time></trkpt><trkpt lat="43.1267034" lon="10.6080135"><ele>375.0</ele><time>2026-04-04T13:46:19.733Z</time></trkpt><trkpt lat="43.1266389" lon="10.6079493"><ele>374.5</ele><time>2026-04-04T13:46:21.726Z</time></trkpt><trkpt lat="43.1265678" lon="10.607875"><ele>374.0</ele><time>2026-04-04T13:46:23.729Z</time></trkpt><trkpt lat="43.1264933" lon="10.6078229"><ele>372.0</ele><time>2026-04-04T13:46:25.738Z</time></trkpt><trkpt lat="43.1264641" lon="10.6077317"><ele>370.0</ele><time>2026-04-04T13:46:27.764Z</time></trkpt><trkpt lat="43.1264412" lon="10.6076379"><ele>368.0</ele><time>2026-04-04T13:46:31.722Z</time></trkpt><trkpt lat="43.1264618" lon="10.6075554"><ele>366.0</ele><time>2026-04-04T13:46:33.712Z</time></trkpt><trkpt lat="43.1264329" lon="10.6074513"><ele>364.0</ele><time>2026-04-04T13:46:35.721Z</time></trkpt><trkpt lat="43.1264487" lon="10.6073324"><ele>362.0</ele><time>2026-04-04T13:46:37.728Z</time></trkpt><trkpt lat="43.1264098" lon="10.6072615"><ele>360.0</ele><time>2026-04-04T13:46:38.738Z</time></trkpt><trkpt lat="43.1263438" lon="10.607199"><ele>360.0</ele><time>2026-04-04T13:46:40.739Z</time></trkpt><trkpt lat="43.1262601" lon="10.6071519"><ele>360.0</ele><time>2026-04-04T13:46:42.725Z</time></trkpt><trkpt lat="43.1262093" lon="10.6070985"><ele>360.0</ele><time>2026-04-04T13:46:44.731Z</time></trkpt><trkpt lat="43.1261724" lon="10.6069672"><ele>360.0</ele><time>2026-04-04T13:46:46.719Z</time></trkpt><trkpt lat="43.1262208" lon="10.6068195"><ele>360.0</ele><time>2026-04-04T13:46:48.725Z</time></trkpt><trkpt lat="43.1262776" lon="10.6067639"><ele>360.0</ele><time>2026-04-04T13:46:49.726Z</time></trkpt><trkpt lat="43.1263403" lon="10.6067436"><ele>358.8333333333333</ele><time>2026-04-04T13:46:50.729Z</time></trkpt><trkpt lat="43.1264183" lon="10.606717"><ele>357.6666666666667</ele><time>2026-04-04T13:46:52.724Z</time></trkpt><trkpt lat="43.1264045" lon="10.606625"><ele>356.5</ele><time>2026-04-04T13:46:55.72Z</time></trkpt><trkpt lat="43.1264353" lon="10.6065315"><ele>355.33333333333337</ele><time>2026-04-04T13:46:57.748Z</time></trkpt><trkpt lat="43.1264894" lon="10.6064274"><ele>354.1666666666667</ele><time>2026-04-04T13:47:00.715Z</time></trkpt><trkpt lat="43.1265719" lon="10.6063738"><ele>353.0</ele><time>2026-04-04T13:47:02.73Z</time></trkpt><trkpt lat="43.1266946" lon="10.6063396"><ele>352.57142857142856</ele><time>2026-04-04T13:47:04.729Z</time></trkpt><trkpt lat="43.1267608" lon="10.6063465"><ele>352.14285714285717</ele><time>2026-04-04T13:47:05.728Z</time></trkpt><trkpt lat="43.1268209" lon="10.6063746"><ele>351.7142857142857</ele><time>2026-04-04T13:47:06.732Z</time></trkpt><trkpt lat="43.1268771" lon="10.6064266"><ele>351.2857142857143</ele><time>2026-04-04T13:47:07.722Z</time></trkpt><trkpt lat="43.126939" lon="10.6064892"><ele>350.8571428571429</ele><time>2026-04-04T13:47:08.725Z</time></trkpt><trkpt lat="43.1270056" lon="10.6065433"><ele>350.42857142857144</ele><time>2026-04-04T13:47:09.725Z</time></trkpt><trkpt lat="43.1270641" lon="10.606595"><ele>350.0</ele><time>2026-04-04T13:47:10.725Z</time></trkpt><trkpt lat="43.127176" lon="10.6066645"><ele>350.0</ele><time>2026-04-04T13:47:12.727Z</time></trkpt><trkpt lat="43.1272874" lon="10.6066937"><ele>350.0</ele><time>2026-04-04T13:47:14.714Z</time></trkpt><trkpt lat="43.1273668" lon="10.6067725"><ele>350.0</ele><time>2026-04-04T13:47:16.72Z</time></trkpt><trkpt lat="43.1274112" lon="10.6068608"><ele>350.0</ele><time>2026-04-04T13:47:18.731Z</time></trkpt><trkpt lat="43.1274708" lon="10.6069089"><ele>350.0</ele><time>2026-04-04T13:47:20.733Z</time></trkpt><trkpt lat="43.1275477" lon="10.607017"><ele>349.0</ele><time>2026-04-04T13:47:22.726Z</time></trkpt><trkpt lat="43.1276043" lon="10.6071087"><ele>348.0</ele><time>2026-04-04T13:47:24.729Z</time></trkpt><trkpt lat="43.1276833" lon="10.607078"><ele>347.0</ele><time>2026-04-04T13:47:27.717Z</time></trkpt><trkpt lat="43.1277529" lon="10.6071478"><ele>346.0</ele><time>2026-04-04T13:47:29.714Z</time></trkpt><trkpt lat="43.1278308" lon="10.6072385"><ele>345.0</ele><time>2026-04-04T13:47:31.72Z</time></trkpt><trkpt lat="43.1279178" lon="10.6073015"><ele>345.0</ele><time>2026-04-04T13:47:33.716Z</time></trkpt><trkpt lat="43.1279973" lon="10.6073876"><ele>345.0</ele><time>2026-04-04T13:47:35.714Z</time></trkpt><trkpt lat="43.1280784" lon="10.6074746"><ele>345.0</ele><time>2026-04-04T13:47:37.724Z</time></trkpt><trkpt lat="43.1281684" lon="10.6075743"><ele>345.0</ele><time>2026-04-04T13:47:39.72Z</time></trkpt><trkpt lat="43.1282217" lon="10.6076205"><ele>345.0</ele><time>2026-04-04T13:47:40.711Z</time></trkpt><trkpt lat="43.1283081" lon="10.6077228"><ele>342.1666666666667</ele><time>2026-04-04T13:47:42.716Z</time></trkpt><trkpt lat="43.1283699" lon="10.6078752"><ele>339.3333333333333</ele><time>2026-04-04T13:47:44.72Z</time></trkpt><trkpt lat="43.1284093" lon="10.6079435"><ele>336.5</ele><time>2026-04-04T13:47:45.725Z</time></trkpt><trkpt lat="43.1284634" lon="10.6080066"><ele>333.66666666666663</ele><time>2026-04-04T13:47:46.735Z</time></trkpt><trkpt lat="43.1285251" lon="10.6080617"><ele>330.8333333333333</ele><time>2026-04-04T13:47:47.714Z</time></trkpt><trkpt lat="43.1285877" lon="10.6081311"><ele>328.0</ele><time>2026-04-04T13:47:48.723Z</time></trkpt><trkpt lat="43.1286433" lon="10.6082018"><ele>328.0</ele><time>2026-04-04T13:47:49.713Z</time></trkpt><trkpt lat="43.1286829" lon="10.6082836"><ele>328.0</ele><time>2026-04-04T13:47:50.718Z</time></trkpt><trkpt lat="43.1287256" lon="10.6083537"><ele>328.0</ele><time>2026-04-04T13:47:51.716Z</time></trkpt><trkpt lat="43.1287642" lon="10.6084268"><ele>328.0</ele><time>2026-04-04T13:47:52.73Z</time></trkpt><trkpt lat="43.1288365" lon="10.6085487"><ele>328.0</ele><time>2026-04-04T13:47:54.721Z</time></trkpt><trkpt lat="43.1289141" lon="10.60868"><ele>328.0</ele><time>2026-04-04T13:47:56.713Z</time></trkpt><trkpt lat="43.1289831" lon="10.6087746"><ele>329.5</ele><time>2026-04-04T13:47:58.718Z</time></trkpt><trkpt lat="43.1290496" lon="10.6087636"><ele>331.0</ele><time>2026-04-04T13:48:00.713Z</time></trkpt><trkpt lat="43.129118" lon="10.6087157"><ele>332.5</ele><time>2026-04-04T13:48:02.716Z</time></trkpt><trkpt lat="43.1291568" lon="10.6086414"><ele>334.0</ele><time>2026-04-04T13:48:05.708Z</time></trkpt><trkpt lat="43.1291631" lon="10.6085246"><ele>335.5</ele><time>2026-04-04T13:48:07.722Z</time></trkpt><trkpt lat="43.1291491" lon="10.6084099"><ele>337.0</ele><time>2026-04-04T13:48:10.73Z</time></trkpt><trkpt lat="43.1291675" lon="10.6083173"><ele>331.20000000000005</ele><time>2026-04-04T13:48:12.73Z</time></trkpt><trkpt lat="43.129191" lon="10.6081987"><ele>325.40000000000003</ele><time>2026-04-04T13:48:14.727Z</time></trkpt><trkpt lat="43.1292081" lon="10.6080632"><ele>319.6</ele><time>2026-04-04T13:48:16.723Z</time></trkpt><trkpt lat="43.1292025" lon="10.6079374"><ele>313.8</ele><time>2026-04-04T13:48:18.722Z</time></trkpt><trkpt lat="43.1292123" lon="10.607797"><ele>308.0</ele><time>2026-04-04T13:48:20.725Z</time></trkpt><trkpt lat="43.1292324" lon="10.607651"><ele>306.5</ele><time>2026-04-04T13:48:22.725Z</time></trkpt><trkpt lat="43.1292371" lon="10.6075274"><ele>305.0</ele><time>2026-04-04T13:48:24.722Z</time></trkpt><trkpt lat="43.129219" lon="10.6074193"><ele>303.5</ele><time>2026-04-04T13:48:26.725Z</time></trkpt><trkpt lat="43.1292377" lon="10.6073193"><ele>302.0</ele><time>2026-04-04T13:48:29.716Z</time></trkpt><trkpt lat="43.1292412" lon="10.607214"><ele>300.5</ele><time>2026-04-04T13:48:37.731Z</time></trkpt><trkpt lat="43.1291995" lon="10.6071428"><ele>299.0</ele><time>2026-04-04T13:49:30.73Z</time></trkpt><trkpt lat="43.1291678" lon="10.6070402"><ele>298.33333333333337</ele><time>2026-04-04T13:49:34.726Z</time></trkpt><trkpt lat="43.1291685" lon="10.6069277"><ele>297.6666666666667</ele><time>2026-04-04T13:49:37.721Z</time></trkpt><trkpt lat="43.1292354" lon="10.6068184"><ele>297.0</ele><time>2026-04-04T13:49:41.712Z</time></trkpt><trkpt lat="43.1292718" lon="10.6067446"><ele>296.3333333333333</ele><time>2026-04-04T13:49:43.722Z</time></trkpt><trkpt lat="43.1293187" lon="10.6066686"><ele>295.66666666666663</ele><time>2026-04-04T13:49:45.723Z</time></trkpt><trkpt lat="43.1293778" lon="10.6066175"><ele>295.0</ele><time>2026-04-04T13:49:47.736Z</time></trkpt><trkpt lat="43.1294521" lon="10.606575"><ele>295.0</ele><time>2026-04-04T13:49:51.728Z</time></trkpt><trkpt lat="43.1295259" lon="10.6065466"><ele>295.0</ele><time>2026-04-04T13:49:54.732Z</time></trkpt><trkpt lat="43.1295952" lon="10.6065306"><ele>295.0</ele><time>2026-04-04T13:49:56.731Z</time></trkpt><trkpt lat="43.129674" lon="10.6065001"><ele>295.0</ele><time>2026-04-04T13:49:58.74Z</time></trkpt><trkpt lat="43.1297495" lon="10.6064474"><ele>295.0</ele><time>2026-04-04T13:50:00.74Z</time></trkpt><trkpt lat="43.1298246" lon="10.6064099"><ele>295.0</ele><time>2026-04-04T13:50:02.733Z</time></trkpt><trkpt lat="43.1298943" lon="10.6063938"><ele>294.0</ele><time>2026-04-04T13:50:04.73Z</time></trkpt><trkpt lat="43.1299744" lon="10.6063593"><ele>293.0</ele><time>2026-04-04T13:50:07.729Z</time></trkpt><trkpt lat="43.1300483" lon="10.6063109"><ele>292.0</ele><time>2026-04-04T13:50:10.729Z</time></trkpt><trkpt lat="43.1301215" lon="10.6062357"><ele>291.0</ele><time>2026-04-04T13:50:13.728Z</time></trkpt><trkpt lat="43.1301972" lon="10.6061586"><ele>290.0</ele><time>2026-04-04T13:50:16.724Z</time></trkpt><trkpt lat="43.1302565" lon="10.6060712"><ele>289.0</ele><time>2026-04-04T13:50:19.736Z</time></trkpt><trkpt lat="43.1303034" lon="10.6059804"><ele>291.0</ele><time>2026-04-04T13:50:22.727Z</time></trkpt><trkpt lat="43.1303355" lon="10.6059054"><ele>293.0</ele><time>2026-04-04T13:50:24.729Z</time></trkpt><trkpt lat="43.1303555" lon="10.6058126"><ele>295.0</ele><time>2026-04-04T13:50:26.73Z</time></trkpt><trkpt lat="43.1303674" lon="10.605708"><ele>297.0</ele><time>2026-04-04T13:50:28.729Z</time></trkpt><trkpt lat="43.1303762" lon="10.605586"><ele>299.0</ele><time>2026-04-04T13:50:31.731Z</time></trkpt><trkpt lat="43.1303709" lon="10.6054764"><ele>301.0</ele><time>2026-04-04T13:50:34.749Z</time></trkpt><trkpt lat="43.130369" lon="10.6053777"><ele>302.3333333333333</ele><time>2026-04-04T13:50:36.73Z</time></trkpt><trkpt lat="43.1303711" lon="10.6052906"><ele>303.66666666666663</ele><time>2026-04-04T13:50:38.726Z</time></trkpt><trkpt lat="43.1303854" lon="10.6051856"><ele>305.0</ele><time>2026-04-04T13:50:40.72Z</time></trkpt><trkpt lat="43.1303906" lon="10.6050612"><ele>306.3333333333333</ele><time>2026-04-04T13:50:42.729Z</time></trkpt><trkpt lat="43.1303817" lon="10.6049502"><ele>307.6666666666667</ele><time>2026-04-04T13:50:44.714Z</time></trkpt><trkpt lat="43.1303795" lon="10.6048442"><ele>309.0</ele><time>2026-04-04T13:50:46.72Z</time></trkpt><trkpt lat="43.1303889" lon="10.6047468"><ele>309.00000000000006</ele><time>2026-04-04T13:50:48.719Z</time></trkpt><trkpt lat="43.1304006" lon="10.6046397"><ele>309.0</ele><time>2026-04-04T13:50:50.731Z</time></trkpt><trkpt lat="43.1304204" lon="10.6045571"><ele>309.0</ele><time>2026-04-04T13:50:52.727Z</time></trkpt><trkpt lat="43.1304237" lon="10.6044572"><ele>309.0</ele><time>2026-04-04T13:50:54.724Z</time></trkpt><trkpt lat="43.130419" lon="10.6043331"><ele>309.0</ele><time>2026-04-04T13:50:57.73Z</time></trkpt><trkpt lat="43.1304332" lon="10.6042489"><ele>309.00000000000006</ele><time>2026-04-04T13:50:59.732Z</time></trkpt><trkpt lat="43.1304564" lon="10.6041572"><ele>309.0</ele><time>2026-04-04T13:51:01.735Z</time></trkpt><trkpt lat="43.1304788" lon="10.6040495"><ele>309.3333333333333</ele><time>2026-04-04T13:51:03.734Z</time></trkpt><trkpt lat="43.1305007" lon="10.6039426"><ele>309.6666666666667</ele><time>2026-04-04T13:51:05.75Z</time></trkpt><trkpt lat="43.1305114" lon="10.6038427"><ele>310.0</ele><time>2026-04-04T13:51:07.741Z</time></trkpt><trkpt lat="43.130532" lon="10.6037459"><ele>310.33333333333337</ele><time>2026-04-04T13:51:10.737Z</time></trkpt><trkpt lat="43.1305742" lon="10.6036698"><ele>310.6666666666667</ele><time>2026-04-04T13:51:13.735Z</time></trkpt><trkpt lat="43.1306333" lon="10.603578"><ele>311.0</ele><time>2026-04-04T13:51:35.733Z</time></trkpt><trkpt lat="43.1307294" lon="10.6034725"><ele>308.8</ele><time>2026-04-04T13:51:37.737Z</time></trkpt><trkpt lat="43.1308162" lon="10.6033835"><ele>306.6</ele><time>2026-04-04T13:51:39.746Z</time></trkpt><trkpt lat="43.1309317" lon="10.6033498"><ele>304.4</ele><time>2026-04-04T13:51:41.74Z</time></trkpt><trkpt lat="43.1309979" lon="10.6033432"><ele>302.2</ele><time>2026-04-04T13:51:42.74Z</time></trkpt><trkpt lat="43.131082" lon="10.603355"><ele>300.0</ele><time>2026-04-04T13:51:43.738Z</time></trkpt><trkpt lat="43.1311562" lon="10.6033483"><ele>300.0</ele><time>2026-04-04T13:51:44.738Z</time></trkpt><trkpt lat="43.1312186" lon="10.6033281"><ele>300.0</ele><time>2026-04-04T13:51:45.742Z</time></trkpt><trkpt lat="43.1313125" lon="10.6033295"><ele>300.0</ele><time>2026-04-04T13:51:47.733Z</time></trkpt><trkpt lat="43.1314171" lon="10.603317"><ele>300.0</ele><time>2026-04-04T13:51:49.748Z</time></trkpt><trkpt lat="43.1315292" lon="10.6032791"><ele>300.0</ele><time>2026-04-04T13:51:51.742Z</time></trkpt><trkpt lat="43.1316382" lon="10.6031849"><ele>298.2</ele><time>2026-04-04T13:51:53.759Z</time></trkpt><trkpt lat="43.1316838" lon="10.6030861"><ele>296.4</ele><time>2026-04-04T13:51:54.743Z</time></trkpt><trkpt lat="43.1317589" lon="10.6030052"><ele>294.6</ele><time>2026-04-04T13:51:56.745Z</time></trkpt><trkpt lat="43.1318255" lon="10.6031023"><ele>292.8</ele><time>2026-04-04T13:51:58.729Z</time></trkpt><trkpt lat="43.1318542" lon="10.6031823"><ele>291.0</ele><time>2026-04-04T13:51:59.731Z</time></trkpt><trkpt lat="43.13191" lon="10.603351"><ele>291.0</ele><time>2026-04-04T13:52:01.731Z</time></trkpt><trkpt lat="43.1319322" lon="10.6034438"><ele>291.0</ele><time>2026-04-04T13:52:02.736Z</time></trkpt><trkpt lat="43.1319764" lon="10.6036004"><ele>291.0</ele><time>2026-04-04T13:52:04.723Z</time></trkpt><trkpt lat="43.1320525" lon="10.6037616"><ele>291.0</ele><time>2026-04-04T13:52:06.727Z</time></trkpt><trkpt lat="43.1320889" lon="10.6038525"><ele>291.0</ele><time>2026-04-04T13:52:07.761Z</time></trkpt><trkpt lat="43.132046" lon="10.6039992"><ele>290.0</ele><time>2026-04-04T13:52:09.742Z</time></trkpt><trkpt lat="43.1320225" lon="10.6041201"><ele>289.0</ele><time>2026-04-04T13:52:11.736Z</time></trkpt><trkpt lat="43.1321195" lon="10.6041438"><ele>288.0</ele><time>2026-04-04T13:52:13.738Z</time></trkpt><trkpt lat="43.1321803" lon="10.6041184"><ele>287.0</ele><time>2026-04-04T13:52:14.736Z</time></trkpt><trkpt lat="43.1322964" lon="10.6040875"><ele>286.0</ele><time>2026-04-04T13:52:16.733Z</time></trkpt><trkpt lat="43.1323584" lon="10.6041303"><ele>285.0</ele><time>2026-04-04T13:52:18.741Z</time></trkpt><trkpt lat="43.1323631" lon="10.604222"><ele>283.2</ele><time>2026-04-04T13:52:20.742Z</time></trkpt><trkpt lat="43.1324438" lon="10.6042685"><ele>281.4</ele><time>2026-04-04T13:52:22.737Z</time></trkpt><trkpt lat="43.1325199" lon="10.6043745"><ele>279.6</ele><time>2026-04-04T13:52:24.748Z</time></trkpt><trkpt lat="43.1326163" lon="10.6044326"><ele>277.8</ele><time>2026-04-04T13:52:26.739Z</time></trkpt><trkpt lat="43.1326745" lon="10.6045417"><ele>276.0</ele><time>2026-04-04T13:52:28.744Z</time></trkpt><trkpt lat="43.1327723" lon="10.6045897"><ele>274.0</ele><time>2026-04-04T13:52:30.746Z</time></trkpt><trkpt lat="43.1328749" lon="10.6046899"><ele>272.0</ele><time>2026-04-04T13:52:32.751Z</time></trkpt><trkpt lat="43.1329023" lon="10.604768"><ele>270.0</ele><time>2026-04-04T13:52:33.738Z</time></trkpt><trkpt lat="43.1329615" lon="10.6048739"><ele>268.0</ele><time>2026-04-04T13:52:35.748Z</time></trkpt><trkpt lat="43.1330097" lon="10.6047632"><ele>266.0</ele><time>2026-04-04T13:52:37.742Z</time></trkpt><trkpt lat="43.1330757" lon="10.6048256"><ele>266.0</ele><time>2026-04-04T13:52:39.744Z</time></trkpt><trkpt lat="43.1330811" lon="10.6049138"><ele>266.0</ele><time>2026-04-04T13:52:40.738Z</time></trkpt><trkpt lat="43.1331353" lon="10.6049997"><ele>266.0</ele><time>2026-04-04T13:52:42.745Z</time></trkpt><trkpt lat="43.1331763" lon="10.6048423"><ele>266.0</ele><time>2026-04-04T13:52:44.728Z</time></trkpt><trkpt lat="43.133166" lon="10.6046884"><ele>266.0</ele><time>2026-04-04T13:52:46.73Z</time></trkpt><trkpt lat="43.133175" lon="10.6045765"><ele>264.0</ele><time>2026-04-04T13:52:48.734Z</time></trkpt><trkpt lat="43.1332316" lon="10.6046354"><ele>262.0</ele><time>2026-04-04T13:52:50.731Z</time></trkpt><trkpt lat="43.1332905" lon="10.604714"><ele>260.0</ele><time>2026-04-04T13:52:52.738Z</time></trkpt><trkpt lat="43.1333175" lon="10.604614"><ele>258.0</ele><time>2026-04-04T13:52:54.738Z</time></trkpt><trkpt lat="43.1332763" lon="10.6044901"><ele>256.0</ele><time>2026-04-04T13:52:56.738Z</time></trkpt><trkpt lat="43.1332717" lon="10.6043539"><ele>254.0</ele><time>2026-04-04T13:52:58.743Z</time></trkpt><trkpt lat="43.1333436" lon="10.60437"><ele>253.50000000000003</ele><time>2026-04-04T13:53:00.731Z</time></trkpt><trkpt lat="43.1334172" lon="10.6044932"><ele>253.0</ele><time>2026-04-04T13:53:02.73Z</time></trkpt><trkpt lat="43.1334859" lon="10.6044646"><ele>252.5</ele><time>2026-04-04T13:53:04.744Z</time></trkpt><trkpt lat="43.1334556" lon="10.6043421"><ele>252.0</ele><time>2026-04-04T13:53:06.738Z</time></trkpt><trkpt lat="43.1334309" lon="10.6042441"><ele>251.50000000000003</ele><time>2026-04-04T13:53:08.725Z</time></trkpt><trkpt lat="43.1335056" lon="10.6042597"><ele>251.0</ele><time>2026-04-04T13:53:11.736Z</time></trkpt><trkpt lat="43.1335847" lon="10.6043792"><ele>251.00000000000003</ele><time>2026-04-04T13:53:13.719Z</time></trkpt><trkpt lat="43.1336338" lon="10.6044339"><ele>251.0</ele><time>2026-04-04T13:53:14.729Z</time></trkpt><trkpt lat="43.1336786" lon="10.6044994"><ele>251.0</ele><time>2026-04-04T13:53:15.743Z</time></trkpt><trkpt lat="43.1337158" lon="10.6045732"><ele>251.0</ele><time>2026-04-04T13:53:16.715Z</time></trkpt><trkpt lat="43.1337896" lon="10.6046499"><ele>251.00000000000003</ele><time>2026-04-04T13:53:18.72Z</time></trkpt><trkpt lat="43.1338265" lon="10.6045226"><ele>251.0</ele><time>2026-04-04T13:53:20.716Z</time></trkpt><trkpt lat="43.1338359" lon="10.604423"><ele>251.0</ele><time>2026-04-04T13:53:21.723Z</time></trkpt><trkpt lat="43.1338394" lon="10.6043159"><ele>251.00000000000003</ele><time>2026-04-04T13:53:22.714Z</time></trkpt><trkpt lat="43.1338514" lon="10.6041462"><ele>251.00000000000003</ele><time>2026-04-04T13:53:24.722Z</time></trkpt><trkpt lat="43.1338894" lon="10.6040401"><ele>251.0</ele><time>2026-04-04T13:53:26.717Z</time></trkpt><trkpt lat="43.1339561" lon="10.6041316"><ele>251.0</ele><time>2026-04-04T13:53:28.722Z</time></trkpt><trkpt lat="43.1340305" lon="10.6041522"><ele>251.0</ele><time>2026-04-04T13:53:30.725Z</time></trkpt><trkpt lat="43.1340429" lon="10.6039823"><ele>251.00000000000003</ele><time>2026-04-04T13:53:32.735Z</time></trkpt><trkpt lat="43.1340409" lon="10.603853"><ele>251.00000000000003</ele><time>2026-04-04T13:53:34.74Z</time></trkpt><trkpt lat="43.1341334" lon="10.6039326"><ele>251.0</ele><time>2026-04-04T13:53:37.74Z</time></trkpt><trkpt lat="43.1342145" lon="10.604019"><ele>251.0</ele><time>2026-04-04T13:53:39.746Z</time></trkpt><trkpt lat="43.1342373" lon="10.6040997"><ele>244.8</ele><time>2026-04-04T13:53:40.759Z</time></trkpt><trkpt lat="43.1342937" lon="10.604158"><ele>238.60000000000002</ele><time>2026-04-04T13:53:42.73Z</time></trkpt><trkpt lat="43.134344" lon="10.6040065"><ele>232.4</ele><time>2026-04-04T13:53:44.728Z</time></trkpt><trkpt lat="43.1344154" lon="10.6039575"><ele>226.2</ele><time>2026-04-04T13:53:46.732Z</time></trkpt><trkpt lat="43.1344397" lon="10.6040979"><ele>220.0</ele><time>2026-04-04T13:53:48.73Z</time></trkpt><trkpt lat="43.1344569" lon="10.6042154"><ele>219.99999999999997</ele><time>2026-04-04T13:53:50.738Z</time></trkpt><trkpt lat="43.1345151" lon="10.6041605"><ele>220.0</ele><time>2026-04-04T13:53:52.719Z</time></trkpt><trkpt lat="43.1345736" lon="10.6040343"><ele>220.0</ele><time>2026-04-04T13:53:54.734Z</time></trkpt><trkpt lat="43.1346063" lon="10.6039421"><ele>220.0</ele><time>2026-04-04T13:53:55.718Z</time></trkpt><trkpt lat="43.1346546" lon="10.603826"><ele>219.99999999999997</ele><time>2026-04-04T13:53:56.722Z</time></trkpt><trkpt lat="43.1346649" lon="10.6037188"><ele>220.0</ele><time>2026-04-04T13:53:57.731Z</time></trkpt><trkpt lat="43.1346461" lon="10.6035716"><ele>220.0</ele><time>2026-04-04T13:53:59.72Z</time></trkpt><trkpt lat="43.1347216" lon="10.6036652"><ele>220.0</ele><time>2026-04-04T13:54:03.714Z</time></trkpt><trkpt lat="43.13479" lon="10.6036402"><ele>220.0</ele><time>2026-04-04T13:54:05.725Z</time></trkpt><trkpt lat="43.134786" lon="10.6035245"><ele>220.0</ele><time>2026-04-04T13:54:07.732Z</time></trkpt><trkpt lat="43.134747" lon="10.6033879"><ele>220.0</ele><time>2026-04-04T13:54:09.72Z</time></trkpt><trkpt lat="43.1346697" lon="10.603274"><ele>219.0</ele><time>2026-04-04T13:54:11.736Z</time></trkpt><trkpt lat="43.1345827" lon="10.6032152"><ele>218.0</ele><time>2026-04-04T13:54:13.709Z</time></trkpt><trkpt lat="43.1346335" lon="10.6031191"><ele>217.0</ele><time>2026-04-04T13:54:16.719Z</time></trkpt><trkpt lat="43.1347635" lon="10.6031016"><ele>216.0</ele><time>2026-04-04T13:54:18.718Z</time></trkpt><trkpt lat="43.1348353" lon="10.6031248"><ele>215.0</ele><time>2026-04-04T13:54:19.709Z</time></trkpt><trkpt lat="43.1349046" lon="10.6031759"><ele>210.16666666666669</ele><time>2026-04-04T13:54:20.722Z</time></trkpt><trkpt lat="43.1349878" lon="10.6032159"><ele>205.33333333333334</ele><time>2026-04-04T13:54:22.729Z</time></trkpt><trkpt lat="43.1349849" lon="10.60309"><ele>200.5</ele><time>2026-04-04T13:54:25.727Z</time></trkpt><trkpt lat="43.1350552" lon="10.6030711"><ele>195.66666666666669</ele><time>2026-04-04T13:54:28.721Z</time></trkpt><trkpt lat="43.1351046" lon="10.6030006"><ele>190.83333333333334</ele><time>2026-04-04T13:54:30.724Z</time></trkpt><trkpt lat="43.1351661" lon="10.6029356"><ele>186.0</ele><time>2026-04-04T13:54:32.739Z</time></trkpt><trkpt lat="43.1352701" lon="10.6029782"><ele>186.0</ele><time>2026-04-04T13:54:34.72Z</time></trkpt><trkpt lat="43.1353623" lon="10.6030926"><ele>186.0</ele><time>2026-04-04T13:54:36.724Z</time></trkpt><trkpt lat="43.1353853" lon="10.6031845"><ele>186.0</ele><time>2026-04-04T13:54:37.726Z</time></trkpt><trkpt lat="43.1353941" lon="10.6033422"><ele>186.0</ele><time>2026-04-04T13:54:39.715Z</time></trkpt><trkpt lat="43.1353792" lon="10.6034943"><ele>186.0</ele><time>2026-04-04T13:54:41.716Z</time></trkpt><trkpt lat="43.1354404" lon="10.6034577"><ele>186.00000000000003</ele><time>2026-04-04T13:54:44.729Z</time></trkpt><trkpt lat="43.1354644" lon="10.6033598"><ele>186.0</ele><time>2026-04-04T13:54:45.726Z</time></trkpt><trkpt lat="43.1355096" lon="10.6032645"><ele>186.0</ele><time>2026-04-04T13:54:47.722Z</time></trkpt><trkpt lat="43.1355415" lon="10.6033463"><ele>186.0</ele><time>2026-04-04T13:54:49.724Z</time></trkpt><trkpt lat="43.135561" lon="10.603436"><ele>186.0</ele><time>2026-04-04T13:54:50.726Z</time></trkpt><trkpt lat="43.135576" lon="10.6035488"><ele>186.00000000000003</ele><time>2026-04-04T13:54:51.721Z</time></trkpt><trkpt lat="43.1355918" lon="10.6036424"><ele>186.0</ele><time>2026-04-04T13:54:52.718Z</time></trkpt><trkpt lat="43.1356536" lon="10.6036805"><ele>186.0</ele><time>2026-04-04T13:54:55.733Z</time></trkpt><trkpt lat="43.1356867" lon="10.6036059"><ele>186.0</ele><time>2026-04-04T13:54:56.726Z</time></trkpt><trkpt lat="43.1356969" lon="10.603511"><ele>186.0</ele><time>2026-04-04T13:54:57.717Z</time></trkpt><trkpt lat="43.1357218" lon="10.6033626"><ele>186.0</ele><time>2026-04-04T13:54:59.73Z</time></trkpt><trkpt lat="43.1357605" lon="10.6032322"><ele>186.0</ele><time>2026-04-04T13:55:01.721Z</time></trkpt><trkpt lat="43.1357948" lon="10.6031536"><ele>186.0</ele><time>2026-04-04T13:55:02.728Z</time></trkpt><trkpt lat="43.1358324" lon="10.6030613"><ele>181.0</ele><time>2026-04-04T13:55:03.725Z</time></trkpt><trkpt lat="43.1358751" lon="10.6029613"><ele>176.0</ele><time>2026-04-04T13:55:04.729Z</time></trkpt><trkpt lat="43.1359193" lon="10.6028768"><ele>171.0</ele><time>2026-04-04T13:55:05.725Z</time></trkpt><trkpt lat="43.1359823" lon="10.6027417"><ele>166.0</ele><time>2026-04-04T13:55:07.728Z</time></trkpt><trkpt lat="43.1360069" lon="10.6026194"><ele>161.0</ele><time>2026-04-04T13:55:09.733Z</time></trkpt><trkpt lat="43.1360741" lon="10.6025837"><ele>156.0</ele><time>2026-04-04T13:55:12.738Z</time></trkpt><trkpt lat="43.1361533" lon="10.6026757"><ele>156.0</ele><time>2026-04-04T13:55:14.732Z</time></trkpt><trkpt lat="43.136188" lon="10.6027489"><ele>156.0</ele><time>2026-04-04T13:55:15.733Z</time></trkpt><trkpt lat="43.1362218" lon="10.602825"><ele>156.0</ele><time>2026-04-04T13:55:16.728Z</time></trkpt><trkpt lat="43.1362541" lon="10.602973"><ele>156.0</ele><time>2026-04-04T13:55:18.719Z</time></trkpt><trkpt lat="43.1362416" lon="10.6031172"><ele>156.0</ele><time>2026-04-04T13:55:20.729Z</time></trkpt><trkpt lat="43.1361956" lon="10.6032367"><ele>156.0</ele><time>2026-04-04T13:55:22.722Z</time></trkpt><trkpt lat="43.1361794" lon="10.6033216"><ele>156.0</ele><time>2026-04-04T13:56:19.729Z</time></trkpt><trkpt lat="43.1362585" lon="10.6033118"><ele>156.0</ele><time>2026-04-04T13:57:01.669Z</time></trkpt><trkpt lat="43.1362418" lon="10.6032004"><ele>156.0</ele><time>2026-04-04T13:57:03.66Z</time></trkpt><trkpt lat="43.136189" lon="10.6032493"><ele>156.0</ele><time>2026-04-04T13:57:33.684Z</time></trkpt><trkpt lat="43.1361678" lon="10.6033714"><ele>156.0</ele><time>2026-04-04T13:57:36.698Z</time></trkpt><trkpt lat="43.1361514" lon="10.6034621"><ele>156.0</ele><time>2026-04-04T13:57:42.691Z</time></trkpt><trkpt lat="43.136202" lon="10.6035193"><ele>156.0</ele><time>2026-04-04T13:57:49.706Z</time></trkpt><trkpt lat="43.1361794" lon="10.6034366"><ele>156.0</ele><time>2026-04-04T13:58:22.684Z</time></trkpt><trkpt lat="43.136167" lon="10.6033474"><ele>156.0</ele><time>2026-04-04T13:58:29.691Z</time></trkpt><trkpt lat="43.1360901" lon="10.6033483"><ele>156.0</ele><time>2026-04-04T14:00:13.688Z</time></trkpt><trkpt lat="43.1361451" lon="10.6034199"><ele>156.0</ele><time>2026-04-04T14:00:16.681Z</time></trkpt><trkpt lat="43.1360623" lon="10.6033862"><ele>156.0</ele><time>2026-04-04T14:00:24.705Z</time></trkpt><trkpt lat="43.1361417" lon="10.6033623"><ele>156.0</ele><time>2026-04-04T14:00:48.701Z</time></trkpt><trkpt lat="43.1360646" lon="10.6034045"><ele>156.0</ele><time>2026-04-04T14:00:54.69Z</time></trkpt><trkpt lat="43.1359937" lon="10.6034493"><ele>156.0</ele><time>2026-04-04T14:01:59.723Z</time></trkpt><trkpt lat="43.135972" lon="10.6035505"><ele>156.0</ele><time>2026-04-04T14:02:03.731Z</time></trkpt><trkpt lat="43.1359373" lon="10.6036473"><ele>156.0</ele><time>2026-04-04T14:02:10.74Z</time></trkpt><trkpt lat="43.1359367" lon="10.6037418"><ele>156.0</ele><time>2026-04-04T14:02:13.738Z</time></trkpt><trkpt lat="43.135946" lon="10.6038303"><ele>155.0</ele><time>2026-04-04T14:02:17.726Z</time></trkpt><trkpt lat="43.1359379" lon="10.6039369"><ele>154.0</ele><time>2026-04-04T14:02:21.713Z</time></trkpt><trkpt lat="43.1358863" lon="10.6039938"><ele>153.0</ele><time>2026-04-04T14:02:23.721Z</time></trkpt><trkpt lat="43.1358232" lon="10.6040714"><ele>152.0</ele><time>2026-04-04T14:02:31.731Z</time></trkpt><trkpt lat="43.1357749" lon="10.6041477"><ele>151.0</ele><time>2026-04-04T14:02:34.724Z</time></trkpt><trkpt lat="43.1357163" lon="10.6042161"><ele>150.0</ele><time>2026-04-04T14:02:38.721Z</time></trkpt><trkpt lat="43.1356543" lon="10.6042902"><ele>154.42857142857142</ele><time>2026-04-04T14:02:42.722Z</time></trkpt><trkpt lat="43.1355694" lon="10.6043283"><ele>158.85714285714286</ele><time>2026-04-04T14:02:46.728Z</time></trkpt><trkpt lat="43.1355047" lon="10.6043527"><ele>163.28571428571428</ele><time>2026-04-04T14:02:49.738Z</time></trkpt><trkpt lat="43.1354249" lon="10.6043719"><ele>167.71428571428572</ele><time>2026-04-04T14:02:53.737Z</time></trkpt><trkpt lat="43.1353547" lon="10.6043511"><ele>172.14285714285714</ele><time>2026-04-04T14:02:58.74Z</time></trkpt><trkpt lat="43.1352839" lon="10.6043634"><ele>176.57142857142856</ele><time>2026-04-04T14:03:04.726Z</time></trkpt><trkpt lat="43.1352188" lon="10.6043827"><ele>181.0</ele><time>2026-04-04T14:03:06.724Z</time></trkpt><trkpt lat="43.1351425" lon="10.6044298"><ele>178.14285714285714</ele><time>2026-04-04T14:03:08.73Z</time></trkpt><trkpt lat="43.1350986" lon="10.6044995"><ele>175.28571428571428</ele><time>2026-04-04T14:03:11.725Z</time></trkpt><trkpt lat="43.1350274" lon="10.6045492"><ele>172.42857142857144</ele><time>2026-04-04T14:03:15.736Z</time></trkpt><trkpt lat="43.1349799" lon="10.604623"><ele>169.57142857142856</ele><time>2026-04-04T14:03:19.736Z</time></trkpt><trkpt lat="43.134914" lon="10.6046798"><ele>166.71428571428572</ele><time>2026-04-04T14:03:22.739Z</time></trkpt><trkpt lat="43.1348606" lon="10.6047551"><ele>163.85714285714286</ele><time>2026-04-04T14:03:26.744Z</time></trkpt><trkpt lat="43.1348111" lon="10.6048274"><ele>161.0</ele><time>2026-04-04T14:03:29.739Z</time></trkpt><trkpt lat="43.1347718" lon="10.6048948"><ele>165.33333333333331</ele><time>2026-04-04T14:03:32.734Z</time></trkpt><trkpt lat="43.1347129" lon="10.6049381"><ele>169.66666666666666</ele><time>2026-04-04T14:03:35.732Z</time></trkpt><trkpt lat="43.1346804" lon="10.6050185"><ele>174.0</ele><time>2026-04-04T14:03:39.73Z</time></trkpt><trkpt lat="43.1346444" lon="10.605099"><ele>178.33333333333334</ele><time>2026-04-04T14:03:42.734Z</time></trkpt><trkpt lat="43.1345885" lon="10.6051894"><ele>182.66666666666669</ele><time>2026-04-04T14:03:45.744Z</time></trkpt><trkpt lat="43.1345694" lon="10.6053"><ele>187.0</ele><time>2026-04-04T14:03:48.744Z</time></trkpt><trkpt lat="43.1345286" lon="10.6054055"><ele>187.0</ele><time>2026-04-04T14:03:51.744Z</time></trkpt><trkpt lat="43.1344791" lon="10.6054891"><ele>187.0</ele><time>2026-04-04T14:03:54.739Z</time></trkpt><trkpt lat="43.1344222" lon="10.6055361"><ele>187.0</ele><time>2026-04-04T14:03:56.735Z</time></trkpt><trkpt lat="43.1343493" lon="10.6055775"><ele>187.0</ele><time>2026-04-04T14:03:59.744Z</time></trkpt><trkpt lat="43.1342783" lon="10.6056315"><ele>187.0</ele><time>2026-04-04T14:04:02.727Z</time></trkpt><trkpt lat="43.1342237" lon="10.6056869"><ele>187.0</ele><time>2026-04-04T14:04:04.731Z</time></trkpt><trkpt lat="43.1341498" lon="10.6057432"><ele>187.0</ele><time>2026-04-04T14:04:07.73Z</time></trkpt><trkpt lat="43.1340671" lon="10.6058061"><ele>187.0</ele><time>2026-04-04T14:04:10.734Z</time></trkpt><trkpt lat="43.134014" lon="10.6058839"><ele>187.0</ele><time>2026-04-04T14:04:13.729Z</time></trkpt><trkpt lat="43.1339562" lon="10.605963"><ele>187.0</ele><time>2026-04-04T14:04:16.734Z</time></trkpt><trkpt lat="43.1338886" lon="10.6060382"><ele>187.0</ele><time>2026-04-04T14:04:19.736Z</time></trkpt><trkpt lat="43.1338263" lon="10.6061285"><ele>187.0</ele><time>2026-04-04T14:04:22.733Z</time></trkpt><trkpt lat="43.1337873" lon="10.6062031"><ele>189.85714285714286</ele><time>2026-04-04T14:04:24.727Z</time></trkpt><trkpt lat="43.1337483" lon="10.6062794"><ele>192.71428571428572</ele><time>2026-04-04T14:04:26.734Z</time></trkpt><trkpt lat="43.1336922" lon="10.6063377"><ele>195.57142857142858</ele><time>2026-04-04T14:04:28.725Z</time></trkpt><trkpt lat="43.1336345" lon="10.6064209"><ele>198.42857142857144</ele><time>2026-04-04T14:04:31.728Z</time></trkpt><trkpt lat="43.1335874" lon="10.6064974"><ele>201.28571428571428</ele><time>2026-04-04T14:04:35.731Z</time></trkpt><trkpt lat="43.1335223" lon="10.6065483"><ele>204.14285714285717</ele><time>2026-04-04T14:04:39.725Z</time></trkpt><trkpt lat="43.1334584" lon="10.6065664"><ele>207.0</ele><time>2026-04-04T14:04:44.719Z</time></trkpt><trkpt lat="43.1333806" lon="10.6065818"><ele>207.0</ele><time>2026-04-04T14:04:49.71Z</time></trkpt><trkpt lat="43.1333034" lon="10.6065822"><ele>207.0</ele><time>2026-04-04T14:04:52.701Z</time></trkpt><trkpt lat="43.1332381" lon="10.6065869"><ele>207.0</ele><time>2026-04-04T14:04:54.693Z</time></trkpt><trkpt lat="43.1331611" lon="10.6066089"><ele>207.0</ele><time>2026-04-04T14:04:57.695Z</time></trkpt><trkpt lat="43.1330828" lon="10.6066566"><ele>207.0</ele><time>2026-04-04T14:04:59.699Z</time></trkpt><trkpt lat="43.1329807" lon="10.6066951"><ele>207.0</ele><time>2026-04-04T14:05:01.713Z</time></trkpt><trkpt lat="43.1329635" lon="10.6067833"><ele>209.57142857142858</ele><time>2026-04-04T14:05:09.712Z</time></trkpt><trkpt lat="43.1329909" lon="10.6068764"><ele>212.14285714285717</ele><time>2026-04-04T14:05:11.708Z</time></trkpt><trkpt lat="43.1329683" lon="10.6069635"><ele>214.71428571428572</ele><time>2026-04-04T14:05:13.706Z</time></trkpt><trkpt lat="43.132952" lon="10.6070521"><ele>217.2857142857143</ele><time>2026-04-04T14:05:16.712Z</time></trkpt><trkpt lat="43.1329027" lon="10.6071254"><ele>219.85714285714286</ele><time>2026-04-04T14:05:21.713Z</time></trkpt><trkpt lat="43.13284" lon="10.6071666"><ele>222.42857142857147</ele><time>2026-04-04T14:05:25.708Z</time></trkpt><trkpt lat="43.1327825" lon="10.6072278"><ele>225.00000000000003</ele><time>2026-04-04T14:05:29.709Z</time></trkpt><trkpt lat="43.1327077" lon="10.6072662"><ele>225.00000000000003</ele><time>2026-04-04T14:05:34.712Z</time></trkpt><trkpt lat="43.1326859" lon="10.6073558"><ele>225.0</ele><time>2026-04-04T14:05:38.722Z</time></trkpt><trkpt lat="43.1326158" lon="10.6073907"><ele>225.00000000000003</ele><time>2026-04-04T14:05:46.728Z</time></trkpt><trkpt lat="43.1325428" lon="10.6073776"><ele>225.00000000000003</ele><time>2026-04-04T14:05:49.725Z</time></trkpt><trkpt lat="43.1324838" lon="10.6074098"><ele>225.0</ele><time>2026-04-04T14:05:51.72Z</time></trkpt><trkpt lat="43.1324135" lon="10.6074499"><ele>225.00000000000003</ele><time>2026-04-04T14:05:54.716Z</time></trkpt><trkpt lat="43.1323514" lon="10.6075002"><ele>225.00000000000003</ele><time>2026-04-04T14:05:58.716Z</time></trkpt><trkpt lat="43.1323043" lon="10.6075777"><ele>228.33333333333334</ele><time>2026-04-04T14:06:03.75Z</time></trkpt><trkpt lat="43.1322725" lon="10.6076755"><ele>231.66666666666669</ele><time>2026-04-04T14:06:07.721Z</time></trkpt><trkpt lat="43.1322481" lon="10.6077643"><ele>235.0</ele><time>2026-04-04T14:06:10.727Z</time></trkpt><trkpt lat="43.1322371" lon="10.6078793"><ele>238.33333333333334</ele><time>2026-04-04T14:06:14.723Z</time></trkpt><trkpt lat="43.1322222" lon="10.6079922"><ele>241.66666666666669</ele><time>2026-04-04T14:06:18.724Z</time></trkpt><trkpt lat="43.1321903" lon="10.6080973"><ele>245.0</ele><time>2026-04-04T14:06:22.723Z</time></trkpt><trkpt lat="43.1321706" lon="10.6081957"><ele>245.0</ele><time>2026-04-04T14:06:25.724Z</time></trkpt><trkpt lat="43.1321693" lon="10.6082823"><ele>245.0</ele><time>2026-04-04T14:06:28.719Z</time></trkpt><trkpt lat="43.1321792" lon="10.6083733"><ele>245.0</ele><time>2026-04-04T14:06:57.711Z</time></trkpt><trkpt lat="43.132242" lon="10.6084054"><ele>245.0</ele><time>2026-04-04T14:07:03.719Z</time></trkpt><trkpt lat="43.1323188" lon="10.6084328"><ele>245.0</ele><time>2026-04-04T14:07:20.715Z</time></trkpt><trkpt lat="43.132272" lon="10.6083734"><ele>245.0</ele><time>2026-04-04T14:08:20.728Z</time></trkpt><trkpt lat="43.1322064" lon="10.6084546"><ele>245.0</ele><time>2026-04-04T14:08:55.717Z</time></trkpt><trkpt lat="43.1321551" lon="10.6085138"><ele>245.0</ele><time>2026-04-04T14:08:57.695Z</time></trkpt><trkpt lat="43.1322109" lon="10.6084662"><ele>245.0</ele><time>2026-04-04T14:09:33.722Z</time></trkpt><trkpt lat="43.1321471" lon="10.6085285"><ele>245.0</ele><time>2026-04-04T14:09:43.713Z</time></trkpt><trkpt lat="43.1320748" lon="10.6086042"><ele>245.0</ele><time>2026-04-04T14:09:47.718Z</time></trkpt><trkpt lat="43.1320054" lon="10.6086641"><ele>245.0</ele><time>2026-04-04T14:09:50.724Z</time></trkpt><trkpt lat="43.1319538" lon="10.6087192"><ele>245.0</ele><time>2026-04-04T14:09:53.721Z</time></trkpt><trkpt lat="43.1319015" lon="10.6087763"><ele>245.0</ele><time>2026-04-04T14:09:56.719Z</time></trkpt><trkpt lat="43.1318373" lon="10.6088378"><ele>245.71428571428572</ele><time>2026-04-04T14:09:59.729Z</time></trkpt><trkpt lat="43.1317875" lon="10.6088922"><ele>246.42857142857144</ele><time>2026-04-04T14:10:02.735Z</time></trkpt><trkpt lat="43.1317316" lon="10.6089373"><ele>247.14285714285714</ele><time>2026-04-04T14:10:06.727Z</time></trkpt><trkpt lat="43.1316668" lon="10.6089507"><ele>247.85714285714286</ele><time>2026-04-04T14:10:11.731Z</time></trkpt><trkpt lat="43.1315875" lon="10.6089823"><ele>248.57142857142858</ele><time>2026-04-04T14:10:14.723Z</time></trkpt><trkpt lat="43.1315181" lon="10.6090103"><ele>249.28571428571428</ele><time>2026-04-04T14:10:20.728Z</time></trkpt><trkpt lat="43.1314471" lon="10.6090348"><ele>250.0</ele><time>2026-04-04T14:10:23.732Z</time></trkpt><trkpt lat="43.1313819" lon="10.6090664"><ele>253.8</ele><time>2026-04-04T14:10:28.725Z</time></trkpt><trkpt lat="43.1313068" lon="10.6090051"><ele>257.6</ele><time>2026-04-04T14:10:33.713Z</time></trkpt><trkpt lat="43.1312223" lon="10.6088835"><ele>261.4</ele><time>2026-04-04T14:10:35.708Z</time></trkpt><trkpt lat="43.1311931" lon="10.6087967"><ele>265.2</ele><time>2026-04-04T14:10:36.709Z</time></trkpt><trkpt lat="43.1311736" lon="10.6086459"><ele>269.0</ele><time>2026-04-04T14:10:42.714Z</time></trkpt><trkpt lat="43.1311754" lon="10.6085287"><ele>269.0</ele><time>2026-04-04T14:10:43.721Z</time></trkpt><trkpt lat="43.1311535" lon="10.6084093"><ele>269.0</ele><time>2026-04-04T14:10:45.717Z</time></trkpt><trkpt lat="43.1310903" lon="10.6083312"><ele>269.0</ele><time>2026-04-04T14:10:48.718Z</time></trkpt><trkpt lat="43.1310533" lon="10.6082547"><ele>269.0</ele><time>2026-04-04T14:10:51.729Z</time></trkpt><trkpt lat="43.1310416" lon="10.6081379"><ele>269.0</ele><time>2026-04-04T14:10:56.734Z</time></trkpt><trkpt lat="43.1310137" lon="10.6080537"><ele>269.0</ele><time>2026-04-04T14:10:59.73Z</time></trkpt><trkpt lat="43.1309636" lon="10.6080013"><ele>269.0</ele><time>2026-04-04T14:11:02.742Z</time></trkpt><trkpt lat="43.1309312" lon="10.6079177"><ele>269.0</ele><time>2026-04-04T14:11:07.735Z</time></trkpt><trkpt lat="43.1309019" lon="10.6078131"><ele>269.0</ele><time>2026-04-04T14:11:11.736Z</time></trkpt><trkpt lat="43.1308567" lon="10.6077332"><ele>269.0</ele><time>2026-04-04T14:11:14.737Z</time></trkpt><trkpt lat="43.1308017" lon="10.6076612"><ele>269.0</ele><time>2026-04-04T14:11:17.741Z</time></trkpt><trkpt lat="43.1307298" lon="10.6076152"><ele>269.0</ele><time>2026-04-04T14:11:21.726Z</time></trkpt><trkpt lat="43.1306558" lon="10.6075987"><ele>272.1666666666667</ele><time>2026-04-04T14:11:24.73Z</time></trkpt><trkpt lat="43.1305782" lon="10.6075917"><ele>275.33333333333337</ele><time>2026-04-04T14:11:27.728Z</time></trkpt><trkpt lat="43.1305021" lon="10.6075839"><ele>278.5</ele><time>2026-04-04T14:11:30.727Z</time></trkpt><trkpt lat="43.1304336" lon="10.6075538"><ele>281.6666666666667</ele><time>2026-04-04T14:11:33.722Z</time></trkpt><trkpt lat="43.1303929" lon="10.6074666"><ele>284.8333333333333</ele><time>2026-04-04T14:11:38.727Z</time></trkpt><trkpt lat="43.1303068" lon="10.6074254"><ele>288.0</ele><time>2026-04-04T14:11:42.732Z</time></trkpt><trkpt lat="43.1302191" lon="10.6074056"><ele>288.00000000000006</ele><time>2026-04-04T14:11:45.729Z</time></trkpt><trkpt lat="43.1301477" lon="10.6073994"><ele>288.0</ele><time>2026-04-04T14:11:48.732Z</time></trkpt><trkpt lat="43.1300839" lon="10.6073688"><ele>288.0</ele><time>2026-04-04T14:11:51.725Z</time></trkpt><trkpt lat="43.130018" lon="10.607361"><ele>288.0</ele><time>2026-04-04T14:11:55.728Z</time></trkpt><trkpt lat="43.129964" lon="10.6073144"><ele>288.0</ele><time>2026-04-04T14:11:59.731Z</time></trkpt><trkpt lat="43.1298998" lon="10.6072321"><ele>288.00000000000006</ele><time>2026-04-04T14:12:04.74Z</time></trkpt><trkpt lat="43.1298443" lon="10.6071875"><ele>288.0</ele><time>2026-04-04T14:12:06.73Z</time></trkpt><trkpt lat="43.1297721" lon="10.6071371"><ele>289.1666666666667</ele><time>2026-04-04T14:12:09.728Z</time></trkpt><trkpt lat="43.1297012" lon="10.6071051"><ele>290.3333333333333</ele><time>2026-04-04T14:12:12.73Z</time></trkpt><trkpt lat="43.1296211" lon="10.6070742"><ele>291.5</ele><time>2026-04-04T14:12:15.732Z</time></trkpt><trkpt lat="43.1295448" lon="10.6070568"><ele>292.66666666666663</ele><time>2026-04-04T14:12:17.727Z</time></trkpt><trkpt lat="43.1294733" lon="10.6070438"><ele>293.8333333333333</ele><time>2026-04-04T14:12:19.72Z</time></trkpt><trkpt lat="43.1294031" lon="10.6070227"><ele>295.0</ele><time>2026-04-04T14:12:22.73Z</time></trkpt><trkpt lat="43.12935" lon="10.6069484"><ele>295.00000000000006</ele><time>2026-04-04T14:12:27.735Z</time></trkpt><trkpt lat="43.1292648" lon="10.6069136"><ele>295.0</ele><time>2026-04-04T14:12:28.716Z</time></trkpt><trkpt lat="43.1292" lon="10.6069033"><ele>295.0</ele><time>2026-04-04T14:12:35.726Z</time></trkpt><trkpt lat="43.129173" lon="10.6069885"><ele>295.0</ele><time>2026-04-04T14:12:38.72Z</time></trkpt><trkpt lat="43.1291943" lon="10.6070916"><ele>295.0</ele><time>2026-04-04T14:12:42.731Z</time></trkpt><trkpt lat="43.1291888" lon="10.6071957"><ele>295.00000000000006</ele><time>2026-04-04T14:12:46.739Z</time></trkpt><trkpt lat="43.1291824" lon="10.6072881"><ele>295.0</ele><time>2026-04-04T14:12:51.737Z</time></trkpt><trkpt lat="43.1291425" lon="10.6073876"><ele>295.66666666666663</ele><time>2026-04-04T14:12:54.732Z</time></trkpt><trkpt lat="43.1291061" lon="10.6074702"><ele>296.3333333333333</ele><time>2026-04-04T14:12:57.728Z</time></trkpt><trkpt lat="43.1290601" lon="10.6075779"><ele>297.0</ele><time>2026-04-04T14:13:00.732Z</time></trkpt><trkpt lat="43.1290534" lon="10.6076846"><ele>297.6666666666667</ele><time>2026-04-04T14:13:03.722Z</time></trkpt><trkpt lat="43.1290324" lon="10.6077829"><ele>298.33333333333337</ele><time>2026-04-04T14:13:06.726Z</time></trkpt><trkpt lat="43.1290283" lon="10.60788"><ele>299.0</ele><time>2026-04-04T14:13:08.717Z</time></trkpt><trkpt lat="43.1290618" lon="10.6079576"><ele>303.1428571428571</ele><time>2026-04-04T14:13:13.714Z</time></trkpt><trkpt lat="43.1290449" lon="10.6080667"><ele>307.2857142857143</ele><time>2026-04-04T14:13:16.728Z</time></trkpt><trkpt lat="43.1290267" lon="10.6081697"><ele>311.42857142857144</ele><time>2026-04-04T14:13:19.727Z</time></trkpt><trkpt lat="43.1290215" lon="10.6082571"><ele>315.57142857142856</ele><time>2026-04-04T14:13:21.728Z</time></trkpt><trkpt lat="43.1289917" lon="10.6083506"><ele>319.7142857142857</ele><time>2026-04-04T14:13:25.721Z</time></trkpt><trkpt lat="43.1289188" lon="10.6083688"><ele>323.85714285714283</ele><time>2026-04-04T14:13:28.715Z</time></trkpt><trkpt lat="43.1288431" lon="10.6083475"><ele>328.0</ele><time>2026-04-04T14:13:35.716Z</time></trkpt><trkpt lat="43.1287995" lon="10.6082722"><ele>328.0</ele><time>2026-04-04T14:13:39.714Z</time></trkpt><trkpt lat="43.1287432" lon="10.6081972"><ele>328.0</ele><time>2026-04-04T14:13:42.715Z</time></trkpt><trkpt lat="43.1286772" lon="10.608112"><ele>328.0</ele><time>2026-04-04T14:13:45.72Z</time></trkpt><trkpt lat="43.1286391" lon="10.6080321"><ele>328.0</ele><time>2026-04-04T14:13:48.722Z</time></trkpt><trkpt lat="43.1286006" lon="10.6079373"><ele>328.0</ele><time>2026-04-04T14:13:52.724Z</time></trkpt><trkpt lat="43.1285404" lon="10.6078859"><ele>328.0</ele><time>2026-04-04T14:13:56.721Z</time></trkpt><trkpt lat="43.1285026" lon="10.6078082"><ele>326.3333333333333</ele><time>2026-04-04T14:14:00.726Z</time></trkpt><trkpt lat="43.1284421" lon="10.6077109"><ele>324.66666666666663</ele><time>2026-04-04T14:14:03.721Z</time></trkpt><trkpt lat="43.1284096" lon="10.6076239"><ele>323.0</ele><time>2026-04-04T14:14:11.71Z</time></trkpt><trkpt lat="43.1283994" lon="10.6075104"><ele>321.3333333333333</ele><time>2026-04-04T14:14:14.717Z</time></trkpt><trkpt lat="43.1283249" lon="10.6074399"><ele>319.6666666666667</ele><time>2026-04-04T14:14:16.727Z</time></trkpt><trkpt lat="43.1282656" lon="10.6073802"><ele>318.0</ele><time>2026-04-04T14:14:18.737Z</time></trkpt><trkpt lat="43.1282011" lon="10.6073572"><ele>320.1666666666667</ele><time>2026-04-04T14:14:22.73Z</time></trkpt><trkpt lat="43.1281393" lon="10.6072765"><ele>322.3333333333333</ele><time>2026-04-04T14:14:27.713Z</time></trkpt><trkpt lat="43.1280838" lon="10.6071499"><ele>324.5</ele><time>2026-04-04T14:14:30.716Z</time></trkpt><trkpt lat="43.1280132" lon="10.6070919"><ele>326.66666666666663</ele><time>2026-04-04T14:14:33.73Z</time></trkpt><trkpt lat="43.1279577" lon="10.6070123"><ele>328.8333333333333</ele><time>2026-04-04T14:14:36.727Z</time></trkpt><trkpt lat="43.1279025" lon="10.606955"><ele>331.0</ele><time>2026-04-04T14:14:39.732Z</time></trkpt><trkpt lat="43.1278548" lon="10.6068941"><ele>331.0</ele><time>2026-04-04T14:14:42.728Z</time></trkpt><trkpt lat="43.1277969" lon="10.6068365"><ele>331.0</ele><time>2026-04-04T14:14:46.939Z</time></trkpt><trkpt lat="43.1277346" lon="10.6067937"><ele>331.0</ele><time>2026-04-04T14:14:49.745Z</time></trkpt><trkpt lat="43.1276695" lon="10.6067399"><ele>331.0</ele><time>2026-04-04T14:14:52.732Z</time></trkpt><trkpt lat="43.127592" lon="10.6066726"><ele>331.0</ele><time>2026-04-04T14:14:55.728Z</time></trkpt><trkpt lat="43.127541" lon="10.6065996"><ele>331.0</ele><time>2026-04-04T14:15:01.727Z</time></trkpt><trkpt lat="43.1274762" lon="10.6065189"><ele>331.0</ele><time>2026-04-04T14:15:03.719Z</time></trkpt><trkpt lat="43.1274083" lon="10.6064964"><ele>331.0</ele><time>2026-04-04T14:15:05.716Z</time></trkpt><trkpt lat="43.1273283" lon="10.6064786"><ele>331.0</ele><time>2026-04-04T14:15:07.736Z</time></trkpt><trkpt lat="43.1272545" lon="10.606426"><ele>331.0</ele><time>2026-04-04T14:15:11.735Z</time></trkpt><trkpt lat="43.1271966" lon="10.60637"><ele>331.0</ele><time>2026-04-04T14:15:14.736Z</time></trkpt><trkpt lat="43.1271438" lon="10.606279"><ele>331.0</ele><time>2026-04-04T14:15:19.728Z</time></trkpt><trkpt lat="43.1270911" lon="10.6062136"><ele>331.16666666666663</ele><time>2026-04-04T14:15:22.722Z</time></trkpt><trkpt lat="43.1270351" lon="10.6061597"><ele>331.3333333333333</ele><time>2026-04-04T14:15:26.735Z</time></trkpt><trkpt lat="43.1269664" lon="10.6061183"><ele>331.5</ele><time>2026-04-04T14:15:29.726Z</time></trkpt><trkpt lat="43.1268876" lon="10.6060659"><ele>331.6666666666667</ele><time>2026-04-04T14:15:32.726Z</time></trkpt><trkpt lat="43.1267968" lon="10.6060711"><ele>331.83333333333337</ele><time>2026-04-04T14:15:34.724Z</time></trkpt><trkpt lat="43.1266996" lon="10.6060721"><ele>332.0</ele><time>2026-04-04T14:15:36.728Z</time></trkpt><trkpt lat="43.126598" lon="10.6060797"><ele>334.1666666666667</ele><time>2026-04-04T14:15:38.721Z</time></trkpt><trkpt lat="43.1265008" lon="10.6061059"><ele>336.33333333333337</ele><time>2026-04-04T14:15:40.712Z</time></trkpt><trkpt lat="43.1264086" lon="10.6061449"><ele>338.5</ele><time>2026-04-04T14:15:42.736Z</time></trkpt><trkpt lat="43.1263476" lon="10.6062007"><ele>340.6666666666667</ele><time>2026-04-04T14:15:45.737Z</time></trkpt><trkpt lat="43.1262924" lon="10.6062932"><ele>342.8333333333333</ele><time>2026-04-04T14:15:49.733Z</time></trkpt><trkpt lat="43.1262324" lon="10.6063333"><ele>345.0</ele><time>2026-04-04T14:15:54.729Z</time></trkpt><trkpt lat="43.1261771" lon="10.6063765"><ele>346.14285714285717</ele><time>2026-04-04T14:16:00.732Z</time></trkpt><trkpt lat="43.1261123" lon="10.606423"><ele>347.2857142857143</ele><time>2026-04-04T14:16:04.726Z</time></trkpt><trkpt lat="43.1260486" lon="10.6064162"><ele>348.42857142857144</ele><time>2026-04-04T14:16:07.724Z</time></trkpt><trkpt lat="43.1259925" lon="10.606339"><ele>349.57142857142856</ele><time>2026-04-04T14:16:11.734Z</time></trkpt><trkpt lat="43.1259221" lon="10.6062692"><ele>350.7142857142857</ele><time>2026-04-04T14:16:14.741Z</time></trkpt><trkpt lat="43.1258629" lon="10.6062397"><ele>351.85714285714283</ele><time>2026-04-04T14:16:18.726Z</time></trkpt><trkpt lat="43.1258487" lon="10.606343"><ele>353.0</ele><time>2026-04-04T14:16:25.743Z</time></trkpt><trkpt lat="43.1258472" lon="10.6064294"><ele>353.0</ele><time>2026-04-04T14:16:28.749Z</time></trkpt><trkpt lat="43.1258356" lon="10.6065239"><ele>353.0</ele><time>2026-04-04T14:16:31.739Z</time></trkpt><trkpt lat="43.1258317" lon="10.6066455"><ele>353.0</ele><time>2026-04-04T14:16:34.74Z</time></trkpt><trkpt lat="43.1258305" lon="10.6067627"><ele>353.0</ele><time>2026-04-04T14:16:37.736Z</time></trkpt><trkpt lat="43.1258316" lon="10.6068739"><ele>353.0</ele><time>2026-04-04T14:16:40.73Z</time></trkpt><trkpt lat="43.1258698" lon="10.6069749"><ele>353.0</ele><time>2026-04-04T14:16:42.732Z</time></trkpt><trkpt lat="43.125885" lon="10.607094"><ele>354.1666666666667</ele><time>2026-04-04T14:16:45.731Z</time></trkpt><trkpt lat="43.1259195" lon="10.6071938"><ele>355.33333333333337</ele><time>2026-04-04T14:16:48.728Z</time></trkpt><trkpt lat="43.1259657" lon="10.6072996"><ele>356.5</ele><time>2026-04-04T14:16:51.715Z</time></trkpt><trkpt lat="43.125984" lon="10.6073822"><ele>357.6666666666667</ele><time>2026-04-04T14:16:53.721Z</time></trkpt><trkpt lat="43.1260209" lon="10.6074646"><ele>358.8333333333333</ele><time>2026-04-04T14:16:57.736Z</time></trkpt><trkpt lat="43.1260601" lon="10.6075744"><ele>360.0</ele><time>2026-04-04T14:17:00.724Z</time></trkpt><trkpt lat="43.1260963" lon="10.6076589"><ele>360.0</ele><time>2026-04-04T14:17:02.732Z</time></trkpt><trkpt lat="43.1261439" lon="10.6077267"><ele>360.0</ele><time>2026-04-04T14:17:04.716Z</time></trkpt><trkpt lat="43.1261905" lon="10.6077957"><ele>360.0</ele><time>2026-04-04T14:17:07.726Z</time></trkpt><trkpt lat="43.1262434" lon="10.6078492"><ele>360.0</ele><time>2026-04-04T14:17:11.714Z</time></trkpt><trkpt lat="43.1262968" lon="10.6079628"><ele>360.0</ele><time>2026-04-04T14:17:14.715Z</time></trkpt><trkpt lat="43.1263314" lon="10.6080566"><ele>360.0</ele><time>2026-04-04T14:17:16.72Z</time></trkpt><trkpt lat="43.1263693" lon="10.6081503"><ele>360.8333333333333</ele><time>2026-04-04T14:17:18.734Z</time></trkpt><trkpt lat="43.1264088" lon="10.6082517"><ele>361.6666666666667</ele><time>2026-04-04T14:17:21.729Z</time></trkpt><trkpt lat="43.1264272" lon="10.6083665"><ele>362.5</ele><time>2026-04-04T14:17:24.738Z</time></trkpt><trkpt lat="43.1264328" lon="10.6084937"><ele>363.33333333333337</ele><time>2026-04-04T14:17:27.74Z</time></trkpt><trkpt lat="43.1264206" lon="10.6085828"><ele>364.1666666666667</ele><time>2026-04-04T14:17:29.738Z</time></trkpt><trkpt lat="43.1264143" lon="10.6086921"><ele>365.0</ele><time>2026-04-04T14:17:32.739Z</time></trkpt><trkpt lat="43.1263921" lon="10.6088109"><ele>366.0</ele><time>2026-04-04T14:17:35.734Z</time></trkpt><trkpt lat="43.1263802" lon="10.6089433"><ele>367.0</ele><time>2026-04-04T14:17:38.732Z</time></trkpt><trkpt lat="43.1264055" lon="10.6090295"><ele>368.0</ele><time>2026-04-04T14:17:41.718Z</time></trkpt><trkpt lat="43.1265013" lon="10.6090981"><ele>369.0</ele><time>2026-04-04T14:17:43.717Z</time></trkpt><trkpt lat="43.126471" lon="10.6092301"><ele>370.0</ele><time>2026-04-04T14:17:45.711Z</time></trkpt><trkpt lat="43.1264281" lon="10.6093471"><ele>369.99999999999994</ele><time>2026-04-04T14:17:46.7Z</time></trkpt><trkpt lat="43.1264098" lon="10.6094304"><ele>370.0</ele><time>2026-04-04T14:17:47.711Z</time></trkpt><trkpt lat="43.1263823" lon="10.609527"><ele>370.0</ele><time>2026-04-04T14:17:48.702Z</time></trkpt><trkpt lat="43.1263431" lon="10.6096038"><ele>370.0</ele><time>2026-04-04T14:17:49.698Z</time></trkpt><trkpt lat="43.1262866" lon="10.6096526"><ele>370.0</ele><time>2026-04-04T14:17:50.701Z</time></trkpt><trkpt lat="43.1262298" lon="10.6097103"><ele>369.99999999999994</ele><time>2026-04-04T14:17:51.715Z</time></trkpt><trkpt lat="43.1261534" lon="10.6097564"><ele>370.0</ele><time>2026-04-04T14:17:54.733Z</time></trkpt><trkpt lat="43.126101" lon="10.6098438"><ele>371.3333333333333</ele><time>2026-04-04T14:17:58.725Z</time></trkpt><trkpt lat="43.1260394" lon="10.6099345"><ele>372.66666666666663</ele><time>2026-04-04T14:18:00.728Z</time></trkpt><trkpt lat="43.1259906" lon="10.6100375"><ele>374.0</ele><time>2026-04-04T14:18:02.74Z</time></trkpt><trkpt lat="43.1259518" lon="10.6101396"><ele>375.3333333333333</ele><time>2026-04-04T14:18:05.733Z</time></trkpt><trkpt lat="43.1259526" lon="10.6102623"><ele>376.6666666666667</ele><time>2026-04-04T14:18:09.731Z</time></trkpt><trkpt lat="43.1259413" lon="10.6103539"><ele>378.0</ele><time>2026-04-04T14:18:11.737Z</time></trkpt><trkpt lat="43.1259229" lon="10.6104438"><ele>378.8333333333333</ele><time>2026-04-04T14:18:13.731Z</time></trkpt><trkpt lat="43.1259431" lon="10.6105445"><ele>379.6666666666667</ele><time>2026-04-04T14:18:18.733Z</time></trkpt><trkpt lat="43.1259943" lon="10.6106179"><ele>380.5</ele><time>2026-04-04T14:18:22.731Z</time></trkpt><trkpt lat="43.1260585" lon="10.6106875"><ele>381.33333333333337</ele><time>2026-04-04T14:18:25.752Z</time></trkpt><trkpt lat="43.1261333" lon="10.6108051"><ele>382.1666666666667</ele><time>2026-04-04T14:18:28.724Z</time></trkpt><trkpt lat="43.1261971" lon="10.610905"><ele>383.0</ele><time>2026-04-04T14:18:32.726Z</time></trkpt><trkpt lat="43.1262352" lon="10.6109858"><ele>383.0</ele><time>2026-04-04T14:18:34.728Z</time></trkpt><trkpt lat="43.1262726" lon="10.611072"><ele>383.0</ele><time>2026-04-04T14:18:37.732Z</time></trkpt><trkpt lat="43.1262962" lon="10.6111864"><ele>383.0</ele><time>2026-04-04T14:18:40.727Z</time></trkpt><trkpt lat="43.1263265" lon="10.6112912"><ele>383.0</ele><time>2026-04-04T14:18:44.733Z</time></trkpt><trkpt lat="43.1263714" lon="10.6113831"><ele>383.0</ele><time>2026-04-04T14:18:47.731Z</time></trkpt><trkpt lat="43.1264069" lon="10.6114946"><ele>383.0</ele><time>2026-04-04T14:18:51.725Z</time></trkpt><trkpt lat="43.1264475" lon="10.6116041"><ele>383.1666666666667</ele><time>2026-04-04T14:18:58.726Z</time></trkpt><trkpt lat="43.1264988" lon="10.611673"><ele>383.33333333333337</ele><time>2026-04-04T14:19:01.725Z</time></trkpt><trkpt lat="43.1265355" lon="10.6117763"><ele>383.5</ele><time>2026-04-04T14:19:03.732Z</time></trkpt><trkpt lat="43.1265748" lon="10.6119018"><ele>383.6666666666667</ele><time>2026-04-04T14:19:05.732Z</time></trkpt><trkpt lat="43.1265895" lon="10.6120274"><ele>383.8333333333333</ele><time>2026-04-04T14:19:07.733Z</time></trkpt><trkpt lat="43.1266096" lon="10.6121564"><ele>384.0</ele><time>2026-04-04T14:19:09.732Z</time></trkpt><trkpt lat="43.126615" lon="10.612269"><ele>385.3333333333333</ele><time>2026-04-04T14:19:11.721Z</time></trkpt><trkpt lat="43.1266236" lon="10.6123747"><ele>386.66666666666663</ele><time>2026-04-04T14:19:13.73Z</time></trkpt><trkpt lat="43.1266042" lon="10.6124956"><ele>388.0</ele><time>2026-04-04T14:19:15.725Z</time></trkpt><trkpt lat="43.1265962" lon="10.6125953"><ele>389.3333333333333</ele><time>2026-04-04T14:19:17.72Z</time></trkpt><trkpt lat="43.1265687" lon="10.6126742"><ele>390.66666666666663</ele><time>2026-04-04T14:19:19.722Z</time></trkpt><trkpt lat="43.1265466" lon="10.6127655"><ele>392.0</ele><time>2026-04-04T14:19:21.72Z</time></trkpt><trkpt lat="43.1265469" lon="10.612869"><ele>395.0</ele><time>2026-04-04T14:19:26.721Z</time></trkpt><trkpt lat="43.1265381" lon="10.6129677"><ele>398.0</ele><time>2026-04-04T14:19:30.723Z</time></trkpt><trkpt lat="43.1265149" lon="10.6130514"><ele>401.0</ele><time>2026-04-04T14:19:34.722Z</time></trkpt><trkpt lat="43.1264771" lon="10.6131304"><ele>404.0</ele><time>2026-04-04T14:19:37.717Z</time></trkpt><trkpt lat="43.1264219" lon="10.6132103"><ele>407.0</ele><time>2026-04-04T14:19:40.721Z</time></trkpt><trkpt lat="43.1264071" lon="10.6133052"><ele>410.0</ele><time>2026-04-04T14:19:44.717Z</time></trkpt><trkpt lat="43.1264202" lon="10.6134065"><ele>413.0</ele><time>2026-04-04T14:19:51.708Z</time></trkpt><trkpt lat="43.126396" lon="10.6135141"><ele>412.99999999999994</ele><time>2026-04-04T14:19:55.726Z</time></trkpt><trkpt lat="43.1263498" lon="10.6135774"><ele>413.0</ele><time>2026-04-04T14:19:59.72Z</time></trkpt><trkpt lat="43.1263358" lon="10.6136626"><ele>413.0</ele><time>2026-04-04T14:20:01.707Z</time></trkpt><trkpt lat="43.126302" lon="10.6137393"><ele>413.0</ele><time>2026-04-04T14:20:04.714Z</time></trkpt><trkpt lat="43.1262296" lon="10.6138275"><ele>412.99999999999994</ele><time>2026-04-04T14:20:07.72Z</time></trkpt><trkpt lat="43.126183" lon="10.6138991"><ele>413.0</ele><time>2026-04-04T14:20:16.71Z</time></trkpt><trkpt lat="43.1262079" lon="10.6140485"><ele>413.99999999999994</ele><time>2026-04-04T14:20:21.718Z</time></trkpt><trkpt lat="43.1262331" lon="10.6141519"><ele>415.0</ele><time>2026-04-04T14:20:24.709Z</time></trkpt><trkpt lat="43.1263147" lon="10.6142468"><ele>416.0</ele><time>2026-04-04T14:20:27.718Z</time></trkpt><trkpt lat="43.126354" lon="10.6143486"><ele>417.0</ele><time>2026-04-04T14:20:30.725Z</time></trkpt><trkpt lat="43.126405" lon="10.6144486"><ele>417.99999999999994</ele><time>2026-04-04T14:20:33.718Z</time></trkpt><trkpt lat="43.1264238" lon="10.6145416"><ele>419.0</ele><time>2026-04-04T14:20:35.717Z</time></trkpt><trkpt lat="43.1264332" lon="10.6146358"><ele>420.8333333333333</ele><time>2026-04-04T14:20:38.725Z</time></trkpt><trkpt lat="43.1264383" lon="10.6147428"><ele>422.66666666666663</ele><time>2026-04-04T14:20:41.721Z</time></trkpt><trkpt lat="43.1264246" lon="10.6148469"><ele>424.5</ele><time>2026-04-04T14:20:44.721Z</time></trkpt><trkpt lat="43.1264176" lon="10.6149332"><ele>426.33333333333337</ele><time>2026-04-04T14:20:48.725Z</time></trkpt><trkpt lat="43.1263692" lon="10.6150068"><ele>428.1666666666667</ele><time>2026-04-04T14:20:51.724Z</time></trkpt><trkpt lat="43.1263337" lon="10.615102"><ele>430.0</ele><time>2026-04-04T14:20:54.727Z</time></trkpt><trkpt lat="43.1262898" lon="10.615195"><ele>430.00000000000006</ele><time>2026-04-04T14:20:59.714Z</time></trkpt><trkpt lat="43.1262398" lon="10.615297"><ele>430.0</ele><time>2026-04-04T14:21:02.714Z</time></trkpt><trkpt lat="43.1262107" lon="10.6153927"><ele>430.0</ele><time>2026-04-04T14:21:05.721Z</time></trkpt><trkpt lat="43.1261888" lon="10.6154768"><ele>430.0</ele><time>2026-04-04T14:21:07.714Z</time></trkpt><trkpt lat="43.1261282" lon="10.6155187"><ele>430.00000000000006</ele><time>2026-04-04T14:21:11.727Z</time></trkpt><trkpt lat="43.1261666" lon="10.615605"><ele>430.0</ele><time>2026-04-04T14:21:16.717Z</time></trkpt><trkpt lat="43.1262288" lon="10.6156682"><ele>431.50000000000006</ele><time>2026-04-04T14:21:19.712Z</time></trkpt><trkpt lat="43.1262355" lon="10.6157676"><ele>433.0</ele><time>2026-04-04T14:21:22.714Z</time></trkpt><trkpt lat="43.1262232" lon="10.6158661"><ele>434.5</ele><time>2026-04-04T14:21:26.707Z</time></trkpt><trkpt lat="43.1262989" lon="10.6159039"><ele>436.0</ele><time>2026-04-04T14:21:32.712Z</time></trkpt><trkpt lat="43.1263149" lon="10.616071"><ele>437.50000000000006</ele><time>2026-04-04T14:21:36.716Z</time></trkpt><trkpt lat="43.1263326" lon="10.6161882"><ele>439.0</ele><time>2026-04-04T14:21:38.721Z</time></trkpt><trkpt lat="43.1263724" lon="10.616299"><ele>439.83333333333337</ele><time>2026-04-04T14:21:41.724Z</time></trkpt><trkpt lat="43.1263734" lon="10.616409"><ele>440.6666666666667</ele><time>2026-04-04T14:22:17.733Z</time></trkpt><trkpt lat="43.1263677" lon="10.6165222"><ele>441.5</ele><time>2026-04-04T14:22:20.743Z</time></trkpt><trkpt lat="43.1263501" lon="10.616657"><ele>442.33333333333337</ele><time>2026-04-04T14:22:22.729Z</time></trkpt><trkpt lat="43.1263442" lon="10.616747"><ele>443.1666666666667</ele><time>2026-04-04T14:22:23.728Z</time></trkpt><trkpt lat="43.1263415" lon="10.6168441"><ele>444.0</ele><time>2026-04-04T14:22:24.725Z</time></trkpt><trkpt lat="43.1263363" lon="10.6169415"><ele>444.3333333333333</ele><time>2026-04-04T14:22:25.728Z</time></trkpt><trkpt lat="43.1263321" lon="10.6170464"><ele>444.66666666666663</ele><time>2026-04-04T14:22:26.732Z</time></trkpt><trkpt lat="43.1263131" lon="10.617154"><ele>445.0</ele><time>2026-04-04T14:22:27.726Z</time></trkpt><trkpt lat="43.1263154" lon="10.6172431"><ele>445.3333333333333</ele><time>2026-04-04T14:22:28.719Z</time></trkpt><trkpt lat="43.1263005" lon="10.617339"><ele>445.66666666666663</ele><time>2026-04-04T14:22:29.72Z</time></trkpt><trkpt lat="43.1262713" lon="10.6174372"><ele>446.0</ele><time>2026-04-04T14:22:30.723Z</time></trkpt><trkpt lat="43.1262424" lon="10.6175373"><ele>445.99999999999994</ele><time>2026-04-04T14:22:31.725Z</time></trkpt><trkpt lat="43.1262013" lon="10.617641"><ele>446.0</ele><time>2026-04-04T14:22:32.718Z</time></trkpt><trkpt lat="43.1261837" lon="10.6177286"><ele>446.0</ele><time>2026-04-04T14:22:33.727Z</time></trkpt><trkpt lat="43.1261611" lon="10.6178705"><ele>446.0</ele><time>2026-04-04T14:22:35.716Z</time></trkpt><trkpt lat="43.12612" lon="10.6179497"><ele>445.99999999999994</ele><time>2026-04-04T14:22:37.719Z</time></trkpt><trkpt lat="43.1260676" lon="10.6180087"><ele>446.0</ele><time>2026-04-04T14:22:39.719Z</time></trkpt><trkpt lat="43.1260448" lon="10.6181034"><ele>446.0</ele><time>2026-04-04T14:22:45.719Z</time></trkpt><trkpt lat="43.1260506" lon="10.6182059"><ele>446.0</ele><time>2026-04-04T14:22:51.72Z</time></trkpt><trkpt lat="43.126066" lon="10.6183253"><ele>446.0</ele><time>2026-04-04T14:22:54.716Z</time></trkpt><trkpt lat="43.1260452" lon="10.6184082"><ele>446.0</ele><time>2026-04-04T14:22:56.72Z</time></trkpt><trkpt lat="43.126032" lon="10.6184985"><ele>446.0</ele><time>2026-04-04T14:22:58.72Z</time></trkpt><trkpt lat="43.1260445" lon="10.6185941"><ele>446.0</ele><time>2026-04-04T14:23:02.722Z</time></trkpt><trkpt lat="43.1260618" lon="10.6186912"><ele>446.0</ele><time>2026-04-04T14:23:06.727Z</time></trkpt><trkpt lat="43.1260614" lon="10.6187984"><ele>446.0</ele><time>2026-04-04T14:23:10.724Z</time></trkpt><trkpt lat="43.1260466" lon="10.6188955"><ele>446.0</ele><time>2026-04-04T14:23:13.73Z</time></trkpt><trkpt lat="43.1260189" lon="10.6189886"><ele>446.0</ele><time>2026-04-04T14:23:16.727Z</time></trkpt><trkpt lat="43.1259879" lon="10.6190702"><ele>446.0</ele><time>2026-04-04T14:23:19.716Z</time></trkpt><trkpt lat="43.1259221" lon="10.6191046"><ele>446.0</ele><time>2026-04-04T14:23:21.702Z</time></trkpt><trkpt lat="43.1258547" lon="10.6191506"><ele>446.0</ele><time>2026-04-04T14:23:24.698Z</time></trkpt><trkpt lat="43.1257924" lon="10.6191896"><ele>446.0</ele><time>2026-04-04T14:23:26.702Z</time></trkpt><trkpt lat="43.1257434" lon="10.6192555"><ele>445.99999999999994</ele><time>2026-04-04T14:23:28.706Z</time></trkpt><trkpt lat="43.1257819" lon="10.6193304"><ele>446.0</ele><time>2026-04-04T14:23:36.707Z</time></trkpt><trkpt lat="43.1258485" lon="10.6194322"><ele>446.0</ele><time>2026-04-04T14:23:39.704Z</time></trkpt><trkpt lat="43.1258886" lon="10.6195193"><ele>446.0</ele><time>2026-04-04T14:23:41.708Z</time></trkpt><trkpt lat="43.1259168" lon="10.6196031"><ele>445.99999999999994</ele><time>2026-04-04T14:23:43.695Z</time></trkpt><trkpt lat="43.1259865" lon="10.619649"><ele>446.0</ele><time>2026-04-04T14:23:50.711Z</time></trkpt><trkpt lat="43.1260097" lon="10.6197624"><ele>447.2857142857143</ele><time>2026-04-04T14:23:55.72Z</time></trkpt><trkpt lat="43.126046" lon="10.6198588"><ele>448.57142857142856</ele><time>2026-04-04T14:23:57.722Z</time></trkpt><trkpt lat="43.1260597" lon="10.6199633"><ele>449.8571428571429</ele><time>2026-04-04T14:24:03.713Z</time></trkpt><trkpt lat="43.1260624" lon="10.6200723"><ele>451.1428571428571</ele><time>2026-04-04T14:24:05.698Z</time></trkpt><trkpt lat="43.1260149" lon="10.6201339"><ele>452.42857142857144</ele><time>2026-04-04T14:24:11.718Z</time></trkpt><trkpt lat="43.1260031" lon="10.6202279"><ele>453.7142857142857</ele><time>2026-04-04T14:24:14.722Z</time></trkpt><trkpt lat="43.1259978" lon="10.6203342"><ele>455.0</ele><time>2026-04-04T14:24:21.725Z</time></trkpt><trkpt lat="43.1260182" lon="10.6204164"><ele>456.8571428571429</ele><time>2026-04-04T14:24:31.719Z</time></trkpt><trkpt lat="43.1259781" lon="10.6205073"><ele>458.7142857142857</ele><time>2026-04-04T14:24:35.722Z</time></trkpt><trkpt lat="43.1259422" lon="10.6205857"><ele>460.57142857142856</ele><time>2026-04-04T14:24:39.708Z</time></trkpt><trkpt lat="43.1259412" lon="10.6206842"><ele>462.42857142857144</ele><time>2026-04-04T14:24:42.715Z</time></trkpt><trkpt lat="43.1259763" lon="10.6207639"><ele>464.28571428571433</ele><time>2026-04-04T14:24:48.719Z</time></trkpt><trkpt lat="43.12596" lon="10.6208643"><ele>466.14285714285717</ele><time>2026-04-04T14:24:54.732Z</time></trkpt><trkpt lat="43.1259728" lon="10.6209605"><ele>468.0</ele><time>2026-04-04T14:24:57.731Z</time></trkpt><trkpt lat="43.1259965" lon="10.6210491"><ele>468.0</ele><time>2026-04-04T14:25:00.741Z</time></trkpt><trkpt lat="43.1260263" lon="10.6211484"><ele>468.0</ele><time>2026-04-04T14:25:02.714Z</time></trkpt><trkpt lat="43.1260681" lon="10.6212384"><ele>468.0</ele><time>2026-04-04T14:25:04.714Z</time></trkpt><trkpt lat="43.1260651" lon="10.6213377"><ele>468.0</ele><time>2026-04-04T14:25:09.718Z</time></trkpt><trkpt lat="43.1260381" lon="10.6214383"><ele>468.0</ele><time>2026-04-04T14:25:14.699Z</time></trkpt><trkpt lat="43.1260056" lon="10.6215366"><ele>468.0</ele><time>2026-04-04T14:25:16.707Z</time></trkpt><trkpt lat="43.1259984" lon="10.6216543"><ele>469.5714285714286</ele><time>2026-04-04T14:25:21.723Z</time></trkpt><trkpt lat="43.1260137" lon="10.6217582"><ele>471.1428571428572</ele><time>2026-04-04T14:25:27.716Z</time></trkpt><trkpt lat="43.1259745" lon="10.6218372"><ele>472.7142857142857</ele><time>2026-04-04T14:25:30.701Z</time></trkpt><trkpt lat="43.1259331" lon="10.6219038"><ele>474.28571428571433</ele><time>2026-04-04T14:25:34.735Z</time></trkpt><trkpt lat="43.1259396" lon="10.6220248"><ele>475.8571428571429</ele><time>2026-04-04T14:25:58.733Z</time></trkpt><trkpt lat="43.1258906" lon="10.6220993"><ele>477.42857142857144</ele><time>2026-04-04T14:26:07.733Z</time></trkpt><trkpt lat="43.1259147" lon="10.622183"><ele>479.0</ele><time>2026-04-04T14:26:17.737Z</time></trkpt><trkpt lat="43.1259172" lon="10.6222747"><ele>480.2857142857143</ele><time>2026-04-04T14:26:24.724Z</time></trkpt><trkpt lat="43.1259006" lon="10.6223924"><ele>481.57142857142856</ele><time>2026-04-04T14:26:59.741Z</time></trkpt><trkpt lat="43.1259169" lon="10.6224941"><ele>482.85714285714283</ele><time>2026-04-04T14:27:03.731Z</time></trkpt><trkpt lat="43.1259208" lon="10.6225866"><ele>484.1428571428571</ele><time>2026-04-04T14:27:06.733Z</time></trkpt><trkpt lat="43.1259028" lon="10.622681"><ele>485.42857142857144</ele><time>2026-04-04T14:27:08.726Z</time></trkpt><trkpt lat="43.1258741" lon="10.6227809"><ele>486.71428571428567</ele><time>2026-04-04T14:27:11.757Z</time></trkpt><trkpt lat="43.1258676" lon="10.6228695"><ele>487.99999999999994</ele><time>2026-04-04T14:27:15.745Z</time></trkpt><trkpt lat="43.1258514" lon="10.6229727"><ele>488.71428571428567</ele><time>2026-04-04T14:27:18.735Z</time></trkpt><trkpt lat="43.1258194" lon="10.6230476"><ele>489.42857142857144</ele><time>2026-04-04T14:27:21.751Z</time></trkpt><trkpt lat="43.1257724" lon="10.6231361"><ele>490.1428571428571</ele><time>2026-04-04T14:27:31.723Z</time></trkpt><trkpt lat="43.1257827" lon="10.6232251"><ele>490.85714285714283</ele><time>2026-04-04T14:27:34.726Z</time></trkpt><trkpt lat="43.1257706" lon="10.6233398"><ele>491.57142857142856</ele><time>2026-04-04T14:27:37.728Z</time></trkpt><trkpt lat="43.125766" lon="10.6234345"><ele>492.2857142857143</ele><time>2026-04-04T14:27:40.728Z</time></trkpt><trkpt lat="43.1257834" lon="10.6235202"><ele>493.0</ele><time>2026-04-04T14:27:44.733Z</time></trkpt><trkpt lat="43.1257884" lon="10.6236122"><ele>492.71428571428567</ele><time>2026-04-04T14:27:51.742Z</time></trkpt><trkpt lat="43.1257901" lon="10.623708"><ele>492.42857142857144</ele><time>2026-04-04T14:27:55.731Z</time></trkpt><trkpt lat="43.1257821" lon="10.6238254"><ele>492.1428571428571</ele><time>2026-04-04T14:27:57.739Z</time></trkpt><trkpt lat="43.1257781" lon="10.6239199"><ele>491.85714285714283</ele><time>2026-04-04T14:27:59.735Z</time></trkpt><trkpt lat="43.1257368" lon="10.6239956"><ele>491.57142857142856</ele><time>2026-04-04T14:28:02.733Z</time></trkpt><trkpt lat="43.125724" lon="10.6241068"><ele>491.2857142857143</ele><time>2026-04-04T14:28:07.72Z</time></trkpt><trkpt lat="43.1257193" lon="10.6242056"><ele>491.0</ele><time>2026-04-04T14:28:12.722Z</time></trkpt><trkpt lat="43.1257456" lon="10.6242867"><ele>490.99999999999994</ele><time>2026-04-04T14:28:14.744Z</time></trkpt><trkpt lat="43.1257549" lon="10.6243775"><ele>491.0</ele><time>2026-04-04T14:28:18.738Z</time></trkpt><trkpt lat="43.125745" lon="10.6245036"><ele>491.0</ele><time>2026-04-04T14:28:21.718Z</time></trkpt><trkpt lat="43.1257152" lon="10.6246174"><ele>491.0</ele><time>2026-04-04T14:28:24.72Z</time></trkpt><trkpt lat="43.1256647" lon="10.6246994"><ele>490.99999999999994</ele><time>2026-04-04T14:28:27.721Z</time></trkpt><trkpt lat="43.1256474" lon="10.624784"><ele>491.0</ele><time>2026-04-04T14:28:31.702Z</time></trkpt><trkpt lat="43.12559" lon="10.6248842"><ele>491.99999999999994</ele><time>2026-04-04T14:28:33.706Z</time></trkpt><trkpt lat="43.1255406" lon="10.6249402"><ele>493.0</ele><time>2026-04-04T14:28:34.695Z</time></trkpt><trkpt lat="43.1255148" lon="10.625054"><ele>494.0</ele><time>2026-04-04T14:28:37.712Z</time></trkpt><trkpt lat="43.1254717" lon="10.6251502"><ele>495.0</ele><time>2026-04-04T14:28:39.716Z</time></trkpt><trkpt lat="43.1254394" lon="10.6252746"><ele>495.99999999999994</ele><time>2026-04-04T14:28:48.723Z</time></trkpt><trkpt lat="43.1254211" lon="10.6253967"><ele>497.0</ele><time>2026-04-04T14:28:50.716Z</time></trkpt><trkpt lat="43.1253651" lon="10.6254726"><ele>496.99999999999994</ele><time>2026-04-04T14:28:53.738Z</time></trkpt><trkpt lat="43.1253498" lon="10.625586"><ele>497.0</ele><time>2026-04-04T14:28:57.747Z</time></trkpt><trkpt lat="43.1253882" lon="10.6256919"><ele>497.0</ele><time>2026-04-04T14:29:00.742Z</time></trkpt><trkpt lat="43.1254364" lon="10.6257949"><ele>497.0</ele><time>2026-04-04T14:29:03.736Z</time></trkpt><trkpt lat="43.1254378" lon="10.6258853"><ele>496.99999999999994</ele><time>2026-04-04T14:29:07.725Z</time></trkpt><trkpt lat="43.1254405" lon="10.6259941"><ele>497.0</ele><time>2026-04-04T14:29:09.719Z</time></trkpt><trkpt lat="43.125452" lon="10.6261194"><ele>497.66666666666663</ele><time>2026-04-04T14:29:11.724Z</time></trkpt><trkpt lat="43.1255028" lon="10.6262249"><ele>498.3333333333333</ele><time>2026-04-04T14:29:13.725Z</time></trkpt><trkpt lat="43.1255176" lon="10.6263312"><ele>499.0</ele><time>2026-04-04T14:29:15.727Z</time></trkpt><trkpt lat="43.1255559" lon="10.6264235"><ele>499.66666666666663</ele><time>2026-04-04T14:29:17.729Z</time></trkpt><trkpt lat="43.1256205" lon="10.6264989"><ele>500.3333333333333</ele><time>2026-04-04T14:29:22.726Z</time></trkpt><trkpt lat="43.1256732" lon="10.6265509"><ele>501.0</ele><time>2026-04-04T14:29:24.726Z</time></trkpt><trkpt lat="43.1257339" lon="10.626649"><ele>502.14285714285717</ele><time>2026-04-04T14:29:27.735Z</time></trkpt><trkpt lat="43.1257786" lon="10.6267273"><ele>503.2857142857142</ele><time>2026-04-04T14:29:29.727Z</time></trkpt><trkpt lat="43.1258168" lon="10.6268144"><ele>504.4285714285714</ele><time>2026-04-04T14:29:31.732Z</time></trkpt><trkpt lat="43.1258588" lon="10.6268935"><ele>505.57142857142856</ele><time>2026-04-04T14:29:34.717Z</time></trkpt><trkpt lat="43.1258879" lon="10.6269706"><ele>506.71428571428567</ele><time>2026-04-04T14:29:37.721Z</time></trkpt><trkpt lat="43.125935" lon="10.6270487"><ele>507.8571428571428</ele><time>2026-04-04T14:29:40.721Z</time></trkpt><trkpt lat="43.1259607" lon="10.6271361"><ele>508.99999999999994</ele><time>2026-04-04T14:29:44.72Z</time></trkpt><trkpt lat="43.1259872" lon="10.627217"><ele>510.3333333333333</ele><time>2026-04-04T14:29:47.727Z</time></trkpt><trkpt lat="43.1260278" lon="10.6272897"><ele>511.66666666666663</ele><time>2026-04-04T14:29:50.71Z</time></trkpt><trkpt lat="43.1260823" lon="10.6273832"><ele>513.0</ele><time>2026-04-04T14:29:53.724Z</time></trkpt><trkpt lat="43.1261418" lon="10.6274722"><ele>514.3333333333334</ele><time>2026-04-04T14:29:57.709Z</time></trkpt><trkpt lat="43.126188" lon="10.62756"><ele>515.6666666666667</ele><time>2026-04-04T14:29:59.722Z</time></trkpt><trkpt lat="43.1262335" lon="10.6276508"><ele>517.0</ele><time>2026-04-04T14:30:01.715Z</time></trkpt><trkpt lat="43.1262784" lon="10.6277455"><ele>517.0</ele><time>2026-04-04T14:30:04.712Z</time></trkpt><trkpt lat="43.126341" lon="10.6278051"><ele>517.0</ele><time>2026-04-04T14:30:08.712Z</time></trkpt><trkpt lat="43.1264117" lon="10.6278991"><ele>517.0</ele><time>2026-04-04T14:30:13.702Z</time></trkpt><trkpt lat="43.126458" lon="10.627961"><ele>517.0</ele><time>2026-04-04T14:30:21.718Z</time></trkpt><trkpt lat="43.1264917" lon="10.6280466"><ele>517.0</ele><time>2026-04-04T14:30:24.721Z</time></trkpt><trkpt lat="43.1265324" lon="10.6281132"><ele>517.0</ele><time>2026-04-04T14:30:27.725Z</time></trkpt><trkpt lat="43.1265783" lon="10.6282013"><ele>518.0</ele><time>2026-04-04T14:30:31.73Z</time></trkpt><trkpt lat="43.126606" lon="10.628287"><ele>519.0</ele><time>2026-04-04T14:30:34.731Z</time></trkpt><trkpt lat="43.1266352" lon="10.6283778"><ele>520.0</ele><time>2026-04-04T14:30:37.732Z</time></trkpt><trkpt lat="43.1266591" lon="10.6284824"><ele>521.0</ele><time>2026-04-04T14:30:40.727Z</time></trkpt><trkpt lat="43.1266715" lon="10.6286089"><ele>522.0</ele><time>2026-04-04T14:30:43.719Z</time></trkpt><trkpt lat="43.1266882" lon="10.628745"><ele>523.0</ele><time>2026-04-04T14:30:47.722Z</time></trkpt><trkpt lat="43.1267323" lon="10.6288564"><ele>523.3333333333334</ele><time>2026-04-04T14:30:49.757Z</time></trkpt><trkpt lat="43.1267655" lon="10.6289322"><ele>523.6666666666667</ele><time>2026-04-04T14:30:51.732Z</time></trkpt><trkpt lat="43.1267737" lon="10.6290241"><ele>524.0</ele><time>2026-04-04T14:30:54.735Z</time></trkpt><trkpt lat="43.1267218" lon="10.6290802"><ele>524.3333333333334</ele><time>2026-04-04T14:31:10.709Z</time></trkpt><trkpt lat="43.1268058" lon="10.6291735"><ele>524.6666666666666</ele><time>2026-04-04T14:31:13.71Z</time></trkpt><trkpt lat="43.1268868" lon="10.629175"><ele>525.0</ele><time>2026-04-04T14:31:15.704Z</time></trkpt><trkpt lat="43.1269917" lon="10.6291761"><ele>525.0</ele><time>2026-04-04T14:31:17.712Z</time></trkpt><trkpt lat="43.1271013" lon="10.6291671"><ele>525.0</ele><time>2026-04-04T14:31:19.741Z</time></trkpt><trkpt lat="43.1271968" lon="10.6291153"><ele>525.0</ele><time>2026-04-04T14:31:21.722Z</time></trkpt><trkpt lat="43.1272729" lon="10.6290547"><ele>525.0</ele><time>2026-04-04T14:31:23.748Z</time></trkpt><trkpt lat="43.1273863" lon="10.6290338"><ele>525.0</ele><time>2026-04-04T14:31:26.719Z</time></trkpt><trkpt lat="43.1274985" lon="10.6290016"><ele>525.1666666666666</ele><time>2026-04-04T14:31:28.694Z</time></trkpt><trkpt lat="43.1275576" lon="10.6289651"><ele>525.3333333333334</ele><time>2026-04-04T14:31:29.691Z</time></trkpt><trkpt lat="43.1276157" lon="10.6289292"><ele>525.5</ele><time>2026-04-04T14:31:30.678Z</time></trkpt><trkpt lat="43.127682" lon="10.6289034"><ele>525.6666666666667</ele><time>2026-04-04T14:31:31.671Z</time></trkpt><trkpt lat="43.1277863" lon="10.6289933"><ele>525.8333333333334</ele><time>2026-04-04T14:31:33.666Z</time></trkpt><trkpt lat="43.1277718" lon="10.6291174"><ele>526.0</ele><time>2026-04-04T14:31:35.687Z</time></trkpt><trkpt lat="43.1277987" lon="10.6291997"><ele>526.0</ele><time>2026-04-04T14:31:37.705Z</time></trkpt><trkpt lat="43.1278732" lon="10.6291696"><ele>526.0</ele><time>2026-04-04T14:31:43.709Z</time></trkpt><trkpt lat="43.1278955" lon="10.6290449"><ele>526.0</ele><time>2026-04-04T14:31:45.694Z</time></trkpt><trkpt lat="43.1279346" lon="10.6289772"><ele>526.0</ele><time>2026-04-04T14:31:47.696Z</time></trkpt><trkpt lat="43.1279955" lon="10.6290197"><ele>526.0</ele><time>2026-04-04T14:31:54.724Z</time></trkpt><trkpt lat="43.1280515" lon="10.6289774"><ele>526.0</ele><time>2026-04-04T14:31:56.716Z</time></trkpt><trkpt lat="43.1281139" lon="10.6288908"><ele>526.0</ele><time>2026-04-04T14:31:59.725Z</time></trkpt><trkpt lat="43.1280969" lon="10.6287649"><ele>526.0</ele><time>2026-04-04T14:32:02.73Z</time></trkpt><trkpt lat="43.1280618" lon="10.6286916"><ele>526.0</ele><time>2026-04-04T14:32:05.724Z</time></trkpt><trkpt lat="43.1279953" lon="10.6286471"><ele>526.0</ele><time>2026-04-04T14:32:12.694Z</time></trkpt><trkpt lat="43.1279811" lon="10.6285545"><ele>526.0</ele><time>2026-04-04T14:32:17.72Z</time></trkpt><trkpt lat="43.1280094" lon="10.6284635"><ele>526.0</ele><time>2026-04-04T14:32:22.721Z</time></trkpt><trkpt lat="43.1280244" lon="10.6283053"><ele>525.2</ele><time>2026-04-04T14:32:41.711Z</time></trkpt><trkpt lat="43.1281057" lon="10.6282162"><ele>524.4000000000001</ele><time>2026-04-04T14:32:44.691Z</time></trkpt><trkpt lat="43.1280998" lon="10.6284002"><ele>523.6</ele><time>2026-04-04T14:32:46.71Z</time></trkpt><trkpt lat="43.1281418" lon="10.6283192"><ele>522.8000000000001</ele><time>2026-04-04T14:32:50.739Z</time></trkpt><trkpt lat="43.1282273" lon="10.6284163"><ele>522.0</ele><time>2026-04-04T14:36:55.727Z</time></trkpt><trkpt lat="43.1282983" lon="10.6284774"><ele>521.8333333333334</ele><time>2026-04-04T14:36:56.736Z</time></trkpt><trkpt lat="43.1283748" lon="10.6285521"><ele>521.6666666666666</ele><time>2026-04-04T14:36:57.724Z</time></trkpt><trkpt lat="43.1284389" lon="10.628618"><ele>521.5</ele><time>2026-04-04T14:36:58.72Z</time></trkpt><trkpt lat="43.1285009" lon="10.6286599"><ele>521.3333333333333</ele><time>2026-04-04T14:37:01.727Z</time></trkpt><trkpt lat="43.128535" lon="10.6287365"><ele>521.1666666666666</ele><time>2026-04-04T14:37:10.736Z</time></trkpt><trkpt lat="43.1286205" lon="10.6287897"><ele>521.0</ele><time>2026-04-04T14:37:13.742Z</time></trkpt><trkpt lat="43.128686" lon="10.6288255"><ele>521.0</ele><time>2026-04-04T14:37:15.728Z</time></trkpt><trkpt lat="43.1287631" lon="10.6288676"><ele>521.0</ele><time>2026-04-04T14:37:18.731Z</time></trkpt><trkpt lat="43.1288408" lon="10.6288814"><ele>521.0</ele><time>2026-04-04T14:37:20.726Z</time></trkpt><trkpt lat="43.1289494" lon="10.6288965"><ele>521.0</ele><time>2026-04-04T14:37:22.74Z</time></trkpt><trkpt lat="43.1290357" lon="10.6288769"><ele>521.0</ele><time>2026-04-04T14:37:24.744Z</time></trkpt><trkpt lat="43.1290888" lon="10.6289818"><ele>517.5</ele><time>2026-04-04T14:37:30.727Z</time></trkpt><trkpt lat="43.1291411" lon="10.6290693"><ele>514.0</ele><time>2026-04-04T14:37:33.721Z</time></trkpt><trkpt lat="43.1292233" lon="10.629078"><ele>510.5</ele><time>2026-04-04T14:37:35.723Z</time></trkpt><trkpt lat="43.1293056" lon="10.6290554"><ele>507.0</ele><time>2026-04-04T14:37:37.737Z</time></trkpt><trkpt lat="43.1293724" lon="10.6290198"><ele>503.49999999999994</ele><time>2026-04-04T14:37:41.74Z</time></trkpt><trkpt lat="43.1294437" lon="10.6289649"><ele>500.0</ele><time>2026-04-04T14:37:44.735Z</time></trkpt><trkpt lat="43.1294844" lon="10.6288776"><ele>500.0</ele><time>2026-04-04T14:37:47.732Z</time></trkpt><trkpt lat="43.1295403" lon="10.6288324"><ele>500.0</ele><time>2026-04-04T14:37:50.732Z</time></trkpt><trkpt lat="43.1296083" lon="10.628875"><ele>500.0</ele><time>2026-04-04T14:37:54.734Z</time></trkpt><trkpt lat="43.1296698" lon="10.6289129"><ele>500.0</ele><time>2026-04-04T14:37:57.757Z</time></trkpt><trkpt lat="43.1297204" lon="10.6288263"><ele>500.0</ele><time>2026-04-04T14:38:02.752Z</time></trkpt><trkpt lat="43.1297101" lon="10.62874"><ele>500.0</ele><time>2026-04-04T14:38:04.744Z</time></trkpt><trkpt lat="43.1296697" lon="10.6286441"><ele>500.0</ele><time>2026-04-04T14:38:07.739Z</time></trkpt><trkpt lat="43.1296584" lon="10.6285392"><ele>499.16666666666663</ele><time>2026-04-04T14:38:13.74Z</time></trkpt><trkpt lat="43.1297849" lon="10.6284689"><ele>498.3333333333333</ele><time>2026-04-04T14:39:50.738Z</time></trkpt><trkpt lat="43.1298632" lon="10.6284339"><ele>497.5</ele><time>2026-04-04T14:39:53.732Z</time></trkpt><trkpt lat="43.1299349" lon="10.6284679"><ele>496.66666666666663</ele><time>2026-04-04T14:39:56.736Z</time></trkpt><trkpt lat="43.130007" lon="10.6284958"><ele>495.8333333333333</ele><time>2026-04-04T14:40:00.733Z</time></trkpt><trkpt lat="43.1300624" lon="10.6285737"><ele>495.0</ele><time>2026-04-04T14:40:03.731Z</time></trkpt><trkpt lat="43.1301121" lon="10.6286771"><ele>492.3333333333333</ele><time>2026-04-04T14:40:06.751Z</time></trkpt><trkpt lat="43.1301556" lon="10.62875"><ele>489.66666666666663</ele><time>2026-04-04T14:40:09.724Z</time></trkpt><trkpt lat="43.1302195" lon="10.6287622"><ele>487.0</ele><time>2026-04-04T14:40:13.728Z</time></trkpt><trkpt lat="43.1302128" lon="10.6286661"><ele>484.3333333333333</ele><time>2026-04-04T14:40:15.726Z</time></trkpt><trkpt lat="43.1301879" lon="10.6285606"><ele>481.66666666666663</ele><time>2026-04-04T14:40:18.744Z</time></trkpt><trkpt lat="43.1301627" lon="10.6284138"><ele>479.0</ele><time>2026-04-04T14:40:21.718Z</time></trkpt><trkpt lat="43.1301258" lon="10.6282852"><ele>475.0</ele><time>2026-04-04T14:40:23.713Z</time></trkpt><trkpt lat="43.1300642" lon="10.6281696"><ele>471.0</ele><time>2026-04-04T14:40:25.722Z</time></trkpt><trkpt lat="43.1300431" lon="10.6280531"><ele>467.0</ele><time>2026-04-04T14:40:28.728Z</time></trkpt><trkpt lat="43.1300305" lon="10.6279349"><ele>463.0</ele><time>2026-04-04T14:40:30.729Z</time></trkpt><trkpt lat="43.1300001" lon="10.627789"><ele>459.0</ele><time>2026-04-04T14:40:32.728Z</time></trkpt><trkpt lat="43.1299653" lon="10.6276724"><ele>455.79999999999995</ele><time>2026-04-04T14:40:34.726Z</time></trkpt><trkpt lat="43.1299446" lon="10.6275614"><ele>452.59999999999997</ele><time>2026-04-04T14:40:36.731Z</time></trkpt><trkpt lat="43.1299461" lon="10.6274469"><ele>449.4</ele><time>2026-04-04T14:40:38.722Z</time></trkpt><trkpt lat="43.129941" lon="10.6273271"><ele>446.2</ele><time>2026-04-04T14:40:40.72Z</time></trkpt><trkpt lat="43.1299089" lon="10.6271866"><ele>443.0</ele><time>2026-04-04T14:40:42.726Z</time></trkpt><trkpt lat="43.1298845" lon="10.6270442"><ele>441.49999999999994</ele><time>2026-04-04T14:40:44.729Z</time></trkpt><trkpt lat="43.1298887" lon="10.6269109"><ele>440.0</ele><time>2026-04-04T14:40:46.741Z</time></trkpt><trkpt lat="43.129867" lon="10.6268133"><ele>438.5</ele><time>2026-04-04T14:40:49.732Z</time></trkpt><trkpt lat="43.1298832" lon="10.6267291"><ele>437.0</ele><time>2026-04-04T14:40:52.73Z</time></trkpt><trkpt lat="43.1299174" lon="10.6266395"><ele>435.49999999999994</ele><time>2026-04-04T14:40:54.734Z</time></trkpt><trkpt lat="43.1299521" lon="10.6265022"><ele>434.0</ele><time>2026-04-04T14:40:56.72Z</time></trkpt><trkpt lat="43.1299975" lon="10.6263866"><ele>433.99999999999994</ele><time>2026-04-04T14:40:58.73Z</time></trkpt><trkpt lat="43.130054" lon="10.6263059"><ele>434.0</ele><time>2026-04-04T14:41:00.727Z</time></trkpt><trkpt lat="43.1301117" lon="10.6262123"><ele>434.0</ele><time>2026-04-04T14:41:02.755Z</time></trkpt><trkpt lat="43.1301528" lon="10.6261347"><ele>434.0</ele><time>2026-04-04T14:41:04.733Z</time></trkpt><trkpt lat="43.1301928" lon="10.6260373"><ele>433.99999999999994</ele><time>2026-04-04T14:41:07.73Z</time></trkpt><trkpt lat="43.1302039" lon="10.625944"><ele>434.0</ele><time>2026-04-04T14:41:17.748Z</time></trkpt><trkpt lat="43.1302797" lon="10.6259636"><ele>433.49999999999994</ele><time>2026-04-04T14:41:21.737Z</time></trkpt><trkpt lat="43.1303498" lon="10.6259769"><ele>433.0</ele><time>2026-04-04T14:41:23.736Z</time></trkpt><trkpt lat="43.1304232" lon="10.6259866"><ele>432.5</ele><time>2026-04-04T14:41:26.724Z</time></trkpt><trkpt lat="43.1305162" lon="10.626036"><ele>432.0</ele><time>2026-04-04T14:41:28.729Z</time></trkpt><trkpt lat="43.130596" lon="10.6260807"><ele>431.49999999999994</ele><time>2026-04-04T14:41:30.725Z</time></trkpt><trkpt lat="43.1306712" lon="10.626086"><ele>431.0</ele><time>2026-04-04T14:41:32.726Z</time></trkpt><trkpt lat="43.1307463" lon="10.6261381"><ele>428.8333333333333</ele><time>2026-04-04T14:41:36.736Z</time></trkpt><trkpt lat="43.1307408" lon="10.6262319"><ele>426.66666666666663</ele><time>2026-04-04T14:41:40.731Z</time></trkpt><trkpt lat="43.1308266" lon="10.6262597"><ele>424.5</ele><time>2026-04-04T14:41:43.743Z</time></trkpt><trkpt lat="43.1308999" lon="10.6262649"><ele>422.33333333333337</ele><time>2026-04-04T14:41:45.749Z</time></trkpt><trkpt lat="43.1309647" lon="10.6262324"><ele>420.1666666666667</ele><time>2026-04-04T14:41:47.73Z</time></trkpt><trkpt lat="43.1310285" lon="10.6261638"><ele>418.0</ele><time>2026-04-04T14:41:49.743Z</time></trkpt><trkpt lat="43.1310584" lon="10.626071"><ele>418.00000000000006</ele><time>2026-04-04T14:41:51.73Z</time></trkpt><trkpt lat="43.1310847" lon="10.6259917"><ele>418.0</ele><time>2026-04-04T14:41:53.725Z</time></trkpt><trkpt lat="43.131147" lon="10.6259168"><ele>418.0</ele><time>2026-04-04T14:41:55.732Z</time></trkpt><trkpt lat="43.1311953" lon="10.6258107"><ele>418.0</ele><time>2026-04-04T14:41:57.738Z</time></trkpt><trkpt lat="43.1312445" lon="10.6256802"><ele>418.00000000000006</ele><time>2026-04-04T14:41:59.733Z</time></trkpt><trkpt lat="43.1312756" lon="10.6255435"><ele>418.0</ele><time>2026-04-04T14:42:01.73Z</time></trkpt><trkpt lat="43.1312905" lon="10.6253974"><ele>417.1666666666667</ele><time>2026-04-04T14:42:03.726Z</time></trkpt><trkpt lat="43.1312996" lon="10.6253114"><ele>416.33333333333337</ele><time>2026-04-04T14:42:07.73Z</time></trkpt><trkpt lat="43.1313667" lon="10.6252904"><ele>415.5</ele><time>2026-04-04T14:42:10.735Z</time></trkpt><trkpt lat="43.1313858" lon="10.6252066"><ele>414.66666666666663</ele><time>2026-04-04T14:42:12.718Z</time></trkpt><trkpt lat="43.1314889" lon="10.6251369"><ele>413.8333333333333</ele><time>2026-04-04T14:42:14.728Z</time></trkpt><trkpt lat="43.1315606" lon="10.6250894"><ele>413.0</ele><time>2026-04-04T14:42:15.731Z</time></trkpt><trkpt lat="43.1315983" lon="10.6249807"><ele>409.8333333333333</ele><time>2026-04-04T14:42:16.73Z</time></trkpt><trkpt lat="43.131642" lon="10.6248977"><ele>406.66666666666663</ele><time>2026-04-04T14:42:17.731Z</time></trkpt><trkpt lat="43.1316701" lon="10.6248031"><ele>403.5</ele><time>2026-04-04T14:42:18.73Z</time></trkpt><trkpt lat="43.1316771" lon="10.6246902"><ele>400.33333333333337</ele><time>2026-04-04T14:42:19.74Z</time></trkpt><trkpt lat="43.1317002" lon="10.6245865"><ele>397.1666666666667</ele><time>2026-04-04T14:42:20.737Z</time></trkpt><trkpt lat="43.1317391" lon="10.6244962"><ele>394.0</ele><time>2026-04-04T14:42:21.736Z</time></trkpt><trkpt lat="43.1317937" lon="10.6243522"><ele>393.50000000000006</ele><time>2026-04-04T14:42:23.735Z</time></trkpt><trkpt lat="43.1318535" lon="10.6242236"><ele>393.0</ele><time>2026-04-04T14:42:25.726Z</time></trkpt><trkpt lat="43.1319039" lon="10.624108"><ele>392.5</ele><time>2026-04-04T14:42:27.733Z</time></trkpt><trkpt lat="43.1319214" lon="10.6240225"><ele>392.0</ele><time>2026-04-04T14:42:29.734Z</time></trkpt><trkpt lat="43.1319145" lon="10.6239313"><ele>391.50000000000006</ele><time>2026-04-04T14:42:31.746Z</time></trkpt><trkpt lat="43.1319159" lon="10.6238277"><ele>391.0</ele><time>2026-04-04T14:42:33.734Z</time></trkpt><trkpt lat="43.1319041" lon="10.6236689"><ele>389.4</ele><time>2026-04-04T14:42:35.736Z</time></trkpt><trkpt lat="43.1319205" lon="10.6235188"><ele>387.8</ele><time>2026-04-04T14:42:37.741Z</time></trkpt><trkpt lat="43.131943" lon="10.6233581"><ele>386.2</ele><time>2026-04-04T14:42:39.733Z</time></trkpt><trkpt lat="43.1319547" lon="10.6232462"><ele>384.59999999999997</ele><time>2026-04-04T14:42:40.736Z</time></trkpt><trkpt lat="43.1319925" lon="10.62315"><ele>383.0</ele><time>2026-04-04T14:42:42.745Z</time></trkpt><trkpt lat="43.1320283" lon="10.6230612"><ele>383.0</ele><time>2026-04-04T14:42:45.742Z</time></trkpt><trkpt lat="43.1321009" lon="10.6229696"><ele>383.0</ele><time>2026-04-04T14:42:47.75Z</time></trkpt><trkpt lat="43.1321916" lon="10.6228383"><ele>383.0</ele><time>2026-04-04T14:42:49.749Z</time></trkpt><trkpt lat="43.1322433" lon="10.6227775"><ele>383.0</ele><time>2026-04-04T14:42:50.748Z</time></trkpt><trkpt lat="43.1322894" lon="10.6227183"><ele>383.0</ele><time>2026-04-04T14:42:51.752Z</time></trkpt><trkpt lat="43.132361" lon="10.6226086"><ele>381.33333333333337</ele><time>2026-04-04T14:42:53.731Z</time></trkpt><trkpt lat="43.1323627" lon="10.6224741"><ele>379.6666666666667</ele><time>2026-04-04T14:42:55.756Z</time></trkpt><trkpt lat="43.1323275" lon="10.6223814"><ele>378.0</ele><time>2026-04-04T14:42:57.75Z</time></trkpt><trkpt lat="43.132308" lon="10.6222611"><ele>376.3333333333333</ele><time>2026-04-04T14:43:00.732Z</time></trkpt><trkpt lat="43.1323316" lon="10.6221734"><ele>374.66666666666663</ele><time>2026-04-04T14:43:02.728Z</time></trkpt><trkpt lat="43.1323853" lon="10.6221002"><ele>373.0</ele><time>2026-04-04T14:43:04.739Z</time></trkpt><trkpt lat="43.1324416" lon="10.6220581"><ele>371.0</ele><time>2026-04-04T14:43:06.74Z</time></trkpt><trkpt lat="43.1325087" lon="10.6220359"><ele>369.0</ele><time>2026-04-04T14:43:08.741Z</time></trkpt><trkpt lat="43.1325904" lon="10.6220452"><ele>367.0</ele><time>2026-04-04T14:43:11.741Z</time></trkpt><trkpt lat="43.1326673" lon="10.6220701"><ele>365.0</ele><time>2026-04-04T14:43:15.747Z</time></trkpt><trkpt lat="43.1327182" lon="10.6221381"><ele>363.0</ele><time>2026-04-04T14:43:18.74Z</time></trkpt><trkpt lat="43.1327795" lon="10.6221721"><ele>361.0</ele><time>2026-04-04T14:43:24.736Z</time></trkpt><trkpt lat="43.1328607" lon="10.6221278"><ele>361.0</ele><time>2026-04-04T14:43:37.736Z</time></trkpt><trkpt lat="43.132933" lon="10.6220294"><ele>361.0</ele><time>2026-04-04T14:43:40.755Z</time></trkpt><trkpt lat="43.133026" lon="10.6219697"><ele>361.0</ele><time>2026-04-04T14:43:42.756Z</time></trkpt><trkpt lat="43.1331065" lon="10.6219"><ele>361.0</ele><time>2026-04-04T14:43:44.743Z</time></trkpt><trkpt lat="43.133168" lon="10.6217804"><ele>361.0</ele><time>2026-04-04T14:43:46.747Z</time></trkpt><trkpt lat="43.1331908" lon="10.6216548"><ele>358.0</ele><time>2026-04-04T14:43:48.745Z</time></trkpt><trkpt lat="43.133264" lon="10.621631"><ele>355.0</ele><time>2026-04-04T14:43:49.742Z</time></trkpt><trkpt lat="43.1333352" lon="10.6215715"><ele>352.0</ele><time>2026-04-04T14:43:50.744Z</time></trkpt><trkpt lat="43.1333593" lon="10.6214903"><ele>349.0</ele><time>2026-04-04T14:43:51.744Z</time></trkpt><trkpt lat="43.1334063" lon="10.6213682"><ele>346.0</ele><time>2026-04-04T14:43:53.747Z</time></trkpt><trkpt lat="43.1334118" lon="10.6212624"><ele>343.0</ele><time>2026-04-04T14:43:55.752Z</time></trkpt><trkpt lat="43.1334103" lon="10.6211645"><ele>342.5</ele><time>2026-04-04T14:43:57.732Z</time></trkpt><trkpt lat="43.1333945" lon="10.6210736"><ele>342.0</ele><time>2026-04-04T14:43:59.736Z</time></trkpt><trkpt lat="43.1333523" lon="10.620961"><ele>341.5</ele><time>2026-04-04T14:44:02.744Z</time></trkpt><trkpt lat="43.133332" lon="10.6208765"><ele>341.0</ele><time>2026-04-04T14:44:07.751Z</time></trkpt><trkpt lat="43.1332821" lon="10.620781"><ele>340.5</ele><time>2026-04-04T14:44:11.748Z</time></trkpt><trkpt lat="43.1332949" lon="10.6206565"><ele>340.0</ele><time>2026-04-04T14:44:14.761Z</time></trkpt><trkpt lat="43.1333432" lon="10.6205393"><ele>340.0</ele><time>2026-04-04T14:44:16.747Z</time></trkpt><trkpt lat="43.1334068" lon="10.6204452"><ele>340.0</ele><time>2026-04-04T14:44:18.756Z</time></trkpt><trkpt lat="43.133485" lon="10.6203728"><ele>340.0</ele><time>2026-04-04T14:44:20.757Z</time></trkpt><trkpt lat="43.1335563" lon="10.6203083"><ele>340.0</ele><time>2026-04-04T14:44:22.756Z</time></trkpt><trkpt lat="43.133643" lon="10.6202556"><ele>340.0</ele><time>2026-04-04T14:44:24.743Z</time></trkpt><trkpt lat="43.133736" lon="10.6202191"><ele>340.4</ele><time>2026-04-04T14:44:26.745Z</time></trkpt><trkpt lat="43.1338255" lon="10.6201993"><ele>340.8</ele><time>2026-04-04T14:44:28.745Z</time></trkpt><trkpt lat="43.1339253" lon="10.6201916"><ele>341.20000000000005</ele><time>2026-04-04T14:44:30.751Z</time></trkpt><trkpt lat="43.1340226" lon="10.6201783"><ele>341.6</ele><time>2026-04-04T14:44:32.747Z</time></trkpt><trkpt lat="43.1341134" lon="10.6201751"><ele>342.0</ele><time>2026-04-04T14:44:34.749Z</time></trkpt><trkpt lat="43.1342023" lon="10.6201959"><ele>342.0</ele><time>2026-04-04T14:44:36.74Z</time></trkpt><trkpt lat="43.1342905" lon="10.6202038"><ele>342.0</ele><time>2026-04-04T14:44:38.734Z</time></trkpt><trkpt lat="43.1343691" lon="10.6202358"><ele>342.0</ele><time>2026-04-04T14:44:40.734Z</time></trkpt><trkpt lat="43.1344481" lon="10.6202702"><ele>342.0</ele><time>2026-04-04T14:44:42.734Z</time></trkpt><trkpt lat="43.1345135" lon="10.6203269"><ele>342.0</ele><time>2026-04-04T14:44:44.734Z</time></trkpt><trkpt lat="43.1345825" lon="10.6203809"><ele>342.0</ele><time>2026-04-04T14:44:46.736Z</time></trkpt><trkpt lat="43.1346667" lon="10.6204146"><ele>342.5</ele><time>2026-04-04T14:44:48.733Z</time></trkpt><trkpt lat="43.1347682" lon="10.6204186"><ele>343.0</ele><time>2026-04-04T14:44:50.739Z</time></trkpt><trkpt lat="43.1348877" lon="10.6203994"><ele>343.5</ele><time>2026-04-04T14:44:52.746Z</time></trkpt><trkpt lat="43.1349548" lon="10.6203806"><ele>344.0</ele><time>2026-04-04T14:44:53.747Z</time></trkpt><trkpt lat="43.1350223" lon="10.6203535"><ele>344.5</ele><time>2026-04-04T14:44:54.743Z</time></trkpt><trkpt lat="43.1350906" lon="10.620318"><ele>345.0</ele><time>2026-04-04T14:44:55.746Z</time></trkpt><trkpt lat="43.1351596" lon="10.6202878"><ele>345.0</ele><time>2026-04-04T14:44:56.749Z</time></trkpt><trkpt lat="43.1352285" lon="10.6202639"><ele>345.0</ele><time>2026-04-04T14:44:57.747Z</time></trkpt><trkpt lat="43.1352932" lon="10.6202474"><ele>345.0</ele><time>2026-04-04T14:44:58.746Z</time></trkpt><trkpt lat="43.1353998" lon="10.6202117"><ele>345.0</ele><time>2026-04-04T14:45:00.709Z</time></trkpt><trkpt lat="43.1354927" lon="10.6201986"><ele>345.0</ele><time>2026-04-04T14:45:02.698Z</time></trkpt><trkpt lat="43.1355791" lon="10.6201731"><ele>345.0</ele><time>2026-04-04T14:45:04.7Z</time></trkpt><trkpt lat="43.1356451" lon="10.6201577"><ele>345.0</ele><time>2026-04-04T14:45:06.697Z</time></trkpt><trkpt lat="43.1357083" lon="10.6201272"><ele>345.0</ele><time>2026-04-04T14:45:09.694Z</time></trkpt><trkpt lat="43.1357821" lon="10.6200837"><ele>345.0</ele><time>2026-04-04T14:45:11.69Z</time></trkpt><trkpt lat="43.1358565" lon="10.6200328"><ele>345.0</ele><time>2026-04-04T14:45:13.694Z</time></trkpt><trkpt lat="43.1359287" lon="10.6200108"><ele>345.0</ele><time>2026-04-04T14:45:15.694Z</time></trkpt><trkpt lat="43.1360025" lon="10.6199922"><ele>345.0</ele><time>2026-04-04T14:45:17.692Z</time></trkpt><trkpt lat="43.1360898" lon="10.6199915"><ele>344.6666666666667</ele><time>2026-04-04T14:45:19.696Z</time></trkpt><trkpt lat="43.1361708" lon="10.6199894"><ele>344.3333333333333</ele><time>2026-04-04T14:45:21.698Z</time></trkpt><trkpt lat="43.1362478" lon="10.6199712"><ele>344.0</ele><time>2026-04-04T14:45:23.699Z</time></trkpt><trkpt lat="43.1363294" lon="10.6199598"><ele>343.66666666666663</ele><time>2026-04-04T14:45:26.701Z</time></trkpt><trkpt lat="43.1364208" lon="10.6199519"><ele>343.3333333333333</ele><time>2026-04-04T14:45:28.701Z</time></trkpt><trkpt lat="43.1365266" lon="10.619928"><ele>343.0</ele><time>2026-04-04T14:45:30.704Z</time></trkpt><trkpt lat="43.1366323" lon="10.6199036"><ele>342.79999999999995</ele><time>2026-04-04T14:45:32.712Z</time></trkpt><trkpt lat="43.1367211" lon="10.6198771"><ele>342.6</ele><time>2026-04-04T14:45:34.707Z</time></trkpt><trkpt lat="43.1368239" lon="10.6198313"><ele>342.4</ele><time>2026-04-04T14:45:36.704Z</time></trkpt><trkpt lat="43.1369136" lon="10.6197808"><ele>342.20000000000005</ele><time>2026-04-04T14:45:38.707Z</time></trkpt><trkpt lat="43.1369994" lon="10.6197347"><ele>342.0</ele><time>2026-04-04T14:45:40.697Z</time></trkpt><trkpt lat="43.1370615" lon="10.6196746"><ele>342.0</ele><time>2026-04-04T14:45:43.69Z</time></trkpt><trkpt lat="43.1371255" lon="10.6196338"><ele>342.0</ele><time>2026-04-04T14:45:47.703Z</time></trkpt><trkpt lat="43.1371921" lon="10.6196868"><ele>342.0</ele><time>2026-04-04T14:46:12.706Z</time></trkpt><trkpt lat="43.1372777" lon="10.6196991"><ele>342.0</ele><time>2026-04-04T14:46:14.699Z</time></trkpt><trkpt lat="43.1373431" lon="10.6196939"><ele>342.0</ele><time>2026-04-04T14:46:15.707Z</time></trkpt><trkpt lat="43.1374355" lon="10.6196976"><ele>342.0</ele><time>2026-04-04T14:46:16.695Z</time></trkpt><trkpt lat="43.1375137" lon="10.6197007"><ele>341.0</ele><time>2026-04-04T14:46:17.697Z</time></trkpt><trkpt lat="43.1376321" lon="10.6197293"><ele>340.0</ele><time>2026-04-04T14:46:19.701Z</time></trkpt><trkpt lat="43.1376971" lon="10.6197346"><ele>339.0</ele><time>2026-04-04T14:46:20.703Z</time></trkpt><trkpt lat="43.1377736" lon="10.6197139"><ele>338.0</ele><time>2026-04-04T14:46:21.696Z</time></trkpt><trkpt lat="43.1378752" lon="10.6197158"><ele>337.0</ele><time>2026-04-04T14:46:23.709Z</time></trkpt><trkpt lat="43.1379581" lon="10.6197027"><ele>336.0</ele><time>2026-04-04T14:46:25.709Z</time></trkpt><trkpt lat="43.1380357" lon="10.619656"><ele>336.0</ele><time>2026-04-04T14:46:27.706Z</time></trkpt><trkpt lat="43.1381267" lon="10.6196856"><ele>336.0</ele><time>2026-04-04T14:46:30.696Z</time></trkpt><trkpt lat="43.1382113" lon="10.6196623"><ele>336.0</ele><time>2026-04-04T14:46:32.7Z</time></trkpt><trkpt lat="43.1383" lon="10.6196055"><ele>336.0</ele><time>2026-04-04T14:46:34.708Z</time></trkpt><trkpt lat="43.1383233" lon="10.6194987"><ele>336.0</ele><time>2026-04-04T14:46:37.703Z</time></trkpt><trkpt lat="43.1383718" lon="10.6194087"><ele>336.0</ele><time>2026-04-04T14:46:40.707Z</time></trkpt><trkpt lat="43.1383993" lon="10.61933"><ele>334.0</ele><time>2026-04-04T14:46:43.712Z</time></trkpt><trkpt lat="43.1384859" lon="10.6192549"><ele>332.0</ele><time>2026-04-04T14:46:46.709Z</time></trkpt><trkpt lat="43.1385817" lon="10.6191574"><ele>330.0</ele><time>2026-04-04T14:46:48.703Z</time></trkpt><trkpt lat="43.138657" lon="10.6190925"><ele>328.0</ele><time>2026-04-04T14:46:50.693Z</time></trkpt><trkpt lat="43.1386782" lon="10.6189878"><ele>326.0</ele><time>2026-04-04T14:46:52.7Z</time></trkpt><trkpt lat="43.1387349" lon="10.6188944"><ele>326.0</ele><time>2026-04-04T14:46:55.7Z</time></trkpt><trkpt lat="43.1388081" lon="10.6188457"><ele>326.0</ele><time>2026-04-04T14:46:57.7Z</time></trkpt><trkpt lat="43.1388972" lon="10.6188175"><ele>326.0</ele><time>2026-04-04T14:46:59.685Z</time></trkpt><trkpt lat="43.1390043" lon="10.6187896"><ele>326.0</ele><time>2026-04-04T14:47:01.704Z</time></trkpt><trkpt lat="43.139096" lon="10.6187703"><ele>326.0</ele><time>2026-04-04T14:47:03.702Z</time></trkpt><trkpt lat="43.1391637" lon="10.6187711"><ele>326.0</ele><time>2026-04-04T14:47:21.702Z</time></trkpt><trkpt lat="43.1391993" lon="10.6188506"><ele>321.6</ele><time>2026-04-04T14:47:30.692Z</time></trkpt><trkpt lat="43.1392864" lon="10.6189085"><ele>317.20000000000005</ele><time>2026-04-04T14:47:33.69Z</time></trkpt><trkpt lat="43.1393883" lon="10.6190318"><ele>312.79999999999995</ele><time>2026-04-04T14:47:35.7Z</time></trkpt><trkpt lat="43.1394344" lon="10.6190997"><ele>308.4</ele><time>2026-04-04T14:47:36.694Z</time></trkpt><trkpt lat="43.1395067" lon="10.6192068"><ele>304.0</ele><time>2026-04-04T14:47:38.703Z</time></trkpt><trkpt lat="43.1395905" lon="10.6193119"><ele>304.0</ele><time>2026-04-04T14:47:40.704Z</time></trkpt><trkpt lat="43.1396644" lon="10.6193948"><ele>304.0</ele><time>2026-04-04T14:47:42.706Z</time></trkpt><trkpt lat="43.1397593" lon="10.619439"><ele>304.0</ele><time>2026-04-04T14:47:44.705Z</time></trkpt><trkpt lat="43.1398487" lon="10.619439"><ele>304.0</ele><time>2026-04-04T14:47:46.703Z</time></trkpt><trkpt lat="43.1398941" lon="10.6193637"><ele>304.0</ele><time>2026-04-04T14:47:49.684Z</time></trkpt><trkpt lat="43.1399487" lon="10.619288"><ele>304.0</ele><time>2026-04-04T14:47:51.682Z</time></trkpt><trkpt lat="43.1401629" lon="10.6192614"><ele>302.2</ele><time>2026-04-04T14:47:58.688Z</time></trkpt><trkpt lat="43.1402971" lon="10.619301"><ele>300.4</ele><time>2026-04-04T14:48:02.696Z</time></trkpt><trkpt lat="43.1403709" lon="10.6193312"><ele>298.6</ele><time>2026-04-04T14:48:04.688Z</time></trkpt><trkpt lat="43.1404579" lon="10.6192991"><ele>296.8</ele><time>2026-04-04T14:48:07.692Z</time></trkpt><trkpt lat="43.140457" lon="10.6193876"><ele>295.0</ele><time>2026-04-04T14:48:11.701Z</time></trkpt><trkpt lat="43.1404267" lon="10.6195126"><ele>291.16666666666663</ele><time>2026-04-04T14:48:15.701Z</time></trkpt><trkpt lat="43.1404763" lon="10.619613"><ele>287.3333333333333</ele><time>2026-04-04T14:48:18.693Z</time></trkpt><trkpt lat="43.1405621" lon="10.6197136"><ele>283.5</ele><time>2026-04-04T14:48:20.689Z</time></trkpt><trkpt lat="43.1406218" lon="10.6197505"><ele>279.6666666666667</ele><time>2026-04-04T14:48:30.706Z</time></trkpt><trkpt lat="43.1407108" lon="10.6197746"><ele>275.83333333333337</ele><time>2026-04-04T14:48:35.697Z</time></trkpt><trkpt lat="43.1407966" lon="10.6197804"><ele>272.0</ele><time>2026-04-04T14:48:37.698Z</time></trkpt><trkpt lat="43.1409115" lon="10.6197795"><ele>270.8</ele><time>2026-04-04T14:48:39.709Z</time></trkpt><trkpt lat="43.1409735" lon="10.6197637"><ele>269.6</ele><time>2026-04-04T14:48:40.703Z</time></trkpt><trkpt lat="43.1410553" lon="10.6197448"><ele>268.40000000000003</ele><time>2026-04-04T14:48:42.702Z</time></trkpt><trkpt lat="43.1411399" lon="10.6197187"><ele>267.2</ele><time>2026-04-04T14:48:44.696Z</time></trkpt><trkpt lat="43.1412341" lon="10.61966"><ele>266.0</ele><time>2026-04-04T14:48:46.704Z</time></trkpt><trkpt lat="43.1413495" lon="10.6196123"><ele>266.0</ele><time>2026-04-04T14:48:48.701Z</time></trkpt><trkpt lat="43.1414586" lon="10.6196677"><ele>266.0</ele><time>2026-04-04T14:48:50.697Z</time></trkpt><trkpt lat="43.1415689" lon="10.6196723"><ele>266.0</ele><time>2026-04-04T14:48:52.694Z</time></trkpt><trkpt lat="43.141671" lon="10.6196548"><ele>266.0</ele><time>2026-04-04T14:48:54.687Z</time></trkpt><trkpt lat="43.1417714" lon="10.6195922"><ele>266.0</ele><time>2026-04-04T14:48:56.685Z</time></trkpt><trkpt lat="43.1418586" lon="10.6195204"><ele>266.6</ele><time>2026-04-04T14:48:58.681Z</time></trkpt><trkpt lat="43.1419458" lon="10.6194569"><ele>267.20000000000005</ele><time>2026-04-04T14:49:00.675Z</time></trkpt><trkpt lat="43.1420309" lon="10.6194183"><ele>267.79999999999995</ele><time>2026-04-04T14:49:02.661Z</time></trkpt><trkpt lat="43.1421133" lon="10.6193747"><ele>268.4</ele><time>2026-04-04T14:49:04.681Z</time></trkpt><trkpt lat="43.1421933" lon="10.6192844"><ele>269.0</ele><time>2026-04-04T14:49:07.698Z</time></trkpt><trkpt lat="43.1422722" lon="10.619125"><ele>269.0</ele><time>2026-04-04T14:49:09.703Z</time></trkpt><trkpt lat="43.1423172" lon="10.6190401"><ele>269.0</ele><time>2026-04-04T14:49:10.697Z</time></trkpt><trkpt lat="43.1424198" lon="10.6189674"><ele>269.0</ele><time>2026-04-04T14:49:12.691Z</time></trkpt><trkpt lat="43.1425149" lon="10.6189364"><ele>269.0</ele><time>2026-04-04T14:49:14.692Z</time></trkpt><trkpt lat="43.1426082" lon="10.6188895"><ele>269.0</ele><time>2026-04-04T14:49:16.684Z</time></trkpt><trkpt lat="43.1426647" lon="10.6188444"><ele>265.0</ele><time>2026-04-04T14:49:27.683Z</time></trkpt><trkpt lat="43.1428079" lon="10.6188772"><ele>261.0</ele><time>2026-04-04T14:49:33.689Z</time></trkpt><trkpt lat="43.1429281" lon="10.6188579"><ele>257.0</ele><time>2026-04-04T14:49:34.692Z</time></trkpt><trkpt lat="43.1430322" lon="10.6188"><ele>253.0</ele><time>2026-04-04T14:49:35.698Z</time></trkpt><trkpt lat="43.1431166" lon="10.6187741"><ele>253.0</ele><time>2026-04-04T14:49:36.703Z</time></trkpt><trkpt lat="43.1431807" lon="10.6187692"><ele>253.0</ele><time>2026-04-04T14:49:37.701Z</time></trkpt><trkpt lat="43.1433102" lon="10.618715"><ele>253.0</ele><time>2026-04-04T14:49:39.717Z</time></trkpt><trkpt lat="43.1433741" lon="10.6187118"><ele>253.0</ele><time>2026-04-04T14:49:40.693Z</time></trkpt><trkpt lat="43.1434674" lon="10.6186614"><ele>253.0</ele><time>2026-04-04T14:49:42.715Z</time></trkpt><trkpt lat="43.1435659" lon="10.6186555"><ele>252.33333333333331</ele><time>2026-04-04T14:49:47.706Z</time></trkpt><trkpt lat="43.1436859" lon="10.6186544"><ele>251.66666666666666</ele><time>2026-04-04T14:49:49.703Z</time></trkpt><trkpt lat="43.1437733" lon="10.6186563"><ele>251.0</ele><time>2026-04-04T14:49:51.711Z</time></trkpt><trkpt lat="43.1438466" lon="10.6186553"><ele>250.33333333333331</ele><time>2026-04-04T14:49:53.703Z</time></trkpt><trkpt lat="43.1439114" lon="10.6186611"><ele>249.66666666666666</ele><time>2026-04-04T14:49:55.703Z</time></trkpt><trkpt lat="43.1439746" lon="10.6186341"><ele>249.0</ele><time>2026-04-04T14:49:57.705Z</time></trkpt><trkpt lat="43.143986" lon="10.6185432"><ele>250.33333333333334</ele><time>2026-04-04T14:50:03.705Z</time></trkpt><trkpt lat="43.1439956" lon="10.6184281"><ele>251.66666666666669</ele><time>2026-04-04T14:50:05.707Z</time></trkpt><trkpt lat="43.1440276" lon="10.6183354"><ele>253.0</ele><time>2026-04-04T14:50:08.701Z</time></trkpt><trkpt lat="43.1440329" lon="10.6182156"><ele>254.33333333333334</ele><time>2026-04-04T14:50:14.701Z</time></trkpt><trkpt lat="43.1440777" lon="10.6180964"><ele>255.66666666666669</ele><time>2026-04-04T14:50:16.702Z</time></trkpt><trkpt lat="43.1441391" lon="10.6180547"><ele>257.0</ele><time>2026-04-04T14:50:27.714Z</time></trkpt><trkpt lat="43.1442372" lon="10.6180412"><ele>257.0</ele><time>2026-04-04T14:50:30.708Z</time></trkpt><trkpt lat="43.1443328" lon="10.6179726"><ele>257.0</ele><time>2026-04-04T14:50:32.708Z</time></trkpt><trkpt lat="43.1444145" lon="10.6179411"><ele>257.0</ele><time>2026-04-04T14:50:34.712Z</time></trkpt><trkpt lat="43.1444854" lon="10.6179071"><ele>257.0</ele><time>2026-04-04T14:50:36.714Z</time></trkpt><trkpt lat="43.1445276" lon="10.6178325"><ele>257.0</ele><time>2026-04-04T14:50:38.721Z</time></trkpt><trkpt lat="43.1445359" lon="10.6177428"><ele>257.0</ele><time>2026-04-04T14:50:40.717Z</time></trkpt><trkpt lat="43.1445789" lon="10.6176277"><ele>258.1666666666667</ele><time>2026-04-04T14:50:43.722Z</time></trkpt><trkpt lat="43.1446055" lon="10.6174892"><ele>259.33333333333337</ele><time>2026-04-04T14:50:45.704Z</time></trkpt><trkpt lat="43.1446063" lon="10.6173951"><ele>260.5</ele><time>2026-04-04T14:50:47.693Z</time></trkpt><trkpt lat="43.1446565" lon="10.6173379"><ele>261.6666666666667</ele><time>2026-04-04T14:50:52.707Z</time></trkpt><trkpt lat="43.1446963" lon="10.6174179"><ele>262.8333333333333</ele><time>2026-04-04T14:50:54.7Z</time></trkpt><trkpt lat="43.1447719" lon="10.6174395"><ele>264.0</ele><time>2026-04-04T14:50:57.698Z</time></trkpt><trkpt lat="43.1448312" lon="10.6174017"><ele>264.0</ele><time>2026-04-04T14:51:00.704Z</time></trkpt><trkpt lat="43.1448679" lon="10.6174794"><ele>264.0</ele><time>2026-04-04T14:51:02.69Z</time></trkpt><trkpt lat="43.1448988" lon="10.6176093"><ele>264.0</ele><time>2026-04-04T14:51:04.698Z</time></trkpt><trkpt lat="43.1449831" lon="10.6176583"><ele>264.0</ele><time>2026-04-04T14:51:06.692Z</time></trkpt><trkpt lat="43.1450993" lon="10.6176802"><ele>264.0</ele><time>2026-04-04T14:51:08.7Z</time></trkpt><trkpt lat="43.1451687" lon="10.6176728"><ele>264.0</ele><time>2026-04-04T14:51:09.709Z</time></trkpt><trkpt lat="43.1452621" lon="10.617574"><ele>262.6666666666667</ele><time>2026-04-04T14:51:11.701Z</time></trkpt><trkpt lat="43.145298" lon="10.6174474"><ele>261.3333333333333</ele><time>2026-04-04T14:51:13.709Z</time></trkpt><trkpt lat="43.145299" lon="10.6173305"><ele>260.0</ele><time>2026-04-04T14:51:15.698Z</time></trkpt><trkpt lat="43.1453078" lon="10.6172247"><ele>258.66666666666663</ele><time>2026-04-04T14:51:17.716Z</time></trkpt><trkpt lat="43.1453436" lon="10.6171036"><ele>257.3333333333333</ele><time>2026-04-04T14:51:20.706Z</time></trkpt><trkpt lat="43.1453982" lon="10.6170385"><ele>256.0</ele><time>2026-04-04T14:51:22.696Z</time></trkpt><trkpt lat="43.145478" lon="10.6169603"><ele>255.99999999999997</ele><time>2026-04-04T14:51:24.702Z</time></trkpt><trkpt lat="43.1455748" lon="10.6169007"><ele>256.0</ele><time>2026-04-04T14:51:26.721Z</time></trkpt><trkpt lat="43.14564" lon="10.6168808"><ele>256.0</ele><time>2026-04-04T14:51:27.691Z</time></trkpt><trkpt lat="43.1457107" lon="10.6168586"><ele>256.0</ele><time>2026-04-04T14:51:28.711Z</time></trkpt><trkpt lat="43.1458016" lon="10.616836"><ele>255.99999999999997</ele><time>2026-04-04T14:51:30.715Z</time></trkpt><trkpt lat="43.1458833" lon="10.6168183"><ele>256.0</ele><time>2026-04-04T14:51:35.703Z</time></trkpt><trkpt lat="43.1459745" lon="10.6167882"><ele>252.7142857142857</ele><time>2026-04-04T14:51:38.716Z</time></trkpt><trkpt lat="43.1460385" lon="10.616747"><ele>249.4285714285714</ele><time>2026-04-04T14:51:41.701Z</time></trkpt><trkpt lat="43.1461111" lon="10.6167064"><ele>246.14285714285714</ele><time>2026-04-04T14:51:45.7Z</time></trkpt><trkpt lat="43.146181" lon="10.61676"><ele>242.85714285714283</ele><time>2026-04-04T14:51:50.704Z</time></trkpt><trkpt lat="43.1462422" lon="10.6168073"><ele>239.57142857142856</ele><time>2026-04-04T14:51:55.706Z</time></trkpt><trkpt lat="43.1463004" lon="10.6167661"><ele>236.28571428571428</ele><time>2026-04-04T14:52:02.712Z</time></trkpt><trkpt lat="43.1463233" lon="10.6166734"><ele>233.0</ele><time>2026-04-04T14:52:05.705Z</time></trkpt><trkpt lat="43.1463447" lon="10.6165826"><ele>233.0</ele><time>2026-04-04T14:52:07.701Z</time></trkpt><trkpt lat="43.1464115" lon="10.6164927"><ele>233.0</ele><time>2026-04-04T14:52:09.704Z</time></trkpt><trkpt lat="43.1464897" lon="10.6164279"><ele>233.0</ele><time>2026-04-04T14:52:11.709Z</time></trkpt><trkpt lat="43.1465659" lon="10.6163444"><ele>233.0</ele><time>2026-04-04T14:52:13.703Z</time></trkpt><trkpt lat="43.1466432" lon="10.6162548"><ele>233.0</ele><time>2026-04-04T14:52:15.702Z</time></trkpt><trkpt lat="43.1467154" lon="10.616144"><ele>230.00000000000003</ele><time>2026-04-04T14:52:17.699Z</time></trkpt><trkpt lat="43.1467615" lon="10.6160817"><ele>227.0</ele><time>2026-04-04T14:52:18.7Z</time></trkpt><trkpt lat="43.1468624" lon="10.6159853"><ele>224.0</ele><time>2026-04-04T14:52:20.702Z</time></trkpt><trkpt lat="43.1469302" lon="10.6159185"><ele>221.0</ele><time>2026-04-04T14:52:22.707Z</time></trkpt><trkpt lat="43.1469944" lon="10.615914"><ele>218.00000000000003</ele><time>2026-04-04T14:52:24.7Z</time></trkpt><trkpt lat="43.1470571" lon="10.6159258"><ele>215.0</ele><time>2026-04-04T14:52:29.699Z</time></trkpt><trkpt lat="43.1471359" lon="10.6158412"><ele>215.00000000000003</ele><time>2026-04-04T14:52:33.7Z</time></trkpt><trkpt lat="43.1472029" lon="10.61577"><ele>215.0</ele><time>2026-04-04T14:52:35.708Z</time></trkpt><trkpt lat="43.1472677" lon="10.6157433"><ele>215.0</ele><time>2026-04-04T14:52:40.714Z</time></trkpt><trkpt lat="43.1473339" lon="10.6157371"><ele>215.0</ele><time>2026-04-04T14:52:42.709Z</time></trkpt><trkpt lat="43.1474066" lon="10.6157067"><ele>215.00000000000003</ele><time>2026-04-04T14:52:44.705Z</time></trkpt><trkpt lat="43.1475012" lon="10.6156681"><ele>215.0</ele><time>2026-04-04T14:52:46.709Z</time></trkpt><trkpt lat="43.1475632" lon="10.6156502"><ele>213.16666666666669</ele><time>2026-04-04T14:52:47.709Z</time></trkpt><trkpt lat="43.1476242" lon="10.6156205"><ele>211.33333333333334</ele><time>2026-04-04T14:52:48.71Z</time></trkpt><trkpt lat="43.1477124" lon="10.6155475"><ele>209.5</ele><time>2026-04-04T14:52:50.713Z</time></trkpt><trkpt lat="43.1477931" lon="10.6154313"><ele>207.66666666666669</ele><time>2026-04-04T14:52:52.72Z</time></trkpt><trkpt lat="43.1478408" lon="10.6153589"><ele>205.83333333333334</ele><time>2026-04-04T14:52:53.712Z</time></trkpt><trkpt lat="43.14789" lon="10.6152931"><ele>204.0</ele><time>2026-04-04T14:52:54.708Z</time></trkpt><trkpt lat="43.1479395" lon="10.6152153"><ele>204.0</ele><time>2026-04-04T14:52:55.717Z</time></trkpt><trkpt lat="43.1479829" lon="10.615133"><ele>204.0</ele><time>2026-04-04T14:52:56.714Z</time></trkpt><trkpt lat="43.1480172" lon="10.6150444"><ele>204.0</ele><time>2026-04-04T14:52:57.702Z</time></trkpt><trkpt lat="43.1480425" lon="10.6149538"><ele>204.0</ele><time>2026-04-04T14:52:58.708Z</time></trkpt><trkpt lat="43.1480661" lon="10.6148688"><ele>204.0</ele><time>2026-04-04T14:52:59.721Z</time></trkpt><trkpt lat="43.1481133" lon="10.6147735"><ele>204.0</ele><time>2026-04-04T14:53:01.693Z</time></trkpt><trkpt lat="43.1481675" lon="10.6147201"><ele>204.0</ele><time>2026-04-04T14:53:04.698Z</time></trkpt><trkpt lat="43.148215" lon="10.6147859"><ele>200.66666666666666</ele><time>2026-04-04T14:53:20.71Z</time></trkpt><trkpt lat="43.1482618" lon="10.6148617"><ele>197.33333333333334</ele><time>2026-04-04T14:53:23.72Z</time></trkpt><trkpt lat="43.1483269" lon="10.6149558"><ele>194.0</ele><time>2026-04-04T14:53:26.705Z</time></trkpt><trkpt lat="43.1483989" lon="10.6150301"><ele>190.66666666666669</ele><time>2026-04-04T14:53:29.71Z</time></trkpt><trkpt lat="43.1484412" lon="10.6151299"><ele>187.33333333333334</ele><time>2026-04-04T14:53:32.699Z</time></trkpt><trkpt lat="43.1484892" lon="10.6152441"><ele>184.0</ele><time>2026-04-04T14:53:35.692Z</time></trkpt><trkpt lat="43.1484919" lon="10.6153395"><ele>182.0</ele><time>2026-04-04T14:53:37.708Z</time></trkpt><trkpt lat="43.1485426" lon="10.6154072"><ele>180.0</ele><time>2026-04-04T14:53:42.7Z</time></trkpt><trkpt lat="43.1486114" lon="10.6154595"><ele>178.0</ele><time>2026-04-04T14:53:45.72Z</time></trkpt><trkpt lat="43.1486918" lon="10.6155393"><ele>176.0</ele><time>2026-04-04T14:53:48.705Z</time></trkpt><trkpt lat="43.1487474" lon="10.6155808"><ele>174.0</ele><time>2026-04-04T14:54:45.701Z</time></trkpt><trkpt lat="43.1488186" lon="10.6155699"><ele>172.0</ele><time>2026-04-04T14:54:51.708Z</time></trkpt><trkpt lat="43.1488788" lon="10.6155038"><ele>172.0</ele><time>2026-04-04T14:54:53.705Z</time></trkpt><trkpt lat="43.1489622" lon="10.6154311"><ele>172.0</ele><time>2026-04-04T14:54:55.701Z</time></trkpt><trkpt lat="43.1490199" lon="10.6153952"><ele>172.0</ele><time>2026-04-04T14:54:56.709Z</time></trkpt><trkpt lat="43.1490934" lon="10.6153442"><ele>172.0</ele><time>2026-04-04T14:54:58.714Z</time></trkpt><trkpt lat="43.1491611" lon="10.6152934"><ele>172.0</ele><time>2026-04-04T14:55:01.716Z</time></trkpt><trkpt lat="43.1492533" lon="10.6152277"><ele>172.0</ele><time>2026-04-04T14:55:04.705Z</time></trkpt><trkpt lat="43.1493262" lon="10.6152003"><ele>170.0</ele><time>2026-04-04T14:55:07.712Z</time></trkpt><trkpt lat="43.1493779" lon="10.6152758"><ele>168.0</ele><time>2026-04-04T14:55:10.72Z</time></trkpt><trkpt lat="43.1494323" lon="10.6153425"><ele>166.0</ele><time>2026-04-04T14:55:14.703Z</time></trkpt><trkpt lat="43.1494827" lon="10.6154049"><ele>164.0</ele><time>2026-04-04T14:55:17.711Z</time></trkpt><trkpt lat="43.1495247" lon="10.6155181"><ele>162.0</ele><time>2026-04-04T14:55:20.7Z</time></trkpt><trkpt lat="43.149529" lon="10.6156148"><ele>160.0</ele><time>2026-04-04T14:55:22.698Z</time></trkpt><trkpt lat="43.1495703" lon="10.6157189"><ele>158.33333333333334</ele><time>2026-04-04T14:55:25.705Z</time></trkpt><trkpt lat="43.1496636" lon="10.615724"><ele>156.66666666666669</ele><time>2026-04-04T14:55:28.712Z</time></trkpt><trkpt lat="43.1497332" lon="10.6156756"><ele>155.0</ele><time>2026-04-04T14:55:30.707Z</time></trkpt><trkpt lat="43.1498074" lon="10.615575"><ele>153.33333333333334</ele><time>2026-04-04T14:55:32.707Z</time></trkpt><trkpt lat="43.1498772" lon="10.6155323"><ele>151.66666666666666</ele><time>2026-04-04T14:55:34.74Z</time></trkpt><trkpt lat="43.1499633" lon="10.6155685"><ele>150.0</ele><time>2026-04-04T14:55:37.722Z</time></trkpt><trkpt lat="43.150052" lon="10.6156289"><ele>147.16666666666666</ele><time>2026-04-04T14:55:39.713Z</time></trkpt><trkpt lat="43.1501299" lon="10.6156464"><ele>144.33333333333334</ele><time>2026-04-04T14:55:41.717Z</time></trkpt><trkpt lat="43.1501685" lon="10.6157474"><ele>141.5</ele><time>2026-04-04T14:55:44.705Z</time></trkpt><trkpt lat="43.1501995" lon="10.6158268"><ele>138.66666666666669</ele><time>2026-04-04T14:55:46.701Z</time></trkpt><trkpt lat="43.1502651" lon="10.6158826"><ele>135.83333333333334</ele><time>2026-04-04T14:55:49.715Z</time></trkpt><trkpt lat="43.1503542" lon="10.6158673"><ele>133.0</ele><time>2026-04-04T14:55:52.709Z</time></trkpt><trkpt lat="43.1504142" lon="10.6159444"><ele>133.0</ele><time>2026-04-04T14:55:56.713Z</time></trkpt><trkpt lat="43.1504872" lon="10.6159032"><ele>133.0</ele><time>2026-04-04T14:55:58.709Z</time></trkpt><trkpt lat="43.150563" lon="10.6158258"><ele>133.0</ele><time>2026-04-04T14:56:00.699Z</time></trkpt><trkpt lat="43.1506436" lon="10.6157865"><ele>133.0</ele><time>2026-04-04T14:56:02.72Z</time></trkpt><trkpt lat="43.1507295" lon="10.6157525"><ele>133.0</ele><time>2026-04-04T14:56:04.729Z</time></trkpt><trkpt lat="43.1508003" lon="10.6157217"><ele>133.0</ele><time>2026-04-04T14:56:07.709Z</time></trkpt><trkpt lat="43.1508657" lon="10.6157447"><ele>130.5</ele><time>2026-04-04T14:57:08.703Z</time></trkpt><trkpt lat="43.1509071" lon="10.6158198"><ele>128.0</ele><time>2026-04-04T14:57:13.697Z</time></trkpt><trkpt lat="43.1509687" lon="10.6157854"><ele>125.5</ele><time>2026-04-04T14:57:17.701Z</time></trkpt><trkpt lat="43.1510335" lon="10.6157337"><ele>123.0</ele><time>2026-04-04T14:57:20.708Z</time></trkpt><trkpt lat="43.1510862" lon="10.615643"><ele>120.50000000000001</ele><time>2026-04-04T14:57:26.713Z</time></trkpt><trkpt lat="43.1511232" lon="10.6155534"><ele>118.0</ele><time>2026-04-04T14:57:28.701Z</time></trkpt><trkpt lat="43.1511777" lon="10.6154476"><ele>118.60000000000001</ele><time>2026-04-04T14:57:30.703Z</time></trkpt><trkpt lat="43.151232" lon="10.6153114"><ele>119.20000000000002</ele><time>2026-04-04T14:57:32.708Z</time></trkpt><trkpt lat="43.1512882" lon="10.6151779"><ele>119.8</ele><time>2026-04-04T14:57:34.706Z</time></trkpt><trkpt lat="43.1513475" lon="10.6150609"><ele>120.4</ele><time>2026-04-04T14:57:36.705Z</time></trkpt><trkpt lat="43.1514146" lon="10.6149604"><ele>121.0</ele><time>2026-04-04T14:57:38.704Z</time></trkpt><trkpt lat="43.1514815" lon="10.6148837"><ele>119.33333333333334</ele><time>2026-04-04T14:57:40.698Z</time></trkpt><trkpt lat="43.1515536" lon="10.6148235"><ele>117.66666666666667</ele><time>2026-04-04T14:57:42.697Z</time></trkpt><trkpt lat="43.1516481" lon="10.6147881"><ele>116.0</ele><time>2026-04-04T14:57:44.7Z</time></trkpt><trkpt lat="43.1517242" lon="10.6147334"><ele>114.33333333333334</ele><time>2026-04-04T14:57:46.703Z</time></trkpt><trkpt lat="43.1517781" lon="10.6146861"><ele>112.66666666666667</ele><time>2026-04-04T14:57:47.704Z</time></trkpt><trkpt lat="43.1518393" lon="10.614633"><ele>111.0</ele><time>2026-04-04T14:57:48.704Z</time></trkpt><trkpt lat="43.1519026" lon="10.6145748"><ele>111.0</ele><time>2026-04-04T14:57:49.708Z</time></trkpt><trkpt lat="43.1519694" lon="10.6145166"><ele>111.0</ele><time>2026-04-04T14:57:50.706Z</time></trkpt><trkpt lat="43.1520426" lon="10.6144631"><ele>111.0</ele><time>2026-04-04T14:57:51.699Z</time></trkpt><trkpt lat="43.1521189" lon="10.6144238"><ele>111.0</ele><time>2026-04-04T14:57:52.712Z</time></trkpt><trkpt lat="43.1521914" lon="10.6144256"><ele>111.0</ele><time>2026-04-04T14:57:53.709Z</time></trkpt><trkpt lat="43.152252" lon="10.6144493"><ele>111.0</ele><time>2026-04-04T14:57:54.708Z</time></trkpt><trkpt lat="43.1523643" lon="10.6144839"><ele>110.16666666666667</ele><time>2026-04-04T14:57:56.701Z</time></trkpt><trkpt lat="43.1524745" lon="10.6144361"><ele>109.33333333333334</ele><time>2026-04-04T14:57:58.697Z</time></trkpt><trkpt lat="43.152555" lon="10.6143123"><ele>108.5</ele><time>2026-04-04T14:58:00.702Z</time></trkpt><trkpt lat="43.1525901" lon="10.61424"><ele>107.66666666666667</ele><time>2026-04-04T14:58:01.708Z</time></trkpt><trkpt lat="43.1526244" lon="10.6141539"><ele>106.83333333333334</ele><time>2026-04-04T14:58:02.712Z</time></trkpt><trkpt lat="43.1526718" lon="10.6140764"><ele>106.0</ele><time>2026-04-04T14:58:03.707Z</time></trkpt><trkpt lat="43.1527301" lon="10.6140102"><ele>106.0</ele><time>2026-04-04T14:58:04.71Z</time></trkpt><trkpt lat="43.1527878" lon="10.6139541"><ele>106.0</ele><time>2026-04-04T14:58:05.712Z</time></trkpt><trkpt lat="43.1528794" lon="10.6138875"><ele>106.0</ele><time>2026-04-04T14:58:07.705Z</time></trkpt><trkpt lat="43.1529476" lon="10.6138106"><ele>106.0</ele><time>2026-04-04T14:58:09.711Z</time></trkpt><trkpt lat="43.1530244" lon="10.6137184"><ele>106.0</ele><time>2026-04-04T14:58:11.708Z</time></trkpt><trkpt lat="43.1531192" lon="10.6136288"><ele>105.0</ele><time>2026-04-04T14:58:13.699Z</time></trkpt><trkpt lat="43.1532273" lon="10.6135498"><ele>104.0</ele><time>2026-04-04T14:58:15.704Z</time></trkpt><trkpt lat="43.1533301" lon="10.613494"><ele>103.0</ele><time>2026-04-04T14:58:17.705Z</time></trkpt><trkpt lat="43.1534076" lon="10.6134544"><ele>102.0</ele><time>2026-04-04T14:58:19.708Z</time></trkpt><trkpt lat="43.1534722" lon="10.6134023"><ele>101.0</ele><time>2026-04-04T14:58:21.716Z</time></trkpt><trkpt lat="43.1535519" lon="10.6133393"><ele>100.99999999999999</ele><time>2026-04-04T14:58:24.708Z</time></trkpt><trkpt lat="43.1536338" lon="10.6132703"><ele>101.0</ele><time>2026-04-04T14:58:27.708Z</time></trkpt><trkpt lat="43.153701" lon="10.6132304"><ele>101.0</ele><time>2026-04-04T14:58:29.706Z</time></trkpt><trkpt lat="43.1537675" lon="10.6131862"><ele>101.0</ele><time>2026-04-04T14:58:31.702Z</time></trkpt><trkpt lat="43.1538301" lon="10.6131139"><ele>100.99999999999999</ele><time>2026-04-04T14:58:33.712Z</time></trkpt><trkpt lat="43.1539054" lon="10.6130239"><ele>101.0</ele><time>2026-04-04T14:58:35.712Z</time></trkpt><trkpt lat="43.1539699" lon="10.6129333"><ele>100.99999999999999</ele><time>2026-04-04T14:58:37.707Z</time></trkpt><trkpt lat="43.1540202" lon="10.612833"><ele>101.0</ele><time>2026-04-04T14:58:39.714Z</time></trkpt><trkpt lat="43.1540576" lon="10.6127274"><ele>101.0</ele><time>2026-04-04T14:58:41.697Z</time></trkpt><trkpt lat="43.1540767" lon="10.6126133"><ele>101.0</ele><time>2026-04-04T14:58:43.703Z</time></trkpt><trkpt lat="43.1540849" lon="10.6125062"><ele>100.99999999999999</ele><time>2026-04-04T14:58:45.704Z</time></trkpt><trkpt lat="43.1540888" lon="10.6123849"><ele>101.0</ele><time>2026-04-04T14:58:47.712Z</time></trkpt><trkpt lat="43.1541032" lon="10.6122469"><ele>101.0</ele><time>2026-04-04T14:58:49.707Z</time></trkpt><trkpt lat="43.1541147" lon="10.6121615"><ele>101.0</ele><time>2026-04-04T14:58:50.72Z</time></trkpt><trkpt lat="43.1541365" lon="10.6120803"><ele>101.0</ele><time>2026-04-04T14:58:51.708Z</time></trkpt><trkpt lat="43.1541593" lon="10.6119982"><ele>101.0</ele><time>2026-04-04T14:58:52.703Z</time></trkpt><trkpt lat="43.1541934" lon="10.6119172"><ele>101.0</ele><time>2026-04-04T14:58:53.701Z</time></trkpt><trkpt lat="43.1542332" lon="10.611828"><ele>101.0</ele><time>2026-04-04T14:58:54.722Z</time></trkpt><trkpt lat="43.154296" lon="10.6117385"><ele>101.0</ele><time>2026-04-04T14:58:55.701Z</time></trkpt><trkpt lat="43.1543535" lon="10.6116552"><ele>100.99999999999999</ele><time>2026-04-04T14:58:56.689Z</time></trkpt><trkpt lat="43.1544178" lon="10.6115792"><ele>101.0</ele><time>2026-04-04T14:58:57.706Z</time></trkpt><trkpt lat="43.1544919" lon="10.6115079"><ele>101.0</ele><time>2026-04-04T14:58:58.704Z</time></trkpt><trkpt lat="43.1545631" lon="10.6114431"><ele>101.0</ele><time>2026-04-04T14:58:59.712Z</time></trkpt><trkpt lat="43.154645" lon="10.611383"><ele>100.99999999999999</ele><time>2026-04-04T14:59:00.698Z</time></trkpt><trkpt lat="43.1547248" lon="10.6113331"><ele>101.0</ele><time>2026-04-04T14:59:01.7Z</time></trkpt><trkpt lat="43.1548101" lon="10.6112951"><ele>99.99999999999999</ele><time>2026-04-04T14:59:02.705Z</time></trkpt><trkpt lat="43.1548896" lon="10.6112758"><ele>99.0</ele><time>2026-04-04T14:59:03.713Z</time></trkpt><trkpt lat="43.1549632" lon="10.6112497"><ele>98.0</ele><time>2026-04-04T14:59:04.722Z</time></trkpt><trkpt lat="43.1550301" lon="10.6112161"><ele>97.0</ele><time>2026-04-04T14:59:05.722Z</time></trkpt><trkpt lat="43.1550899" lon="10.6111715"><ele>96.0</ele><time>2026-04-04T14:59:06.715Z</time></trkpt><trkpt lat="43.1551448" lon="10.6110732"><ele>95.0</ele><time>2026-04-04T14:59:08.715Z</time></trkpt><trkpt lat="43.155119" lon="10.6109853"><ele>95.0</ele><time>2026-04-04T14:59:10.734Z</time></trkpt><trkpt lat="43.155057" lon="10.6109047"><ele>95.0</ele><time>2026-04-04T14:59:12.709Z</time></trkpt><trkpt lat="43.1550102" lon="10.6108252"><ele>95.0</ele><time>2026-04-04T14:59:14.713Z</time></trkpt><trkpt lat="43.1549869" lon="10.6107243"><ele>95.0</ele><time>2026-04-04T14:59:16.709Z</time></trkpt><trkpt lat="43.154965" lon="10.6106087"><ele>95.0</ele><time>2026-04-04T14:59:18.713Z</time></trkpt><trkpt lat="43.154952" lon="10.6104793"><ele>95.0</ele><time>2026-04-04T14:59:20.706Z</time></trkpt><trkpt lat="43.1549678" lon="10.6103245"><ele>95.0</ele><time>2026-04-04T14:59:22.705Z</time></trkpt><trkpt lat="43.1549799" lon="10.6102023"><ele>95.0</ele><time>2026-04-04T14:59:24.717Z</time></trkpt><trkpt lat="43.1550207" lon="10.6101022"><ele>95.0</ele><time>2026-04-04T14:59:26.711Z</time></trkpt><trkpt lat="43.155064" lon="10.6099933"><ele>95.0</ele><time>2026-04-04T14:59:28.713Z</time></trkpt><trkpt lat="43.1551103" lon="10.6098643"><ele>95.0</ele><time>2026-04-04T14:59:30.704Z</time></trkpt><trkpt lat="43.1551457" lon="10.6097339"><ele>95.0</ele><time>2026-04-04T14:59:32.714Z</time></trkpt><trkpt lat="43.1551753" lon="10.6096085"><ele>95.0</ele><time>2026-04-04T14:59:34.717Z</time></trkpt><trkpt lat="43.1551857" lon="10.6094778"><ele>95.0</ele><time>2026-04-04T14:59:36.712Z</time></trkpt><trkpt lat="43.1551896" lon="10.6093567"><ele>95.0</ele><time>2026-04-04T14:59:38.714Z</time></trkpt><trkpt lat="43.1551946" lon="10.6092179"><ele>95.0</ele><time>2026-04-04T14:59:40.711Z</time></trkpt><trkpt lat="43.1551892" lon="10.6090827"><ele>95.2</ele><time>2026-04-04T14:59:42.714Z</time></trkpt><trkpt lat="43.1551698" lon="10.6089654"><ele>95.4</ele><time>2026-04-04T14:59:44.714Z</time></trkpt><trkpt lat="43.1551681" lon="10.6088276"><ele>95.6</ele><time>2026-04-04T14:59:46.712Z</time></trkpt><trkpt lat="43.1551781" lon="10.6086848"><ele>95.8</ele><time>2026-04-04T14:59:48.708Z</time></trkpt><trkpt lat="43.155181" lon="10.6085355"><ele>96.0</ele><time>2026-04-04T14:59:50.7Z</time></trkpt><trkpt lat="43.1551762" lon="10.608394"><ele>96.0</ele><time>2026-04-04T14:59:52.709Z</time></trkpt><trkpt lat="43.1551816" lon="10.6082775"><ele>96.0</ele><time>2026-04-04T14:59:54.71Z</time></trkpt><trkpt lat="43.1551801" lon="10.6081553"><ele>96.0</ele><time>2026-04-04T14:59:56.712Z</time></trkpt><trkpt lat="43.1551817" lon="10.6080249"><ele>96.0</ele><time>2026-04-04T14:59:58.698Z</time></trkpt><trkpt lat="43.1551817" lon="10.6078888"><ele>96.0</ele><time>2026-04-04T15:00:00.697Z</time></trkpt><trkpt lat="43.1551773" lon="10.6077522"><ele>95.0</ele><time>2026-04-04T15:00:02.695Z</time></trkpt><trkpt lat="43.1551433" lon="10.6076096"><ele>94.0</ele><time>2026-04-04T15:00:04.698Z</time></trkpt><trkpt lat="43.155075" lon="10.6075115"><ele>93.0</ele><time>2026-04-04T15:00:06.701Z</time></trkpt><trkpt lat="43.1549874" lon="10.6074421"><ele>92.0</ele><time>2026-04-04T15:00:08.699Z</time></trkpt><trkpt lat="43.1548972" lon="10.6073714"><ele>91.0</ele><time>2026-04-04T15:00:10.704Z</time></trkpt><trkpt lat="43.1548248" lon="10.607292"><ele>94.6</ele><time>2026-04-04T15:00:12.718Z</time></trkpt><trkpt lat="43.1547644" lon="10.6071965"><ele>98.19999999999999</ele><time>2026-04-04T15:00:14.699Z</time></trkpt><trkpt lat="43.1547158" lon="10.6070892"><ele>101.80000000000001</ele><time>2026-04-04T15:00:16.699Z</time></trkpt><trkpt lat="43.1546778" lon="10.6069901"><ele>105.4</ele><time>2026-04-04T15:00:18.692Z</time></trkpt><trkpt lat="43.1546354" lon="10.6068714"><ele>109.0</ele><time>2026-04-04T15:00:20.698Z</time></trkpt><trkpt lat="43.1545902" lon="10.6067464"><ele>109.00000000000001</ele><time>2026-04-04T15:00:22.692Z</time></trkpt><trkpt lat="43.1545636" lon="10.606633"><ele>109.0</ele><time>2026-04-04T15:00:24.704Z</time></trkpt><trkpt lat="43.1545497" lon="10.6065219"><ele>109.0</ele><time>2026-04-04T15:00:26.705Z</time></trkpt><trkpt lat="43.1545412" lon="10.6064154"><ele>109.0</ele><time>2026-04-04T15:00:28.711Z</time></trkpt><trkpt lat="43.1545293" lon="10.6063143"><ele>109.00000000000001</ele><time>2026-04-04T15:00:30.704Z</time></trkpt><trkpt lat="43.1545198" lon="10.6062117"><ele>109.0</ele><time>2026-04-04T15:00:32.704Z</time></trkpt><trkpt lat="43.1545001" lon="10.6061059"><ele>108.83333333333334</ele><time>2026-04-04T15:00:34.704Z</time></trkpt><trkpt lat="43.15448" lon="10.6060076"><ele>108.66666666666667</ele><time>2026-04-04T15:00:36.702Z</time></trkpt><trkpt lat="43.154455" lon="10.6058909"><ele>108.5</ele><time>2026-04-04T15:00:38.7Z</time></trkpt><trkpt lat="43.1544357" lon="10.605766"><ele>108.33333333333334</ele><time>2026-04-04T15:00:40.694Z</time></trkpt><trkpt lat="43.1544075" lon="10.6056589"><ele>108.16666666666667</ele><time>2026-04-04T15:00:42.692Z</time></trkpt><trkpt lat="43.1543655" lon="10.6055471"><ele>108.0</ele><time>2026-04-04T15:00:44.7Z</time></trkpt><trkpt lat="43.1543154" lon="10.6054446"><ele>106.0</ele><time>2026-04-04T15:00:46.696Z</time></trkpt><trkpt lat="43.1542547" lon="10.6053189"><ele>104.0</ele><time>2026-04-04T15:00:48.707Z</time></trkpt><trkpt lat="43.1541844" lon="10.6051997"><ele>102.0</ele><time>2026-04-04T15:00:50.704Z</time></trkpt><trkpt lat="43.1541017" lon="10.6050928"><ele>100.0</ele><time>2026-04-04T15:00:52.704Z</time></trkpt><trkpt lat="43.1540404" lon="10.6049461"><ele>98.71428571428572</ele><time>2026-04-04T15:00:54.703Z</time></trkpt><trkpt lat="43.1540283" lon="10.6048597"><ele>97.42857142857143</ele><time>2026-04-04T15:00:55.697Z</time></trkpt><trkpt lat="43.1540207" lon="10.6047672"><ele>96.14285714285714</ele><time>2026-04-04T15:00:56.701Z</time></trkpt><trkpt lat="43.1540182" lon="10.604678"><ele>94.85714285714286</ele><time>2026-04-04T15:00:57.692Z</time></trkpt><trkpt lat="43.154026" lon="10.6045868"><ele>93.57142857142857</ele><time>2026-04-04T15:00:58.699Z</time></trkpt><trkpt lat="43.1540431" lon="10.6044913"><ele>92.28571428571429</ele><time>2026-04-04T15:00:59.707Z</time></trkpt><trkpt lat="43.1540675" lon="10.6043996"><ele>91.0</ele><time>2026-04-04T15:01:00.699Z</time></trkpt><trkpt lat="43.1540895" lon="10.6043033"><ele>91.0</ele><time>2026-04-04T15:01:01.709Z</time></trkpt><trkpt lat="43.1541135" lon="10.604194"><ele>91.0</ele><time>2026-04-04T15:01:02.71Z</time></trkpt><trkpt lat="43.1541379" lon="10.6040888"><ele>91.0</ele><time>2026-04-04T15:01:03.714Z</time></trkpt><trkpt lat="43.1541642" lon="10.6039901"><ele>91.0</ele><time>2026-04-04T15:01:04.706Z</time></trkpt><trkpt lat="43.1541884" lon="10.6038923"><ele>91.0</ele><time>2026-04-04T15:01:05.695Z</time></trkpt><trkpt lat="43.1542141" lon="10.6037884"><ele>91.0</ele><time>2026-04-04T15:01:06.692Z</time></trkpt><trkpt lat="43.1542366" lon="10.6036713"><ele>89.83333333333333</ele><time>2026-04-04T15:01:07.704Z</time></trkpt><trkpt lat="43.1542523" lon="10.6035611"><ele>88.66666666666666</ele><time>2026-04-04T15:01:08.706Z</time></trkpt><trkpt lat="43.1542788" lon="10.6034483"><ele>87.5</ele><time>2026-04-04T15:01:09.708Z</time></trkpt><trkpt lat="43.1543088" lon="10.603343"><ele>86.33333333333333</ele><time>2026-04-04T15:01:10.711Z</time></trkpt><trkpt lat="43.1543259" lon="10.6032409"><ele>85.16666666666667</ele><time>2026-04-04T15:01:11.703Z</time></trkpt><trkpt lat="43.1543295" lon="10.6031438"><ele>84.0</ele><time>2026-04-04T15:01:12.704Z</time></trkpt><trkpt lat="43.1543154" lon="10.6030335"><ele>84.0</ele><time>2026-04-04T15:01:13.707Z</time></trkpt><trkpt lat="43.1542844" lon="10.602928"><ele>84.0</ele><time>2026-04-04T15:01:14.72Z</time></trkpt><trkpt lat="43.1542486" lon="10.6028246"><ele>84.0</ele><time>2026-04-04T15:01:15.706Z</time></trkpt><trkpt lat="43.1542119" lon="10.6027172"><ele>84.0</ele><time>2026-04-04T15:01:16.709Z</time></trkpt><trkpt lat="43.1541837" lon="10.6026124"><ele>84.0</ele><time>2026-04-04T15:01:17.703Z</time></trkpt><trkpt lat="43.154184" lon="10.6024445"><ele>83.2</ele><time>2026-04-04T15:01:19.692Z</time></trkpt><trkpt lat="43.1542718" lon="10.6023004"><ele>82.4</ele><time>2026-04-04T15:01:21.71Z</time></trkpt><trkpt lat="43.154339" lon="10.6022464"><ele>81.6</ele><time>2026-04-04T15:01:22.716Z</time></trkpt><trkpt lat="43.1544035" lon="10.6021797"><ele>80.8</ele><time>2026-04-04T15:01:23.715Z</time></trkpt><trkpt lat="43.154463" lon="10.6021073"><ele>80.0</ele><time>2026-04-04T15:01:24.706Z</time></trkpt><trkpt lat="43.1545218" lon="10.6020305"><ele>79.5</ele><time>2026-04-04T15:01:25.699Z</time></trkpt><trkpt lat="43.1545515" lon="10.6019347"><ele>79.0</ele><time>2026-04-04T15:01:26.698Z</time></trkpt><trkpt lat="43.1545809" lon="10.6018313"><ele>78.5</ele><time>2026-04-04T15:01:27.711Z</time></trkpt><trkpt lat="43.1546088" lon="10.6017316"><ele>78.0</ele><time>2026-04-04T15:01:28.695Z</time></trkpt><trkpt lat="43.1546374" lon="10.6016213"><ele>77.5</ele><time>2026-04-04T15:01:29.712Z</time></trkpt><trkpt lat="43.1546918" lon="10.6015211"><ele>77.0</ele><time>2026-04-04T15:01:30.702Z</time></trkpt><trkpt lat="43.1547541" lon="10.6014246"><ele>77.0</ele><time>2026-04-04T15:01:31.701Z</time></trkpt><trkpt lat="43.1548162" lon="10.6013417"><ele>77.0</ele><time>2026-04-04T15:01:32.705Z</time></trkpt><trkpt lat="43.1548736" lon="10.6012691"><ele>77.0</ele><time>2026-04-04T15:01:33.701Z</time></trkpt><trkpt lat="43.1549279" lon="10.6011826"><ele>77.0</ele><time>2026-04-04T15:01:34.703Z</time></trkpt><trkpt lat="43.1549731" lon="10.6010885"><ele>77.0</ele><time>2026-04-04T15:01:35.708Z</time></trkpt><trkpt lat="43.1550139" lon="10.6009926"><ele>77.0</ele><time>2026-04-04T15:01:36.701Z</time></trkpt><trkpt lat="43.1550564" lon="10.6008989"><ele>75.83333333333334</ele><time>2026-04-04T15:01:37.701Z</time></trkpt><trkpt lat="43.1550927" lon="10.6008006"><ele>74.66666666666667</ele><time>2026-04-04T15:01:38.701Z</time></trkpt><trkpt lat="43.1551245" lon="10.6007129"><ele>73.5</ele><time>2026-04-04T15:01:39.7Z</time></trkpt><trkpt lat="43.1551606" lon="10.6006247"><ele>72.33333333333333</ele><time>2026-04-04T15:01:40.7Z</time></trkpt><trkpt lat="43.1551978" lon="10.6005291"><ele>71.16666666666666</ele><time>2026-04-04T15:01:41.709Z</time></trkpt><trkpt lat="43.1552339" lon="10.6004429"><ele>70.0</ele><time>2026-04-04T15:01:42.7Z</time></trkpt><trkpt lat="43.1552716" lon="10.6003558"><ele>69.66666666666666</ele><time>2026-04-04T15:01:43.707Z</time></trkpt><trkpt lat="43.1553043" lon="10.600273"><ele>69.33333333333333</ele><time>2026-04-04T15:01:44.711Z</time></trkpt><trkpt lat="43.1553258" lon="10.6001793"><ele>69.0</ele><time>2026-04-04T15:01:45.721Z</time></trkpt><trkpt lat="43.1553356" lon="10.6000918"><ele>68.66666666666667</ele><time>2026-04-04T15:01:46.712Z</time></trkpt><trkpt lat="43.1553117" lon="10.5999213"><ele>68.33333333333334</ele><time>2026-04-04T15:01:48.711Z</time></trkpt><trkpt lat="43.1552815" lon="10.599836"><ele>68.0</ele><time>2026-04-04T15:01:49.709Z</time></trkpt><trkpt lat="43.1552601" lon="10.5997509"><ele>68.0</ele><time>2026-04-04T15:01:50.709Z</time></trkpt><trkpt lat="43.155254" lon="10.5995971"><ele>68.0</ele><time>2026-04-04T15:01:52.705Z</time></trkpt><trkpt lat="43.1552879" lon="10.5994624"><ele>68.0</ele><time>2026-04-04T15:01:54.706Z</time></trkpt><trkpt lat="43.1553274" lon="10.5993406"><ele>68.0</ele><time>2026-04-04T15:01:56.706Z</time></trkpt><trkpt lat="43.1553695" lon="10.5991942"><ele>68.0</ele><time>2026-04-04T15:01:58.698Z</time></trkpt><trkpt lat="43.1554121" lon="10.599057"><ele>69.0</ele><time>2026-04-04T15:02:00.699Z</time></trkpt><trkpt lat="43.1554598" lon="10.5989191"><ele>70.0</ele><time>2026-04-04T15:02:02.698Z</time></trkpt><trkpt lat="43.1555094" lon="10.5987856"><ele>71.0</ele><time>2026-04-04T15:02:04.697Z</time></trkpt><trkpt lat="43.1555504" lon="10.5986357"><ele>72.0</ele><time>2026-04-04T15:02:06.688Z</time></trkpt><trkpt lat="43.155577" lon="10.5985482"><ele>73.0</ele><time>2026-04-04T15:02:07.678Z</time></trkpt><trkpt lat="43.1556375" lon="10.5983951"><ele>73.0</ele><time>2026-04-04T15:02:09.677Z</time></trkpt><trkpt lat="43.155675" lon="10.5982984"><ele>73.0</ele><time>2026-04-04T15:02:10.672Z</time></trkpt><trkpt lat="43.1556886" lon="10.5981681"><ele>73.0</ele><time>2026-04-04T15:02:12.678Z</time></trkpt><trkpt lat="43.1557078" lon="10.5980285"><ele>73.0</ele><time>2026-04-04T15:02:14.699Z</time></trkpt><trkpt lat="43.1557213" lon="10.5979398"><ele>73.0</ele><time>2026-04-04T15:02:15.693Z</time></trkpt><trkpt lat="43.155734" lon="10.5978521"><ele>73.0</ele><time>2026-04-04T15:02:16.709Z</time></trkpt><trkpt lat="43.15576" lon="10.5977066"><ele>73.0</ele><time>2026-04-04T15:02:18.701Z</time></trkpt><trkpt lat="43.1557819" lon="10.5976187"><ele>73.0</ele><time>2026-04-04T15:02:19.702Z</time></trkpt><trkpt lat="43.1558275" lon="10.5974542"><ele>73.0</ele><time>2026-04-04T15:02:21.697Z</time></trkpt><trkpt lat="43.1558516" lon="10.5973709"><ele>73.0</ele><time>2026-04-04T15:02:22.703Z</time></trkpt><trkpt lat="43.155882" lon="10.5972783"><ele>73.0</ele><time>2026-04-04T15:02:23.702Z</time></trkpt><trkpt lat="43.1559076" lon="10.5971873"><ele>73.0</ele><time>2026-04-04T15:02:24.705Z</time></trkpt><trkpt lat="43.155924" lon="10.5971028"><ele>72.66666666666666</ele><time>2026-04-04T15:02:25.705Z</time></trkpt><trkpt lat="43.1559365" lon="10.5969216"><ele>72.33333333333333</ele><time>2026-04-04T15:02:27.699Z</time></trkpt><trkpt lat="43.15593" lon="10.5968232"><ele>72.0</ele><time>2026-04-04T15:02:28.699Z</time></trkpt><trkpt lat="43.155904" lon="10.5967285"><ele>71.66666666666667</ele><time>2026-04-04T15:02:29.698Z</time></trkpt><trkpt lat="43.1558695" lon="10.5966361"><ele>71.33333333333334</ele><time>2026-04-04T15:02:30.695Z</time></trkpt><trkpt lat="43.1558407" lon="10.596556"><ele>71.0</ele><time>2026-04-04T15:02:31.701Z</time></trkpt><trkpt lat="43.1558095" lon="10.5964778"><ele>71.0</ele><time>2026-04-04T15:02:32.702Z</time></trkpt><trkpt lat="43.1557809" lon="10.5964009"><ele>71.0</ele><time>2026-04-04T15:02:33.693Z</time></trkpt><trkpt lat="43.1557538" lon="10.5963078"><ele>71.0</ele><time>2026-04-04T15:02:34.699Z</time></trkpt><trkpt lat="43.1557307" lon="10.5962125"><ele>71.0</ele><time>2026-04-04T15:02:35.7Z</time></trkpt><trkpt lat="43.1557055" lon="10.5961276"><ele>71.0</ele><time>2026-04-04T15:02:36.699Z</time></trkpt><trkpt lat="43.155677" lon="10.5960375"><ele>71.0</ele><time>2026-04-04T15:02:37.703Z</time></trkpt><trkpt lat="43.1556491" lon="10.5959525"><ele>71.0</ele><time>2026-04-04T15:02:38.703Z</time></trkpt><trkpt lat="43.1556511" lon="10.5957939"><ele>69.83333333333334</ele><time>2026-04-04T15:02:40.701Z</time></trkpt><trkpt lat="43.155688" lon="10.5957129"><ele>68.66666666666667</ele><time>2026-04-04T15:02:41.701Z</time></trkpt><trkpt lat="43.1557424" lon="10.5956411"><ele>67.5</ele><time>2026-04-04T15:02:42.701Z</time></trkpt><trkpt lat="43.1558117" lon="10.5955815"><ele>66.33333333333333</ele><time>2026-04-04T15:02:43.699Z</time></trkpt><trkpt lat="43.1558866" lon="10.5955295"><ele>65.16666666666666</ele><time>2026-04-04T15:02:44.705Z</time></trkpt><trkpt lat="43.1559631" lon="10.5954793"><ele>64.0</ele><time>2026-04-04T15:02:45.715Z</time></trkpt><trkpt lat="43.156043" lon="10.5954284"><ele>63.99999999999999</ele><time>2026-04-04T15:02:46.703Z</time></trkpt><trkpt lat="43.1561199" lon="10.5953826"><ele>64.0</ele><time>2026-04-04T15:02:47.715Z</time></trkpt><trkpt lat="43.1561991" lon="10.5953403"><ele>64.0</ele><time>2026-04-04T15:02:48.701Z</time></trkpt><trkpt lat="43.1562791" lon="10.5952957"><ele>64.0</ele><time>2026-04-04T15:02:49.704Z</time></trkpt><trkpt lat="43.1563523" lon="10.5952557"><ele>63.99999999999999</ele><time>2026-04-04T15:02:50.703Z</time></trkpt><trkpt lat="43.1564186" lon="10.5952127"><ele>64.0</ele><time>2026-04-04T15:02:51.705Z</time></trkpt><trkpt lat="43.1564856" lon="10.5951716"><ele>62.99999999999999</ele><time>2026-04-04T15:02:52.714Z</time></trkpt><trkpt lat="43.1565502" lon="10.595132"><ele>62.0</ele><time>2026-04-04T15:02:53.708Z</time></trkpt><trkpt lat="43.1566085" lon="10.5950956"><ele>61.0</ele><time>2026-04-04T15:02:54.713Z</time></trkpt><trkpt lat="43.1566649" lon="10.5950528"><ele>60.0</ele><time>2026-04-04T15:02:55.716Z</time></trkpt><trkpt lat="43.1567241" lon="10.5950155"><ele>58.99999999999999</ele><time>2026-04-04T15:02:56.709Z</time></trkpt><trkpt lat="43.15683" lon="10.594945"><ele>58.0</ele><time>2026-04-04T15:02:58.708Z</time></trkpt><trkpt lat="43.1569248" lon="10.5948675"><ele>57.99999999999999</ele><time>2026-04-04T15:03:00.709Z</time></trkpt><trkpt lat="43.1570096" lon="10.5947972"><ele>58.0</ele><time>2026-04-04T15:03:02.711Z</time></trkpt><trkpt lat="43.1570972" lon="10.5947358"><ele>58.0</ele><time>2026-04-04T15:03:04.711Z</time></trkpt><trkpt lat="43.1571654" lon="10.5946739"><ele>58.0</ele><time>2026-04-04T15:03:06.705Z</time></trkpt><trkpt lat="43.1572275" lon="10.5946325"><ele>57.99999999999999</ele><time>2026-04-04T15:03:08.71Z</time></trkpt><trkpt lat="43.1572956" lon="10.5945885"><ele>58.0</ele><time>2026-04-04T15:03:10.709Z</time></trkpt><trkpt lat="43.1573785" lon="10.5945328"><ele>57.666666666666664</ele><time>2026-04-04T15:03:12.713Z</time></trkpt><trkpt lat="43.1574639" lon="10.5944806"><ele>57.33333333333333</ele><time>2026-04-04T15:03:14.706Z</time></trkpt><trkpt lat="43.1575392" lon="10.5944415"><ele>57.0</ele><time>2026-04-04T15:03:16.714Z</time></trkpt><trkpt lat="43.1576019" lon="10.5943952"><ele>56.66666666666667</ele><time>2026-04-04T15:03:20.709Z</time></trkpt><trkpt lat="43.1576025" lon="10.5942747"><ele>56.333333333333336</ele><time>2026-04-04T15:03:33.709Z</time></trkpt><trkpt lat="43.1575621" lon="10.5941937"><ele>56.0</ele><time>2026-04-04T15:03:35.709Z</time></trkpt><trkpt lat="43.1575135" lon="10.5941047"><ele>56.0</ele><time>2026-04-04T15:03:37.707Z</time></trkpt><trkpt lat="43.1574732" lon="10.5940128"><ele>55.99999999999999</ele><time>2026-04-04T15:03:39.703Z</time></trkpt><trkpt lat="43.1574264" lon="10.5939053"><ele>55.99999999999999</ele><time>2026-04-04T15:03:41.706Z</time></trkpt><trkpt lat="43.1573845" lon="10.5937861"><ele>56.0</ele><time>2026-04-04T15:03:43.704Z</time></trkpt><trkpt lat="43.1573456" lon="10.5936608"><ele>56.0</ele><time>2026-04-04T15:03:45.707Z</time></trkpt><trkpt lat="43.1573085" lon="10.593526"><ele>55.8</ele><time>2026-04-04T15:03:47.705Z</time></trkpt><trkpt lat="43.1572631" lon="10.5933955"><ele>55.599999999999994</ele><time>2026-04-04T15:03:49.715Z</time></trkpt><trkpt lat="43.1572201" lon="10.5932672"><ele>55.4</ele><time>2026-04-04T15:03:51.707Z</time></trkpt><trkpt lat="43.1571767" lon="10.5931465"><ele>55.2</ele><time>2026-04-04T15:03:53.706Z</time></trkpt><trkpt lat="43.1571367" lon="10.5930369"><ele>55.0</ele><time>2026-04-04T15:03:55.705Z</time></trkpt><trkpt lat="43.157094" lon="10.5929305"><ele>54.49999999999999</ele><time>2026-04-04T15:03:57.708Z</time></trkpt><trkpt lat="43.1570529" lon="10.5928202"><ele>54.0</ele><time>2026-04-04T15:03:59.705Z</time></trkpt><trkpt lat="43.1570126" lon="10.5927151"><ele>53.5</ele><time>2026-04-04T15:04:01.708Z</time></trkpt><trkpt lat="43.1569611" lon="10.5926112"><ele>53.0</ele><time>2026-04-04T15:04:03.706Z</time></trkpt><trkpt lat="43.1569153" lon="10.5925132"><ele>52.49999999999999</ele><time>2026-04-04T15:04:05.711Z</time></trkpt><trkpt lat="43.1568682" lon="10.5924103"><ele>52.0</ele><time>2026-04-04T15:04:07.702Z</time></trkpt><trkpt lat="43.1568266" lon="10.5922915"><ele>52.0</ele><time>2026-04-04T15:04:09.708Z</time></trkpt><trkpt lat="43.1567841" lon="10.5921761"><ele>52.0</ele><time>2026-04-04T15:04:11.711Z</time></trkpt><trkpt lat="43.1567822" lon="10.5920631"><ele>52.0</ele><time>2026-04-04T15:04:13.713Z</time></trkpt><trkpt lat="43.1568427" lon="10.5919572"><ele>52.0</ele><time>2026-04-04T15:04:15.712Z</time></trkpt><trkpt lat="43.1569281" lon="10.5918725"><ele>52.0</ele><time>2026-04-04T15:04:17.718Z</time></trkpt><trkpt lat="43.1570114" lon="10.5917917"><ele>51.83333333333333</ele><time>2026-04-04T15:04:19.705Z</time></trkpt><trkpt lat="43.1570832" lon="10.5917066"><ele>51.666666666666664</ele><time>2026-04-04T15:04:21.712Z</time></trkpt><trkpt lat="43.1571526" lon="10.5916296"><ele>51.5</ele><time>2026-04-04T15:04:23.715Z</time></trkpt><trkpt lat="43.1572215" lon="10.5915489"><ele>51.33333333333333</ele><time>2026-04-04T15:04:25.705Z</time></trkpt><trkpt lat="43.1572853" lon="10.5914744"><ele>51.166666666666664</ele><time>2026-04-04T15:04:27.704Z</time></trkpt><trkpt lat="43.1573558" lon="10.5913998"><ele>51.0</ele><time>2026-04-04T15:04:29.702Z</time></trkpt><trkpt lat="43.1574219" lon="10.5913255"><ele>50.833333333333336</ele><time>2026-04-04T15:04:31.697Z</time></trkpt><trkpt lat="43.1574844" lon="10.5912539"><ele>50.66666666666667</ele><time>2026-04-04T15:04:33.713Z</time></trkpt><trkpt lat="43.15755" lon="10.5911692"><ele>50.5</ele><time>2026-04-04T15:04:35.718Z</time></trkpt><trkpt lat="43.1576151" lon="10.5910942"><ele>50.333333333333336</ele><time>2026-04-04T15:04:37.716Z</time></trkpt><trkpt lat="43.157682" lon="10.5910105"><ele>50.16666666666667</ele><time>2026-04-04T15:04:39.716Z</time></trkpt><trkpt lat="43.1577531" lon="10.5909373"><ele>50.0</ele><time>2026-04-04T15:04:41.722Z</time></trkpt><trkpt lat="43.1578189" lon="10.5908506"><ele>49.8</ele><time>2026-04-04T15:04:43.698Z</time></trkpt><trkpt lat="43.1578826" lon="10.5907661"><ele>49.6</ele><time>2026-04-04T15:04:45.705Z</time></trkpt><trkpt lat="43.1579519" lon="10.5906828"><ele>49.400000000000006</ele><time>2026-04-04T15:04:47.71Z</time></trkpt><trkpt lat="43.1580222" lon="10.5905987"><ele>49.2</ele><time>2026-04-04T15:04:49.712Z</time></trkpt><trkpt lat="43.158092" lon="10.5905146"><ele>49.0</ele><time>2026-04-04T15:04:51.721Z</time></trkpt><trkpt lat="43.1581553" lon="10.5904311"><ele>49.0</ele><time>2026-04-04T15:04:53.709Z</time></trkpt><trkpt lat="43.1582203" lon="10.5903516"><ele>49.0</ele><time>2026-04-04T15:04:55.702Z</time></trkpt><trkpt lat="43.1582941" lon="10.5902627"><ele>49.0</ele><time>2026-04-04T15:04:57.705Z</time></trkpt><trkpt lat="43.1583708" lon="10.5901765"><ele>49.0</ele><time>2026-04-04T15:04:59.706Z</time></trkpt><trkpt lat="43.1584404" lon="10.5900927"><ele>49.0</ele><time>2026-04-04T15:05:01.7Z</time></trkpt><trkpt lat="43.1585071" lon="10.5900128"><ele>48.6</ele><time>2026-04-04T15:05:03.702Z</time></trkpt><trkpt lat="43.1585781" lon="10.5899345"><ele>48.2</ele><time>2026-04-04T15:05:05.703Z</time></trkpt><trkpt lat="43.1586529" lon="10.589875"><ele>47.800000000000004</ele><time>2026-04-04T15:05:07.704Z</time></trkpt><trkpt lat="43.1587294" lon="10.5898037"><ele>47.400000000000006</ele><time>2026-04-04T15:05:09.692Z</time></trkpt><trkpt lat="43.1588093" lon="10.5897134"><ele>47.0</ele><time>2026-04-04T15:05:11.695Z</time></trkpt><trkpt lat="43.1588875" lon="10.5896264"><ele>47.0</ele><time>2026-04-04T15:05:13.707Z</time></trkpt><trkpt lat="43.1589638" lon="10.5895378"><ele>47.0</ele><time>2026-04-04T15:05:15.702Z</time></trkpt><trkpt lat="43.1590348" lon="10.5894459"><ele>47.0</ele><time>2026-04-04T15:05:17.708Z</time></trkpt><trkpt lat="43.1590991" lon="10.5893546"><ele>47.0</ele><time>2026-04-04T15:05:19.708Z</time></trkpt><trkpt lat="43.1591739" lon="10.5892638"><ele>47.0</ele><time>2026-04-04T15:05:21.72Z</time></trkpt><trkpt lat="43.159245" lon="10.5891697"><ele>46.6</ele><time>2026-04-04T15:05:23.705Z</time></trkpt><trkpt lat="43.1593194" lon="10.5890696"><ele>46.2</ele><time>2026-04-04T15:05:25.706Z</time></trkpt><trkpt lat="43.1594024" lon="10.5889642"><ele>45.8</ele><time>2026-04-04T15:05:27.706Z</time></trkpt><trkpt lat="43.1594812" lon="10.5888697"><ele>45.4</ele><time>2026-04-04T15:05:29.709Z</time></trkpt><trkpt lat="43.1595569" lon="10.5887779"><ele>45.0</ele><time>2026-04-04T15:05:31.699Z</time></trkpt><trkpt lat="43.1596361" lon="10.5886855"><ele>45.0</ele><time>2026-04-04T15:05:33.703Z</time></trkpt><trkpt lat="43.1597095" lon="10.588601"><ele>45.0</ele><time>2026-04-04T15:05:35.707Z</time></trkpt><trkpt lat="43.1597859" lon="10.5885058"><ele>45.0</ele><time>2026-04-04T15:05:37.702Z</time></trkpt><trkpt lat="43.1598482" lon="10.5884037"><ele>45.0</ele><time>2026-04-04T15:05:39.702Z</time></trkpt><trkpt lat="43.1599209" lon="10.58831"><ele>45.0</ele><time>2026-04-04T15:05:41.695Z</time></trkpt><trkpt lat="43.1600024" lon="10.5882236"><ele>45.0</ele><time>2026-04-04T15:05:43.714Z</time></trkpt><trkpt lat="43.1600886" lon="10.5881339"><ele>45.0</ele><time>2026-04-04T15:05:45.71Z</time></trkpt><trkpt lat="43.1601708" lon="10.5880483"><ele>45.0</ele><time>2026-04-04T15:05:47.705Z</time></trkpt><trkpt lat="43.1602467" lon="10.5879707"><ele>45.0</ele><time>2026-04-04T15:05:49.703Z</time></trkpt><trkpt lat="43.160317" lon="10.587886"><ele>45.0</ele><time>2026-04-04T15:05:51.712Z</time></trkpt><trkpt lat="43.1603955" lon="10.5877981"><ele>44.833333333333336</ele><time>2026-04-04T15:05:53.716Z</time></trkpt><trkpt lat="43.1604591" lon="10.5877157"><ele>44.666666666666664</ele><time>2026-04-04T15:05:55.71Z</time></trkpt><trkpt lat="43.1605189" lon="10.5876409"><ele>44.5</ele><time>2026-04-04T15:05:57.7Z</time></trkpt><trkpt lat="43.160571" lon="10.5875873"><ele>44.33333333333333</ele><time>2026-04-04T15:05:59.703Z</time></trkpt><trkpt lat="43.1606225" lon="10.587536"><ele>44.166666666666664</ele><time>2026-04-04T15:06:16.709Z</time></trkpt><trkpt lat="43.1606735" lon="10.5874819"><ele>44.0</ele><time>2026-04-04T15:08:17.712Z</time></trkpt><trkpt lat="43.1607492" lon="10.5873936"><ele>43.800000000000004</ele><time>2026-04-04T15:08:20.715Z</time></trkpt><trkpt lat="43.1608063" lon="10.5873053"><ele>43.6</ele><time>2026-04-04T15:08:22.719Z</time></trkpt><trkpt lat="43.1608755" lon="10.5872213"><ele>43.4</ele><time>2026-04-04T15:08:24.722Z</time></trkpt><trkpt lat="43.1609521" lon="10.5871409"><ele>43.2</ele><time>2026-04-04T15:08:26.712Z</time></trkpt><trkpt lat="43.1610264" lon="10.5870569"><ele>43.0</ele><time>2026-04-04T15:08:28.735Z</time></trkpt><trkpt lat="43.161099" lon="10.586971"><ele>42.8</ele><time>2026-04-04T15:08:30.723Z</time></trkpt><trkpt lat="43.1611618" lon="10.5868768"><ele>42.599999999999994</ele><time>2026-04-04T15:08:32.719Z</time></trkpt><trkpt lat="43.1612221" lon="10.5867897"><ele>42.400000000000006</ele><time>2026-04-04T15:08:34.72Z</time></trkpt><trkpt lat="43.1612976" lon="10.5867097"><ele>42.2</ele><time>2026-04-04T15:08:36.722Z</time></trkpt><trkpt lat="43.161374" lon="10.5866201"><ele>42.0</ele><time>2026-04-04T15:08:38.716Z</time></trkpt><trkpt lat="43.161452" lon="10.5865342"><ele>42.0</ele><time>2026-04-04T15:08:40.717Z</time></trkpt><trkpt lat="43.1615175" lon="10.5864577"><ele>42.0</ele><time>2026-04-04T15:08:42.713Z</time></trkpt><trkpt lat="43.1615621" lon="10.5863965"><ele>42.0</ele><time>2026-04-04T15:08:44.719Z</time></trkpt><trkpt lat="43.161581" lon="10.5863078"><ele>42.0</ele><time>2026-04-04T15:08:46.716Z</time></trkpt><trkpt lat="43.1615633" lon="10.5861747"><ele>42.0</ele><time>2026-04-04T15:08:48.728Z</time></trkpt><trkpt lat="43.1615427" lon="10.5860313"><ele>42.0</ele><time>2026-04-04T15:08:50.716Z</time></trkpt><trkpt lat="43.1615275" lon="10.5858752"><ele>42.0</ele><time>2026-04-04T15:08:52.717Z</time></trkpt><trkpt lat="43.1615066" lon="10.5857242"><ele>42.0</ele><time>2026-04-04T15:08:54.721Z</time></trkpt><trkpt lat="43.1614877" lon="10.5855719"><ele>42.0</ele><time>2026-04-04T15:08:56.723Z</time></trkpt><trkpt lat="43.1614527" lon="10.5854259"><ele>42.0</ele><time>2026-04-04T15:08:58.721Z</time></trkpt><trkpt lat="43.1614183" lon="10.5852731"><ele>41.75</ele><time>2026-04-04T15:09:00.718Z</time></trkpt><trkpt lat="43.1613828" lon="10.5851182"><ele>41.5</ele><time>2026-04-04T15:09:02.719Z</time></trkpt><trkpt lat="43.1613459" lon="10.5849615"><ele>41.25</ele><time>2026-04-04T15:09:04.722Z</time></trkpt><trkpt lat="43.1613148" lon="10.5848102"><ele>41.0</ele><time>2026-04-04T15:09:06.722Z</time></trkpt><trkpt lat="43.1612868" lon="10.5846638"><ele>41.0</ele><time>2026-04-04T15:09:08.72Z</time></trkpt><trkpt lat="43.1612706" lon="10.5845176"><ele>41.0</ele><time>2026-04-04T15:09:10.718Z</time></trkpt><trkpt lat="43.1612591" lon="10.5843605"><ele>41.0</ele><time>2026-04-04T15:09:12.72Z</time></trkpt><trkpt lat="43.1612538" lon="10.584216"><ele>41.0</ele><time>2026-04-04T15:09:14.721Z</time></trkpt><trkpt lat="43.1612549" lon="10.5840691"><ele>41.0</ele><time>2026-04-04T15:09:16.718Z</time></trkpt><trkpt lat="43.1612555" lon="10.5839273"><ele>40.8</ele><time>2026-04-04T15:09:18.723Z</time></trkpt><trkpt lat="43.1612526" lon="10.5837852"><ele>40.599999999999994</ele><time>2026-04-04T15:09:20.721Z</time></trkpt><trkpt lat="43.1612486" lon="10.5836448"><ele>40.4</ele><time>2026-04-04T15:09:22.729Z</time></trkpt><trkpt lat="43.1612495" lon="10.5835058"><ele>40.2</ele><time>2026-04-04T15:09:24.722Z</time></trkpt><trkpt lat="43.1612474" lon="10.5833615"><ele>40.0</ele><time>2026-04-04T15:09:26.722Z</time></trkpt><trkpt lat="43.1612447" lon="10.5832121"><ele>39.5</ele><time>2026-04-04T15:09:28.721Z</time></trkpt><trkpt lat="43.1612462" lon="10.5830647"><ele>39.0</ele><time>2026-04-04T15:09:30.733Z</time></trkpt><trkpt lat="43.1612491" lon="10.582907"><ele>38.5</ele><time>2026-04-04T15:09:32.717Z</time></trkpt><trkpt lat="43.1612477" lon="10.5827521"><ele>38.0</ele><time>2026-04-04T15:09:34.725Z</time></trkpt><trkpt lat="43.1612531" lon="10.5825907"><ele>37.8</ele><time>2026-04-04T15:09:36.718Z</time></trkpt><trkpt lat="43.1612608" lon="10.5824337"><ele>37.599999999999994</ele><time>2026-04-04T15:09:38.722Z</time></trkpt><trkpt lat="43.1612672" lon="10.5822879"><ele>37.400000000000006</ele><time>2026-04-04T15:09:40.718Z</time></trkpt><trkpt lat="43.1612774" lon="10.582145"><ele>37.2</ele><time>2026-04-04T15:09:42.716Z</time></trkpt><trkpt lat="43.1612882" lon="10.5820094"><ele>37.0</ele><time>2026-04-04T15:09:44.717Z</time></trkpt><trkpt lat="43.1612964" lon="10.5818508"><ele>36.75</ele><time>2026-04-04T15:09:46.72Z</time></trkpt><trkpt lat="43.1613075" lon="10.5817021"><ele>36.5</ele><time>2026-04-04T15:09:48.722Z</time></trkpt><trkpt lat="43.1613155" lon="10.5815419"><ele>36.25</ele><time>2026-04-04T15:09:50.722Z</time></trkpt><trkpt lat="43.1613126" lon="10.5813839"><ele>36.0</ele><time>2026-04-04T15:09:52.723Z</time></trkpt><trkpt lat="43.1613182" lon="10.5812245"><ele>36.25</ele><time>2026-04-04T15:09:54.726Z</time></trkpt><trkpt lat="43.1613218" lon="10.5810669"><ele>36.5</ele><time>2026-04-04T15:09:56.72Z</time></trkpt><trkpt lat="43.1613234" lon="10.5809044"><ele>36.75</ele><time>2026-04-04T15:09:58.728Z</time></trkpt><trkpt lat="43.161323" lon="10.58075"><ele>37.0</ele><time>2026-04-04T15:10:00.723Z</time></trkpt><trkpt lat="43.1613224" lon="10.5805894"><ele>37.0</ele><time>2026-04-04T15:10:02.723Z</time></trkpt><trkpt lat="43.1613161" lon="10.5804344"><ele>37.0</ele><time>2026-04-04T15:10:04.724Z</time></trkpt><trkpt lat="43.1613116" lon="10.5802758"><ele>37.0</ele><time>2026-04-04T15:10:06.718Z</time></trkpt><trkpt lat="43.1612912" lon="10.5801233"><ele>37.0</ele><time>2026-04-04T15:10:08.724Z</time></trkpt><trkpt lat="43.16127" lon="10.5799602"><ele>36.75</ele><time>2026-04-04T15:10:10.725Z</time></trkpt><trkpt lat="43.161239" lon="10.5798069"><ele>36.5</ele><time>2026-04-04T15:10:12.726Z</time></trkpt><trkpt lat="43.1612041" lon="10.5796503"><ele>36.25</ele><time>2026-04-04T15:10:14.719Z</time></trkpt><trkpt lat="43.1611758" lon="10.5794976"><ele>36.0</ele><time>2026-04-04T15:10:16.719Z</time></trkpt><trkpt lat="43.1611459" lon="10.5793544"><ele>35.5</ele><time>2026-04-04T15:10:18.721Z</time></trkpt><trkpt lat="43.1611144" lon="10.5792144"><ele>35.0</ele><time>2026-04-04T15:10:20.725Z</time></trkpt><trkpt lat="43.1610819" lon="10.5790597"><ele>34.5</ele><time>2026-04-04T15:10:22.721Z</time></trkpt><trkpt lat="43.1610517" lon="10.5789035"><ele>34.0</ele><time>2026-04-04T15:10:24.723Z</time></trkpt><trkpt lat="43.161027" lon="10.578749"><ele>33.5</ele><time>2026-04-04T15:10:26.721Z</time></trkpt><trkpt lat="43.1610205" lon="10.5785892"><ele>33.0</ele><time>2026-04-04T15:10:28.722Z</time></trkpt><trkpt lat="43.1610606" lon="10.5784374"><ele>32.5</ele><time>2026-04-04T15:10:30.723Z</time></trkpt><trkpt lat="43.1611411" lon="10.5783142"><ele>32.0</ele><time>2026-04-04T15:10:32.752Z</time></trkpt><trkpt lat="43.1612288" lon="10.5782099"><ele>32.0</ele><time>2026-04-04T15:10:34.731Z</time></trkpt><trkpt lat="43.1613178" lon="10.5781004"><ele>32.0</ele><time>2026-04-04T15:10:36.727Z</time></trkpt><trkpt lat="43.161397" lon="10.5779912"><ele>32.0</ele><time>2026-04-04T15:10:38.722Z</time></trkpt><trkpt lat="43.1614831" lon="10.5778789"><ele>32.0</ele><time>2026-04-04T15:10:40.72Z</time></trkpt><trkpt lat="43.1615712" lon="10.577778"><ele>32.0</ele><time>2026-04-04T15:10:42.725Z</time></trkpt><trkpt lat="43.1616513" lon="10.5776768"><ele>32.0</ele><time>2026-04-04T15:10:44.723Z</time></trkpt><trkpt lat="43.1617355" lon="10.5775786"><ele>32.0</ele><time>2026-04-04T15:10:46.727Z</time></trkpt><trkpt lat="43.1618106" lon="10.5774639"><ele>32.0</ele><time>2026-04-04T15:10:48.736Z</time></trkpt><trkpt lat="43.16189" lon="10.577357"><ele>32.0</ele><time>2026-04-04T15:10:50.724Z</time></trkpt><trkpt lat="43.1619714" lon="10.5772607"><ele>32.0</ele><time>2026-04-04T15:10:52.73Z</time></trkpt><trkpt lat="43.1620474" lon="10.5771597"><ele>32.0</ele><time>2026-04-04T15:10:54.73Z</time></trkpt><trkpt lat="43.1621288" lon="10.5770596"><ele>32.0</ele><time>2026-04-04T15:10:56.731Z</time></trkpt><trkpt lat="43.1622027" lon="10.5769605"><ele>32.0</ele><time>2026-04-04T15:10:58.732Z</time></trkpt><trkpt lat="43.1622762" lon="10.5768679"><ele>32.0</ele><time>2026-04-04T15:11:00.733Z</time></trkpt><trkpt lat="43.1623478" lon="10.5767772"><ele>31.6</ele><time>2026-04-04T15:11:02.743Z</time></trkpt><trkpt lat="43.1624189" lon="10.5766894"><ele>31.200000000000003</ele><time>2026-04-04T15:11:04.737Z</time></trkpt><trkpt lat="43.1624895" lon="10.5766031"><ele>30.8</ele><time>2026-04-04T15:11:06.734Z</time></trkpt><trkpt lat="43.1625549" lon="10.5765165"><ele>30.4</ele><time>2026-04-04T15:11:08.737Z</time></trkpt><trkpt lat="43.1626132" lon="10.5764316"><ele>30.0</ele><time>2026-04-04T15:11:10.729Z</time></trkpt><trkpt lat="43.1626758" lon="10.576348"><ele>30.0</ele><time>2026-04-04T15:11:13.725Z</time></trkpt><trkpt lat="43.16272" lon="10.5762842"><ele>30.0</ele><time>2026-04-04T15:11:15.726Z</time></trkpt><trkpt lat="43.1627837" lon="10.5761844"><ele>30.0</ele><time>2026-04-04T15:11:17.731Z</time></trkpt><trkpt lat="43.162856" lon="10.5760773"><ele>30.0</ele><time>2026-04-04T15:11:19.728Z</time></trkpt><trkpt lat="43.1629282" lon="10.575979"><ele>30.0</ele><time>2026-04-04T15:11:21.731Z</time></trkpt><trkpt lat="43.1630006" lon="10.5758816"><ele>30.0</ele><time>2026-04-04T15:11:23.731Z</time></trkpt><trkpt lat="43.1630704" lon="10.5757791"><ele>30.0</ele><time>2026-04-04T15:11:25.725Z</time></trkpt><trkpt lat="43.163145" lon="10.5756826"><ele>30.0</ele><time>2026-04-04T15:11:27.723Z</time></trkpt><trkpt lat="43.1632157" lon="10.5755858"><ele>30.0</ele><time>2026-04-04T15:11:29.726Z</time></trkpt><trkpt lat="43.1632871" lon="10.575486"><ele>30.0</ele><time>2026-04-04T15:11:31.729Z</time></trkpt><trkpt lat="43.1633581" lon="10.5753828"><ele>30.0</ele><time>2026-04-04T15:11:33.749Z</time></trkpt><trkpt lat="43.1634328" lon="10.5752751"><ele>30.0</ele><time>2026-04-04T15:11:35.731Z</time></trkpt><trkpt lat="43.1635092" lon="10.5751606"><ele>30.0</ele><time>2026-04-04T15:11:37.717Z</time></trkpt><trkpt lat="43.1635891" lon="10.5750351"><ele>30.0</ele><time>2026-04-04T15:11:39.716Z</time></trkpt><trkpt lat="43.1636717" lon="10.5749097"><ele>30.0</ele><time>2026-04-04T15:11:41.718Z</time></trkpt><trkpt lat="43.163715" lon="10.5748452"><ele>30.0</ele><time>2026-04-04T15:11:42.709Z</time></trkpt><trkpt lat="43.1637977" lon="10.5747208"><ele>30.0</ele><time>2026-04-04T15:11:44.713Z</time></trkpt><trkpt lat="43.1638781" lon="10.5746027"><ele>30.0</ele><time>2026-04-04T15:11:46.722Z</time></trkpt><trkpt lat="43.1639533" lon="10.5744874"><ele>30.0</ele><time>2026-04-04T15:11:48.717Z</time></trkpt><trkpt lat="43.1640323" lon="10.5743752"><ele>29.8</ele><time>2026-04-04T15:11:50.711Z</time></trkpt><trkpt lat="43.1641038" lon="10.5742638"><ele>29.6</ele><time>2026-04-04T15:11:52.719Z</time></trkpt><trkpt lat="43.1641721" lon="10.5741635"><ele>29.4</ele><time>2026-04-04T15:11:54.716Z</time></trkpt><trkpt lat="43.1642459" lon="10.5740606"><ele>29.2</ele><time>2026-04-04T15:11:56.716Z</time></trkpt><trkpt lat="43.1643224" lon="10.5739491"><ele>29.0</ele><time>2026-04-04T15:11:58.717Z</time></trkpt><trkpt lat="43.1644014" lon="10.5738412"><ele>29.0</ele><time>2026-04-04T15:12:00.715Z</time></trkpt><trkpt lat="43.1644813" lon="10.5737296"><ele>29.0</ele><time>2026-04-04T15:12:02.719Z</time></trkpt><trkpt lat="43.1645687" lon="10.5736194"><ele>29.0</ele><time>2026-04-04T15:12:04.731Z</time></trkpt><trkpt lat="43.1646418" lon="10.5734973"><ele>29.0</ele><time>2026-04-04T15:12:06.713Z</time></trkpt><trkpt lat="43.1647218" lon="10.5733848"><ele>28.75</ele><time>2026-04-04T15:12:08.717Z</time></trkpt><trkpt lat="43.1648019" lon="10.5732738"><ele>28.5</ele><time>2026-04-04T15:12:10.717Z</time></trkpt><trkpt lat="43.1648839" lon="10.573176"><ele>28.25</ele><time>2026-04-04T15:12:12.711Z</time></trkpt><trkpt lat="43.1649843" lon="10.5731023"><ele>28.0</ele><time>2026-04-04T15:12:14.709Z</time></trkpt><trkpt lat="43.1650988" lon="10.5730508"><ele>27.799999999999997</ele><time>2026-04-04T15:12:16.712Z</time></trkpt><trkpt lat="43.1652049" lon="10.5730045"><ele>27.599999999999998</ele><time>2026-04-04T15:12:18.712Z</time></trkpt><trkpt lat="43.1653095" lon="10.5729575"><ele>27.400000000000002</ele><time>2026-04-04T15:12:20.708Z</time></trkpt><trkpt lat="43.165413" lon="10.5729135"><ele>27.200000000000003</ele><time>2026-04-04T15:12:22.708Z</time></trkpt><trkpt lat="43.1655271" lon="10.5728703"><ele>27.0</ele><time>2026-04-04T15:12:24.714Z</time></trkpt><trkpt lat="43.1656402" lon="10.5728242"><ele>26.75</ele><time>2026-04-04T15:12:26.711Z</time></trkpt><trkpt lat="43.1657506" lon="10.5727743"><ele>26.5</ele><time>2026-04-04T15:12:28.707Z</time></trkpt><trkpt lat="43.1658653" lon="10.5727161"><ele>26.25</ele><time>2026-04-04T15:12:30.712Z</time></trkpt><trkpt lat="43.1659783" lon="10.5726586"><ele>26.0</ele><time>2026-04-04T15:12:32.71Z</time></trkpt><trkpt lat="43.166089" lon="10.572602"><ele>26.0</ele><time>2026-04-04T15:12:34.715Z</time></trkpt><trkpt lat="43.1662034" lon="10.5725399"><ele>26.0</ele><time>2026-04-04T15:12:36.711Z</time></trkpt><trkpt lat="43.166317" lon="10.5724887"><ele>26.0</ele><time>2026-04-04T15:12:38.714Z</time></trkpt><trkpt lat="43.1663776" lon="10.5724594"><ele>26.0</ele><time>2026-04-04T15:12:39.717Z</time></trkpt><trkpt lat="43.1664945" lon="10.5724113"><ele>26.0</ele><time>2026-04-04T15:12:41.717Z</time></trkpt><trkpt lat="43.1666033" lon="10.5723578"><ele>25.8</ele><time>2026-04-04T15:12:43.714Z</time></trkpt><trkpt lat="43.1667149" lon="10.572305"><ele>25.6</ele><time>2026-04-04T15:12:45.709Z</time></trkpt><trkpt lat="43.1668231" lon="10.5722534"><ele>25.4</ele><time>2026-04-04T15:12:47.714Z</time></trkpt><trkpt lat="43.1669296" lon="10.5721982"><ele>25.2</ele><time>2026-04-04T15:12:49.71Z</time></trkpt><trkpt lat="43.16702" lon="10.5721457"><ele>25.0</ele><time>2026-04-04T15:12:51.712Z</time></trkpt><trkpt lat="43.1671278" lon="10.5720965"><ele>25.0</ele><time>2026-04-04T15:12:53.704Z</time></trkpt><trkpt lat="43.1672249" lon="10.5720409"><ele>25.0</ele><time>2026-04-04T15:12:55.705Z</time></trkpt><trkpt lat="43.1672801" lon="10.5719737"><ele>25.0</ele><time>2026-04-04T15:12:57.705Z</time></trkpt><trkpt lat="43.1672914" lon="10.5718436"><ele>25.0</ele><time>2026-04-04T15:12:59.708Z</time></trkpt><trkpt lat="43.1672905" lon="10.5716757"><ele>25.0</ele><time>2026-04-04T15:13:01.708Z</time></trkpt><trkpt lat="43.1672881" lon="10.5715272"><ele>25.2</ele><time>2026-04-04T15:13:03.706Z</time></trkpt><trkpt lat="43.1672949" lon="10.5713727"><ele>25.4</ele><time>2026-04-04T15:13:05.711Z</time></trkpt><trkpt lat="43.1672973" lon="10.5712228"><ele>25.6</ele><time>2026-04-04T15:13:07.712Z</time></trkpt><trkpt lat="43.1673108" lon="10.5710855"><ele>25.8</ele><time>2026-04-04T15:13:09.717Z</time></trkpt><trkpt lat="43.1673277" lon="10.570965"><ele>26.0</ele><time>2026-04-04T15:13:11.721Z</time></trkpt><trkpt lat="43.1673274" lon="10.5708628"><ele>26.0</ele><time>2026-04-04T15:13:17.714Z</time></trkpt><trkpt lat="43.1673309" lon="10.5707674"><ele>26.0</ele><time>2026-04-04T15:13:19.715Z</time></trkpt><trkpt lat="43.1673325" lon="10.5706567"><ele>26.0</ele><time>2026-04-04T15:13:21.715Z</time></trkpt><trkpt lat="43.1673401" lon="10.5705155"><ele>26.0</ele><time>2026-04-04T15:13:23.718Z</time></trkpt><trkpt lat="43.1673526" lon="10.5703602"><ele>26.0</ele><time>2026-04-04T15:13:25.716Z</time></trkpt><trkpt lat="43.1673679" lon="10.5702129"><ele>25.8</ele><time>2026-04-04T15:13:27.715Z</time></trkpt><trkpt lat="43.1673799" lon="10.5700632"><ele>25.6</ele><time>2026-04-04T15:13:29.71Z</time></trkpt><trkpt lat="43.1673967" lon="10.5699134"><ele>25.4</ele><time>2026-04-04T15:13:31.719Z</time></trkpt><trkpt lat="43.1674144" lon="10.5697815"><ele>25.2</ele><time>2026-04-04T15:13:33.72Z</time></trkpt><trkpt lat="43.1674198" lon="10.56967"><ele>25.0</ele><time>2026-04-04T15:13:35.72Z</time></trkpt><trkpt lat="43.1674173" lon="10.5695537"><ele>24.500000000000004</ele><time>2026-04-04T15:13:37.728Z</time></trkpt><trkpt lat="43.1674341" lon="10.5694558"><ele>24.0</ele><time>2026-04-04T15:13:39.715Z</time></trkpt><trkpt lat="43.1674539" lon="10.569355"><ele>23.5</ele><time>2026-04-04T15:13:44.714Z</time></trkpt><trkpt lat="43.1674511" lon="10.5692225"><ele>23.0</ele><time>2026-04-04T15:13:47.716Z</time></trkpt><trkpt lat="43.1674563" lon="10.5690936"><ele>22.5</ele><time>2026-04-04T15:13:49.718Z</time></trkpt><trkpt lat="43.167461" lon="10.5689498"><ele>22.0</ele><time>2026-04-04T15:13:51.728Z</time></trkpt><trkpt lat="43.1674621" lon="10.5688049"><ele>22.0</ele><time>2026-04-04T15:13:53.723Z</time></trkpt><trkpt lat="43.1674523" lon="10.5686592"><ele>22.0</ele><time>2026-04-04T15:13:55.722Z</time></trkpt><trkpt lat="43.1674587" lon="10.5685047"><ele>22.0</ele><time>2026-04-04T15:13:57.713Z</time></trkpt><trkpt lat="43.1674779" lon="10.5683507"><ele>22.0</ele><time>2026-04-04T15:13:59.718Z</time></trkpt><trkpt lat="43.1674961" lon="10.5682115"><ele>22.0</ele><time>2026-04-04T15:14:01.709Z</time></trkpt><trkpt lat="43.1675017" lon="10.5681024"><ele>22.0</ele><time>2026-04-04T15:14:08.726Z</time></trkpt><trkpt lat="43.1675209" lon="10.5679805"><ele>22.0</ele><time>2026-04-04T15:14:11.713Z</time></trkpt><trkpt lat="43.1675309" lon="10.5678638"><ele>22.0</ele><time>2026-04-04T15:14:13.719Z</time></trkpt><trkpt lat="43.1675536" lon="10.5677408"><ele>22.0</ele><time>2026-04-04T15:14:15.72Z</time></trkpt><trkpt lat="43.1675734" lon="10.567605"><ele>22.0</ele><time>2026-04-04T15:14:17.721Z</time></trkpt><trkpt lat="43.1675906" lon="10.5674843"><ele>22.0</ele><time>2026-04-04T15:14:19.714Z</time></trkpt><trkpt lat="43.1676106" lon="10.5673938"><ele>22.0</ele><time>2026-04-04T15:14:21.717Z</time></trkpt><trkpt lat="43.1676179" lon="10.5672612"><ele>22.0</ele><time>2026-04-04T15:14:24.716Z</time></trkpt><trkpt lat="43.1676139" lon="10.567131"><ele>22.0</ele><time>2026-04-04T15:14:26.715Z</time></trkpt><trkpt lat="43.167637" lon="10.5670023"><ele>22.0</ele><time>2026-04-04T15:14:28.713Z</time></trkpt><trkpt lat="43.1676609" lon="10.5668425"><ele>22.0</ele><time>2026-04-04T15:14:30.72Z</time></trkpt><trkpt lat="43.1676787" lon="10.5666926"><ele>22.0</ele><time>2026-04-04T15:14:32.711Z</time></trkpt><trkpt lat="43.1677323" lon="10.5665665"><ele>22.0</ele><time>2026-04-04T15:14:34.716Z</time></trkpt><trkpt lat="43.1677363" lon="10.5664493"><ele>22.0</ele><time>2026-04-04T15:14:36.712Z</time></trkpt><trkpt lat="43.1677513" lon="10.5663584"><ele>22.0</ele><time>2026-04-04T15:14:38.716Z</time></trkpt><trkpt lat="43.167752" lon="10.5662332"><ele>22.0</ele><time>2026-04-04T15:14:41.719Z</time></trkpt><trkpt lat="43.1677503" lon="10.5661466"><ele>22.0</ele><time>2026-04-04T15:14:43.721Z</time></trkpt><trkpt lat="43.1677734" lon="10.566031"><ele>22.0</ele><time>2026-04-04T15:14:45.715Z</time></trkpt><trkpt lat="43.1678011" lon="10.5659069"><ele>22.0</ele><time>2026-04-04T15:14:47.716Z</time></trkpt><trkpt lat="43.1678326" lon="10.5657624"><ele>22.0</ele><time>2026-04-04T15:14:49.719Z</time></trkpt><trkpt lat="43.1678545" lon="10.5656124"><ele>22.0</ele><time>2026-04-04T15:14:51.719Z</time></trkpt><trkpt lat="43.1678701" lon="10.5654498"><ele>22.0</ele><time>2026-04-04T15:14:53.718Z</time></trkpt><trkpt lat="43.1678875" lon="10.5652934"><ele>22.0</ele><time>2026-04-04T15:14:55.706Z</time></trkpt><trkpt lat="43.1679032" lon="10.5651276"><ele>22.0</ele><time>2026-04-04T15:14:57.704Z</time></trkpt><trkpt lat="43.1679127" lon="10.5649825"><ele>22.166666666666664</ele><time>2026-04-04T15:14:59.708Z</time></trkpt><trkpt lat="43.1679311" lon="10.5648462"><ele>22.333333333333332</ele><time>2026-04-04T15:15:01.703Z</time></trkpt><trkpt lat="43.1679583" lon="10.5647347"><ele>22.5</ele><time>2026-04-04T15:15:03.714Z</time></trkpt><trkpt lat="43.1679823" lon="10.5646408"><ele>22.666666666666668</ele><time>2026-04-04T15:15:05.709Z</time></trkpt><trkpt lat="43.1679971" lon="10.5645495"><ele>22.833333333333336</ele><time>2026-04-04T15:15:07.712Z</time></trkpt><trkpt lat="43.1680395" lon="10.5644748"><ele>23.0</ele><time>2026-04-04T15:15:09.709Z</time></trkpt><trkpt lat="43.168127" lon="10.564457"><ele>22.599999999999998</ele><time>2026-04-04T15:15:11.705Z</time></trkpt><trkpt lat="43.1682352" lon="10.5644983"><ele>22.2</ele><time>2026-04-04T15:15:13.706Z</time></trkpt><trkpt lat="43.1683532" lon="10.5645181"><ele>21.8</ele><time>2026-04-04T15:15:15.705Z</time></trkpt><trkpt lat="43.1684553" lon="10.5645486"><ele>21.4</ele><time>2026-04-04T15:15:17.711Z</time></trkpt><trkpt lat="43.1685616" lon="10.5645753"><ele>21.0</ele><time>2026-04-04T15:15:19.713Z</time></trkpt><trkpt lat="43.1686235" lon="10.564485"><ele>20.8</ele><time>2026-04-04T15:15:21.71Z</time></trkpt><trkpt lat="43.168634" lon="10.5643353"><ele>20.6</ele><time>2026-04-04T15:15:23.706Z</time></trkpt><trkpt lat="43.1686459" lon="10.5642102"><ele>20.4</ele><time>2026-04-04T15:15:25.708Z</time></trkpt><trkpt lat="43.1685736" lon="10.5641455"><ele>20.2</ele><time>2026-04-04T15:15:27.717Z</time></trkpt><trkpt lat="43.1684828" lon="10.5641307"><ele>20.0</ele><time>2026-04-04T15:15:29.712Z</time></trkpt><trkpt lat="43.1683806" lon="10.5641033"><ele>20.0</ele><time>2026-04-04T15:15:31.716Z</time></trkpt><trkpt lat="43.1683014" lon="10.5640772"><ele>20.0</ele><time>2026-04-04T15:15:33.713Z</time></trkpt><trkpt lat="43.1682338" lon="10.5640376"><ele>20.0</ele><time>2026-04-04T15:15:36.712Z</time></trkpt><trkpt lat="43.1682584" lon="10.563933"><ele>20.0</ele><time>2026-04-04T15:15:38.705Z</time></trkpt><trkpt lat="43.1682943" lon="10.5638249"><ele>20.0</ele><time>2026-04-04T15:15:40.707Z</time></trkpt><trkpt lat="43.1683157" lon="10.5637219"><ele>20.0</ele><time>2026-04-04T15:15:42.691Z</time></trkpt><trkpt lat="43.1683386" lon="10.5635773"><ele>19.5</ele><time>2026-04-04T15:15:44.704Z</time></trkpt><trkpt lat="43.1683813" lon="10.5634587"><ele>19.0</ele><time>2026-04-04T15:15:46.7Z</time></trkpt><trkpt lat="43.1684525" lon="10.5633922"><ele>18.5</ele><time>2026-04-04T15:15:48.709Z</time></trkpt><trkpt lat="43.1685428" lon="10.5634352"><ele>18.0</ele><time>2026-04-04T15:15:50.702Z</time></trkpt><trkpt lat="43.168624" lon="10.5634895"><ele>17.5</ele><time>2026-04-04T15:15:52.703Z</time></trkpt><trkpt lat="43.1686879" lon="10.5635307"><ele>17.0</ele><time>2026-04-04T15:15:55.707Z</time></trkpt><trkpt lat="43.1687656" lon="10.5635632"><ele>17.0</ele><time>2026-04-04T15:15:58.708Z</time></trkpt><trkpt lat="43.1688277" lon="10.5636057"><ele>17.0</ele><time>2026-04-04T15:16:00.707Z</time></trkpt><trkpt lat="43.1689146" lon="10.5636631"><ele>17.0</ele><time>2026-04-04T15:16:02.713Z</time></trkpt><trkpt lat="43.1690182" lon="10.56371"><ele>17.0</ele><time>2026-04-04T15:16:04.71Z</time></trkpt><trkpt lat="43.169112" lon="10.5637575"><ele>17.0</ele><time>2026-04-04T15:16:06.715Z</time></trkpt><trkpt lat="43.1692138" lon="10.5637996"><ele>17.4</ele><time>2026-04-04T15:16:08.711Z</time></trkpt><trkpt lat="43.1693123" lon="10.5638194"><ele>17.799999999999997</ele><time>2026-04-04T15:16:10.705Z</time></trkpt><trkpt lat="43.1693908" lon="10.5637878"><ele>18.2</ele><time>2026-04-04T15:16:12.723Z</time></trkpt><trkpt lat="43.1693907" lon="10.5636707"><ele>18.599999999999998</ele><time>2026-04-04T15:16:14.716Z</time></trkpt><trkpt lat="43.1694086" lon="10.5635487"><ele>19.0</ele><time>2026-04-04T15:16:16.719Z</time></trkpt><trkpt lat="43.1694224" lon="10.5634117"><ele>19.0</ele><time>2026-04-04T15:16:18.718Z</time></trkpt><trkpt lat="43.1694356" lon="10.5633172"><ele>19.0</ele><time>2026-04-04T15:16:20.721Z</time></trkpt><trkpt lat="43.1694395" lon="10.5632121"><ele>19.0</ele><time>2026-04-04T15:16:23.717Z</time></trkpt><trkpt lat="43.1694565" lon="10.5631263"><ele>19.0</ele><time>2026-04-04T15:16:25.714Z</time></trkpt><trkpt lat="43.1694758" lon="10.5630337"><ele>19.0</ele><time>2026-04-04T15:16:27.695Z</time></trkpt><trkpt lat="43.1694996" lon="10.5628975"><ele>19.0</ele><time>2026-04-04T15:16:29.704Z</time></trkpt><trkpt lat="43.1695358" lon="10.5627528"><ele>18.599999999999998</ele><time>2026-04-04T15:16:31.713Z</time></trkpt><trkpt lat="43.1695519" lon="10.5626018"><ele>18.2</ele><time>2026-04-04T15:16:33.714Z</time></trkpt><trkpt lat="43.1695553" lon="10.5624576"><ele>17.799999999999997</ele><time>2026-04-04T15:16:35.709Z</time></trkpt><trkpt lat="43.1695701" lon="10.5623204"><ele>17.4</ele><time>2026-04-04T15:16:37.708Z</time></trkpt><trkpt lat="43.1695867" lon="10.5621803"><ele>17.0</ele><time>2026-04-04T15:16:39.711Z</time></trkpt><trkpt lat="43.1695981" lon="10.5620217"><ele>16.6</ele><time>2026-04-04T15:16:41.71Z</time></trkpt><trkpt lat="43.1696141" lon="10.5618663"><ele>16.2</ele><time>2026-04-04T15:16:43.723Z</time></trkpt><trkpt lat="43.1696364" lon="10.5617207"><ele>15.8</ele><time>2026-04-04T15:16:45.715Z</time></trkpt><trkpt lat="43.1696503" lon="10.5615869"><ele>15.4</ele><time>2026-04-04T15:16:47.715Z</time></trkpt><trkpt lat="43.1696799" lon="10.5614546"><ele>15.0</ele><time>2026-04-04T15:16:49.716Z</time></trkpt><trkpt lat="43.1697127" lon="10.5613101"><ele>15.4</ele><time>2026-04-04T15:16:51.72Z</time></trkpt><trkpt lat="43.1697378" lon="10.5611671"><ele>15.8</ele><time>2026-04-04T15:16:53.718Z</time></trkpt><trkpt lat="43.1697585" lon="10.5610177"><ele>16.2</ele><time>2026-04-04T15:16:55.72Z</time></trkpt><trkpt lat="43.1697754" lon="10.5608695"><ele>16.6</ele><time>2026-04-04T15:16:57.715Z</time></trkpt><trkpt lat="43.1697946" lon="10.5607314"><ele>17.0</ele><time>2026-04-04T15:16:59.713Z</time></trkpt><trkpt lat="43.1698146" lon="10.5606"><ele>17.0</ele><time>2026-04-04T15:17:01.71Z</time></trkpt><trkpt lat="43.1698354" lon="10.5604607"><ele>17.0</ele><time>2026-04-04T15:17:03.714Z</time></trkpt><trkpt lat="43.1698541" lon="10.5603281"><ele>17.0</ele><time>2026-04-04T15:17:05.712Z</time></trkpt><trkpt lat="43.1698667" lon="10.5601833"><ele>17.0</ele><time>2026-04-04T15:17:07.715Z</time></trkpt><trkpt lat="43.1698816" lon="10.5600413"><ele>17.0</ele><time>2026-04-04T15:17:09.716Z</time></trkpt><trkpt lat="43.1699099" lon="10.5598985"><ele>17.0</ele><time>2026-04-04T15:17:11.718Z</time></trkpt><trkpt lat="43.1699429" lon="10.5597586"><ele>17.0</ele><time>2026-04-04T15:17:13.715Z</time></trkpt><trkpt lat="43.1699719" lon="10.559624"><ele>17.0</ele><time>2026-04-04T15:17:15.715Z</time></trkpt><trkpt lat="43.1699929" lon="10.5594896"><ele>17.0</ele><time>2026-04-04T15:17:17.717Z</time></trkpt><trkpt lat="43.1700155" lon="10.5593438"><ele>17.0</ele><time>2026-04-04T15:17:19.719Z</time></trkpt><trkpt lat="43.1700339" lon="10.5592017"><ele>16.8</ele><time>2026-04-04T15:17:21.715Z</time></trkpt><trkpt lat="43.1700468" lon="10.5590619"><ele>16.6</ele><time>2026-04-04T15:17:23.712Z</time></trkpt><trkpt lat="43.1700717" lon="10.5589188"><ele>16.400000000000002</ele><time>2026-04-04T15:17:25.719Z</time></trkpt><trkpt lat="43.1700992" lon="10.5587695"><ele>16.2</ele><time>2026-04-04T15:17:27.713Z</time></trkpt><trkpt lat="43.1701239" lon="10.5586177"><ele>16.0</ele><time>2026-04-04T15:17:29.708Z</time></trkpt><trkpt lat="43.1701466" lon="10.5584619"><ele>15.75</ele><time>2026-04-04T15:17:31.712Z</time></trkpt><trkpt lat="43.170171" lon="10.5583039"><ele>15.5</ele><time>2026-04-04T15:17:33.711Z</time></trkpt><trkpt lat="43.170193" lon="10.5581564"><ele>15.25</ele><time>2026-04-04T15:17:35.709Z</time></trkpt><trkpt lat="43.1702139" lon="10.5580083"><ele>15.0</ele><time>2026-04-04T15:17:37.714Z</time></trkpt><trkpt lat="43.1702373" lon="10.5578528"><ele>15.0</ele><time>2026-04-04T15:17:39.712Z</time></trkpt><trkpt lat="43.1702559" lon="10.5577035"><ele>15.0</ele><time>2026-04-04T15:17:41.714Z</time></trkpt><trkpt lat="43.1702746" lon="10.5575622"><ele>15.0</ele><time>2026-04-04T15:17:43.713Z</time></trkpt><trkpt lat="43.1702979" lon="10.5574152"><ele>15.0</ele><time>2026-04-04T15:17:45.723Z</time></trkpt><trkpt lat="43.170322" lon="10.5572637"><ele>15.0</ele><time>2026-04-04T15:17:47.713Z</time></trkpt><trkpt lat="43.1703439" lon="10.5571187"><ele>15.0</ele><time>2026-04-04T15:17:49.712Z</time></trkpt><trkpt lat="43.1703686" lon="10.5569655"><ele>15.0</ele><time>2026-04-04T15:17:51.715Z</time></trkpt><trkpt lat="43.1703929" lon="10.5568161"><ele>15.0</ele><time>2026-04-04T15:17:53.717Z</time></trkpt><trkpt lat="43.1704089" lon="10.5566696"><ele>15.0</ele><time>2026-04-04T15:17:55.719Z</time></trkpt><trkpt lat="43.1704323" lon="10.5565228"><ele>15.0</ele><time>2026-04-04T15:17:57.718Z</time></trkpt><trkpt lat="43.1704572" lon="10.5563734"><ele>15.0</ele><time>2026-04-04T15:17:59.713Z</time></trkpt><trkpt lat="43.1704764" lon="10.5562325"><ele>15.0</ele><time>2026-04-04T15:18:01.712Z</time></trkpt><trkpt lat="43.1704924" lon="10.5560844"><ele>15.0</ele><time>2026-04-04T15:18:03.713Z</time></trkpt><trkpt lat="43.1705173" lon="10.5559411"><ele>15.0</ele><time>2026-04-04T15:18:05.707Z</time></trkpt><trkpt lat="43.1705404" lon="10.5557956"><ele>15.0</ele><time>2026-04-04T15:18:07.71Z</time></trkpt><trkpt lat="43.1705574" lon="10.5556639"><ele>14.8</ele><time>2026-04-04T15:18:09.707Z</time></trkpt><trkpt lat="43.170583" lon="10.5555257"><ele>14.6</ele><time>2026-04-04T15:18:11.706Z</time></trkpt><trkpt lat="43.1706022" lon="10.5553943"><ele>14.399999999999999</ele><time>2026-04-04T15:18:13.71Z</time></trkpt><trkpt lat="43.1706141" lon="10.5552459"><ele>14.2</ele><time>2026-04-04T15:18:15.714Z</time></trkpt><trkpt lat="43.1706394" lon="10.5551046"><ele>14.0</ele><time>2026-04-04T15:18:17.709Z</time></trkpt><trkpt lat="43.1706701" lon="10.5549629"><ele>13.25</ele><time>2026-04-04T15:18:19.708Z</time></trkpt><trkpt lat="43.1706943" lon="10.5548146"><ele>12.5</ele><time>2026-04-04T15:18:21.711Z</time></trkpt><trkpt lat="43.1707164" lon="10.5546628"><ele>11.75</ele><time>2026-04-04T15:18:23.709Z</time></trkpt><trkpt lat="43.1707399" lon="10.5545077"><ele>11.0</ele><time>2026-04-04T15:18:25.715Z</time></trkpt><trkpt lat="43.1707618" lon="10.554354"><ele>10.75</ele><time>2026-04-04T15:18:27.718Z</time></trkpt><trkpt lat="43.1707811" lon="10.5541979"><ele>10.5</ele><time>2026-04-04T15:18:29.71Z</time></trkpt><trkpt lat="43.1708051" lon="10.5540413"><ele>10.25</ele><time>2026-04-04T15:18:31.713Z</time></trkpt><trkpt lat="43.1708293" lon="10.5538828"><ele>10.0</ele><time>2026-04-04T15:18:33.711Z</time></trkpt><trkpt lat="43.1708528" lon="10.5537242"><ele>10.0</ele><time>2026-04-04T15:18:35.712Z</time></trkpt><trkpt lat="43.1708766" lon="10.5535665"><ele>10.0</ele><time>2026-04-04T15:18:37.711Z</time></trkpt><trkpt lat="43.1708954" lon="10.5534193"><ele>10.0</ele><time>2026-04-04T15:18:39.71Z</time></trkpt><trkpt lat="43.1709154" lon="10.5532672"><ele>10.0</ele><time>2026-04-04T15:18:41.712Z</time></trkpt><trkpt lat="43.1709388" lon="10.5531246"><ele>10.0</ele><time>2026-04-04T15:18:43.71Z</time></trkpt><trkpt lat="43.1709581" lon="10.5529776"><ele>10.0</ele><time>2026-04-04T15:18:45.713Z</time></trkpt><trkpt lat="43.1709833" lon="10.55285"><ele>10.0</ele><time>2026-04-04T15:18:47.723Z</time></trkpt><trkpt lat="43.1709927" lon="10.5527179"><ele>10.0</ele><time>2026-04-04T15:18:49.715Z</time></trkpt><trkpt lat="43.1710091" lon="10.5525787"><ele>10.0</ele><time>2026-04-04T15:18:51.713Z</time></trkpt><trkpt lat="43.17103" lon="10.5524265"><ele>10.0</ele><time>2026-04-04T15:18:53.709Z</time></trkpt><trkpt lat="43.1710598" lon="10.5522701"><ele>10.0</ele><time>2026-04-04T15:18:55.713Z</time></trkpt><trkpt lat="43.1710811" lon="10.5521171"><ele>10.0</ele><time>2026-04-04T15:18:57.709Z</time></trkpt><trkpt lat="43.1711115" lon="10.5519536"><ele>10.0</ele><time>2026-04-04T15:18:59.709Z</time></trkpt><trkpt lat="43.1711344" lon="10.5517909"><ele>10.0</ele><time>2026-04-04T15:19:01.709Z</time></trkpt><trkpt lat="43.1711614" lon="10.5516396"><ele>9.75</ele><time>2026-04-04T15:19:03.712Z</time></trkpt><trkpt lat="43.1711831" lon="10.5514815"><ele>9.5</ele><time>2026-04-04T15:19:05.706Z</time></trkpt><trkpt lat="43.1712151" lon="10.5513218"><ele>9.25</ele><time>2026-04-04T15:19:07.705Z</time></trkpt><trkpt lat="43.1712379" lon="10.5511621"><ele>9.0</ele><time>2026-04-04T15:19:09.707Z</time></trkpt><trkpt lat="43.1712562" lon="10.5509997"><ele>8.75</ele><time>2026-04-04T15:19:11.708Z</time></trkpt><trkpt lat="43.1712818" lon="10.5508433"><ele>8.5</ele><time>2026-04-04T15:19:13.705Z</time></trkpt><trkpt lat="43.1713108" lon="10.5506821"><ele>8.25</ele><time>2026-04-04T15:19:15.711Z</time></trkpt><trkpt lat="43.1713367" lon="10.5505246"><ele>8.0</ele><time>2026-04-04T15:19:17.706Z</time></trkpt><trkpt lat="43.171359" lon="10.5503699"><ele>8.75</ele><time>2026-04-04T15:19:19.706Z</time></trkpt><trkpt lat="43.171382" lon="10.5502109"><ele>9.5</ele><time>2026-04-04T15:19:21.708Z</time></trkpt><trkpt lat="43.1714107" lon="10.5500486"><ele>10.25</ele><time>2026-04-04T15:19:23.704Z</time></trkpt><trkpt lat="43.1714309" lon="10.5498853"><ele>11.0</ele><time>2026-04-04T15:19:25.704Z</time></trkpt><trkpt lat="43.1714511" lon="10.5497414"><ele>11.0</ele><time>2026-04-04T15:19:27.704Z</time></trkpt><trkpt lat="43.1714674" lon="10.5496106"><ele>11.0</ele><time>2026-04-04T15:19:29.703Z</time></trkpt><trkpt lat="43.1714799" lon="10.5494861"><ele>11.0</ele><time>2026-04-04T15:19:31.699Z</time></trkpt><trkpt lat="43.1715158" lon="10.5493945"><ele>11.0</ele><time>2026-04-04T15:19:33.7Z</time></trkpt><trkpt lat="43.1715737" lon="10.5493415"><ele>11.0</ele><time>2026-04-04T15:19:35.701Z</time></trkpt><trkpt lat="43.1716399" lon="10.5493687"><ele>11.0</ele><time>2026-04-04T15:19:37.704Z</time></trkpt><trkpt lat="43.1717603" lon="10.5494062"><ele>12.285714285714286</ele><time>2026-04-04T15:19:39.703Z</time></trkpt><trkpt lat="43.1718292" lon="10.5494148"><ele>13.571428571428571</ele><time>2026-04-04T15:19:40.703Z</time></trkpt><trkpt lat="43.1719008" lon="10.5494246"><ele>14.857142857142858</ele><time>2026-04-04T15:19:41.708Z</time></trkpt><trkpt lat="43.1719767" lon="10.5494367"><ele>16.142857142857142</ele><time>2026-04-04T15:19:42.701Z</time></trkpt><trkpt lat="43.1720413" lon="10.5494554"><ele>17.42857142857143</ele><time>2026-04-04T15:19:43.698Z</time></trkpt><trkpt lat="43.1721087" lon="10.5494713"><ele>18.714285714285715</ele><time>2026-04-04T15:19:44.707Z</time></trkpt><trkpt lat="43.1721749" lon="10.549488"><ele>20.0</ele><time>2026-04-04T15:19:45.708Z</time></trkpt><trkpt lat="43.1722383" lon="10.54949"><ele>20.0</ele><time>2026-04-04T15:19:46.709Z</time></trkpt><trkpt lat="43.1723056" lon="10.5494918"><ele>20.0</ele><time>2026-04-04T15:19:47.715Z</time></trkpt><trkpt lat="43.1723711" lon="10.5494823"><ele>20.0</ele><time>2026-04-04T15:19:48.707Z</time></trkpt><trkpt lat="43.1724389" lon="10.5494812"><ele>20.0</ele><time>2026-04-04T15:19:49.724Z</time></trkpt><trkpt lat="43.1725028" lon="10.5494818"><ele>20.0</ele><time>2026-04-04T15:19:50.711Z</time></trkpt><trkpt lat="43.1726205" lon="10.5494849"><ele>20.0</ele><time>2026-04-04T15:19:52.703Z</time></trkpt><trkpt lat="43.1727421" lon="10.5495068"><ele>20.2</ele><time>2026-04-04T15:19:54.713Z</time></trkpt><trkpt lat="43.1728635" lon="10.5495295"><ele>20.4</ele><time>2026-04-04T15:19:56.711Z</time></trkpt><trkpt lat="43.1729273" lon="10.5495355"><ele>20.6</ele><time>2026-04-04T15:19:57.715Z</time></trkpt><trkpt lat="43.1730467" lon="10.5495522"><ele>20.8</ele><time>2026-04-04T15:19:59.718Z</time></trkpt><trkpt lat="43.1731635" lon="10.5495767"><ele>21.0</ele><time>2026-04-04T15:20:01.715Z</time></trkpt><trkpt lat="43.1732941" lon="10.5495837"><ele>18.6</ele><time>2026-04-04T15:20:03.71Z</time></trkpt><trkpt lat="43.1733598" lon="10.5495846"><ele>16.200000000000003</ele><time>2026-04-04T15:20:04.716Z</time></trkpt><trkpt lat="43.1734873" lon="10.549595"><ele>13.8</ele><time>2026-04-04T15:20:06.711Z</time></trkpt><trkpt lat="43.1736096" lon="10.5496126"><ele>11.4</ele><time>2026-04-04T15:20:08.71Z</time></trkpt><trkpt lat="43.1737291" lon="10.5496359"><ele>9.0</ele><time>2026-04-04T15:20:10.712Z</time></trkpt><trkpt lat="43.1738532" lon="10.5496454"><ele>9.0</ele><time>2026-04-04T15:20:12.714Z</time></trkpt><trkpt lat="43.1739749" lon="10.5496542"><ele>9.0</ele><time>2026-04-04T15:20:14.715Z</time></trkpt><trkpt lat="43.1740907" lon="10.5496693"><ele>9.0</ele><time>2026-04-04T15:20:16.712Z</time></trkpt><trkpt lat="43.1742115" lon="10.5496901"><ele>9.0</ele><time>2026-04-04T15:20:18.715Z</time></trkpt><trkpt lat="43.1743357" lon="10.5496942"><ele>10.0</ele><time>2026-04-04T15:20:20.726Z</time></trkpt><trkpt lat="43.17446" lon="10.5497122"><ele>11.0</ele><time>2026-04-04T15:20:22.718Z</time></trkpt><trkpt lat="43.174523" lon="10.5497238"><ele>11.999999999999998</ele><time>2026-04-04T15:20:23.718Z</time></trkpt><trkpt lat="43.174644" lon="10.5497541"><ele>13.0</ele><time>2026-04-04T15:20:25.712Z</time></trkpt><trkpt lat="43.1747673" lon="10.5497625"><ele>14.0</ele><time>2026-04-04T15:20:27.714Z</time></trkpt><trkpt lat="43.1748796" lon="10.5497697"><ele>14.0</ele><time>2026-04-04T15:20:29.713Z</time></trkpt><trkpt lat="43.1749955" lon="10.5497835"><ele>14.0</ele><time>2026-04-04T15:20:31.707Z</time></trkpt><trkpt lat="43.1751108" lon="10.5497991"><ele>14.0</ele><time>2026-04-04T15:20:33.713Z</time></trkpt><trkpt lat="43.1752349" lon="10.549798"><ele>14.0</ele><time>2026-04-04T15:20:35.712Z</time></trkpt><trkpt lat="43.1753563" lon="10.5497971"><ele>14.0</ele><time>2026-04-04T15:20:37.71Z</time></trkpt><trkpt lat="43.1754566" lon="10.5498215"><ele>13.999999999999998</ele><time>2026-04-04T15:20:39.709Z</time></trkpt><trkpt lat="43.175565" lon="10.5498509"><ele>13.999999999999998</ele><time>2026-04-04T15:20:41.7Z</time></trkpt><trkpt lat="43.175679" lon="10.5498896"><ele>14.0</ele><time>2026-04-04T15:20:43.702Z</time></trkpt><trkpt lat="43.1757945" lon="10.5498807"><ele>14.0</ele><time>2026-04-04T15:20:45.704Z</time></trkpt><trkpt lat="43.1758593" lon="10.5498722"><ele>14.399999999999999</ele><time>2026-04-04T15:20:46.7Z</time></trkpt><trkpt lat="43.1759765" lon="10.5498779"><ele>14.799999999999999</ele><time>2026-04-04T15:20:48.704Z</time></trkpt><trkpt lat="43.1760467" lon="10.5498795"><ele>15.200000000000001</ele><time>2026-04-04T15:20:49.7Z</time></trkpt><trkpt lat="43.1761703" lon="10.5498993"><ele>15.600000000000001</ele><time>2026-04-04T15:20:51.717Z</time></trkpt><trkpt lat="43.1762817" lon="10.5499045"><ele>16.0</ele><time>2026-04-04T15:20:53.708Z</time></trkpt><trkpt lat="43.176377" lon="10.5499134"><ele>16.0</ele><time>2026-04-04T15:20:55.707Z</time></trkpt><trkpt lat="43.176483" lon="10.5499437"><ele>16.0</ele><time>2026-04-04T15:20:57.707Z</time></trkpt><trkpt lat="43.1766031" lon="10.5499476"><ele>16.0</ele><time>2026-04-04T15:20:59.706Z</time></trkpt><trkpt lat="43.1767178" lon="10.5499493"><ele>16.0</ele><time>2026-04-04T15:21:01.703Z</time></trkpt><trkpt lat="43.1767801" lon="10.5499729"><ele>16.0</ele><time>2026-04-04T15:21:02.703Z</time></trkpt><trkpt lat="43.1768946" lon="10.5500156"><ele>16.2</ele><time>2026-04-04T15:21:04.709Z</time></trkpt><trkpt lat="43.1770135" lon="10.5500298"><ele>16.400000000000002</ele><time>2026-04-04T15:21:06.712Z</time></trkpt><trkpt lat="43.1771207" lon="10.5500529"><ele>16.6</ele><time>2026-04-04T15:21:08.706Z</time></trkpt><trkpt lat="43.1772291" lon="10.5500612"><ele>16.8</ele><time>2026-04-04T15:21:10.707Z</time></trkpt><trkpt lat="43.1773215" lon="10.5500588"><ele>17.0</ele><time>2026-04-04T15:21:12.701Z</time></trkpt><trkpt lat="43.177437" lon="10.5500671"><ele>17.166666666666668</ele><time>2026-04-04T15:21:14.703Z</time></trkpt><trkpt lat="43.1775538" lon="10.5500858"><ele>17.333333333333336</ele><time>2026-04-04T15:21:16.698Z</time></trkpt><trkpt lat="43.1776218" lon="10.5500954"><ele>17.5</ele><time>2026-04-04T15:21:17.705Z</time></trkpt><trkpt lat="43.177691" lon="10.5501034"><ele>17.666666666666668</ele><time>2026-04-04T15:21:18.71Z</time></trkpt><trkpt lat="43.1777592" lon="10.550112"><ele>17.833333333333332</ele><time>2026-04-04T15:21:19.703Z</time></trkpt><trkpt lat="43.1778715" lon="10.5501198"><ele>18.0</ele><time>2026-04-04T15:21:21.707Z</time></trkpt><trkpt lat="43.1779797" lon="10.5501272"><ele>18.0</ele><time>2026-04-04T15:21:23.707Z</time></trkpt><trkpt lat="43.1780435" lon="10.5501431"><ele>18.0</ele><time>2026-04-04T15:21:24.712Z</time></trkpt><trkpt lat="43.1781103" lon="10.5501568"><ele>18.0</ele><time>2026-04-04T15:21:25.712Z</time></trkpt><trkpt lat="43.1782262" lon="10.5501752"><ele>18.0</ele><time>2026-04-04T15:21:27.709Z</time></trkpt><trkpt lat="43.1782973" lon="10.5501902"><ele>18.0</ele><time>2026-04-04T15:21:28.709Z</time></trkpt><trkpt lat="43.17836" lon="10.5502057"><ele>18.0</ele><time>2026-04-04T15:21:29.707Z</time></trkpt><trkpt lat="43.1784266" lon="10.5502198"><ele>17.666666666666668</ele><time>2026-04-04T15:21:30.712Z</time></trkpt><trkpt lat="43.178489" lon="10.5502334"><ele>17.333333333333332</ele><time>2026-04-04T15:21:31.707Z</time></trkpt><trkpt lat="43.1785929" lon="10.5502464"><ele>17.0</ele><time>2026-04-04T15:21:33.713Z</time></trkpt><trkpt lat="43.1786902" lon="10.5502593"><ele>16.666666666666664</ele><time>2026-04-04T15:21:35.7Z</time></trkpt><trkpt lat="43.1787767" lon="10.5502652"><ele>16.333333333333332</ele><time>2026-04-04T15:21:37.701Z</time></trkpt><trkpt lat="43.178861" lon="10.550234"><ele>16.0</ele><time>2026-04-04T15:21:40.706Z</time></trkpt><trkpt lat="43.1789285" lon="10.5502182"><ele>15.999999999999998</ele><time>2026-04-04T15:21:42.707Z</time></trkpt><trkpt lat="43.179" lon="10.5502227"><ele>16.0</ele><time>2026-04-04T15:21:44.705Z</time></trkpt><trkpt lat="43.179066" lon="10.5502075"><ele>16.0</ele><time>2026-04-04T15:21:46.705Z</time></trkpt><trkpt lat="43.1791516" lon="10.5502024"><ele>16.0</ele><time>2026-04-04T15:21:48.711Z</time></trkpt><trkpt lat="43.1792167" lon="10.5501975"><ele>15.999999999999998</ele><time>2026-04-04T15:21:49.706Z</time></trkpt><trkpt lat="43.179287" lon="10.5501941"><ele>16.0</ele><time>2026-04-04T15:21:50.706Z</time></trkpt><trkpt lat="43.179399" lon="10.5502221"><ele>16.2</ele><time>2026-04-04T15:21:52.7Z</time></trkpt><trkpt lat="43.1794826" lon="10.5502475"><ele>16.400000000000002</ele><time>2026-04-04T15:21:54.709Z</time></trkpt><trkpt lat="43.1795844" lon="10.5502705"><ele>16.6</ele><time>2026-04-04T15:21:56.713Z</time></trkpt><trkpt lat="43.179691" lon="10.5503005"><ele>16.8</ele><time>2026-04-04T15:21:58.715Z</time></trkpt><trkpt lat="43.1797761" lon="10.550333"><ele>17.0</ele><time>2026-04-04T15:22:00.711Z</time></trkpt><trkpt lat="43.1798649" lon="10.5503594"><ele>16.333333333333336</ele><time>2026-04-04T15:22:02.715Z</time></trkpt><trkpt lat="43.1799558" lon="10.5503703"><ele>15.666666666666668</ele><time>2026-04-04T15:22:04.715Z</time></trkpt><trkpt lat="43.1800309" lon="10.5503796"><ele>15.0</ele><time>2026-04-04T15:22:06.711Z</time></trkpt><trkpt lat="43.1801024" lon="10.5504011"><ele>14.333333333333332</ele><time>2026-04-04T15:22:08.713Z</time></trkpt><trkpt lat="43.1801563" lon="10.5504598"><ele>13.666666666666666</ele><time>2026-04-04T15:22:11.708Z</time></trkpt><trkpt lat="43.1801976" lon="10.5505675"><ele>13.0</ele><time>2026-04-04T15:22:13.706Z</time></trkpt><trkpt lat="43.180289" lon="10.5506525"><ele>12.600000000000001</ele><time>2026-04-04T15:22:15.712Z</time></trkpt><trkpt lat="43.1804011" lon="10.5506992"><ele>12.200000000000001</ele><time>2026-04-04T15:22:17.713Z</time></trkpt><trkpt lat="43.1805156" lon="10.5507141"><ele>11.8</ele><time>2026-04-04T15:22:19.718Z</time></trkpt><trkpt lat="43.180638" lon="10.5507027"><ele>11.4</ele><time>2026-04-04T15:22:21.716Z</time></trkpt><trkpt lat="43.1807034" lon="10.5506916"><ele>11.0</ele><time>2026-04-04T15:22:22.716Z</time></trkpt><trkpt lat="43.1808257" lon="10.5506708"><ele>10.0</ele><time>2026-04-04T15:22:24.736Z</time></trkpt><trkpt lat="43.1809509" lon="10.5506484"><ele>9.0</ele><time>2026-04-04T15:22:26.721Z</time></trkpt><trkpt lat="43.1810135" lon="10.5506372"><ele>8.0</ele><time>2026-04-04T15:22:27.718Z</time></trkpt><trkpt lat="43.1811345" lon="10.5506141"><ele>7.0</ele><time>2026-04-04T15:22:29.713Z</time></trkpt><trkpt lat="43.1811979" lon="10.550604"><ele>6.0</ele><time>2026-04-04T15:22:30.716Z</time></trkpt><trkpt lat="43.1813166" lon="10.550601"><ele>6.0</ele><time>2026-04-04T15:22:32.719Z</time></trkpt><trkpt lat="43.1814301" lon="10.5506566"><ele>6.0</ele><time>2026-04-04T15:22:34.709Z</time></trkpt><trkpt lat="43.1814919" lon="10.5506924"><ele>6.0</ele><time>2026-04-04T15:22:35.713Z</time></trkpt><trkpt lat="43.1815538" lon="10.5507088"><ele>6.0</ele><time>2026-04-04T15:22:36.721Z</time></trkpt><trkpt lat="43.1816168" lon="10.5506972"><ele>6.0</ele><time>2026-04-04T15:22:37.721Z</time></trkpt><trkpt lat="43.1816773" lon="10.5506446"><ele>6.0</ele><time>2026-04-04T15:22:38.714Z</time></trkpt><trkpt lat="43.1817241" lon="10.5505814"><ele>5.8</ele><time>2026-04-04T15:22:39.713Z</time></trkpt><trkpt lat="43.1818043" lon="10.5504566"><ele>5.6</ele><time>2026-04-04T15:22:41.718Z</time></trkpt><trkpt lat="43.181906" lon="10.5503714"><ele>5.4</ele><time>2026-04-04T15:22:43.709Z</time></trkpt><trkpt lat="43.1819659" lon="10.5503444"><ele>5.2</ele><time>2026-04-04T15:22:44.719Z</time></trkpt><trkpt lat="43.1820923" lon="10.5503377"><ele>5.0</ele><time>2026-04-04T15:22:46.721Z</time></trkpt><trkpt lat="43.1821928" lon="10.5503261"><ele>5.0</ele><time>2026-04-04T15:22:48.724Z</time></trkpt><trkpt lat="43.1822921" lon="10.5502608"><ele>5.0</ele><time>2026-04-04T15:22:50.722Z</time></trkpt><trkpt lat="43.1823855" lon="10.5501812"><ele>5.0</ele><time>2026-04-04T15:22:52.725Z</time></trkpt><trkpt lat="43.1824792" lon="10.5501357"><ele>5.0</ele><time>2026-04-04T15:22:54.71Z</time></trkpt><trkpt lat="43.1825789" lon="10.5501515"><ele>5.0</ele><time>2026-04-04T15:22:56.715Z</time></trkpt><trkpt lat="43.182674" lon="10.5501117"><ele>4.4</ele><time>2026-04-04T15:22:58.717Z</time></trkpt><trkpt lat="43.1827602" lon="10.5500371"><ele>3.8</ele><time>2026-04-04T15:23:00.71Z</time></trkpt><trkpt lat="43.182858" lon="10.5499796"><ele>3.2</ele><time>2026-04-04T15:23:02.709Z</time></trkpt><trkpt lat="43.1829566" lon="10.5499356"><ele>2.6</ele><time>2026-04-04T15:23:04.708Z</time></trkpt><trkpt lat="43.1830261" lon="10.5498796"><ele>2.0</ele><time>2026-04-04T15:23:06.705Z</time></trkpt><trkpt lat="43.1830599" lon="10.549794"><ele>2.0</ele><time>2026-04-04T15:23:08.704Z</time></trkpt><trkpt lat="43.1830741" lon="10.5496935"><ele>2.0</ele><time>2026-04-04T15:23:10.708Z</time></trkpt><trkpt lat="43.183154" lon="10.5496217"><ele>2.0</ele><time>2026-04-04T15:23:12.707Z</time></trkpt><trkpt lat="43.1832509" lon="10.5495571"><ele>2.0</ele><time>2026-04-04T15:23:14.709Z</time></trkpt><trkpt lat="43.1833536" lon="10.5494963"><ele>2.0</ele><time>2026-04-04T15:23:16.705Z</time></trkpt><trkpt lat="43.1834585" lon="10.5494261"><ele>2.0</ele><time>2026-04-04T15:23:18.702Z</time></trkpt><trkpt lat="43.1835683" lon="10.5493586"><ele>2.0</ele><time>2026-04-04T15:23:20.708Z</time></trkpt><trkpt lat="43.1836722" lon="10.5492882"><ele>2.0</ele><time>2026-04-04T15:23:22.708Z</time></trkpt><trkpt lat="43.1837822" lon="10.5492073"><ele>2.0</ele><time>2026-04-04T15:23:24.714Z</time></trkpt><trkpt lat="43.1838879" lon="10.5491305"><ele>2.0</ele><time>2026-04-04T15:23:26.723Z</time></trkpt><trkpt lat="43.1839933" lon="10.5490589"><ele>2.0</ele><time>2026-04-04T15:23:28.711Z</time></trkpt><trkpt lat="43.184099" lon="10.548981"><ele>2.0</ele><time>2026-04-04T15:23:30.713Z</time></trkpt><trkpt lat="43.1842072" lon="10.548902"><ele>2.0</ele><time>2026-04-04T15:23:32.713Z</time></trkpt><trkpt lat="43.1843169" lon="10.5488217"><ele>1.5</ele><time>2026-04-04T15:23:34.713Z</time></trkpt><trkpt lat="43.1844261" lon="10.5487409"><ele>1.0</ele><time>2026-04-04T15:23:36.709Z</time></trkpt><trkpt lat="43.1845314" lon="10.5486704"><ele>0.5</ele><time>2026-04-04T15:23:38.709Z</time></trkpt><trkpt lat="43.1846336" lon="10.5486061"><ele>0.0</ele><time>2026-04-04T15:23:40.71Z</time></trkpt><trkpt lat="43.184725" lon="10.5485458"><ele>0.0</ele><time>2026-04-04T15:23:42.705Z</time></trkpt><trkpt lat="43.1848054" lon="10.5484979"><ele>0.0</ele><time>2026-04-04T15:23:44.705Z</time></trkpt><trkpt lat="43.1848966" lon="10.548435"><ele>0.0</ele><time>2026-04-04T15:23:46.709Z</time></trkpt><trkpt lat="43.1849955" lon="10.5483608"><ele>0.0</ele><time>2026-04-04T15:23:48.709Z</time></trkpt><trkpt lat="43.1850983" lon="10.5482862"><ele>0.0</ele><time>2026-04-04T15:23:50.71Z</time></trkpt><trkpt lat="43.1851966" lon="10.5482188"><ele>0.0</ele><time>2026-04-04T15:23:52.712Z</time></trkpt><trkpt lat="43.1852909" lon="10.5481415"><ele>0.0</ele><time>2026-04-04T15:23:54.713Z</time></trkpt><trkpt lat="43.1853735" lon="10.5480893"><ele>0.0</ele><time>2026-04-04T15:23:56.713Z</time></trkpt><trkpt lat="43.1854395" lon="10.5480242"><ele>0.0</ele><time>2026-04-04T15:23:58.716Z</time></trkpt><trkpt lat="43.185499" lon="10.5479512"><ele>0.0</ele><time>2026-04-04T15:24:00.71Z</time></trkpt><trkpt lat="43.1855769" lon="10.5478958"><ele>0.0</ele><time>2026-04-04T15:24:02.71Z</time></trkpt><trkpt lat="43.1856695" lon="10.547831"><ele>0.0</ele><time>2026-04-04T15:24:04.715Z</time></trkpt><trkpt lat="43.1857662" lon="10.5477662"><ele>0.0</ele><time>2026-04-04T15:24:06.71Z</time></trkpt><trkpt lat="43.1858606" lon="10.5476957"><ele>0.0</ele><time>2026-04-04T15:24:08.716Z</time></trkpt><trkpt lat="43.1859482" lon="10.5476383"><ele>0.0</ele><time>2026-04-04T15:24:10.709Z</time></trkpt><trkpt lat="43.1860239" lon="10.5475908"><ele>0.0</ele><time>2026-04-04T15:24:12.71Z</time></trkpt><trkpt lat="43.1860841" lon="10.5475529"><ele>0.0</ele><time>2026-04-04T15:24:14.71Z</time></trkpt><trkpt lat="43.1861672" lon="10.5475666"><ele>0.0</ele><time>2026-04-04T15:24:17.709Z</time></trkpt><trkpt lat="43.1862356" lon="10.5475835"><ele>0.0</ele><time>2026-04-04T15:24:20.697Z</time></trkpt><trkpt lat="43.1861984" lon="10.5474784"><ele>0.0</ele><time>2026-04-04T15:24:23.704Z</time></trkpt><trkpt lat="43.1861195" lon="10.5473679"><ele>0.0</ele><time>2026-04-04T15:24:25.713Z</time></trkpt><trkpt lat="43.1860438" lon="10.5472389"><ele>0.0</ele><time>2026-04-04T15:24:27.71Z</time></trkpt><trkpt lat="43.1860084" lon="10.5471634"><ele>0.0</ele><time>2026-04-04T15:24:28.722Z</time></trkpt><trkpt lat="43.1859628" lon="10.5470908"><ele>0.0</ele><time>2026-04-04T15:24:29.708Z</time></trkpt><trkpt lat="43.1859192" lon="10.5470228"><ele>0.0</ele><time>2026-04-04T15:24:30.712Z</time></trkpt><trkpt lat="43.1858768" lon="10.5469566"><ele>0.0</ele><time>2026-04-04T15:24:31.713Z</time></trkpt><trkpt lat="43.185788" lon="10.5468365"><ele>0.0</ele><time>2026-04-04T15:24:33.716Z</time></trkpt><trkpt lat="43.1857076" lon="10.546717"><ele>0.0</ele><time>2026-04-04T15:24:35.718Z</time></trkpt><trkpt lat="43.1856223" lon="10.546594"><ele>0.0</ele><time>2026-04-04T15:24:37.717Z</time></trkpt><trkpt lat="43.1855328" lon="10.5464833"><ele>0.0</ele><time>2026-04-04T15:24:39.717Z</time></trkpt><trkpt lat="43.1854506" lon="10.546368"><ele>0.0</ele><time>2026-04-04T15:24:41.711Z</time></trkpt><trkpt lat="43.1853704" lon="10.5462504"><ele>0.0</ele><time>2026-04-04T15:24:43.709Z</time></trkpt><trkpt lat="43.18529" lon="10.546139"><ele>0.0</ele><time>2026-04-04T15:24:45.708Z</time></trkpt><trkpt lat="43.1852166" lon="10.5460132"><ele>0.0</ele><time>2026-04-04T15:24:47.704Z</time></trkpt><trkpt lat="43.1851339" lon="10.5458813"><ele>0.0</ele><time>2026-04-04T15:24:49.71Z</time></trkpt><trkpt lat="43.185039" lon="10.5457713"><ele>0.0</ele><time>2026-04-04T15:24:51.705Z</time></trkpt><trkpt lat="43.1850119" lon="10.5456191"><ele>0.0</ele><time>2026-04-04T15:24:53.711Z</time></trkpt><trkpt lat="43.1850396" lon="10.5455315"><ele>0.0</ele><time>2026-04-04T15:24:54.711Z</time></trkpt><trkpt lat="43.1850947" lon="10.5454676"><ele>0.0</ele><time>2026-04-04T15:24:55.706Z</time></trkpt><trkpt lat="43.1851567" lon="10.5454274"><ele>0.0</ele><time>2026-04-04T15:24:56.713Z</time></trkpt><trkpt lat="43.185216" lon="10.5453932"><ele>0.0</ele><time>2026-04-04T15:24:57.71Z</time></trkpt><trkpt lat="43.1853295" lon="10.5453269"><ele>0.5</ele><time>2026-04-04T15:24:59.726Z</time></trkpt><trkpt lat="43.1854331" lon="10.5452591"><ele>1.0</ele><time>2026-04-04T15:25:01.711Z</time></trkpt><trkpt lat="43.1855354" lon="10.5451912"><ele>1.5</ele><time>2026-04-04T15:25:03.711Z</time></trkpt><trkpt lat="43.1856018" lon="10.5451655"><ele>2.0</ele><time>2026-04-04T15:25:04.713Z</time></trkpt><trkpt lat="43.1856612" lon="10.5451338"><ele>2.5</ele><time>2026-04-04T15:25:05.712Z</time></trkpt><trkpt lat="43.1857205" lon="10.5450951"><ele>3.0</ele><time>2026-04-04T15:25:06.714Z</time></trkpt><trkpt lat="43.1857821" lon="10.5450641"><ele>2.9999999999999996</ele><time>2026-04-04T15:25:07.705Z</time></trkpt><trkpt lat="43.185843" lon="10.5450308"><ele>3.0</ele><time>2026-04-04T15:25:08.711Z</time></trkpt><trkpt lat="43.1859057" lon="10.5449922"><ele>3.0</ele><time>2026-04-04T15:25:09.713Z</time></trkpt><trkpt lat="43.185967" lon="10.5449472"><ele>3.0</ele><time>2026-04-04T15:25:10.719Z</time></trkpt><trkpt lat="43.186023" lon="10.5449035"><ele>3.0</ele><time>2026-04-04T15:25:11.719Z</time></trkpt><trkpt lat="43.186078" lon="10.5448573"><ele>2.9999999999999996</ele><time>2026-04-04T15:25:12.709Z</time></trkpt><trkpt lat="43.1861833" lon="10.5447892"><ele>3.0</ele><time>2026-04-04T15:25:14.72Z</time></trkpt><trkpt lat="43.1862893" lon="10.5447173"><ele>3.0</ele><time>2026-04-04T15:25:16.692Z</time></trkpt><trkpt lat="43.1863448" lon="10.5446744"><ele>3.0</ele><time>2026-04-04T15:25:17.716Z</time></trkpt><trkpt lat="43.1864371" lon="10.5446241"><ele>3.0</ele><time>2026-04-04T15:25:19.713Z</time></trkpt><trkpt lat="43.186527" lon="10.5445572"><ele>3.0</ele><time>2026-04-04T15:25:21.713Z</time></trkpt><trkpt lat="43.1866147" lon="10.5444782"><ele>3.0</ele><time>2026-04-04T15:25:23.712Z</time></trkpt><trkpt lat="43.1867073" lon="10.5443946"><ele>2.8</ele><time>2026-04-04T15:25:25.712Z</time></trkpt><trkpt lat="43.1868072" lon="10.5443221"><ele>2.5999999999999996</ele><time>2026-04-04T15:25:27.714Z</time></trkpt><trkpt lat="43.1869109" lon="10.5442685"><ele>2.4000000000000004</ele><time>2026-04-04T15:25:29.711Z</time></trkpt><trkpt lat="43.1870123" lon="10.5442029"><ele>2.2</ele><time>2026-04-04T15:25:31.715Z</time></trkpt><trkpt lat="43.1870972" lon="10.544139"><ele>2.0</ele><time>2026-04-04T15:25:33.721Z</time></trkpt><trkpt lat="43.1871586" lon="10.5440471"><ele>2.0</ele><time>2026-04-04T15:25:35.715Z</time></trkpt><trkpt lat="43.1871671" lon="10.5439002"><ele>2.0</ele><time>2026-04-04T15:25:37.714Z</time></trkpt><trkpt lat="43.1871287" lon="10.5437501"><ele>2.0</ele><time>2026-04-04T15:25:39.714Z</time></trkpt><trkpt lat="43.1870731" lon="10.5436185"><ele>2.0</ele><time>2026-04-04T15:25:41.711Z</time></trkpt><trkpt lat="43.1870245" lon="10.543474"><ele>2.75</ele><time>2026-04-04T15:25:43.704Z</time></trkpt><trkpt lat="43.1869788" lon="10.5433205"><ele>3.5</ele><time>2026-04-04T15:25:45.707Z</time></trkpt><trkpt lat="43.1869581" lon="10.5431549"><ele>4.25</ele><time>2026-04-04T15:25:47.704Z</time></trkpt><trkpt lat="43.1869558" lon="10.5430103"><ele>5.0</ele><time>2026-04-04T15:25:49.708Z</time></trkpt><trkpt lat="43.186942" lon="10.5428698"><ele>5.833333333333334</ele><time>2026-04-04T15:25:51.707Z</time></trkpt><trkpt lat="43.1868939" lon="10.5427524"><ele>6.666666666666667</ele><time>2026-04-04T15:25:53.703Z</time></trkpt><trkpt lat="43.1868382" lon="10.5426586"><ele>7.5</ele><time>2026-04-04T15:25:55.708Z</time></trkpt><trkpt lat="43.1867976" lon="10.5425641"><ele>8.333333333333334</ele><time>2026-04-04T15:25:57.701Z</time></trkpt><trkpt lat="43.1867741" lon="10.5424547"><ele>9.166666666666668</ele><time>2026-04-04T15:25:59.706Z</time></trkpt><trkpt lat="43.1867794" lon="10.5423541"><ele>10.0</ele><time>2026-04-04T15:26:01.707Z</time></trkpt><trkpt lat="43.1868472" lon="10.5422571"><ele>10.0</ele><time>2026-04-04T15:26:03.705Z</time></trkpt><trkpt lat="43.1869464" lon="10.5421805"><ele>10.0</ele><time>2026-04-04T15:26:05.707Z</time></trkpt><trkpt lat="43.1870314" lon="10.5420988"><ele>10.0</ele><time>2026-04-04T15:26:07.711Z</time></trkpt><trkpt lat="43.1870947" lon="10.542033"><ele>10.0</ele><time>2026-04-04T15:26:09.707Z</time></trkpt><trkpt lat="43.1871488" lon="10.5419708"><ele>10.0</ele><time>2026-04-04T15:26:12.705Z</time></trkpt><trkpt lat="43.1871968" lon="10.5419076"><ele>10.0</ele><time>2026-04-04T15:26:17.713Z</time></trkpt><trkpt lat="43.1872291" lon="10.5418277"><ele>10.666666666666668</ele><time>2026-04-04T15:26:21.716Z</time></trkpt><trkpt lat="43.1872958" lon="10.5417933"><ele>11.333333333333334</ele><time>2026-04-04T15:26:24.711Z</time></trkpt><trkpt lat="43.1873632" lon="10.5417436"><ele>12.0</ele><time>2026-04-04T15:26:27.709Z</time></trkpt><trkpt lat="43.1874825" lon="10.5417203"><ele>12.666666666666668</ele><time>2026-04-04T15:26:29.713Z</time></trkpt><trkpt lat="43.1875529" lon="10.541715"><ele>13.333333333333334</ele><time>2026-04-04T15:26:30.707Z</time></trkpt><trkpt lat="43.1876178" lon="10.541693"><ele>14.0</ele><time>2026-04-04T15:26:31.717Z</time></trkpt><trkpt lat="43.1877336" lon="10.5416543"><ele>14.0</ele><time>2026-04-04T15:26:33.711Z</time></trkpt><trkpt lat="43.1878345" lon="10.5416235"><ele>13.999999999999998</ele><time>2026-04-04T15:26:35.719Z</time></trkpt><trkpt lat="43.1879367" lon="10.5415812"><ele>13.999999999999998</ele><time>2026-04-04T15:26:37.713Z</time></trkpt><trkpt lat="43.1880257" lon="10.5415193"><ele>14.0</ele><time>2026-04-04T15:26:39.711Z</time></trkpt><trkpt lat="43.1881044" lon="10.5414542"><ele>14.0</ele><time>2026-04-04T15:26:41.713Z</time></trkpt><trkpt lat="43.1881645" lon="10.5414066"><ele>13.666666666666668</ele><time>2026-04-04T15:26:43.704Z</time></trkpt><trkpt lat="43.1882184" lon="10.5413045"><ele>13.333333333333334</ele><time>2026-04-04T15:26:46.705Z</time></trkpt><trkpt lat="43.1882651" lon="10.5412282"><ele>13.0</ele><time>2026-04-04T15:26:48.711Z</time></trkpt><trkpt lat="43.1883209" lon="10.5411648"><ele>12.666666666666668</ele><time>2026-04-04T15:26:50.712Z</time></trkpt><trkpt lat="43.1883595" lon="10.5410758"><ele>12.333333333333334</ele><time>2026-04-04T15:26:52.705Z</time></trkpt><trkpt lat="43.1883751" lon="10.5409786"><ele>12.0</ele><time>2026-04-04T15:26:54.698Z</time></trkpt><trkpt lat="43.1883594" lon="10.5408788"><ele>12.0</ele><time>2026-04-04T15:26:56.707Z</time></trkpt><trkpt lat="43.1883317" lon="10.5407794"><ele>12.0</ele><time>2026-04-04T15:26:58.698Z</time></trkpt><trkpt lat="43.1882771" lon="10.5406352"><ele>12.0</ele><time>2026-04-04T15:27:00.707Z</time></trkpt><trkpt lat="43.1882328" lon="10.5405522"><ele>12.0</ele><time>2026-04-04T15:27:02.721Z</time></trkpt><trkpt lat="43.1882461" lon="10.5404649"><ele>12.0</ele><time>2026-04-04T15:27:05.711Z</time></trkpt><trkpt lat="43.1883028" lon="10.5403747"><ele>12.0</ele><time>2026-04-04T15:29:36.686Z</time></trkpt><trkpt lat="43.1883529" lon="10.5403216"><ele>10.0</ele><time>2026-04-04T15:29:45.68Z</time></trkpt></trkseg></trk></gpx>